# Wetter Temperatur Luftdruck Luftfeuchtigkeit Sichtweite Windgeschwindigkeit Windrichtung Zeit
1 Clouds 7 1034 94 10000 2.59 273 14:59 23.01.2022
2 Clouds 7 1034 94 10000 2.96 272 14:21 23.01.2022
3 Clouds 7 1035 93 10000 3.09 270 12:54 23.01.2022
4 Clouds 7 1035 93 10000 3.6 280 12:22 23.01.2022
5 Clouds 7 1035 94 10000 4.12 270 11:52 23.01.2022
6 Clouds 6 1035 96 10000 4.12 280 11:18 23.01.2022
7 Clouds 6 1035 96 9000 3.6 290 10:27 23.01.2022
8 Clouds 6 1034 96 10000 3.09 280 09:51 23.01.2022
9 Clouds 5 1034 98 6000 3.09 280 08:53 23.01.2022
10 Clouds 5 1033 96 10000 3.09 260 05:56 23.01.2022
11 Clouds 5 1033 96 6000 2.06 270 01:52 23.01.2022
12 Clouds 5 1033 98 10000 3.09 270 01:26 23.01.2022
13 Clouds 5 1032 96 10000 2.57 290 00:23 23.01.2022
14 Clouds 5 1032 98 10000 3.09 280 23:56 22.01.2022
15 Clouds 5 1032 96 10000 3.09 290 22:46 22.01.2022
16 Drizzle 5 1032 94 10000 3.6 290 21:36 22.01.2022
17 Clouds 6 1032 94 10000 3.6 280 20:21 22.01.2022
18 Clouds 6 1031 95 10000 2.57 300 18:56 22.01.2022
19 Clouds 6 1031 96 10000 3.09 290 18:24 22.01.2022
20 Clouds 6 1031 95 10000 3.6 290 17:40 22.01.2022
21 Clouds 6 1031 96 10000 3.98 295 16:56 22.01.2022
22 Clouds 7 1030 95 10000 5.14 310 15:53 22.01.2022
23 Clouds 6 1030 94 10000 5.14 310 15:26 22.01.2022
24 Drizzle 7 1030 94 9000 6.69 310 13:51 22.01.2022
25 Clouds 7 1030 96 10000 5.14 300 12:53 22.01.2022
26 Drizzle 7 1030 96 7000 6.69 310 12:29 22.01.2022
27 Drizzle 7 1030 96 5000 5.66 300 11:44 22.01.2022
28 Drizzle 6 1030 98 2400 3.6 290 10:29 22.01.2022
29 Drizzle 6 1029 98 2500 3.6 300 09:59 22.01.2022
30 Clouds 6 1029 96 10000 4.63 300 08:53 22.01.2022
31 Drizzle 6 1029 98 7000 4.12 300 07:56 22.01.2022
32 Drizzle 7 1028 96 1900 5.66 310 04:53 22.01.2022
33 Drizzle 7 1027 96 6000 6.17 310 01:49 22.01.2022
34 Drizzle 6 1027 98 4000 6.69 290 23:46 21.01.2022
35 Drizzle 6 1027 98 2800 7.72 290 22:41 21.01.2022
36 Drizzle 6 1027 98 2400 7.2 300 20:32 21.01.2022
37 Clouds 6 1027 96 2000 6.17 280 18:41 21.01.2022
38 Clouds 5 1027 95 3800 4.12 240 17:45 21.01.2022
39 Clouds 5 1028 93 10000 5.66 280 15:47 21.01.2022
40 Clouds 5 1028 93 10000 4.63 280 14:37 21.01.2022
41 Clouds 4 1029 95 10000 5.52 308 12:40 21.01.2022
42 Clouds 3 1029 96 10000 5.66 290 11:29 21.01.2022
43 Clouds 2 1029 95 10000 4.63 290 10:22 21.01.2022
44 Clouds 1 1029 95 10000 4.63 280 08:50 21.01.2022
45 Clouds 1 1028 94 6000 3.6 280 07:26 21.01.2022
46 Clouds 0 1027 90 10000 3.33 294 00:59 21.01.2022
47 Clear -1 1027 83 10000 3.6 280 22:46 20.01.2022
48 Clear 0 1026 87 10000 2.57 300 21:48 20.01.2022
49 Clouds 1 1025 81 10000 4.63 320 20:57 20.01.2022
50 Clouds 2 1025 81 10000 4.63 330 19:40 20.01.2022
51 Clouds 2 1024 78 10000 6.69 330 19:18 20.01.2022
52 Clouds 2 1022 85 10000 8.23 300 17:32 20.01.2022
53 Snow 2 1022 87 10000 9.26 310 15:46 20.01.2022
54 Clouds 2 1021 88 10000 8.75 300 15:26 20.01.2022
55 Clouds 3 1021 83 10000 9.26 310 13:54 20.01.2022
56 Clouds 3 1021 83 10000 10.29 320 12:44 20.01.2022
57 Clouds 3 1021 86 10000 5.66 300 12:26 20.01.2022
58 Snow 1 1021 91 10000 8.23 300 10:58 20.01.2022
59 Clouds 1 1020 86 10000 7.72 290 09:43 20.01.2022
60 Clouds 1 1020 85 10000 6.69 300 08:36 20.01.2022
61 Clouds 2 1018 89 10000 8.73 314 06:19 20.01.2022
62 Clear 4 1017 81 10000 7.2 300 23:56 19.01.2022
63 Clouds 4 1016 87 10000 7.72 290 22:38 19.01.2022
64 Rain 5 1015 94 10000 8.75 270 21:33 19.01.2022
65 Drizzle 5 1015 98 6000 7.2 260 20:55 19.01.2022
66 Mist 5 1014 96 4600 7.2 260 20:30 19.01.2022
67 Drizzle 4 1015 97 2500 8.23 240 18:49 19.01.2022
68 Mist 4 1015 95 4200 7.72 240 17:51 19.01.2022
69 Drizzle 4 1016 95 3400 7.72 240 17:18 19.01.2022
70 Drizzle 4 1016 95 3400 7.72 240 17:18 19.01.2022
71 Drizzle 4 1016 95 3400 7.72 240 17:18 19.01.2022
72 Clouds 4 1017 91 7000 6.17 220 15:31 19.01.2022
73 Clouds 4 1020 90 10000 5.14 220 13:25 19.01.2022
74 Clouds 3 1022 93 9000 5.14 240 11:58 19.01.2022
75 Clouds 3 1022 93 9000 5.14 240 11:38 19.01.2022
76 Mist 3 1024 94 4200 2.06 180 09:35 19.01.2022
77 Mist 2 1025 96 3500 1.54 190 08:33 19.01.2022
78 Clouds 3 1027 95 10000 3.09 190 05:20 19.01.2022
79 Clouds 5 1033 91 10000 5.14 230 00:21 19.01.2022
80 Clouds 5 1034 90 10000 4.12 240 23:18 18.01.2022
81 Clouds 5 1034 90 10000 4.12 240 23:18 18.01.2022
82 Clouds 5 1035 91 10000 3.09 230 21:45 18.01.2022
83 Clouds 5 1035 89 10000 2.57 220 20:34 18.01.2022
84 Clouds 5 1035 92 10000 2.57 230 19:49 18.01.2022
85 Clouds 6 1036 90 10000 2.57 220 19:31 18.01.2022
86 Clouds 6 1036 90 10000 3.09 240 18:19 18.01.2022
87 Clouds 6 1036 90 10000 3.6 270 17:32 18.01.2022
88 Clouds 6 1036 89 10000 5.14 270 16:22 18.01.2022
89 Clouds 6 1036 89 10000 5.14 260 15:25 18.01.2022
90 Clouds 7 1037 88 10000 4.63 260 14:22 18.01.2022
91 Clouds 7 1037 91 10000 3.6 250 11:37 18.01.2022
92 Clouds 7 1037 92 10000 2.57 260 10:30 18.01.2022
93 Clouds 6 1036 95 10000 3.09 280 08:29 18.01.2022
94 Clouds 6 1036 95 10000 3.6 280 07:44 18.01.2022
95 Clouds 6 1034 89 10000 4.12 320 00:42 18.01.2022
96 Clouds 6 1034 91 10000 3.6 300 22:46 17.01.2022
97 Clouds 5 1033 90 10000 4.12 300 21:44 17.01.2022
98 Clouds 5 1033 90 10000 3.6 290 21:24 17.01.2022
99 Clouds 6 1031 86 10000 6.17 330 18:51 17.01.2022
100 Clouds 6 1030 84 10000 5.14 320 18:26 17.01.2022
101 Clouds 6 1030 82 10000 7.2 330 17:22 17.01.2022
102 Clouds 7 1028 83 10000 11.32 330 15:58 17.01.2022
103 Clouds 8 1027 83 10000 9.26 320 14:58 17.01.2022
104 Clouds 8 1027 84 10000 9.26 330 14:32 17.01.2022
105 Clouds 8 1026 86 10000 11.32 320 13:18 17.01.2022
106 Clouds 8 1025 96 5000 8.75 300 12:22 17.01.2022
107 Clouds 7 1024 95 10000 10.29 290 10:53 17.01.2022
108 Drizzle 7 1024 93 10000 9.77 280 09:53 17.01.2022
109 Clouds 6 1024 95 10000 10.29 280 08:44 17.01.2022
110 Clouds 6 1023 88 10000 10.8 280 07:20 17.01.2022
111 Clouds 6 1024 87 10000 7.2 270 01:52 17.01.2022
112 Drizzle 6 1023 95 8000 6.17 300 23:44 16.01.2022
113 Clouds 6 1022 95 7000 6.69 270 21:21 16.01.2022
114 Clouds 6 1022 93 10000 6.69 260 20:28 16.01.2022
115 Clouds 6 1021 92 10000 7.2 260 18:46 16.01.2022
116 Clouds 6 1020 90 10000 6.69 250 17:50 16.01.2022
117 Clouds 6 1020 93 10000 6.69 250 16:54 16.01.2022
118 Drizzle 6 1020 93 9000 6.17 260 15:40 16.01.2022
119 Mist 5 1020 95 5000 6.17 250 14:29 16.01.2022
120 Mist 5 1020 96 5000 6.69 250 13:33 16.01.2022
121 Mist 4 1020 96 4500 5.66 240 12:21 16.01.2022
122 Mist 3 1020 96 2500 5.66 240 11:27 16.01.2022
123 Mist 3 1019 96 3000 5.14 230 10:27 16.01.2022
124 Mist 3 1019 96 3200 5.66 230 09:58 16.01.2022
125 Mist 3 1020 95 3200 5.14 230 09:37 16.01.2022
126 Mist 3 1020 95 3200 5.14 230 09:19 16.01.2022
127 Mist 2 1020 95 5000 6.17 250 06:35 16.01.2022
128 Mist 3 1023 95 5000 3.6 180 00:19 16.01.2022
129 Clouds 4 1023 94 7000 4.63 170 22:50 15.01.2022
130 Clouds 4 1025 94 10000 2.57 170 21:21 15.01.2022
131 Clouds 5 1025 92 10000 3.09 180 20:44 15.01.2022
132 Clouds 5 1025 92 10000 3.09 190 20:22 15.01.2022
133 Clouds 5 1025 92 10000 2.57 190 19:27 15.01.2022
134 Clouds 5 1026 91 10000 3.09 180 18:18 15.01.2022
135 Clouds 5 1026 91 10000 2.57 180 16:49 15.01.2022
136 Clouds 6 1027 89 10000 3.6 180 14:38 15.01.2022
137 Clouds 6 1029 92 10000 2.06 200 12:40 15.01.2022
138 Clouds 5 1029 96 8000 1.03 0 11:26 15.01.2022
139 Mist 4 1030 98 4800 1.03 0 09:46 15.01.2022
140 Fog 4 1030 98 400 1.54 220 04:46 15.01.2022
141 Clouds 6 1032 96 10000 2.06 290 23:21 14.01.2022
142 Clouds 6 1033 94 10000 3.09 340 21:18 14.01.2022
143 Clouds 6 1032 96 10000 2.57 310 20:25 14.01.2022
144 Clouds 7 1032 96 10000 2.57 300 19:50 14.01.2022
145 Drizzle 7 1032 98 5000 3.6 300 18:41 14.01.2022
146 Drizzle 7 1032 95 3500 5.14 280 17:39 14.01.2022
147 Drizzle 7 1032 95 2500 5.14 270 16:43 14.01.2022
148 Drizzle 7 1032 95 2000 4.63 280 15:32 14.01.2022
149 Mist 7 1032 95 5000 5.66 270 14:28 14.01.2022
150 Clouds 7 1033 93 8000 5.14 270 12:58 14.01.2022
151 Clouds 7 1033 91 9000 5.14 270 11:53 14.01.2022
152 Clouds 6 1033 91 9000 4.63 280 10:39 14.01.2022
153 Clouds 6 1032 92 10000 5.66 280 08:53 14.01.2022
154 Clouds 6 1032 92 10000 5.66 270 07:32 14.01.2022
155 Clouds 6 1034 89 10000 6.17 290 02:27 14.01.2022
156 Clouds 6 1034 92 10000 5.66 280 00:22 14.01.2022
157 Clouds 6 1035 94 9000 4.12 260 21:47 13.01.2022
158 Clouds 6 1035 95 8000 4.63 250 21:29 13.01.2022
159 Clouds 5 1035 96 6000 4.63 230 19:58 13.01.2022
160 Clouds 5 1036 96 6000 4.12 240 19:29 13.01.2022
161 Mist 5 1036 96 5000 4.63 240 18:40 13.01.2022
162 Mist 5 1036 96 3500 4.63 240 16:57 13.01.2022
163 Clouds 5 1036 96 6000 5.66 250 15:45 13.01.2022
164 Clouds 5 1036 96 7000 5.66 250 15:26 13.01.2022
165 Mist 5 1037 96 4000 5.66 240 13:29 13.01.2022
166 Mist 5 1037 98 3500 6.69 260 11:38 13.01.2022
167 Mist 4 1037 98 3000 5.66 250 09:24 13.01.2022
168 Mist 4 1037 98 2800 6.69 260 08:52 13.01.2022
169 Mist 4 1036 98 1500 6.17 250 08:18 13.01.2022
170 Mist 4 1037 98 1200 5.66 250 07:20 13.01.2022
171 Mist 4 1037 98 1600 5.14 250 05:21 13.01.2022
172 Mist 4 1037 98 1500 5.14 250 04:55 13.01.2022
173 Mist 4 1038 98 1500 4.12 240 01:41 13.01.2022
174 Mist 4 1038 96 5000 5.14 250 23:54 12.01.2022
175 Mist 4 1038 96 5000 5.14 250 23:34 12.01.2022
176 Clouds 4 1038 96 8000 5.14 260 22:49 12.01.2022
177 Clouds 4 1038 96 9000 3.6 250 21:54 12.01.2022
178 Clouds 4 1038 96 9000 3.09 220 21:21 12.01.2022
179 Clouds 4 1038 94 9000 3.6 240 20:53 12.01.2022
180 Clouds 4 1038 96 10000 5.14 270 19:28 12.01.2022
181 Clouds 4 1037 96 10000 5.66 250 18:28 12.01.2022
182 Clouds 4 1038 94 10000 4.12 270 16:59 12.01.2022
183 Clouds 5 1037 96 10000 4.12 250 15:58 12.01.2022
184 Clouds 5 1037 94 10000 4.63 270 14:47 12.01.2022
185 Clouds 5 1038 96 6000 1.54 250 12:58 12.01.2022
186 Clouds 5 1038 96 6000 1.54 250 12:58 12.01.2022
187 Mist 3 1037 98 3500 2.57 260 09:59 12.01.2022
188 Mist 3 1036 98 3000 2.57 270 08:36 12.01.2022
189 Mist 3 1035 98 3000 2.57 240 07:34 12.01.2022
190 Mist 3 1035 98 2600 2.57 240 06:49 12.01.2022
191 Clear 3 1034 89 10000 1.54 210 23:31 11.01.2022
192 Clear 3 1034 89 10000 2.06 210 22:49 11.01.2022
193 Clear 2 1034 91 10000 2.06 180 22:21 11.01.2022
194 Clear 2 1034 91 10000 1.54 180 20:51 11.01.2022
195 Clear 2 1033 91 10000 2.57 160 19:48 11.01.2022
196 Clear 2 1033 92 10000 2.06 150 18:31 11.01.2022
197 Clear 2 1033 94 10000 2.06 140 17:24 11.01.2022
198 Clear 2 1033 94 10000 2.57 150 16:37 11.01.2022
199 Clear 2 1033 95 10000 2.57 150 15:36 11.01.2022
200 Clear 2 1033 95 10000 2.57 150 14:42 11.01.2022
201 Clouds 2 1033 96 6000 4.12 140 13:55 11.01.2022
202 Clouds 2 1033 96 6000 4.12 140 13:34 11.01.2022
203 Clear 3 1033 96 10000 3.5 200 12:43 11.01.2022
204 Fog 0 1033 100 700 2.06 150 11:43 11.01.2022
205 Fog -1 1033 98 400 2.57 130 09:29 11.01.2022
206 Fog -1 1032 98 450 1.54 130 07:18 11.01.2022
207 Fog 0 1030 98 800 1.03 150 00:32 11.01.2022
208 Fog 0 1030 98 900 1.03 150 23:43 10.01.2022
209 Fog 1 1029 98 700 1.54 160 23:22 10.01.2022
210 Fog 1 1029 98 450 1.03 0 22:19 10.01.2022
211 Fog 1 1029 98 300 1.54 170 21:54 10.01.2022
212 Fog 2 1029 98 500 0.51 0 21:21 10.01.2022
213 Fog 2 1028 98 650 0.51 80 20:57 10.01.2022
214 Fog 2 1028 98 350 1.03 100 20:28 10.01.2022
215 Fog 2 1028 98 400 2.06 70 19:44 10.01.2022
216 Fog 2 1027 96 2000 1.03 120 19:21 10.01.2022
217 Clouds 3 1027 96 10000 1.03 70 18:50 10.01.2022
218 Clouds 3 1026 95 10000 1.03 280 17:56 10.01.2022
219 Clouds 4 1025 93 10000 1.54 280 16:42 10.01.2022
220 Clouds 5 1024 92 10000 2.06 270 15:49 10.01.2022
221 Clouds 5 1022 93 10000 1.54 310 14:34 10.01.2022
222 Clouds 4 1021 96 10000 2.57 280 12:22 10.01.2022
223 Clouds 3 1020 96 10000 2.06 260 11:25 10.01.2022
224 Clouds 1 1018 96 7000 2.57 230 09:53 10.01.2022
225 Clouds 1 1016 98 10000 2.06 260 08:22 10.01.2022
226 Clouds 2 1013 98 10000 2.57 260 05:50 10.01.2022
227 Clouds 3 1008 96 10000 2.57 270 01:33 10.01.2022
228 Clouds 3 1008 96 10000 2.57 260 00:33 10.01.2022
229 Clouds 3 1007 95 10000 2.57 260 23:43 09.01.2022
230 Clouds 3 1005 96 10000 3.09 250 22:42 09.01.2022
231 Clouds 3 1004 96 10000 3.6 250 21:47 09.01.2022
232 Clouds 3 1004 96 10000 3.09 240 21:24 09.01.2022
233 Clouds 3 1003 96 10000 3.09 240 20:55 09.01.2022
234 Clouds 3 1003 96 10000 3.09 240 20:37 09.01.2022
235 Clouds 4 1003 94 10000 4.12 250 20:18 09.01.2022
236 Clouds 4 1002 94 10000 4.12 260 19:37 09.01.2022
237 Clouds 4 1001 96 10000 4.12 250 19:18 09.01.2022
238 Clouds 4 1001 94 10000 4.63 250 18:37 09.01.2022
239 Clouds 4 1000 94 10000 4.63 250 17:48 09.01.2022
240 Clouds 5 999 94 10000 4.63 260 17:29 09.01.2022
241 Clouds 5 999 96 10000 4.63 260 16:40 09.01.2022
242 Clouds 5 998 94 10000 6.17 260 15:40 09.01.2022
243 Clouds 5 997 96 10000 6.69 260 14:58 09.01.2022
244 Clouds 5 996 96 10000 7.72 270 14:24 09.01.2022
245 Clouds 5 996 93 10000 7.72 260 13:48 09.01.2022
246 Clouds 5 994 94 10000 7.72 280 11:56 09.01.2022
247 Clouds 5 993 96 10000 7.2 280 11:26 09.01.2022
248 Rain 3 992 96 9000 2.57 240 09:55 09.01.2022
249 Rain 2 991 95 10000 3.09 200 08:59 09.01.2022
250 Rain 2 989 95 10000 3.6 170 06:57 09.01.2022
251 Clouds 3 990 88 10000 7.2 160 01:30 09.01.2022
252 Clouds 3 991 86 10000 7.2 160 00:38 09.01.2022
253 Clouds 3 992 86 10000 7.72 160 23:34 08.01.2022
254 Clouds 3 993 88 10000 7.2 160 22:48 08.01.2022
255 Clouds 2 996 91 10000 6.69 160 21:28 08.01.2022
256 Clouds 2 996 91 10000 7.2 160 20:44 08.01.2022
257 Clouds 2 996 91 10000 7.2 160 20:44 08.01.2022
258 Clouds 2 997 91 10000 7.72 160 20:22 08.01.2022
259 Clouds 3 999 85 10000 8.75 170 19:22 08.01.2022
260 Clouds 3 1002 88 10000 5.66 170 17:38 08.01.2022
261 Clouds 3 1003 88 10000 5.14 180 16:57 08.01.2022
262 Clouds 3 1005 88 10000 6.69 200 15:34 08.01.2022
263 Clouds 4 1005 88 10000 5.66 210 14:25 08.01.2022
264 Clear 3 1008 92 10000 5.66 230 11:43 08.01.2022
265 Clear 1 1008 94 10000 5.14 230 10:43 08.01.2022
266 Clear 1 1008 95 10000 4.63 220 10:23 08.01.2022
267 Clear 1 1008 95 10000 4.63 220 10:23 08.01.2022
268 Clouds 1 1008 95 10000 4.12 220 09:34 08.01.2022
269 Clouds 1 1008 95 10000 5.14 240 07:18 08.01.2022
270 Clouds 1 1008 95 10000 3.09 220 01:49 08.01.2022
271 Clouds 1 1008 94 10000 4.63 220 00:23 08.01.2022
272 Clouds 2 1008 92 10000 5.14 220 22:21 07.01.2022
273 Clouds 3 1007 94 10000 3.6 200 20:35 07.01.2022
274 Clouds 3 1007 95 10000 3.6 180 19:34 07.01.2022
275 Clouds 3 1007 94 10000 2.57 180 18:50 07.01.2022
276 Clouds 2 1007 94 10000 2.06 190 18:26 07.01.2022
277 Clouds 3 1008 92 10000 3.6 210 17:24 07.01.2022
278 Clouds 4 1008 90 10000 5.14 220 15:55 07.01.2022
279 Clouds 4 1008 93 10000 6.17 220 13:52 07.01.2022
280 Clouds 4 1008 93 10000 6.17 220 13:18 07.01.2022
281 Clouds 3 1008 96 10000 6.17 220 12:25 07.01.2022
282 Clouds 2 1009 95 10000 5.14 200 07:31 07.01.2022
283 Clear 2 1013 91 10000 5.14 180 02:54 07.01.2022
284 Clear 2 1014 91 10000 4.12 190 01:52 07.01.2022
285 Clear 2 1014 92 10000 4.12 190 01:27 07.01.2022
286 Clear 2 1015 91 10000 4.12 190 00:55 07.01.2022
287 Clear 2 1016 94 10000 4.12 200 22:46 06.01.2022
288 Clear 2 1016 91 10000 3.6 210 21:23 06.01.2022
289 Clear 2 1017 91 10000 3.09 210 20:20 06.01.2022
290 Clear 1 1017 90 10000 3.09 210 19:40 06.01.2022
291 Clouds 2 1017 91 10000 2.57 210 17:53 06.01.2022
292 Clear 2 1017 91 10000 2.57 230 17:32 06.01.2022
293 Clouds 3 1017 90 10000 2.57 220 16:40 06.01.2022
294 Clouds 4 1017 88 10000 3.09 240 15:45 06.01.2022
295 Clouds 4 1017 86 10000 4.63 250 15:24 06.01.2022
296 Clouds 4 1017 86 10000 3.6 260 14:21 06.01.2022
297 Clouds 4 1017 87 10000 3.09 250 13:47 06.01.2022
298 Clear 3 1017 90 10000 2.06 230 12:43 06.01.2022
299 Clear 2 1016 93 10000 1.03 0 11:41 06.01.2022
300 Clear 1 1016 93 10000 1.03 0 11:21 06.01.2022
301 Clouds 0 1015 96 10000 2.43 226 08:51 06.01.2022
302 Clouds 3 1008 94 8000 7.2 320 00:43 06.01.2022
303 Rain 4 1006 93 10000 7.2 280 23:36 05.01.2022
304 Rain 3 1006 93 10000 4.12 310 22:56 05.01.2022
305 Clouds 4 1005 92 10000 5.66 270 22:31 05.01.2022
306 Clouds 4 1005 90 9000 8.23 310 21:47 05.01.2022
307 Clouds 4 1004 89 10000 7.2 290 20:50 05.01.2022
308 Clouds 5 1004 88 10000 7.2 290 20:18 05.01.2022
309 Clouds 5 1002 91 10000 8.75 290 18:42 05.01.2022
310 Clouds 5 1000 91 10000 8.23 280 17:23 05.01.2022
311 Clouds 5 999 90 10000 8.23 290 16:38 05.01.2022
312 Clouds 6 997 87 10000 7.72 290 15:21 05.01.2022
313 Clouds 4 997 94 10000 8.23 260 13:51 05.01.2022
314 Clouds 4 996 95 10000 7.72 250 12:59 05.01.2022
315 Clouds 3 996 91 10000 9.26 240 10:32 05.01.2022
316 Clear 2 995 87 10000 8.23 230 07:45 05.01.2022
317 Clear 2 995 87 10000 7.72 230 06:24 05.01.2022
318 Clouds 3 996 92 10000 5.14 250 00:58 05.01.2022
319 Clear 3 996 91 10000 4.63 250 23:28 04.01.2022
320 Clear 3 996 91 10000 4.12 240 22:46 04.01.2022
321 Clear 3 995 92 10000 5.14 240 21:24 04.01.2022
322 Clear 3 995 94 10000 4.12 250 19:20 04.01.2022
323 Clouds 4 995 94 10000 3.09 270 17:51 04.01.2022
324 Clouds 4 994 94 10000 3.09 290 16:43 04.01.2022
325 Clouds 5 994 92 10000 3.6 310 16:23 04.01.2022
326 Clouds 6 993 95 10000 5.66 310 14:54 04.01.2022
327 Clouds 6 993 95 10000 5.66 310 14:34 04.01.2022
328 Clouds 7 993 93 10000 5.14 260 13:27 04.01.2022
329 Clouds 8 993 91 10000 4.63 220 10:41 04.01.2022
330 Clouds 8 994 91 10000 4.63 220 09:47 04.01.2022
331 Clouds 8 994 91 10000 4.63 220 08:32 04.01.2022
332 Clouds 8 999 90 10000 5.14 220 02:52 04.01.2022
333 Clouds 8 1000 86 10000 4.63 230 00:41 04.01.2022
334 Clouds 8 1001 87 10000 5.14 240 23:34 03.01.2022
335 Clouds 8 1002 88 10000 6.17 240 21:52 03.01.2022
336 Clouds 8 1002 88 10000 5.66 230 21:34 03.01.2022
337 Clouds 8 1003 86 10000 5.66 240 20:26 03.01.2022
338 Clouds 8 1003 85 10000 5.66 250 18:54 03.01.2022
339 Clouds 8 1003 85 10000 9.26 260 18:28 03.01.2022
340 Clouds 9 1004 80 10000 7.2 240 16:59 03.01.2022
341 Clouds 10 1004 79 10000 8.23 240 15:50 03.01.2022
342 Clouds 10 1005 80 10000 7.72 240 14:31 03.01.2022
343 Clouds 10 1006 86 10000 6.69 240 12:49 03.01.2022
344 Clouds 10 1006 84 10000 7.72 250 11:50 03.01.2022
345 Clouds 10 1007 83 10000 7.72 240 10:37 03.01.2022
346 Clouds 9 1007 87 10000 7.2 240 08:54 03.01.2022
347 Clouds 9 1007 90 10000 7.2 250 07:51 03.01.2022
348 Rain 8 1005 96 10000 8.06 276 01:55 03.01.2022
349 Rain 10 1005 88 10000 2.57 200 23:22 02.01.2022
350 Clouds 10 1006 87 10000 4.12 220 22:56 02.01.2022
351 Clouds 10 1007 86 10000 3.6 220 21:52 02.01.2022
352 Clouds 10 1007 85 10000 4.63 250 20:45 02.01.2022
353 Clouds 11 1008 83 10000 5.14 250 20:25 02.01.2022
354 Clouds 11 1008 83 10000 5.14 250 19:31 02.01.2022
355 Clouds 11 1008 83 10000 5.66 260 18:55 02.01.2022
356 Clouds 11 1008 81 10000 8.75 260 17:56 02.01.2022
357 Clouds 11 1008 81 10000 8.75 260 17:38 02.01.2022
358 Clouds 11 1007 79 10000 8.75 260 17:20 02.01.2022
359 Clouds 12 1007 80 10000 11.32 260 16:27 02.01.2022
360 Clouds 12 1006 82 10000 9.26 240 14:41 02.01.2022
361 Clouds 13 1006 84 10000 9.77 240 13:25 02.01.2022
362 Clouds 12 1007 89 10000 7.72 220 12:31 02.01.2022
363 Clouds 12 1008 92 10000 7.2 220 11:41 02.01.2022
364 Rain 12 1008 90 10000 7.72 220 10:53 02.01.2022
365 Clouds 12 1009 92 10000 6.17 210 09:56 02.01.2022
366 Clouds 11 1011 93 10000 6.69 230 07:34 02.01.2022
367 Rain 11 1016 92 10000 4.12 220 02:51 02.01.2022
368 Clear 12 1017 87 10000 3.6 220 23:42 01.01.2022
369 Clear 12 1017 87 10000 6.17 180 23:24 01.01.2022
370 Clear 12 1018 87 10000 4.12 190 22:25 01.01.2022
371 Clear 12 1018 87 10000 4.12 190 21:45 01.01.2022
372 Clear 12 1018 87 10000 4.63 190 21:21 01.01.2022
373 Clear 12 1019 87 10000 4.63 190 20:25 01.01.2022
374 Clear 12 1019 87 10000 4.12 180 19:34 01.01.2022
375 Clear 12 1020 89 10000 4.63 200 18:51 01.01.2022
376 Clear 13 1020 87 10000 4.12 210 17:38 01.01.2022
377 Clear 13 1021 88 10000 3.6 210 16:34 01.01.2022
378 Clear 13 1021 87 10000 3.6 210 15:37 01.01.2022
379 Clouds 13 1021 91 10000 5.14 230 14:25 01.01.2022
380 Clouds 13 1021 90 10000 4.63 220 13:41 01.01.2022
381 Clouds 12 1022 92 10000 3.09 220 12:25 01.01.2022
382 Clouds 12 1022 92 8000 3.6 230 11:25 01.01.2022
383 Clouds 12 1022 92 8000 4.12 230 10:58 01.01.2022
384 Clouds 12 1022 92 6000 4.63 240 09:48 01.01.2022
385 Clouds 12 1022 93 6000 4.63 250 08:39 01.01.2022
386 Clouds 12 1021 93 7000 3.6 250 07:57 01.01.2022
387 Clouds 12 1021 93 7000 3.6 250 07:38 01.01.2022
388 Clouds 11 1021 93 10000 5.66 260 06:44 01.01.2022
389 Clouds 12 1020 92 10000 5.14 260 05:24 01.01.2022
390 Clouds 12 1020 92 10000 5.14 250 04:35 01.01.2022
391 Clouds 12 1018 96 10000 6.69 260 00:23 01.01.2022
392 Drizzle 12 1017 96 10000 7.2 260 22:30 31.12.2021
393 Drizzle 12 1017 96 10000 7.2 260 21:47 31.12.2021
394 Clouds 12 1016 96 6000 7.2 260 19:48 31.12.2021
395 Mist 12 1015 96 5000 6.17 260 19:28 31.12.2021
396 Clouds 12 1014 94 10000 7.72 260 18:18 31.12.2021
397 Clouds 12 1014 96 10000 8.23 260 17:28 31.12.2021
398 Clouds 12 1013 96 9000 8.23 250 16:56 31.12.2021
399 Clouds 12 1013 96 9000 6.69 240 16:18 31.12.2021
400 Clouds 12 1013 95 10000 6.17 240 15:50 31.12.2021
401 Clouds 12 1012 95 6000 6.69 240 15:28 31.12.2021
402 Clouds 13 1012 87 10000 6.69 240 14:41 31.12.2021
403 Clouds 13 1013 86 10000 8.75 250 13:56 31.12.2021
404 Clouds 13 1013 85 10000 8.23 240 13:23 31.12.2021
405 Clouds 13 1013 88 10000 8.73 248 12:33 31.12.2021
406 Clouds 13 1013 85 10000 8.23 240 11:42 31.12.2021
407 Clouds 14 1013 82 10000 8.75 240 11:19 31.12.2021
408 Clouds 13 1013 85 10000 9.77 240 10:30 31.12.2021
409 Clouds 13 1013 85 10000 6.69 240 09:35 31.12.2021
410 Clouds 13 1013 90 10000 7.2 230 08:56 31.12.2021
411 Clouds 13 1013 90 10000 7.2 240 08:25 31.12.2021
412 Clouds 13 1013 91 10000 7.2 230 06:39 31.12.2021
413 Drizzle 12 1013 97 4000 6.69 240 23:23 30.12.2021
414 Drizzle 12 1013 99 6000 6.69 240 22:33 30.12.2021
415 Drizzle 12 1013 99 3300 6.17 240 21:51 30.12.2021
416 Drizzle 12 1013 99 3300 6.17 240 21:33 30.12.2021
417 Drizzle 12 1013 99 8000 6.69 250 20:44 30.12.2021
418 Drizzle 12 1013 99 4500 6.17 250 20:24 30.12.2021
419 Drizzle 12 1012 99 4000 6.17 250 19:43 30.12.2021
420 Drizzle 12 1012 99 3500 6.69 250 18:29 30.12.2021
421 Mist 12 1012 99 3800 7.72 250 17:45 30.12.2021
422 Mist 12 1011 99 2000 7.2 250 16:19 30.12.2021
423 Mist 12 1010 99 2500 6.69 250 15:42 30.12.2021
424 Mist 12 1010 97 2000 7.2 250 14:38 30.12.2021
425 Mist 12 1009 97 1600 8.23 250 13:33 30.12.2021
426 Mist 12 1009 99 3000 6.69 240 12:40 30.12.2021
427 Clouds 11 1009 99 10000 5.14 230 10:58 30.12.2021
428 Mist 10 1009 99 3500 3.09 210 09:58 30.12.2021
429 Clouds 10 1009 96 9000 2.57 230 08:58 30.12.2021
430 Clouds 9 1009 96 10000 4.12 240 06:52 30.12.2021
431 Clear 9 1008 96 10000 5.66 240 03:43 30.12.2021
432 Clear 8 1008 99 10000 5.14 240 03:23 30.12.2021
433 Clouds 8 1005 96 4200 3.09 210 23:50 29.12.2021
434 Mist 7 1004 99 2500 2.57 190 23:23 29.12.2021
435 Mist 7 1004 99 2300 3.6 170 22:22 29.12.2021
436 Mist 7 1004 99 2300 3.6 170 22:22 29.12.2021
437 Mist 7 1004 99 2500 5.14 150 21:43 29.12.2021
438 Clouds 7 1004 96 5000 4.12 140 20:39 29.12.2021
439 Clouds 7 1004 96 5000 2.57 150 19:50 29.12.2021
440 Rain 7 1004 96 7000 3.09 160 18:57 29.12.2021
441 Clouds 7 1005 99 6000 2.57 180 17:57 29.12.2021
442 Clouds 7 1005 99 6000 2.57 180 17:28 29.12.2021
443 Mist 7 1006 99 5000 2.06 200 16:49 29.12.2021
444 Mist 7 1005 99 5000 2.57 190 16:19 29.12.2021
445 Mist 7 1005 99 1500 2.06 220 14:46 29.12.2021
446 Clouds 7 1005 99 7000 2.57 250 12:49 29.12.2021
447 Clouds 6 1005 99 7000 3.6 260 12:27 29.12.2021
448 Mist 6 1004 99 3500 2.57 260 10:38 29.12.2021
449 Fog 5 1002 99 700 2.06 250 08:37 29.12.2021
450 Mist 5 1001 99 1700 1.54 250 06:48 29.12.2021
451 Fog 5 1000 99 900 2.57 250 06:27 29.12.2021
452 Drizzle 5 1000 99 1700 2.06 270 05:50 29.12.2021
453 Mist 5 998 99 3200 1.03 240 03:46 29.12.2021
454 Clouds 5 995 96 10000 2.06 250 00:28 29.12.2021
455 Clouds 5 995 99 10000 2.06 250 23:56 28.12.2021
456 Clouds 6 994 96 10000 2.57 230 22:56 28.12.2021
457 Clouds 6 993 99 10000 2.57 220 22:24 28.12.2021
458 Clouds 6 992 99 10000 2.06 220 21:54 28.12.2021
459 Clouds 6 992 99 10000 2.57 200 21:28 28.12.2021
460 Clouds 6 991 96 10000 3.6 220 19:52 28.12.2021
461 Clouds 6 990 98 10000 2.57 170 18:53 28.12.2021
462 Rain 6 990 96 10000 3.09 150 18:25 28.12.2021
463 Rain 6 990 96 3800 5.14 120 17:29 28.12.2021
464 Rain 6 990 96 10000 5.14 130 15:53 28.12.2021
465 Rain 6 990 95 10000 4.63 130 15:29 28.12.2021
466 Clear 6 990 93 10000 4.63 120 14:55 28.12.2021
467 Clear 6 990 93 10000 4.63 120 14:37 28.12.2021
468 Clouds 6 991 93 10000 4.12 130 14:18 28.12.2021
469 Clouds 5 992 93 10000 5.14 130 13:37 28.12.2021
470 Clouds 5 993 93 10000 4.63 130 12:56 28.12.2021
471 Clouds 5 993 95 10000 4.63 130 12:20 28.12.2021
472 Clouds 3 994 96 10000 4.63 140 10:19 28.12.2021
473 Clouds 3 995 96 8000 3.6 130 07:33 28.12.2021
474 Clouds 3 997 96 10000 5.14 130 03:37 28.12.2021
475 Clouds 2 999 95 10000 5.14 120 23:40 27.12.2021
476 Clouds 2 999 93 10000 3.6 120 22:21 27.12.2021
477 Clouds 2 1000 92 10000 3.6 120 21:31 27.12.2021
478 Clouds 1 1000 94 10000 3.09 110 20:39 27.12.2021
479 Clouds 1 1000 94 10000 4.12 120 19:49 27.12.2021
480 Clouds 1 1000 94 10000 4.12 110 19:27 27.12.2021
481 Clouds 1 1001 91 10000 3.6 100 17:54 27.12.2021
482 Clouds 1 1001 91 10000 3.6 100 17:54 27.12.2021
483 Clouds 1 1001 91 10000 3.09 130 17:29 27.12.2021
484 Clouds 1 1001 88 10000 3.6 110 16:26 27.12.2021
485 Clouds 0 1001 91 10000 4.12 110 15:49 27.12.2021
486 Clouds 0 1001 91 7000 3.09 120 14:26 27.12.2021
487 Clouds -1 1002 93 6000 4.12 120 13:31 27.12.2021
488 Clouds -1 1003 88 7000 4.12 120 11:34 27.12.2021
489 Clouds -2 1003 87 8000 5.14 110 10:27 27.12.2021
490 Clouds -2 1003 87 10000 3.6 120 09:38 27.12.2021
491 Clouds -2 1003 74 10000 4.63 120 07:35 27.12.2021
492 Clouds -3 1004 82 10000 4.63 110 06:30 27.12.2021
493 Clouds -3 1006 77 10000 5.66 110 01:59 27.12.2021
494 Clouds -4 1007 74 10000 5.14 110 23:52 26.12.2021
495 Clouds -3 1007 74 10000 5.14 110 23:34 26.12.2021
496 Clouds -4 1008 77 10000 6.69 110 21:48 26.12.2021
497 Clouds -4 1009 69 10000 5.14 110 20:31 26.12.2021
498 Clear -4 1009 68 10000 5.14 120 19:31 26.12.2021
499 Clear -3 1009 65 10000 5.66 110 18:23 26.12.2021
500 Clear -2 1010 67 10000 5.14 110 15:56 26.12.2021
501 Clear -2 1010 60 10000 5.14 100 14:27 26.12.2021
502 Clear -2 1011 61 10000 5.66 110 13:40 26.12.2021
503 Clear -3 1011 64 10000 5.66 110 13:18 26.12.2021
504 Clear -4 1012 67 10000 4.63 110 12:27 26.12.2021
505 Clear -7 1012 74 10000 3.09 100 10:22 26.12.2021
506 Clear -8 1012 82 10000 4.36 95 09:19 26.12.2021
507 Clear -9 1012 78 10000 4.12 90 08:40 26.12.2021
508 Clear -9 1012 79 10000 3.6 80 07:34 26.12.2021
509 Clear -7 1013 90 10000 2.57 100 01:24 26.12.2021
510 Clear -7 1014 90 10000 1.54 100 23:53 25.12.2021
511 Clear -7 1014 93 10000 3.04 103 23:27 25.12.2021
512 Clear -7 1014 90 10000 2.57 100 22:23 25.12.2021
513 Clear -6 1014 89 10000 3.09 80 20:57 25.12.2021
514 Clear -5 1014 86 10000 2.06 90 19:26 25.12.2021
515 Clear -5 1014 86 10000 2.06 110 18:55 25.12.2021
516 Clear -4 1014 77 10000 2.57 90 17:33 25.12.2021
517 Clear -4 1014 78 10000 3.09 90 16:36 25.12.2021
518 Clear -2 1014 72 10000 2.57 120 15:18 25.12.2021
519 Clear -2 1014 73 10000 3.6 120 13:30 25.12.2021
520 Clear -3 1014 75 10000 2.57 100 11:51 25.12.2021
521 Clear -6 1013 85 10000 2.57 60 09:54 25.12.2021
522 Clear -7 1013 86 10000 2.57 60 09:34 25.12.2021
523 Clear -6 1011 82 10000 3.6 80 04:34 25.12.2021
524 Clear -3 1010 70 10000 5.66 70 01:25 25.12.2021
525 Clear -2 1009 70 10000 6.69 70 23:42 24.12.2021
526 Clouds 0 1006 92 10000 5.14 40 19:50 24.12.2021
527 Snow 0 1005 95 10000 4.63 50 19:24 24.12.2021
528 Clouds 2 1003 94 7000 2.06 10 16:59 24.12.2021
529 Clouds 3 1003 96 6000 1.54 300 16:23 24.12.2021
530 Clouds 3 1002 96 6000 2.06 300 15:48 24.12.2021
531 Clouds 3 1002 96 5000 2.06 310 15:20 24.12.2021
532 Clouds 3 1001 94 4500 2.57 340 14:31 24.12.2021
533 Clouds 3 1001 96 6000 2.06 330 13:44 24.12.2021
534 Clouds 3 1000 96 4500 4.12 340 12:49 24.12.2021
535 Clouds 3 1000 96 4800 4.63 360 12:23 24.12.2021
536 Clouds 3 1000 96 3800 4.63 360 11:40 24.12.2021
537 Clouds 4 999 96 3500 3.6 330 11:18 24.12.2021
538 Clouds 4 999 96 2700 4.63 320 10:33 24.12.2021
539 Drizzle 6 998 96 2700 2.57 320 08:38 24.12.2021
540 Drizzle 6 998 96 2800 4.12 280 07:58 24.12.2021
541 Drizzle 6 998 99 2000 4.63 260 06:18 24.12.2021
542 Clouds 4 1000 99 5000 6.69 250 00:21 24.12.2021
543 Clouds 4 1000 99 4500 6.17 250 23:39 23.12.2021
544 Clouds 4 1001 96 4000 6.17 260 22:50 23.12.2021
545 Clouds 3 1001 99 3500 6.69 250 22:22 23.12.2021
546 Rain 3 1001 99 2200 6.17 250 21:39 23.12.2021
547 Mist 2 1002 96 3500 6.17 230 20:27 23.12.2021
548 Rain 1 1003 96 7000 5.14 230 19:28 23.12.2021
549 Rain 1 1004 96 4800 4.63 230 18:18 23.12.2021
550 Rain 1 1004 96 4500 5.66 210 17:29 23.12.2021
551 Snow 0 1005 96 6000 3.09 210 16:26 23.12.2021
552 Mist 0 1006 96 4800 3.6 220 15:40 23.12.2021
553 Mist 0 1006 99 4500 4.12 230 15:22 23.12.2021
554 Mist 0 1007 96 5000 4.12 220 14:40 23.12.2021
555 Snow 0 1008 90 10000 3.6 210 13:31 23.12.2021
556 Snow 0 1010 93 10000 2.06 180 11:49 23.12.2021
557 Clouds -1 1011 96 10000 1.03 0 09:53 23.12.2021
558 Clouds -1 1011 96 10000 1.03 0 09:53 23.12.2021
559 Clouds -1 1011 96 10000 1.03 0 09:34 23.12.2021
560 Clear -2 1012 96 10000 1.03 0 08:28 23.12.2021
561 Snow -2 1014 96 10000 1.54 130 05:39 23.12.2021
562 Clear -3 1017 96 10000 1.03 0 02:56 23.12.2021
563 Mist -3 1020 99 5000 1.03 130 22:53 22.12.2021
564 Mist -3 1020 98 4500 1.54 130 22:19 22.12.2021
565 Mist -3 1021 98 3500 1.03 150 21:37 22.12.2021
566 Mist -3 1021 98 3000 2.06 140 21:19 22.12.2021
567 Mist -3 1021 98 2800 1.54 130 20:40 22.12.2021
568 Mist -3 1022 98 1800 2.06 130 19:57 22.12.2021
569 Mist -3 1023 98 2000 1.54 130 18:55 22.12.2021
570 Mist -3 1023 98 2800 1.54 130 17:38 22.12.2021
571 Mist -3 1024 98 4000 1.54 120 16:25 22.12.2021
572 Clouds -2 1024 93 6000 1.54 150 15:21 22.12.2021
573 Mist -3 1026 93 4500 1.54 140 12:59 22.12.2021
574 Mist -4 1026 93 5000 1.54 160 11:50 22.12.2021
575 Mist -4 1026 93 3200 2.06 170 09:53 22.12.2021
576 Mist -5 1026 99 1100 2.06 170 08:34 22.12.2021
577 Fog -5 1027 94 800 1.54 170 07:21 22.12.2021
578 Fog -5 1027 94 500 1.54 150 05:39 22.12.2021
579 Fog -5 1027 93 600 1.54 150 05:20 22.12.2021
580 Fog -5 1027 93 600 1.54 140 04:42 22.12.2021
581 Fog -5 1027 93 600 2.06 140 03:54 22.12.2021
582 Fog -5 1027 93 600 1.54 140 03:31 22.12.2021
583 Mist -5 1027 95 1100 2.06 150 23:57 21.12.2021
584 Fog -5 1027 98 1000 2.06 150 22:44 21.12.2021
585 Fog -5 1027 98 400 2.06 170 22:24 21.12.2021
586 Fog -4 1027 98 350 2.06 160 21:42 21.12.2021
587 Mist -4 1027 98 1200 2.57 170 20:44 21.12.2021
588 Fog -4 1027 98 3000 1.54 190 20:20 21.12.2021
589 Fog -3 1027 98 3000 1.54 190 20:20 21.12.2021
590 Fog -3 1027 98 400 2.06 150 19:41 21.12.2021
591 Fog -3 1026 98 200 1.54 150 18:36 21.12.2021
592 Fog -2 1026 95 200 1.54 150 17:59 21.12.2021
593 Fog -2 1026 95 200 1.54 150 17:40 21.12.2021
594 Clear 1 1026 92 10000 1.54 160 15:46 21.12.2021
595 Clear 1 1026 93 10000 0.51 0 14:59 21.12.2021
596 Clear 0 1026 95 10000 1.03 0 13:44 21.12.2021
597 Mist 0 1027 95 5000 0.51 0 12:58 21.12.2021
598 Fog -4 1027 93 800 0.51 0 10:55 21.12.2021
599 Fog -6 1027 100 250 1.03 230 09:57 21.12.2021
600 Fog -6 1027 93 200 1.54 250 09:18 21.12.2021
601 Fog -4 1027 93 300 0.51 220 07:50 21.12.2021
602 Fog -5 1027 97 300 1.03 230 07:25 21.12.2021
603 Fog -4 1027 93 700 1.03 230 04:48 21.12.2021
604 Fog -4 1027 98 500 1.54 240 02:39 21.12.2021
605 Fog -2 1028 94 800 0.51 290 23:58 20.12.2021
606 Fog -2 1028 94 900 1.03 250 22:49 20.12.2021
607 Fog -2 1028 97 4000 1.54 240 22:28 20.12.2021
608 Clear -1 1028 97 10000 1.03 0 21:43 20.12.2021
609 Clear -1 1028 97 10000 1.54 280 21:23 20.12.2021
610 Clear -1 1028 94 10000 2.57 310 20:42 20.12.2021
611 Clear 0 1028 94 10000 1.54 290 19:48 20.12.2021
612 Clear 0 1028 94 10000 2.57 310 19:29 20.12.2021
613 Clear 0 1028 94 10000 1.54 290 18:49 20.12.2021
614 Clear 1 1028 90 10000 2.57 300 17:52 20.12.2021
615 Clear 2 1028 90 10000 2.57 310 16:56 20.12.2021
616 Clear 3 1028 90 10000 2.57 310 16:36 20.12.2021
617 Clear 4 1028 86 10000 3.09 310 15:47 20.12.2021
618 Clear 4 1028 85 10000 2.57 300 14:42 20.12.2021
619 Clear 3 1028 92 10000 3.6 310 12:51 20.12.2021
620 Clear 1 1028 98 10000 1.54 260 11:19 20.12.2021
621 Mist -2 1028 95 1800 1.03 300 09:47 20.12.2021
622 Fog -2 1027 98 800 1.54 290 08:58 20.12.2021
623 Fog -2 1027 98 800 1.54 290 08:40 20.12.2021
624 Fog -2 1027 98 800 1.54 290 07:49 20.12.2021
625 Fog -2 1027 100 10000 1.54 280 06:47 20.12.2021
626 Fog -1 1027 98 10000 1.54 310 03:42 20.12.2021
627 Clear 2 1026 95 10000 2.06 340 23:51 19.12.2021
628 Clear 4 1026 92 10000 2.06 320 22:45 19.12.2021
629 Clouds 5 1025 91 10000 3.09 340 21:49 19.12.2021
630 Clouds 5 1025 88 10000 3.6 350 21:26 19.12.2021
631 Clouds 6 1025 85 10000 4.12 340 20:30 19.12.2021
632 Clouds 6 1025 84 10000 6.69 350 19:46 19.12.2021
633 Clouds 7 1025 82 10000 6.17 340 18:58 19.12.2021
634 Clouds 7 1024 80 10000 6.17 340 18:27 19.12.2021
635 Clouds 7 1024 82 10000 7.72 340 17:49 19.12.2021
636 Clouds 8 1024 83 10000 7.2 320 17:18 19.12.2021
637 Clouds 8 1024 86 10000 7.2 310 16:25 19.12.2021
638 Clouds 8 1025 89 10000 6.17 300 15:31 19.12.2021
639 Drizzle 8 1025 90 10000 5.66 310 14:59 19.12.2021
640 Drizzle 8 1025 91 10000 5.66 310 14:36 19.12.2021
641 Clouds 8 1026 89 10000 6.69 300 13:22 19.12.2021
642 Clouds 8 1026 89 10000 6.17 300 12:33 19.12.2021
643 Drizzle 8 1027 91 10000 6.69 300 11:44 19.12.2021
644 Drizzle 7 1028 94 8000 7.2 310 10:58 19.12.2021
645 Drizzle 7 1028 95 10000 7.2 290 10:25 19.12.2021
646 Drizzle 7 1028 95 10000 6.17 290 09:37 19.12.2021
647 Clouds 7 1029 95 10000 6.17 310 07:50 19.12.2021
648 Clouds 7 1030 91 10000 7.2 300 04:45 19.12.2021
649 Clouds 7 1032 91 10000 5.66 300 01:19 19.12.2021
650 Clouds 7 1032 91 10000 5.66 300 00:52 19.12.2021
651 Clouds 8 1033 89 10000 5.66 290 22:36 18.12.2021
652 Clouds 8 1034 92 10000 5.66 290 21:57 18.12.2021
653 Clouds 8 1034 92 10000 5.66 290 21:35 18.12.2021
654 Clouds 8 1034 92 10000 4.63 300 20:44 18.12.2021
655 Clouds 8 1034 93 10000 5.66 310 19:54 18.12.2021
656 Clouds 8 1035 92 10000 5.14 300 19:20 18.12.2021
657 Clouds 8 1035 95 10000 5.66 300 18:21 18.12.2021
658 Clouds 8 1035 96 10000 5.66 300 17:48 18.12.2021
659 Clouds 8 1035 97 10000 4.25 288 16:26 18.12.2021
660 Clouds 9 1035 93 10000 4.63 290 15:26 18.12.2021
661 Clouds 9 1036 94 10000 4.63 300 14:32 18.12.2021
662 Clouds 8 1036 96 10000 3.09 300 13:21 18.12.2021
663 Drizzle 8 1037 96 5000 4.12 300 11:22 18.12.2021
664 Drizzle 7 1038 100 2500 4.12 290 09:40 18.12.2021
665 Mist 7 1038 99 3300 4.12 290 08:47 18.12.2021
666 Mist 7 1038 99 3000 4.12 280 08:19 18.12.2021
667 Clouds 7 1039 96 10000 3.6 290 03:42 18.12.2021
668 Clouds 7 1039 96 10000 3.6 330 00:28 18.12.2021
669 Clouds 7 1039 96 10000 4.12 320 23:44 17.12.2021
670 Clouds 8 1039 96 10000 4.12 320 21:57 17.12.2021
671 Clouds 8 1039 96 10000 4.12 330 21:19 17.12.2021
672 Clouds 8 1039 96 10000 4.12 320 20:40 17.12.2021
673 Clouds 8 1039 96 10000 4.63 330 19:24 17.12.2021
674 Clouds 8 1039 96 10000 4.12 330 18:38 17.12.2021
675 Clouds 8 1039 96 10000 3.09 320 17:31 17.12.2021
676 Drizzle 8 1039 96 4500 2.57 290 16:49 17.12.2021
677 Clouds 8 1039 96 10000 1.54 290 16:22 17.12.2021
678 Clouds 8 1039 93 10000 3.09 320 15:25 17.12.2021
679 Clouds 8 1039 93 10000 2.57 300 14:40 17.12.2021
680 Clouds 8 1039 92 10000 2.57 330 13:21 17.12.2021
681 Clouds 8 1039 93 10000 4.12 310 11:50 17.12.2021
682 Clouds 7 1039 96 10000 2.57 300 10:37 17.12.2021
683 Clouds 7 1039 98 10000 2.57 300 09:34 17.12.2021
684 Clouds 7 1039 98 10000 1.54 280 08:30 17.12.2021
685 Clouds 7 1038 96 10000 1.54 300 06:47 17.12.2021
686 Drizzle 8 1039 95 8000 4.12 300 02:54 17.12.2021
687 Clouds 8 1039 95 10000 2.06 300 23:47 16.12.2021
688 Clouds 8 1039 95 10000 2.06 280 22:24 16.12.2021
689 Clouds 8 1039 95 10000 1.54 250 21:51 16.12.2021
690 Clouds 8 1039 92 10000 1.03 0 21:30 16.12.2021
691 Clouds 8 1038 92 10000 1.54 300 20:31 16.12.2021
692 Clouds 9 1038 92 10000 1.03 310 19:49 16.12.2021
693 Clouds 9 1038 92 10000 1.54 320 18:41 16.12.2021
694 Drizzle 9 1038 95 10000 2.57 310 17:57 16.12.2021
695 Clouds 9 1037 92 10000 3.6 300 17:31 16.12.2021
696 Clouds 9 1037 92 10000 4.12 310 16:23 16.12.2021
697 Clouds 9 1036 95 10000 2.57 300 14:54 16.12.2021
698 Clouds 9 1036 96 10000 3.09 290 13:43 16.12.2021
699 Mist 9 1036 96 3000 3.09 260 11:46 16.12.2021
700 Drizzle 9 1036 96 2000 2.57 280 11:18 16.12.2021
701 Drizzle 9 1035 96 1800 2.06 270 10:27 16.12.2021
702 Drizzle 8 1034 98 3800 3.09 280 08:37 16.12.2021
703 Clouds 8 1032 95 10000 3.09 270 06:22 16.12.2021
704 Clouds 7 1031 94 10000 3.09 220 02:59 16.12.2021
705 Clouds 7 1031 91 10000 3.6 230 23:35 15.12.2021
706 Clouds 7 1030 91 10000 2.57 210 22:48 15.12.2021
707 Clouds 7 1030 87 10000 3.09 230 21:58 15.12.2021
708 Clouds 7 1030 87 10000 3.09 230 21:28 15.12.2021
709 Clouds 7 1030 89 10000 3.6 240 20:31 15.12.2021
710 Clouds 7 1030 92 10000 2.57 250 19:52 15.12.2021
711 Clouds 8 1029 93 10000 3.09 250 18:40 15.12.2021
712 Clouds 8 1029 90 10000 3.6 250 17:57 15.12.2021
713 Clouds 9 1029 91 10000 5.02 267 17:39 15.12.2021
714 Clouds 9 1028 89 10000 3.6 240 16:35 15.12.2021
715 Clouds 10 1028 89 10000 4.63 250 15:47 15.12.2021
716 Clouds 10 1028 89 10000 4.12 240 15:29 15.12.2021
717 Clouds 10 1028 90 9000 4.12 240 14:44 15.12.2021
718 Clouds 10 1028 92 8000 5.14 240 13:27 15.12.2021
719 Mist 10 1028 94 5000 5.14 240 10:58 15.12.2021
720 Clouds 10 1027 94 6000 5.14 230 09:31 15.12.2021
721 Clouds 10 1027 96 6000 5.66 230 07:52 15.12.2021
722 Mist 9 1027 99 2500 4.63 230 03:58 15.12.2021
723 Drizzle 9 1026 96 2500 3.09 210 23:47 14.12.2021
724 Drizzle 8 1026 99 3000 3.09 210 22:55 14.12.2021
725 Drizzle 8 1026 99 3000 3.09 210 22:37 14.12.2021
726 Mist 8 1026 99 4000 3.09 230 21:25 14.12.2021
727 Mist 8 1026 98 2500 3.6 220 20:20 14.12.2021
728 Drizzle 8 1026 98 5000 3.09 240 19:21 14.12.2021
729 Drizzle 8 1026 98 4000 3.6 230 18:38 14.12.2021
730 Drizzle 8 1025 98 2800 3.6 220 17:51 14.12.2021
731 Drizzle 8 1025 98 2000 3.6 220 16:43 14.12.2021
732 Drizzle 8 1025 98 1600 3.09 230 15:54 14.12.2021
733 Drizzle 8 1025 98 4500 4.12 250 13:58 14.12.2021
734 Clouds 8 1025 93 6000 5.14 250 12:47 14.12.2021
735 Clouds 8 1025 94 9000 5.14 250 11:25 14.12.2021
736 Clouds 8 1025 92 10000 4.63 250 10:45 14.12.2021
737 Clouds 8 1025 91 10000 4.12 240 09:54 14.12.2021
738 Clouds 8 1024 91 10000 4.12 240 08:48 14.12.2021
739 Clouds 8 1024 88 10000 3.6 240 08:21 14.12.2021
740 Clouds 8 1024 87 10000 4.63 230 06:40 14.12.2021
741 Clouds 8 1025 92 10000 3.6 210 23:42 13.12.2021
742 Clouds 8 1025 90 10000 4.12 210 22:24 13.12.2021
743 Clouds 8 1025 93 10000 3.6 210 21:39 13.12.2021
744 Clouds 9 1026 93 10000 3.09 220 20:51 13.12.2021
745 Clouds 9 1026 93 10000 3.09 220 20:51 13.12.2021
746 Clouds 9 1026 93 10000 2.57 220 20:21 13.12.2021
747 Clouds 9 1026 93 10000 3.6 210 19:49 13.12.2021
748 Clouds 9 1026 93 10000 4.12 230 17:27 13.12.2021
749 Clouds 9 1026 93 10000 4.12 220 16:32 13.12.2021
750 Clouds 9 1025 94 10000 4.12 220 15:43 13.12.2021
751 Clouds 9 1025 96 10000 3.09 220 14:42 13.12.2021
752 Clouds 9 1026 98 10000 4.68 224 13:37 13.12.2021
753 Clouds 9 1025 98 10000 4.97 225 12:40 13.12.2021
754 Clouds 9 1025 98 10000 4.84 228 11:52 13.12.2021
755 Clouds 9 1026 94 10000 3.09 220 11:29 13.12.2021
756 Clouds 10 1026 96 10000 3.09 220 10:37 13.12.2021
757 Clouds 10 1025 96 7000 4.12 250 08:44 13.12.2021
758 Mist 10 1024 96 5000 3.6 240 06:55 13.12.2021
759 Mist 10 1023 96 3500 3.09 230 05:19 13.12.2021
760 Mist 9 1022 99 2300 3.09 230 00:27 13.12.2021
761 Mist 9 1022 96 3400 3.6 230 21:59 12.12.2021
762 Drizzle 9 1021 96 3000 3.6 240 21:29 12.12.2021
763 Mist 8 1021 99 2800 3.09 230 19:36 12.12.2021
764 Drizzle 8 1020 96 3000 4.12 240 18:23 12.12.2021
765 Drizzle 8 1019 96 3000 3.6 230 16:47 12.12.2021
766 Drizzle 7 1019 99 2200 3.6 230 16:22 12.12.2021
767 Drizzle 7 1019 96 3000 4.12 230 15:28 12.12.2021
768 Drizzle 7 1019 96 2200 4.63 230 14:54 12.12.2021
769 Drizzle 7 1018 96 3000 5.66 230 14:19 12.12.2021
770 Clouds 6 1018 96 10000 4.63 230 12:51 12.12.2021
771 Drizzle 6 1018 96 4000 4.63 210 12:23 12.12.2021
772 Drizzle 6 1018 96 4000 4.63 210 12:23 12.12.2021
773 Drizzle 5 1018 96 6000 5.66 220 11:43 12.12.2021
774 Drizzle 5 1019 96 8000 5.14 200 10:44 12.12.2021
775 Drizzle 5 1019 96 8000 5.14 200 10:44 12.12.2021
776 Drizzle 5 1018 96 4400 5.66 200 10:21 12.12.2021
777 Drizzle 4 1018 96 3400 6.69 170 08:50 12.12.2021
778 Clouds 4 1019 96 9000 5.14 170 07:30 12.12.2021
779 Clouds 4 1019 93 9000 3.6 200 05:56 12.12.2021
780 Mist 4 1019 96 5000 3.09 190 04:53 12.12.2021
781 Mist 3 1020 96 4500 3.09 180 02:52 12.12.2021
782 Mist 2 1020 95 2800 5.14 240 23:28 11.12.2021
783 Mist 1 1019 98 2500 4.12 240 22:21 11.12.2021
784 Mist 1 1019 98 2500 4.12 240 21:47 11.12.2021
785 Mist 0 1018 97 2800 3.6 220 20:20 11.12.2021
786 Clouds 1 1018 94 6000 6.17 220 19:21 11.12.2021
787 Clouds 1 1018 94 6000 6.17 220 19:21 11.12.2021
788 Clear 1 1017 90 10000 5.66 220 18:49 11.12.2021
789 Clear 2 1017 86 10000 4.63 220 17:56 11.12.2021
790 Clear 3 1015 84 10000 4.63 220 16:40 11.12.2021
791 Clear 4 1015 80 10000 4.63 230 15:46 11.12.2021
792 Clear 5 1014 79 10000 4.63 230 14:54 11.12.2021
793 Clouds 4 1013 86 10000 2.57 230 12:42 11.12.2021
794 Clouds 2 1013 92 9000 2.57 220 11:24 11.12.2021
795 Mist 0 1012 96 4500 2.06 250 09:45 11.12.2021
796 Mist 0 1012 96 4500 2.06 250 09:45 11.12.2021
797 Mist 0 1012 96 4500 2.06 250 09:45 11.12.2021
798 Mist 0 1012 96 4500 2.06 250 09:45 11.12.2021
799 Clear 1 1009 95 10000 2.57 210 07:30 11.12.2021
800 Clouds 2 1003 91 10000 1.54 60 00:51 11.12.2021
801 Clouds 2 1002 88 10000 1.54 40 23:49 10.12.2021
802 Clouds 3 1002 87 10000 0.51 0 23:18 10.12.2021
803 Clouds 3 1001 81 10000 1.03 110 21:52 10.12.2021
804 Clouds 3 999 81 10000 2.57 100 20:57 10.12.2021
805 Clouds 3 998 84 10000 3.09 80 19:21 10.12.2021
806 Clouds 3 997 86 10000 4.12 90 17:55 10.12.2021
807 Clouds 4 996 85 10000 3.6 80 16:55 10.12.2021
808 Clouds 4 996 85 10000 2.57 90 16:19 10.12.2021
809 Clouds 4 996 83 10000 3.09 100 15:39 10.12.2021
810 Clouds 4 996 83 10000 2.57 100 15:20 10.12.2021
811 Clouds 5 995 82 10000 3.6 120 13:51 10.12.2021
812 Clouds 4 995 85 10000 2.57 120 13:26 10.12.2021
813 Clouds 4 995 87 10000 3.09 140 12:34 10.12.2021
814 Clear 3 996 92 10000 4.63 120 11:28 10.12.2021
815 Clear 3 996 91 10000 4.63 120 11:28 10.12.2021
816 Clear 2 996 95 10000 2.57 100 09:54 10.12.2021
817 Clouds 3 996 92 10000 3.6 110 08:52 10.12.2021
818 Clouds 3 997 91 10000 4.63 120 06:22 10.12.2021
819 Clouds 3 999 91 10000 3.6 140 02:48 10.12.2021
820 Clouds 4 1001 89 10000 3.09 150 23:54 09.12.2021
821 Clouds 4 1002 89 10000 3.6 170 23:20 09.12.2021
822 Clouds 4 1002 89 10000 3.09 180 22:24 09.12.2021
823 Clouds 4 1002 89 10000 3.6 190 21:59 09.12.2021
824 Clouds 3 1003 92 10000 2.57 180 20:44 09.12.2021
825 Clouds 3 1003 89 10000 3.09 150 20:22 09.12.2021
826 Clouds 3 1003 89 10000 1.54 150 19:21 09.12.2021
827 Clouds 3 1003 89 10000 3.09 170 18:48 09.12.2021
828 Clouds 3 1003 90 10000 2.57 190 17:56 09.12.2021
829 Mist 3 1003 96 5000 3.6 140 17:26 09.12.2021
830 Mist 3 1003 96 4500 2.06 140 16:55 09.12.2021
831 Mist 3 1003 96 5000 2.57 130 15:46 09.12.2021
832 Mist 3 1003 96 4000 3.09 160 14:50 09.12.2021
833 Mist 2 1003 96 2000 3.6 140 13:25 09.12.2021
834 Mist 2 1004 96 1800 3.6 140 12:42 09.12.2021
835 Fog 1 1004 98 600 3.6 130 11:24 09.12.2021
836 Fog 1 1004 98 800 3.6 150 09:44 09.12.2021
837 Mist 1 1003 96 3800 3.09 120 06:51 09.12.2021
838 Clouds 1 1003 93 10000 2.57 140 03:43 09.12.2021
839 Clouds 2 1002 95 10000 1.54 140 23:46 08.12.2021
840 Clouds 2 1002 95 10000 2.06 130 23:26 08.12.2021
841 Clouds 2 1002 93 10000 2.57 130 22:50 08.12.2021
842 Clear 2 1002 95 10000 4.12 130 21:46 08.12.2021
843 Clear 2 1001 95 10000 3.6 110 21:28 08.12.2021
844 Clear 2 1001 95 10000 3.09 110 20:18 08.12.2021
845 Clear 3 1001 92 10000 4.12 120 19:37 08.12.2021
846 Clear 3 1000 92 10000 4.63 120 18:53 08.12.2021
847 Clear 3 1000 92 10000 4.63 120 18:53 08.12.2021
848 Clear 3 1000 89 10000 3.6 130 17:52 08.12.2021
849 Clear 5 999 87 10000 2.57 140 15:59 08.12.2021
850 Clouds 5 999 87 10000 3.6 160 15:31 08.12.2021
851 Clouds 5 999 87 10000 4.12 160 14:52 08.12.2021
852 Clouds 5 998 88 10000 4.67 192 12:39 08.12.2021
853 Clouds 4 998 92 10000 5.66 140 10:36 08.12.2021
854 Clouds 3 997 92 10000 6.17 140 09:31 08.12.2021
855 Clouds 2 996 95 10000 5.66 140 07:34 08.12.2021
856 Snow 1 996 94 8000 7.2 130 04:58 08.12.2021
857 Clear 2 1001 92 10000 6.69 110 23:56 07.12.2021
858 Clouds 2 1002 94 10000 6.17 130 22:37 07.12.2021
859 Clouds 2 1003 95 6000 6.17 120 21:24 07.12.2021
860 Clouds 3 1005 94 8000 5.66 130 20:25 07.12.2021
861 Clouds 4 1006 94 9000 3.6 140 18:57 07.12.2021
862 Clouds 4 1007 95 9000 4.12 150 18:19 07.12.2021
863 Clouds 4 1007 95 8000 4.12 130 17:20 07.12.2021
864 Clouds 4 1007 95 8000 3.09 150 16:37 07.12.2021
865 Clouds 4 1008 95 8000 3.6 160 15:59 07.12.2021
866 Clouds 4 1008 95 8000 3.09 160 14:37 07.12.2021
867 Clouds 3 1008 96 6000 3.6 180 13:29 07.12.2021
868 Mist 3 1008 96 5000 3.09 160 12:21 07.12.2021
869 Mist 2 1008 96 5000 3.09 170 10:48 07.12.2021
870 Mist 1 1008 96 4000 2.57 150 09:20 07.12.2021
871 Snow 1 1006 95 6000 3.6 140 06:40 07.12.2021
872 Snow 1 1006 95 5000 3.6 120 05:47 07.12.2021
873 Clouds 1 1005 92 10000 5.14 120 02:35 07.12.2021
874 Clouds 1 1008 92 10000 6.17 130 23:21 06.12.2021
875 Clouds 1 1008 92 10000 6.17 130 22:40 06.12.2021
876 Clear 1 1009 95 10000 6.69 130 21:59 06.12.2021
877 Clouds 1 1009 95 10000 6.17 130 21:27 06.12.2021
878 Clouds 1 1010 95 10000 5.66 120 20:32 06.12.2021
879 Clouds 1 1010 95 10000 5.66 120 20:32 06.12.2021
880 Clouds 1 1010 95 10000 5.66 120 20:32 06.12.2021
881 Clouds 1 1011 95 10000 5.66 130 19:24 06.12.2021
882 Clouds 1 1011 92 10000 5.66 130 18:40 06.12.2021
883 Clouds 2 1011 92 10000 4.63 130 17:54 06.12.2021
884 Clouds 2 1012 93 10000 4.12 130 17:33 06.12.2021
885 Clouds 2 1013 93 10000 3.6 130 15:51 06.12.2021
886 Clouds 2 1014 95 10000 3.09 140 14:38 06.12.2021
887 Clouds 2 1014 92 10000 4.12 150 13:23 06.12.2021
888 Clouds 2 1014 94 9000 4.12 140 12:37 06.12.2021
889 Clouds 1 1015 94 10000 4.12 120 10:23 06.12.2021
890 Clouds 1 1015 96 10000 2.57 80 07:40 06.12.2021
891 Clouds 1 1013 94 10000 3.09 50 02:26 06.12.2021
892 Clouds 1 1010 96 10000 4.12 60 22:25 05.12.2021
893 Snow 1 1010 96 10000 3.6 50 21:25 05.12.2021
894 Snow 1 1010 96 10000 4.12 50 20:52 05.12.2021
895 Rain 1 1009 96 10000 4.12 50 20:18 05.12.2021
896 Clouds 1 1008 96 10000 3.6 50 19:24 05.12.2021
897 Clouds 2 1008 98 10000 2.06 50 18:29 05.12.2021
898 Clouds 2 1007 99 10000 3.09 60 17:49 05.12.2021
899 Clouds 2 1007 99 10000 2.57 60 17:20 05.12.2021
900 Clouds 2 1006 99 10000 3.09 50 16:28 05.12.2021
901 Clouds 2 1005 99 9000 2.57 60 15:59 05.12.2021
902 Clouds 3 1004 96 7000 3.6 50 14:48 05.12.2021
903 Drizzle 3 1004 98 6000 1.54 40 14:29 05.12.2021
904 Drizzle 3 1004 96 4500 2.06 60 13:35 05.12.2021
905 Drizzle 3 1003 99 6000 1.54 70 12:45 05.12.2021
906 Clouds 2 1003 96 4000 2.06 90 12:26 05.12.2021
907 Clouds 2 1003 96 6000 2.06 110 11:44 05.12.2021
908 Rain 2 1002 98 6000 1.54 120 10:43 05.12.2021
909 Rain 1 1001 98 10000 1.54 200 09:47 05.12.2021
910 Mist 1 998 96 4000 1.03 0 06:31 05.12.2021
911 Snow 0 996 98 2700 1.03 130 01:29 05.12.2021
912 Snow 0 996 98 2300 1.03 0 23:22 04.12.2021
913 Snow 0 995 98 1200 1.03 0 21:51 04.12.2021
914 Clouds 2 995 96 6000 3.09 160 20:47 04.12.2021
915 Clouds 3 995 96 9000 3.09 140 19:54 04.12.2021
916 Rain 3 995 96 8000 4.12 130 19:30 04.12.2021
917 Rain 4 995 93 10000 3.09 130 17:58 04.12.2021
918 Clouds 4 995 93 10000 3.09 130 17:36 04.12.2021
919 Clouds 4 995 93 10000 3.6 120 16:47 04.12.2021
920 Clouds 4 995 96 10000 4.12 120 16:29 04.12.2021
921 Clouds 4 996 96 10000 4.12 140 14:23 04.12.2021
922 Drizzle 4 997 96 3200 4.12 140 11:45 04.12.2021
923 Drizzle 4 998 96 3500 3.09 150 11:25 04.12.2021
924 Drizzle 4 998 96 4000 3.6 150 10:42 04.12.2021
925 Clouds 4 998 96 9000 2.57 150 08:42 04.12.2021
926 Clouds 4 998 96 10000 3.6 200 06:24 04.12.2021
927 Clouds 4 998 96 10000 3.6 210 04:41 04.12.2021
928 Clouds 4 1000 96 5000 7.2 230 23:49 03.12.2021
929 Clouds 4 1000 96 5000 7.2 230 23:49 03.12.2021
930 Drizzle 4 1000 96 7000 7.72 220 22:57 03.12.2021
931 Drizzle 4 1000 96 7000 7.72 220 22:38 03.12.2021
932 Clouds 4 1000 96 10000 7.72 220 21:25 03.12.2021
933 Drizzle 4 1000 93 10000 8.23 220 20:46 03.12.2021
934 Drizzle 3 1001 96 7000 8.75 230 19:40 03.12.2021
935 Clouds 3 1001 95 8000 7.72 220 18:28 03.12.2021
936 Clouds 3 1001 95 4200 8.23 220 17:58 03.12.2021
937 Clouds 2 1003 90 10000 6.69 210 14:47 03.12.2021
938 Clouds 2 1005 95 8000 6.69 210 12:54 03.12.2021
939 Snow 2 1006 93 8000 6.69 210 11:38 03.12.2021
940 Clouds 1 1007 96 10000 6.17 220 10:32 03.12.2021
941 Clear 0 1007 95 10000 4.63 220 08:25 03.12.2021
942 Clear 0 1007 96 10000 5.66 220 07:40 03.12.2021
943 Clear -1 1007 96 10000 3.09 240 04:26 03.12.2021
944 Clear -1 1007 95 10000 3.6 240 00:48 03.12.2021
945 Clear -1 1006 96 10000 3.6 240 23:47 02.12.2021
946 Clouds -1 1006 98 7000 3.6 240 21:57 02.12.2021
947 Clear -1 1006 97 10000 3.1 256 21:30 02.12.2021
948 Clear -1 1006 97 10000 3.09 256 20:40 02.12.2021
949 Clear 0 1005 97 10000 2.81 263 19:43 02.12.2021
950 Clear -1 1005 96 10000 2.57 240 18:34 02.12.2021
951 Clear 1 1002 94 10000 1.54 260 15:52 02.12.2021
952 Rain 1 1001 95 10000 2.57 260 15:28 02.12.2021
953 Clouds 1 1001 95 10000 3.09 280 14:48 02.12.2021
954 Rain 2 1000 95 10000 2.01 345 12:53 02.12.2021
955 Snow 1 1000 90 7000 6.17 360 12:19 02.12.2021
956 Clouds 1 998 98 10000 2.57 240 10:38 02.12.2021
957 Snow 1 997 95 10000 1.03 0 09:25 02.12.2021
958 Clouds 1 995 89 10000 3.09 300 06:45 02.12.2021
959 Clouds 3 991 89 10000 9.77 280 00:55 02.12.2021
960 Clouds 4 989 87 10000 9.77 290 23:30 01.12.2021
961 Clouds 5 988 81 10000 11.83 280 22:25 01.12.2021
962 Clouds 5 987 80 10000 12.35 280 21:36 01.12.2021
963 Clouds 6 984 82 10000 14.4 270 19:59 01.12.2021
964 Clouds 6 984 81 10000 14.4 270 19:36 01.12.2021
965 Clouds 7 982 81 10000 13.89 260 17:50 01.12.2021
966 Clouds 7 982 81 10000 13.38 250 16:58 01.12.2021
967 Clouds 8 982 85 10000 10.8 250 15:37 01.12.2021
968 Clouds 9 982 84 10000 13.38 230 14:24 01.12.2021
969 Clouds 9 983 86 10000 11.32 240 13:36 01.12.2021
970 Drizzle 9 986 93 8000 9.26 210 10:43 01.12.2021
971 Clouds 8 987 95 6000 9.26 210 09:59 01.12.2021
972 Clouds 8 988 93 8000 8.75 210 08:51 01.12.2021
973 Clouds 9 989 94 10000 8.75 210 07:56 01.12.2021
974 Drizzle 9 990 96 6000 8.23 210 07:19 01.12.2021
975 Rain 7 995 99 10000 3.6 170 03:53 01.12.2021
976 Rain 6 996 99 6000 5.14 160 03:19 01.12.2021
977 Clouds 6 1002 95 10000 2.06 200 23:59 30.11.2021
978 Rain 5 1003 98 10000 2.57 210 23:28 30.11.2021
979 Clouds 5 1003 94 10000 3.6 240 22:29 30.11.2021
980 Clouds 5 1003 91 10000 3.09 270 20:46 30.11.2021
981 Clouds 5 1003 90 10000 4.63 260 20:24 30.11.2021
982 Clouds 6 1003 88 10000 5.14 270 19:39 30.11.2021
983 Clouds 6 1002 85 10000 5.14 270 18:52 30.11.2021
984 Clouds 6 1002 78 10000 7.72 290 17:45 30.11.2021
985 Clouds 7 1001 80 10000 7.2 290 15:57 30.11.2021
986 Clouds 7 1000 80 10000 8.75 290 14:34 30.11.2021
987 Clouds 7 999 81 10000 8.75 290 13:41 30.11.2021
988 Clouds 7 999 85 10000 9.26 290 12:54 30.11.2021
989 Clouds 7 999 88 10000 8.75 290 11:59 30.11.2021
990 Clouds 7 998 88 10000 7.2 280 11:25 30.11.2021
991 Clouds 7 998 95 10000 7.2 270 10:36 30.11.2021
992 Clouds 6 998 96 4000 7.72 250 08:57 30.11.2021
993 Clouds 6 998 96 4000 7.72 250 08:32 30.11.2021
994 Clouds 5 998 96 10000 8.75 240 07:59 30.11.2021
995 Clouds 4 998 96 7000 9.26 240 06:38 30.11.2021
996 Rain 3 1005 95 10000 6.17 220 01:50 30.11.2021
997 Rain 3 1006 95 10000 5.66 220 01:28 30.11.2021
998 Clear 2 1007 95 10000 3.09 230 23:51 29.11.2021
999 Clear 2 1008 95 10000 3.09 220 23:20 29.11.2021
1000 Clear 2 1008 95 10000 3.09 210 22:42 29.11.2021
1001 Clouds 2 1008 95 10000 3.09 220 22:23 29.11.2021
1002 Clear 2 1008 95 10000 3.6 220 21:21 29.11.2021
1003 Clouds 2 1009 95 10000 3.09 230 20:54 29.11.2021
1004 Clouds 3 1009 94 10000 3.09 230 20:21 29.11.2021
1005 Clouds 3 1009 92 10000 2.57 240 19:42 29.11.2021
1006 Clouds 3 1009 94 10000 2.57 270 19:21 29.11.2021
1007 Clouds 3 1008 82 10000 1.19 295 18:42 29.11.2021
1008 Clouds 2 1008 87 10000 2.29 338 17:22 29.11.2021
1009 Clouds 2 1008 87 10000 2.29 338 16:54 29.11.2021
1010 Clouds 3 1007 86 10000 2.76 332 16:25 29.11.2021
1011 Clouds 4 1007 87 10000 2.5 329 14:52 29.11.2021
1012 Clouds 4 1006 88 10000 2.92 326 14:29 29.11.2021
1013 Clouds 4 1006 87 10000 3.13 325 13:25 29.11.2021
1014 Clouds 4 1005 81 10000 2.55 335 12:20 29.11.2021
1015 Clouds 4 1005 81 10000 2.55 335 11:31 29.11.2021
1016 Clouds 2 1004 84 10000 1.93 303 10:27 29.11.2021
1017 Clouds 2 1003 93 10000 3.09 350 08:30 29.11.2021
1018 Clouds 2 1000 93 10000 1.54 50 05:54 29.11.2021
1019 Clouds 3 998 93 10000 4.63 300 01:31 29.11.2021
1020 Clouds 3 998 93 10000 3.6 290 00:36 29.11.2021
1021 Clouds 3 997 93 10000 3.09 260 23:42 28.11.2021
1022 Clouds 3 997 87 10000 3.09 250 22:30 28.11.2021
1023 Clouds 3 997 93 10000 3.09 260 21:41 28.11.2021
1024 Clouds 3 997 93 10000 3.6 270 20:51 28.11.2021
1025 Clouds 2 997 93 10000 2.57 250 19:54 28.11.2021
1026 Clouds 4 997 93 10000 2.57 240 18:45 28.11.2021
1027 Clouds 4 996 93 10000 1.54 230 18:26 28.11.2021
1028 Clouds 4 996 93 10000 1.54 220 17:49 28.11.2021
1029 Clouds 4 996 93 10000 2.57 220 17:27 28.11.2021
1030 Clouds 4 996 87 8000 2.57 200 16:28 28.11.2021
1031 Clouds 4 996 87 8000 2.57 200 16:28 28.11.2021
1032 Clouds 4 996 93 10000 2.57 220 15:52 28.11.2021
1033 Clouds 4 996 87 10000 2.06 220 14:56 28.11.2021
1034 Clouds 4 996 87 10000 3.6 250 14:30 28.11.2021
1035 Clouds 4 996 87 10000 3.6 260 12:58 28.11.2021
1036 Clouds 4 996 93 6000 3.09 260 11:57 28.11.2021
1037 Mist 3 996 93 4000 3.09 270 10:53 28.11.2021
1038 Mist 3 996 93 3500 3.09 270 10:20 28.11.2021
1039 Mist 2 995 100 3800 2.57 240 09:36 28.11.2021
1040 Clouds 2 994 93 7000 2.57 270 06:29 28.11.2021
1041 Clouds 2 994 93 10000 3.09 240 23:33 27.11.2021
1042 Clouds 3 993 93 10000 3.6 240 20:44 27.11.2021
1043 Clouds 3 992 93 10000 2.06 240 18:57 27.11.2021
1044 Mist 4 990 93 4000 2.57 200 16:52 27.11.2021
1045 Clouds 4 990 93 6000 1.54 140 15:55 27.11.2021
1046 Clouds 4 989 93 9000 2.57 130 13:47 27.11.2021
1047 Clouds 4 988 87 8000 3.09 130 12:31 27.11.2021
1048 Clouds 4 988 87 8000 4.12 130 10:42 27.11.2021
1049 Clouds 3 987 93 8000 4.12 130 09:53 27.11.2021
1050 Clouds 3 987 93 8000 4.12 120 08:43 27.11.2021
1051 Clouds 3 985 93 10000 4.63 120 05:18 27.11.2021
1052 Drizzle 3 985 93 9000 5.14 140 01:57 27.11.2021
1053 Drizzle 3 985 93 10000 6.17 130 23:36 26.11.2021
1054 Clouds 3 986 93 10000 6.69 150 22:25 26.11.2021
1055 Clouds 4 986 81 10000 6.69 140 21:37 26.11.2021
1056 Clouds 4 987 81 10000 6.17 150 20:59 26.11.2021
1057 Clouds 4 987 75 10000 7.72 150 20:29 26.11.2021
1058 Clouds 4 987 75 10000 6.17 150 19:49 26.11.2021
1059 Clouds 4 988 81 10000 6.17 160 18:41 26.11.2021
1060 Clouds 4 989 81 10000 5.66 170 17:23 26.11.2021
1061 Clouds 5 990 81 10000 5.66 180 15:59 26.11.2021
1062 Clouds 5 993 88 10000 6.17 190 13:36 26.11.2021
1063 Clouds 5 994 90 10000 5.66 200 12:55 26.11.2021
1064 Clouds 4 996 95 10000 4.12 200 10:42 26.11.2021
1065 Clouds 4 997 96 8000 3.6 200 09:29 26.11.2021
1066 Clouds 4 998 96 7000 3.09 210 08:47 26.11.2021
1067 Drizzle 3 998 96 9000 4.12 220 08:19 26.11.2021
1068 Clouds 3 1000 98 9000 4.12 220 06:29 26.11.2021
1069 Clouds 3 1001 95 7000 3.6 210 04:52 26.11.2021
1070 Clouds 2 1002 98 10000 3.6 230 03:32 26.11.2021
1071 Clear 3 1005 95 10000 2.57 220 23:29 25.11.2021
1072 Clouds 3 1006 97 10000 3.83 255 21:58 25.11.2021
1073 Clouds 3 1006 97 10000 3.89 254 20:41 25.11.2021
1074 Clouds 4 1007 97 10000 4.03 256 19:21 25.11.2021
1075 Clouds 4 1006 97 10000 4.15 245 18:19 25.11.2021
1076 Mist 5 1006 95 5000 4.12 240 17:27 25.11.2021
1077 Clouds 5 1006 95 6000 4.63 240 16:41 25.11.2021
1078 Mist 6 1007 95 5000 5.14 240 15:58 25.11.2021
1079 Clouds 6 1007 95 4200 5.14 250 14:30 25.11.2021
1080 Clouds 6 1008 93 3800 5.14 250 12:55 25.11.2021
1081 Clouds 6 1008 89 9000 5.14 250 11:56 25.11.2021
1082 Clouds 5 1009 90 7000 4.12 240 10:34 25.11.2021
1083 Clear 4 1010 89 10000 2.57 210 06:36 25.11.2021
1084 Clouds 5 1013 83 10000 1.03 0 02:58 25.11.2021
1085 Clouds 6 1014 70 10000 3.09 200 00:37 25.11.2021
1086 Clouds 6 1016 81 10000 2.06 170 22:29 24.11.2021
1087 Clouds 5 1016 87 10000 1.54 170 21:48 24.11.2021
1088 Clouds 6 1016 83 10000 0.51 0 21:22 24.11.2021
1089 Clouds 6 1017 86 10000 1.03 0 20:27 24.11.2021
1090 Clouds 6 1017 86 10000 1.03 0 20:27 24.11.2021
1091 Clouds 6 1017 85 10000 3.6 160 19:40 24.11.2021
1092 Clouds 6 1018 85 10000 2.06 200 18:19 24.11.2021
1093 Clouds 7 1019 81 10000 4.12 180 16:47 24.11.2021
1094 Clouds 7 1020 79 10000 3.09 230 15:21 24.11.2021
1095 Clouds 7 1020 86 10000 3.76 222 14:30 24.11.2021
1096 Clouds 8 1021 85 10000 4.12 210 13:35 24.11.2021
1097 Clouds 7 1022 98 10000 3.16 225 11:36 24.11.2021
1098 Clouds 7 1023 96 10000 3.09 220 11:18 24.11.2021
1099 Clouds 7 1023 96 10000 3.09 230 10:36 24.11.2021
1100 Clouds 7 1024 96 10000 4.12 220 09:35 24.11.2021
1101 Drizzle 6 1024 98 6000 2.57 240 07:41 24.11.2021
1102 Mist 6 1025 96 3800 1.54 240 06:20 24.11.2021
1103 Clouds 5 1026 98 6000 1.54 260 03:44 24.11.2021
1104 Clouds 5 1027 98 10000 2.06 230 23:36 23.11.2021
1105 Clouds 5 1027 98 10000 1.54 270 22:39 23.11.2021
1106 Fog 5 1027 95 6000 2.06 230 21:46 23.11.2021
1107 Fog 5 1027 98 6000 1.54 250 20:47 23.11.2021
1108 Clouds 6 1027 95 10000 1.03 250 19:37 23.11.2021
1109 Clouds 7 1027 95 10000 1.54 290 18:37 23.11.2021
1110 Clouds 7 1027 98 10000 1.54 280 17:57 23.11.2021
1111 Clouds 7 1027 94 10000 2.57 280 16:54 23.11.2021
1112 Clouds 7 1027 94 10000 2.57 280 16:54 23.11.2021
1113 Clouds 9 1027 89 10000 4.12 290 15:57 23.11.2021
1114 Clouds 9 1027 88 10000 4.63 290 15:19 23.11.2021
1115 Clouds 9 1027 91 10000 3.6 280 13:43 23.11.2021
1116 Clouds 8 1028 96 10000 3.09 250 10:41 23.11.2021
1117 Clouds 7 1027 98 10000 2.57 270 09:57 23.11.2021
1118 Clouds 6 1027 98 9000 1.54 260 08:44 23.11.2021
1119 Clouds 6 1026 95 10000 3.09 260 05:57 23.11.2021
1120 Clouds 6 1026 95 10000 3.6 260 03:42 23.11.2021
1121 Clouds 4 1027 93 10000 2.06 250 00:28 23.11.2021
1122 Clear 4 1027 91 10000 2.06 240 23:20 22.11.2021
1123 Clear 3 1027 94 10000 2.57 240 22:32 22.11.2021
1124 Clouds 4 1027 93 10000 1.03 250 21:48 22.11.2021
1125 Clouds 4 1027 93 10000 2.57 250 21:29 22.11.2021
1126 Clouds 4 1027 93 10000 2.57 260 20:50 22.11.2021
1127 Clouds 4 1027 90 10000 2.06 240 19:47 22.11.2021
1128 Clouds 4 1027 92 10000 3.03 258 19:18 22.11.2021
1129 Clouds 4 1027 88 10000 1.03 250 18:37 22.11.2021
1130 Clear 5 1027 85 10000 3.1 261 17:18 22.11.2021
1131 Clouds 6 1027 76 10000 2.06 250 15:43 22.11.2021
1132 Clouds 7 1026 73 10000 2.57 280 13:57 22.11.2021
1133 Clear 5 1026 89 10000 1.54 290 11:50 22.11.2021
1134 Clear 3 1026 96 10000 2.06 260 10:39 22.11.2021
1135 Clear 0 1025 95 10000 2.06 290 09:26 22.11.2021
1136 Clear -1 1025 100 10000 2.06 290 08:39 22.11.2021
1137 Clear 2 1021 95 10000 4.12 10 04:33 22.11.2021
1138 Clouds 6 1016 91 10000 4.63 20 23:26 21.11.2021
1139 Clouds 6 1016 91 10000 5.14 20 22:48 21.11.2021
1140 Clouds 6 1015 91 10000 4.63 10 21:51 21.11.2021
1141 Clouds 5 1014 91 10000 3.09 330 20:42 21.11.2021
1142 Clouds 5 1013 97 10000 1.54 310 19:46 21.11.2021
1143 Clouds 5 1011 93 10000 1.03 230 18:24 21.11.2021
1144 Clouds 6 1011 92 10000 1.03 0 17:38 21.11.2021
1145 Clouds 8 1010 88 10000 2.92 308 15:49 21.11.2021
1146 Rain 9 1009 79 10000 4.63 290 14:45 21.11.2021
1147 Clouds 10 1009 75 10000 5.66 300 13:46 21.11.2021
1148 Clouds 10 1009 83 10000 6.69 280 12:37 21.11.2021
1149 Clouds 9 1009 91 10000 4.12 270 11:43 21.11.2021
1150 Clouds 8 1009 95 10000 3.6 270 11:24 21.11.2021
1151 Clouds 8 1009 98 10000 3.6 270 10:18 21.11.2021
1152 Clouds 8 1009 98 10000 2.06 270 08:42 21.11.2021
1153 Clouds 8 1009 98 10000 2.06 270 08:23 21.11.2021
1154 Clouds 8 1009 98 10000 3.09 270 07:47 21.11.2021
1155 Drizzle 9 1009 95 3300 4.12 260 05:55 21.11.2021
1156 Drizzle 9 1009 95 3800 5.66 240 05:25 21.11.2021
1157 Clouds 9 1010 94 10000 5.66 230 03:19 21.11.2021
1158 Clouds 9 1010 94 10000 5.14 230 02:52 21.11.2021
1159 Drizzle 9 1012 94 10000 5.14 240 00:59 21.11.2021
1160 Drizzle 9 1013 95 10000 5.66 260 23:56 20.11.2021
1161 Mist 9 1014 95 4400 5.14 240 21:49 20.11.2021
1162 Drizzle 9 1014 95 4400 4.63 240 21:28 20.11.2021
1163 Drizzle 9 1016 98 3000 4.63 240 19:22 20.11.2021
1164 Drizzle 9 1016 98 3000 4.63 230 18:45 20.11.2021
1165 Drizzle 9 1017 95 3500 5.14 230 18:19 20.11.2021
1166 Drizzle 10 1018 92 6000 5.14 220 16:59 20.11.2021
1167 Clouds 10 1019 85 10000 6.17 230 14:49 20.11.2021
1168 Clouds 11 1020 86 10000 6.17 240 14:28 20.11.2021
1169 Clouds 11 1020 85 10000 5.14 240 13:32 20.11.2021
1170 Clouds 11 1023 91 10000 5.14 240 11:20 20.11.2021
1171 Clouds 11 1023 92 10000 4.63 240 09:53 20.11.2021
1172 Clouds 11 1024 92 10000 4.63 240 08:25 20.11.2021
1173 Clouds 11 1024 92 10000 4.63 260 05:30 20.11.2021
1174 Clouds 11 1024 92 10000 4.63 250 04:51 20.11.2021
1175 Clouds 11 1025 92 10000 5.14 260 03:25 20.11.2021
1176 Clouds 11 1026 94 10000 5.66 270 00:42 20.11.2021
1177 Clouds 11 1026 91 10000 5.66 260 23:44 19.11.2021
1178 Clouds 11 1026 91 10000 5.66 270 22:53 19.11.2021
1179 Clouds 12 1025 88 10000 6.69 270 21:22 19.11.2021
1180 Clouds 12 1025 88 10000 6.69 270 20:39 19.11.2021
1181 Clouds 12 1025 88 10000 7.72 270 20:20 19.11.2021
1182 Clouds 12 1025 87 10000 9.26 270 19:43 19.11.2021
1183 Clouds 12 1025 87 10000 6.69 260 18:44 19.11.2021
1184 Clouds 12 1025 86 10000 5.66 260 17:39 19.11.2021
1185 Clouds 13 1025 83 10000 6.69 270 16:22 19.11.2021
1186 Clouds 13 1025 82 10000 7.2 270 14:51 19.11.2021
1187 Clouds 12 1025 92 10000 5.66 250 10:56 19.11.2021
1188 Clouds 12 1025 92 10000 5.14 250 10:23 19.11.2021
1189 Drizzle 12 1024 95 10000 5.66 260 08:32 19.11.2021
1190 Clouds 12 1023 96 10000 6.17 270 04:58 19.11.2021
1191 Drizzle 12 1023 96 8000 6.17 260 03:19 19.11.2021
1192 Drizzle 11 1023 96 6000 7.2 260 23:53 18.11.2021
1193 Drizzle 11 1024 96 4500 7.72 250 22:49 18.11.2021
1194 Drizzle 10 1023 96 6000 8.23 250 20:57 18.11.2021
1195 Drizzle 10 1023 95 6000 8.23 250 20:39 18.11.2021
1196 Drizzle 10 1023 95 5000 8.23 250 20:19 18.11.2021
1197 Drizzle 9 1023 98 7000 7.72 240 19:36 18.11.2021
1198 Drizzle 9 1023 98 4000 7.2 240 18:37 18.11.2021
1199 Clouds 10 1023 92 10000 7.72 240 17:52 18.11.2021
1200 Clouds 10 1023 87 10000 7.2 250 16:47 18.11.2021
1201 Clouds 10 1022 86 10000 6.69 240 15:56 18.11.2021
1202 Clouds 10 1022 84 10000 8.23 240 14:57 18.11.2021
1203 Clouds 10 1024 86 10000 6.69 240 12:55 18.11.2021
1204 Clouds 10 1024 86 10000 6.17 240 11:44 18.11.2021
1205 Clear 9 1024 90 10000 6.17 230 11:25 18.11.2021
1206 Clear 9 1024 91 10000 5.66 230 10:24 18.11.2021
1207 Clouds 7 1024 95 10000 4.63 230 08:44 18.11.2021
1208 Clear 7 1023 95 10000 4.63 230 06:49 18.11.2021
1209 Clouds 6 1023 95 10000 4.12 230 05:46 18.11.2021
1210 Clouds 5 1022 94 10000 4.12 240 01:27 18.11.2021
1211 Clear 5 1022 94 10000 4.12 240 23:46 17.11.2021
1212 Clouds 6 1022 91 10000 5.14 240 22:40 17.11.2021
1213 Clouds 6 1022 91 10000 5.14 240 22:40 17.11.2021
1214 Clouds 6 1021 91 10000 4.63 240 22:19 17.11.2021
1215 Clouds 6 1021 91 10000 4.12 240 21:36 17.11.2021
1216 Clouds 7 1020 87 10000 5.14 260 20:18 17.11.2021
1217 Clouds 8 1019 93 10000 3.78 251 17:36 17.11.2021
1218 Clouds 8 1018 92 10000 4.63 240 16:45 17.11.2021
1219 Clouds 8 1017 96 6000 6.17 240 13:49 17.11.2021
1220 Clouds 7 1017 96 5000 5.66 250 12:39 17.11.2021
1221 Clouds 7 1017 93 6000 6.17 230 11:28 17.11.2021
1222 Drizzle 6 1017 93 4700 5.14 210 09:58 17.11.2021
1223 Drizzle 5 1017 96 4700 4.12 210 09:23 17.11.2021
1224 Clouds 5 1017 93 7000 4.63 180 07:41 17.11.2021
1225 Drizzle 4 1018 92 5000 3.09 240 03:31 17.11.2021
1226 Drizzle 4 1019 92 6000 1.03 210 00:46 17.11.2021
1227 Drizzle 4 1020 93 8000 2.06 220 22:41 16.11.2021
1228 Drizzle 4 1020 92 6000 3.09 230 20:20 16.11.2021
1229 Drizzle 4 1021 92 6000 2.06 210 19:57 16.11.2021
1230 Drizzle 4 1021 92 7000 1.54 220 18:53 16.11.2021
1231 Drizzle 4 1021 89 9000 1.54 230 18:29 16.11.2021
1232 Clouds 4 1021 89 10000 1.54 190 17:31 16.11.2021
1233 Clouds 4 1021 89 10000 1.03 0 16:32 16.11.2021
1234 Drizzle 5 1021 89 8000 1.54 160 15:49 16.11.2021
1235 Drizzle 5 1022 89 8000 1.54 190 14:31 16.11.2021
1236 Clouds 5 1024 88 9000 2.06 110 11:22 16.11.2021
1237 Clouds 5 1024 87 9000 1.54 100 09:45 16.11.2021
1238 Clouds 5 1024 87 10000 1.03 0 08:26 16.11.2021
1239 Clouds 5 1025 87 10000 1.03 0 07:31 16.11.2021
1240 Clouds 5 1026 84 10000 3.09 110 01:38 16.11.2021
1241 Clouds 5 1027 84 10000 2.57 120 23:20 15.11.2021
1242 Clouds 5 1027 84 10000 3.09 90 22:30 15.11.2021
1243 Clouds 6 1027 84 10000 3.6 80 21:53 15.11.2021
1244 Clouds 6 1027 84 10000 3.09 110 21:28 15.11.2021
1245 Clouds 6 1027 83 10000 3.6 90 19:42 15.11.2021
1246 Clouds 6 1027 83 7000 2.57 100 18:33 15.11.2021
1247 Clouds 6 1027 83 7000 3.6 120 16:20 15.11.2021
1248 Clouds 6 1027 83 7000 3.6 110 15:41 15.11.2021
1249 Clouds 6 1027 83 7000 4.12 120 15:23 15.11.2021
1250 Clouds 6 1028 84 6000 3.6 110 13:29 15.11.2021
1251 Clouds 5 1029 84 6000 4.12 120 11:21 15.11.2021
1252 Clouds 5 1029 86 6000 4.12 120 09:28 15.11.2021
1253 Clouds 6 1028 75 8000 4.12 90 07:52 15.11.2021
1254 Drizzle 6 1028 92 9000 3.6 110 05:21 15.11.2021
1255 Drizzle 7 1029 89 7000 3.09 110 23:57 14.11.2021
1256 Clouds 7 1029 88 8000 3.09 100 22:37 14.11.2021
1257 Clouds 7 1028 88 9000 2.57 90 19:59 14.11.2021
1258 Clouds 8 1028 85 9000 3.6 80 19:18 14.11.2021
1259 Clouds 8 1027 85 9000 4.63 70 18:54 14.11.2021
1260 Clouds 8 1027 85 9000 4.63 70 18:36 14.11.2021
1261 Clouds 8 1027 87 9000 4.12 70 18:18 14.11.2021
1262 Drizzle 8 1027 88 8000 4.12 80 17:57 14.11.2021
1263 Drizzle 8 1027 89 8000 4.12 80 17:39 14.11.2021
1264 Drizzle 8 1027 89 10000 4.63 60 17:21 14.11.2021
1265 Clouds 8 1027 89 10000 4.12 80 16:49 14.11.2021
1266 Clouds 8 1026 89 10000 2.57 80 16:21 14.11.2021
1267 Clouds 8 1026 89 10000 2.57 90 15:46 14.11.2021
1268 Clouds 8 1026 90 10000 4.12 70 15:18 14.11.2021
1269 Clouds 9 1026 88 10000 4.63 60 14:32 14.11.2021
1270 Clouds 9 1025 90 10000 3.09 80 13:59 14.11.2021
1271 Clouds 9 1025 90 10000 3.09 80 13:40 14.11.2021
1272 Clouds 9 1025 90 7000 2.57 70 12:45 14.11.2021
1273 Clouds 9 1025 93 7000 2.57 70 12:18 14.11.2021
1274 Clouds 8 1024 94 7000 3.6 70 10:50 14.11.2021
1275 Clouds 8 1024 96 6000 3.09 60 10:27 14.11.2021
1276 Drizzle 8 1023 94 4200 3.09 60 08:57 14.11.2021
1277 Clouds 8 1021 94 6000 2.57 70 07:28 14.11.2021
1278 Mist 8 1018 94 5000 2.57 60 02:20 14.11.2021
1279 Clouds 8 1017 94 8000 1.54 110 22:27 13.11.2021
1280 Clouds 8 1016 93 7000 2.06 110 21:57 13.11.2021
1281 Clouds 8 1016 93 6000 2.06 100 21:27 13.11.2021
1282 Mist 8 1015 93 4800 2.57 110 20:24 13.11.2021
1283 Drizzle 8 1015 96 4500 1.54 100 18:48 13.11.2021
1284 Drizzle 8 1014 93 5000 1.54 120 18:26 13.11.2021
1285 Drizzle 8 1013 96 5000 1.54 120 16:48 13.11.2021
1286 Mist 8 1013 96 5000 2.57 160 15:41 13.11.2021
1287 Drizzle 8 1012 96 7000 2.57 150 14:36 13.11.2021
1288 Clouds 8 1012 93 10000 2.57 170 13:46 13.11.2021
1289 Mist 8 1012 93 5000 2.57 160 12:38 13.11.2021
1290 Mist 7 1012 96 4700 3.09 160 11:39 13.11.2021
1291 Drizzle 7 1011 93 5000 3.6 150 10:48 13.11.2021
1292 Drizzle 7 1011 93 7000 3.09 160 10:29 13.11.2021
1293 Clouds 7 1011 93 10000 3.09 160 09:42 13.11.2021
1294 Clouds 7 1011 90 10000 3.6 160 09:18 13.11.2021
1295 Clouds 7 1010 90 10000 3.6 150 08:40 13.11.2021
1296 Clouds 7 1010 92 10000 3.09 140 06:55 13.11.2021
1297 Drizzle 7 1009 88 10000 4.12 170 04:34 13.11.2021
1298 Clouds 7 1010 81 10000 3.09 140 02:27 13.11.2021
1299 Clear 6 1011 84 10000 4.63 140 23:27 12.11.2021
1300 Clear 6 1012 87 10000 4.12 140 21:51 12.11.2021
1301 Clear 7 1012 84 10000 3.6 140 20:20 12.11.2021
1302 Clear 7 1013 84 10000 4.63 150 19:31 12.11.2021
1303 Clear 7 1013 82 10000 4.63 140 18:53 12.11.2021
1304 Clear 7 1014 86 10000 3.09 150 17:36 12.11.2021
1305 Clouds 9 1015 82 10000 4.12 150 15:51 12.11.2021
1306 Clouds 9 1017 84 10000 5.66 150 13:26 12.11.2021
1307 Clouds 9 1018 90 10000 4.63 150 11:23 12.11.2021
1308 Clouds 8 1019 92 6000 4.12 140 09:55 12.11.2021
1309 Mist 8 1019 93 5000 4.12 140 08:50 12.11.2021
1310 Mist 8 1021 96 4000 2.06 150 06:35 12.11.2021
1311 Mist 8 1023 95 4000 2.06 210 23:55 11.11.2021
1312 Mist 8 1023 96 4000 2.57 190 22:49 11.11.2021
1313 Mist 9 1023 93 4500 2.57 190 21:57 11.11.2021
1314 Mist 9 1023 93 5000 2.06 200 20:52 11.11.2021
1315 Clouds 9 1023 93 6000 3.09 220 19:48 11.11.2021
1316 Clouds 9 1023 93 6000 2.06 220 18:27 11.11.2021
1317 Clouds 9 1023 93 6000 2.06 220 18:27 11.11.2021
1318 Clouds 9 1023 92 6000 2.06 230 17:41 11.11.2021
1319 Clouds 10 1023 88 8000 4.12 240 15:29 11.11.2021
1320 Clouds 10 1023 88 9000 5.14 240 14:39 11.11.2021
1321 Clouds 10 1023 88 9000 4.63 240 14:21 11.11.2021
1322 Clouds 10 1023 89 9000 5.14 240 13:35 11.11.2021
1323 Clouds 10 1023 88 8000 4.63 230 12:27 11.11.2021
1324 Clouds 9 1023 93 7000 2.57 220 09:59 11.11.2021
1325 Drizzle 9 1023 93 6000 2.57 210 09:23 11.11.2021
1326 Clouds 8 1023 93 8000 1.54 210 07:33 11.11.2021
1327 Clouds 8 1023 93 10000 1.54 200 00:40 11.11.2021
1328 Clouds 8 1024 90 10000 1.03 230 22:46 10.11.2021
1329 Clouds 8 1024 90 10000 1.03 220 21:54 10.11.2021
1330 Clouds 8 1024 90 10000 1.03 220 21:54 10.11.2021
1331 Clouds 8 1024 88 10000 2.06 230 20:57 10.11.2021
1332 Clouds 8 1024 88 10000 2.06 210 20:25 10.11.2021
1333 Clouds 9 1024 88 10000 2.57 210 19:45 10.11.2021
1334 Clouds 9 1024 85 10000 2.06 190 17:39 10.11.2021
1335 Clouds 9 1023 81 10000 1.03 220 16:21 10.11.2021
1336 Clouds 9 1023 80 10000 2.06 250 14:25 10.11.2021
1337 Clouds 9 1023 80 10000 1.54 230 13:40 10.11.2021
1338 Clouds 8 1024 80 10000 2.06 200 12:39 10.11.2021
1339 Clouds 6 1024 87 10000 1.54 180 09:41 10.11.2021
1340 Clouds 4 1024 89 10000 1.03 0 08:45 10.11.2021
1341 Clear 3 1024 93 10000 2.06 190 07:22 10.11.2021
1342 Clear 3 1024 93 10000 1.54 190 05:59 10.11.2021
1343 Clear 2 1024 94 10000 2.57 170 04:59 10.11.2021
1344 Clear 4 1025 89 10000 0.51 0 22:45 09.11.2021
1345 Clear 5 1026 87 10000 1.03 170 21:47 09.11.2021
1346 Clear 6 1026 82 10000 1.54 170 20:20 09.11.2021
1347 Clear 7 1026 81 10000 1.54 170 19:20 09.11.2021
1348 Clear 9 1025 73 10000 3.09 190 17:30 09.11.2021
1349 Clear 11 1025 68 10000 4.63 200 15:38 09.11.2021
1350 Clear 11 1026 70 10000 5.66 200 13:59 09.11.2021
1351 Clear 11 1026 71 10000 5.14 210 12:50 09.11.2021
1352 Clear 11 1027 77 10000 5.66 210 11:38 09.11.2021
1353 Clear 11 1027 77 10000 5.66 210 11:38 09.11.2021
1354 Clear 9 1027 85 10000 3.6 210 10:43 09.11.2021
1355 Clear 7 1026 96 10000 2.57 180 09:24 09.11.2021
1356 Clouds 6 1026 96 8000 2.57 190 08:19 09.11.2021
1357 Clouds 8 1025 95 10000 2.57 180 05:45 09.11.2021
1358 Clouds 8 1024 95 10000 1.54 210 02:22 09.11.2021
1359 Clouds 8 1024 95 10000 1.03 0 01:43 09.11.2021
1360 Clouds 8 1024 95 10000 2.57 230 23:36 08.11.2021
1361 Clouds 8 1023 95 10000 3.6 240 22:49 08.11.2021
1362 Clouds 8 1023 95 10000 3.09 240 21:55 08.11.2021
1363 Clouds 8 1023 93 10000 2.57 230 20:53 08.11.2021
1364 Clouds 8 1022 95 10000 2.06 250 19:49 08.11.2021
1365 Clouds 8 1022 93 10000 2.57 260 18:25 08.11.2021
1366 Drizzle 10 1020 90 10000 5.14 270 16:22 08.11.2021
1367 Clouds 10 1020 90 10000 5.14 260 14:58 08.11.2021
1368 Clouds 10 1020 89 10000 5.14 260 14:38 08.11.2021
1369 Clouds 9 1019 93 10000 7.2 260 13:31 08.11.2021
1370 Clouds 9 1019 86 10000 6.69 250 11:56 08.11.2021
1371 Clouds 8 1019 89 10000 5.66 240 10:52 08.11.2021
1372 Clouds 7 1019 92 10000 5.14 230 09:39 08.11.2021
1373 Clouds 6 1018 95 10000 3.09 230 08:54 08.11.2021
1374 Clouds 6 1017 97 10000 4.76 258 07:29 08.11.2021
1375 Clouds 7 1016 91 10000 5.66 250 03:56 08.11.2021
1376 Clouds 7 1016 93 10000 6.17 250 03:28 08.11.2021
1377 Clouds 8 1014 91 10000 7.2 260 23:46 07.11.2021
1378 Clouds 8 1013 90 10000 8.23 260 21:48 07.11.2021
1379 Clouds 8 1012 89 10000 8.23 250 20:54 07.11.2021
1380 Clouds 8 1012 87 10000 7.2 260 19:40 07.11.2021
1381 Clouds 8 1011 80 10000 7.2 270 18:22 07.11.2021
1382 Clouds 9 1010 85 10000 7.14 265 16:54 07.11.2021
1383 Clouds 10 1010 75 10000 7.72 270 15:54 07.11.2021
1384 Clouds 10 1010 75 10000 9.26 270 14:29 07.11.2021
1385 Clouds 11 1010 71 10000 9.77 260 13:35 07.11.2021
1386 Clouds 10 1010 79 10000 7.2 260 11:43 07.11.2021
1387 Clouds 9 1010 87 10000 7.2 260 09:57 07.11.2021
1388 Clouds 9 1010 90 10000 7.2 260 08:31 07.11.2021
1389 Clouds 9 1011 93 10000 10.29 230 02:41 07.11.2021
1390 Clouds 10 1015 85 10000 8.75 220 23:38 06.11.2021
1391 Rain 10 1016 84 10000 8.23 220 22:48 06.11.2021
1392 Clouds 10 1017 84 10000 8.75 220 21:34 06.11.2021
1393 Clouds 10 1017 83 10000 7.2 220 20:52 06.11.2021
1394 Clouds 10 1019 81 10000 7.2 220 18:56 06.11.2021
1395 Clouds 10 1021 84 10000 6.17 220 16:47 06.11.2021
1396 Clouds 10 1021 84 10000 6.17 220 16:47 06.11.2021
1397 Clouds 10 1021 84 10000 6.69 220 15:21 06.11.2021
1398 Clouds 9 1023 88 10000 7.2 220 13:38 06.11.2021
1399 Clouds 9 1024 89 10000 6.17 230 12:28 06.11.2021
1400 Clouds 8 1024 91 10000 6.69 230 09:39 06.11.2021
1401 Clouds 8 1024 89 10000 6.17 230 07:57 06.11.2021
1402 Clear 7 1024 92 10000 4.63 250 02:40 06.11.2021
1403 Clouds 7 1024 89 10000 3.6 250 23:38 05.11.2021
1404 Clouds 7 1024 92 10000 4.12 250 22:50 05.11.2021
1405 Clouds 8 1024 94 10000 3.6 250 21:54 05.11.2021
1406 Clouds 8 1023 92 10000 4.63 240 20:20 05.11.2021
1407 Clouds 7 1023 93 10000 4.12 240 19:49 05.11.2021
1408 Clouds 8 1022 94 10000 5 253 18:41 05.11.2021
1409 Clouds 8 1022 88 10000 3.6 240 17:31 05.11.2021
1410 Clouds 11 1021 82 10000 5.14 260 15:48 05.11.2021
1411 Clouds 11 1020 74 10000 4.63 250 13:55 05.11.2021
1412 Clouds 10 1019 82 10000 4.63 280 11:42 05.11.2021
1413 Clouds 7 1016 95 10000 3.09 260 08:41 05.11.2021
1414 Clouds 7 1016 95 10000 3.09 270 07:39 05.11.2021
1415 Clouds 7 1013 95 10000 2.57 250 05:33 05.11.2021
1416 Clear 7 1012 93 10000 3.09 270 02:26 05.11.2021
1417 Clouds 7 1011 92 10000 3.09 280 00:53 05.11.2021
1418 Clouds 7 1010 89 10000 4.12 290 23:25 04.11.2021
1419 Clouds 8 1009 87 10000 4.12 290 22:20 04.11.2021
1420 Clouds 8 1008 87 10000 4.12 300 21:43 04.11.2021
1421 Clear 8 1008 87 10000 3.6 300 21:19 04.11.2021
1422 Clouds 8 1007 88 10000 4.63 290 20:23 04.11.2021
1423 Clouds 8 1007 88 10000 5.14 290 19:48 04.11.2021
1424 Clouds 8 1007 87 10000 5.14 300 19:19 04.11.2021
1425 Clouds 8 1006 86 10000 5.66 310 18:20 04.11.2021
1426 Clouds 8 1005 92 10000 3.69 326 17:26 04.11.2021
1427 Clouds 9 1004 85 10000 4.12 320 15:34 04.11.2021
1428 Clouds 8 1004 94 10000 3.76 340 13:40 04.11.2021
1429 Clouds 8 1003 93 8000 3.6 30 09:50 04.11.2021
1430 Clouds 7 1003 93 7000 2.57 30 08:31 04.11.2021
1431 Clouds 7 1003 97 10000 2.33 55 07:35 04.11.2021
1432 Clouds 7 1002 95 8000 2.57 30 06:22 04.11.2021
1433 Clouds 7 1003 92 10000 1.54 60 22:54 03.11.2021
1434 Rain 7 1003 92 10000 2.06 110 21:51 03.11.2021
1435 Rain 7 1003 91 10000 2.06 110 21:33 03.11.2021
1436 Rain 7 1003 91 10000 2.57 120 20:38 03.11.2021
1437 Rain 7 1003 91 10000 2.06 100 20:19 03.11.2021
1438 Rain 7 1002 88 10000 1.54 90 19:19 03.11.2021
1439 Rain 8 1002 88 10000 1.03 60 18:25 03.11.2021
1440 Rain 8 1002 87 10000 1.03 80 17:41 03.11.2021
1441 Clear 8 1002 86 10000 1.03 0 16:31 03.11.2021
1442 Clear 9 1002 85 10000 1.54 100 15:47 03.11.2021
1443 Clear 9 1002 82 10000 2.06 140 15:28 03.11.2021
1444 Clear 9 1002 80 10000 2.06 140 15:28 03.11.2021
1445 Clear 9 1002 83 10000 2.06 140 12:42 03.11.2021
1446 Clouds 8 1002 93 10000 2.34 202 11:28 03.11.2021
1447 Clear 8 1002 86 10000 1.54 190 10:49 03.11.2021
1448 Clouds 7 1002 92 6000 3.09 180 09:34 03.11.2021
1449 Mist 7 1001 93 5000 1.54 180 08:37 03.11.2021
1450 Mist 6 1001 95 5000 2.06 180 07:39 03.11.2021
1451 Clouds 7 1002 95 10000 2.95 204 05:45 03.11.2021
1452 Clouds 7 1000 92 10000 2.57 170 04:21 03.11.2021
1453 Clouds 7 1000 92 10000 2.06 150 00:55 03.11.2021
1454 Clouds 6 1000 92 10000 2.57 130 22:52 02.11.2021
1455 Clouds 6 1000 92 10000 2.57 130 22:52 02.11.2021
1456 Clouds 5 1000 94 10000 1.03 0 21:47 02.11.2021
1457 Clear 5 1000 94 10000 1.54 100 20:35 02.11.2021
1458 Clear 6 1000 91 10000 1.54 160 19:56 02.11.2021
1459 Clear 7 1000 88 10000 1.54 140 19:20 02.11.2021
1460 Clouds 8 999 86 10000 1.54 150 18:27 02.11.2021
1461 Clouds 9 999 85 10000 1.54 150 17:43 02.11.2021
1462 Clouds 10 999 83 10000 1.54 190 16:34 02.11.2021
1463 Clouds 11 999 75 10000 1.54 210 15:48 02.11.2021
1464 Clouds 11 999 77 10000 3.6 230 14:51 02.11.2021
1465 Clouds 11 999 77 10000 3.6 190 13:29 02.11.2021
1466 Clouds 11 999 77 10000 3.09 170 12:46 02.11.2021
1467 Clouds 10 999 81 10000 2.57 220 11:38 02.11.2021
1468 Clear 9 1000 85 10000 2.57 170 10:54 02.11.2021
1469 Clear 8 1000 87 10000 2.57 160 10:32 02.11.2021
1470 Clear 7 1000 90 10000 2.57 150 09:40 02.11.2021
1471 Clear 4 999 94 10000 2.57 120 07:45 02.11.2021
1472 Clear 5 999 94 10000 2.06 150 04:39 02.11.2021
1473 Clear 5 999 90 10000 1.03 0 03:20 02.11.2021
1474 Clear 7 1000 82 10000 3.09 170 23:39 01.11.2021
1475 Clear 7 1000 82 10000 3.09 140 21:46 01.11.2021
1476 Clear 7 1000 83 10000 3.09 140 20:44 01.11.2021
1477 Clear 8 1000 84 10000 2.57 170 19:58 01.11.2021
1478 Clear 8 1000 83 10000 2.57 170 19:38 01.11.2021
1479 Clear 9 999 80 10000 4.12 160 18:23 01.11.2021
1480 Clouds 10 999 76 10000 3.09 170 17:36 01.11.2021
1481 Clouds 12 999 71 10000 4.12 200 16:52 01.11.2021
1482 Clouds 12 999 70 10000 4.63 200 16:20 01.11.2021
1483 Clouds 13 999 67 10000 5.14 210 15:29 01.11.2021
1484 Clouds 12 999 69 10000 7.2 220 14:45 01.11.2021
1485 Clouds 12 999 70 10000 7.2 220 14:25 01.11.2021
1486 Clouds 13 998 64 10000 8.23 210 13:50 01.11.2021
1487 Clouds 12 998 74 10000 7.2 200 12:36 01.11.2021
1488 Clouds 12 998 73 10000 8.23 200 11:30 01.11.2021
1489 Clouds 11 998 84 10000 5.14 200 10:19 01.11.2021
1490 Clouds 9 998 89 10000 4.63 190 08:18 01.11.2021
1491 Clear 9 997 89 10000 4.12 180 07:45 01.11.2021
1492 Clear 11 997 90 10000 4.12 210 03:49 01.11.2021
1493 Clouds 12 998 89 10000 5.14 200 01:43 01.11.2021
1494 Rain 15 994 81 10000 5.66 150 22:48 31.10.2021
1495 Rain 15 996 80 10000 7.2 140 20:50 31.10.2021
1496 Clouds 15 998 83 10000 6.17 120 19:22 31.10.2021
1497 Clear 15 998 86 10000 5.66 140 18:41 31.10.2021
1498 Clouds 14 999 84 10000 5.66 130 17:52 31.10.2021
1499 Clouds 15 1002 82 10000 4.63 140 15:51 31.10.2021
1500 Clouds 15 1003 79 10000 6.17 140 14:39 31.10.2021
1501 Clouds 14 1005 84 10000 4.63 130 12:50 31.10.2021
1502 Clouds 13 1006 91 8000 3.6 140 11:42 31.10.2021
1503 Clouds 12 1006 96 10000 4.81 166 10:47 31.10.2021
1504 Mist 10 1007 96 4000 2.57 130 09:22 31.10.2021
1505 Fog 9 1007 95 3800 1.54 130 08:37 31.10.2021
1506 Clouds 12 1005 92 10000 4.12 210 02:19 31.10.2021
1507 Clouds 11 1003 94 10000 3.6 180 23:41 30.10.2021
1508 Clouds 12 1002 79 10000 3.6 170 21:36 30.10.2021
1509 Clouds 11 1002 80 10000 3.6 160 20:52 30.10.2021
1510 Clouds 12 1002 78 10000 4.63 150 19:23 30.10.2021
1511 Clouds 12 1002 80 10000 4.63 130 17:42 30.10.2021
1512 Rain 12 1003 74 10000 4.12 120 15:26 30.10.2021
1513 Clear 11 1004 77 10000 4.12 130 13:56 30.10.2021
1514 Clear 11 1004 80 10000 5.14 110 13:21 30.10.2021
1515 Rain 10 1005 79 10000 4.63 120 12:57 30.10.2021
1516 Rain 10 1005 84 10000 3.09 130 11:49 30.10.2021
1517 Rain 10 1005 83 10000 4.12 130 10:32 30.10.2021
1518 Clear 9 1006 87 10000 3.09 120 08:54 30.10.2021
1519 Clear 9 1006 90 10000 2.57 120 07:42 30.10.2021
1520 Clear 9 1006 87 10000 2.57 140 05:44 30.10.2021
1521 Clear 11 1007 81 10000 3.6 160 01:57 30.10.2021
1522 Clear 11 1007 81 10000 3.6 140 22:54 29.10.2021
1523 Clear 11 1007 80 10000 3.6 140 22:32 29.10.2021
1524 Clear 11 1007 82 10000 2.57 150 20:47 29.10.2021
1525 Clear 12 1006 80 10000 5.14 130 20:26 29.10.2021
1526 Clear 13 1006 78 10000 4.63 150 18:49 29.10.2021
1527 Clear 16 1007 70 10000 6.17 150 17:24 29.10.2021
1528 Clear 17 1008 65 10000 7.2 160 15:22 29.10.2021
1529 Clear 13 1009 73 10000 4.12 150 12:29 29.10.2021
1530 Clear 10 1010 81 10000 3.09 130 10:46 29.10.2021
1531 Clear 6 1010 90 10000 2.06 140 08:47 29.10.2021
1532 Clear 9 1012 85 10000 2.57 140 00:46 29.10.2021
1533 Clear 9 1013 87 10000 2.06 170 23:46 28.10.2021
1534 Clear 10 1013 81 10000 3.09 150 22:20 28.10.2021
1535 Clear 11 1013 77 10000 4.12 150 20:57 28.10.2021
1536 Clear 12 1013 77 10000 3.6 140 19:52 28.10.2021
1537 Clear 14 1014 75 10000 3.6 140 18:30 28.10.2021
1538 Clear 15 1014 73 10000 4.12 150 17:27 28.10.2021
1539 Clear 16 1015 69 10000 5.14 160 16:37 28.10.2021
1540 Clear 16 1016 71 10000 4.12 170 14:40 28.10.2021
1541 Clear 15 1017 77 10000 3.6 170 13:32 28.10.2021
1542 Clear 14 1018 81 10000 3.6 160 12:49 28.10.2021
1543 Clear 12 1018 87 10000 3.09 140 11:37 28.10.2021
1544 Clear 9 1019 95 10000 3.09 150 10:23 28.10.2021
1545 Clear 8 1019 95 10000 3.6 140 09:37 28.10.2021
1546 Clouds 8 1019 95 9000 3.09 140 08:36 28.10.2021
1547 Clear 8 1019 95 10000 3.09 140 07:41 28.10.2021
1548 Clouds 10 1020 93 6000 1.03 0 01:37 28.10.2021
1549 Clear 12 1020 86 10000 3.09 200 22:49 27.10.2021
1550 Clouds 13 1020 85 10000 2.57 200 21:53 27.10.2021
1551 Clouds 14 1020 83 10000 3.6 200 21:20 27.10.2021
1552 Clouds 14 1020 84 10000 2.57 200 20:43 27.10.2021
1553 Clouds 14 1020 83 10000 2.06 200 19:46 27.10.2021
1554 Clouds 14 1020 81 10000 3.6 220 18:56 27.10.2021
1555 Clouds 15 1020 80 10000 4.12 230 17:49 27.10.2021
1556 Clouds 15 1020 80 10000 7.72 240 16:25 27.10.2021
1557 Clouds 15 1020 84 10000 5.14 230 15:25 27.10.2021
1558 Clouds 14 1021 89 8000 6.17 220 14:24 27.10.2021
1559 Drizzle 14 1021 92 7000 6.17 220 11:18 27.10.2021
1560 Clouds 14 1020 93 7000 5.66 230 10:37 27.10.2021
1561 Drizzle 13 1020 95 6000 4.12 210 09:28 27.10.2021
1562 Mist 13 1019 95 5000 3.6 210 07:46 27.10.2021
1563 Clouds 13 1019 91 10000 5.14 220 05:49 27.10.2021
1564 Clouds 13 1019 88 10000 6.17 230 01:26 27.10.2021
1565 Clouds 13 1019 82 10000 6.69 220 00:54 27.10.2021
1566 Clouds 13 1019 85 10000 6.17 220 23:55 26.10.2021
1567 Clouds 13 1019 86 10000 4.63 220 22:47 26.10.2021
1568 Clouds 12 1019 86 10000 5.14 220 22:27 26.10.2021
1569 Clouds 12 1018 86 10000 5.66 220 21:51 26.10.2021
1570 Clouds 12 1019 91 10000 3.6 210 19:59 26.10.2021
1571 Clouds 12 1019 92 10000 2.06 200 19:22 26.10.2021
1572 Clouds 11 1018 94 4500 5.14 230 18:25 26.10.2021
1573 Clouds 14 1018 78 10000 6.17 230 15:51 26.10.2021
1574 Clouds 13 1018 80 10000 6.17 240 14:18 26.10.2021
1575 Clouds 12 1018 91 10000 4.12 220 11:23 26.10.2021
1576 Clouds 11 1017 95 10000 4.63 230 09:27 26.10.2021
1577 Clouds 10 1016 95 10000 3.6 230 07:23 26.10.2021
1578 Clouds 11 1016 89 10000 2.57 200 00:31 26.10.2021
1579 Clouds 11 1016 87 10000 2.57 200 23:48 25.10.2021
1580 Clouds 11 1016 87 10000 2.06 210 22:35 25.10.2021
1581 Clouds 11 1016 87 10000 2.57 190 21:47 25.10.2021
1582 Clouds 11 1016 87 10000 2.57 210 21:23 25.10.2021
1583 Clouds 12 1016 83 10000 2.06 180 19:44 25.10.2021
1584 Clouds 12 1016 84 10000 3.09 200 19:24 25.10.2021
1585 Clouds 12 1016 85 10000 2.57 200 18:42 25.10.2021
1586 Clouds 12 1016 81 10000 2.57 170 17:42 25.10.2021
1587 Clouds 12 1017 85 10000 3.6 190 15:31 25.10.2021
1588 Clouds 10 1018 84 10000 3.6 190 13:29 25.10.2021
1589 Clouds 8 1017 87 10000 1.54 0 11:25 25.10.2021
1590 Clear 3 1018 94 10000 2.06 160 09:23 25.10.2021
1591 Clear 2 1018 94 10000 2.57 170 07:26 25.10.2021
1592 Clear 3 1018 93 10000 1.03 160 05:24 25.10.2021
1593 Clear 5 1019 86 10000 3.09 140 00:52 25.10.2021
1594 Clear 4 1019 88 10000 3.09 140 00:34 25.10.2021
1595 Clear 4 1020 87 10000 3.09 140 00:34 25.10.2021
1596 Clear 4 1020 87 10000 3.09 140 00:34 25.10.2021
1597 Clear 5 1020 87 10000 2.06 130 23:44 24.10.2021
1598 Clear 6 1020 85 10000 3.09 160 22:39 24.10.2021
1599 Clear 6 1019 82 10000 4.63 150 22:20 24.10.2021
1600 Clear 6 1019 81 10000 4.12 140 21:33 24.10.2021
1601 Clear 7 1020 82 10000 0.51 0 20:42 24.10.2021
1602 Clear 8 1021 80 10000 3.09 120 19:49 24.10.2021
1603 Clear 10 1022 73 10000 3.6 140 18:30 24.10.2021
1604 Clear 11 1022 71 10000 3.6 140 17:48 24.10.2021
1605 Clear 12 1023 65 10000 5.66 150 15:57 24.10.2021
1606 Clear 12 1024 66 10000 6.17 170 15:20 24.10.2021
1607 Clear 11 1025 71 10000 3.09 140 13:23 24.10.2021
1608 Clear 9 1026 79 10000 3.09 140 12:26 24.10.2021
1609 Clear 8 1026 83 10000 3.6 140 11:36 24.10.2021
1610 Clear 6 1026 83 10000 4.12 140 10:40 24.10.2021
1611 Clear 3 1027 95 10000 2.06 120 08:43 24.10.2021
1612 Clear 5 1028 89 10000 1.54 150 02:58 24.10.2021
1613 Clear 4 1028 91 10000 1.03 0 23:55 23.10.2021
1614 Clear 4 1028 91 10000 2.06 160 22:54 23.10.2021
1615 Clear 6 1028 87 10000 2.06 200 20:59 23.10.2021
1616 Clear 7 1028 84 10000 2.06 210 19:36 23.10.2021
1617 Clear 8 1027 81 10000 2.57 220 18:44 23.10.2021
1618 Clouds 11 1027 71 10000 1.54 260 17:46 23.10.2021
1619 Clouds 11 1027 70 10000 3.09 290 17:18 23.10.2021
1620 Clouds 12 1027 68 10000 4.63 250 15:57 23.10.2021
1621 Clouds 11 1026 78 10000 5.14 270 13:35 23.10.2021
1622 Clouds 6 1019 92 10000 5.66 260 00:45 23.10.2021
1623 Clouds 6 1018 89 10000 5.14 260 23:41 22.10.2021
1624 Clouds 6 1016 86 10000 5.66 260 21:37 22.10.2021
1625 Clouds 6 1014 85 10000 4.63 270 19:33 22.10.2021
1626 Clouds 8 1012 83 10000 6.69 290 18:25 22.10.2021
1627 Clouds 9 1010 84 10000 7.2 280 16:44 22.10.2021
1628 Rain 9 1008 91 10000 9.26 270 14:45 22.10.2021
1629 Rain 9 1007 90 6000 12.35 250 12:41 22.10.2021
1630 Clouds 9 1006 83 10000 11.32 240 10:57 22.10.2021
1631 Clouds 9 1006 84 10000 11.32 240 10:33 22.10.2021
1632 Clouds 8 1006 84 10000 10.8 240 09:34 22.10.2021
1633 Clouds 7 1007 86 10000 9.26 230 07:40 22.10.2021
1634 Clouds 7 1007 86 10000 9.26 230 07:21 22.10.2021
1635 Clouds 7 1007 86 10000 9.26 230 07:21 22.10.2021
1636 Clear 6 1008 89 10000 7.2 250 01:41 22.10.2021
1637 Clouds 6 1008 88 10000 7.2 250 23:50 21.10.2021
1638 Clouds 6 1007 88 10000 6.17 250 22:44 21.10.2021
1639 Clouds 6 1006 87 10000 5.66 240 21:38 21.10.2021
1640 Clouds 6 1004 87 10000 6.17 260 20:24 21.10.2021
1641 Clouds 7 1004 85 10000 7.72 280 19:55 21.10.2021
1642 Clouds 7 1003 85 10000 6.69 260 19:25 21.10.2021
1643 Clouds 7 1002 88 10000 6.69 250 18:34 21.10.2021
1644 Clouds 7 1001 92 10000 4.63 270 17:53 21.10.2021
1645 Clouds 8 1000 94 10000 8.29 292 16:50 21.10.2021
1646 Rain 9 998 90 10000 6.69 260 15:33 21.10.2021
1647 Rain 8 997 93 4800 8.75 280 14:57 21.10.2021
1648 Rain 9 997 97 10000 7.61 275 14:37 21.10.2021
1649 Rain 10 991 93 10000 10.8 260 11:59 21.10.2021
1650 Rain 10 985 92 10000 14.4 280 09:55 21.10.2021
1651 Rain 11 983 91 9000 8.23 210 08:20 21.10.2021
1652 Clouds 12 984 88 10000 14.4 230 06:54 21.10.2021
1653 Clouds 13 994 91 10000 3.6 210 00:51 21.10.2021
1654 Clouds 13 996 89 10000 5.66 230 22:41 20.10.2021
1655 Clouds 14 997 91 10000 8.47 225 21:50 20.10.2021
1656 Rain 15 997 88 10000 7.2 220 21:18 20.10.2021
1657 Rain 15 997 86 10000 7.2 220 20:39 20.10.2021
1658 Clouds 15 997 86 10000 7.72 220 20:21 20.10.2021
1659 Clouds 16 998 81 10000 8.75 210 19:26 20.10.2021
1660 Clouds 17 998 81 10000 8.23 210 18:45 20.10.2021
1661 Clouds 17 998 81 10000 8.23 210 18:45 20.10.2021
1662 Clouds 17 999 81 10000 9.26 220 17:39 20.10.2021
1663 Clouds 17 999 80 10000 10.8 230 15:26 20.10.2021
1664 Clear 16 1003 79 10000 6.17 210 10:21 20.10.2021
1665 Clear 14 1005 83 10000 4.63 210 07:43 20.10.2021
1666 Clear 15 1009 90 10000 4.12 210 02:41 20.10.2021
1667 Clouds 16 1010 89 10000 7.2 220 00:34 20.10.2021
1668 Clouds 17 1011 92 10000 6.69 220 23:32 19.10.2021
1669 Clouds 16 1012 95 10000 5.14 220 21:40 19.10.2021
1670 Clouds 16 1012 95 10000 5.14 210 20:36 19.10.2021
1671 Clouds 16 1012 96 10000 5.14 210 20:18 19.10.2021
1672 Drizzle 16 1012 96 9000 5.14 210 19:37 19.10.2021
1673 Clouds 16 1012 96 10000 5.14 210 18:47 19.10.2021
1674 Drizzle 16 1013 96 4200 5.14 210 17:56 19.10.2021
1675 Drizzle 15 1014 95 3800 4.63 200 15:31 19.10.2021
1676 Drizzle 14 1015 95 4500 3.6 190 14:46 19.10.2021
1677 Drizzle 14 1015 95 4500 3.6 190 14:46 19.10.2021
1678 Mist 14 1015 95 4500 4.12 190 13:57 19.10.2021
1679 Clouds 14 1016 88 10000 5.14 200 12:24 19.10.2021
1680 Clouds 14 1016 88 10000 4.63 190 11:31 19.10.2021
1681 Clouds 12 1016 88 10000 4.12 190 09:55 19.10.2021
1682 Clouds 11 1017 88 10000 3.09 190 08:57 19.10.2021
1683 Clear 11 1019 87 10000 2.06 150 04:25 19.10.2021
1684 Clear 10 1020 89 10000 2.57 170 00:23 19.10.2021
1685 Clear 9 1020 89 10000 2.57 170 23:49 18.10.2021
1686 Clear 10 1020 86 10000 3.09 160 23:18 18.10.2021
1687 Clear 10 1020 88 10000 4.12 140 22:31 18.10.2021
1688 Clear 10 1020 88 10000 4.12 140 22:31 18.10.2021
1689 Clear 11 1021 84 10000 2.57 140 20:57 18.10.2021
1690 Clear 11 1021 85 10000 2.57 140 20:33 18.10.2021
1691 Clear 11 1021 83 10000 1.54 130 19:50 18.10.2021
1692 Clear 11 1021 83 10000 1.54 150 19:28 18.10.2021
1693 Clear 12 1021 80 10000 1.54 180 18:52 18.10.2021
1694 Clear 14 1022 71 10000 3.09 200 15:25 18.10.2021
1695 Clear 13 1023 76 10000 3.09 180 12:55 18.10.2021
1696 Clear 11 1023 81 10000 2.57 220 10:36 18.10.2021
1697 Clear 10 1022 80 10000 3.09 200 09:28 18.10.2021
1698 Clear 10 1021 82 10000 3.09 230 02:30 18.10.2021
1699 Clear 10 1021 82 10000 2.57 220 23:30 17.10.2021
1700 Clouds 11 1020 79 10000 3.09 220 21:52 17.10.2021
1701 Clouds 11 1020 78 10000 3.09 220 21:00 17.10.2021
1702 Clouds 11 1020 78 10000 3.09 220 20:38 17.10.2021
1703 Clouds 11 1020 77 10000 3.09 210 19:39 17.10.2021
1704 Clouds 11 1019 78 10000 3.71 222 18:58 17.10.2021
1705 Clear 12 1019 73 10000 3.09 210 17:34 17.10.2021
1706 Clear 12 1019 74 10000 3.09 230 15:42 17.10.2021
1707 Clear 12 1019 74 10000 4.12 220 14:24 17.10.2021
1708 Clear 12 1019 73 10000 4.12 230 13:42 17.10.2021
1709 Clouds 11 1019 76 10000 3.6 220 11:58 17.10.2021
1710 Clouds 10 1019 81 10000 3.6 220 10:43 17.10.2021
1711 Clouds 9 1019 83 10000 2.57 230 09:41 17.10.2021
1712 Clouds 9 1018 84 10000 2.57 240 07:19 17.10.2021
1713 Clear 9 1019 77 10000 3.6 210 00:55 17.10.2021
1714 Clear 9 1019 78 10000 3.6 210 00:23 17.10.2021
1715 Clear 8 1020 83 10000 2.57 210 21:52 16.10.2021
1716 Clear 9 1020 79 10000 2.57 210 20:32 16.10.2021
1717 Clear 10 1020 78 10000 3.09 200 19:55 16.10.2021
1718 Clear 10 1020 78 10000 3.09 200 19:37 16.10.2021
1719 Clouds 10 1020 78 10000 3.09 200 19:18 16.10.2021
1720 Clouds 10 1020 77 10000 3.6 210 18:42 16.10.2021
1721 Clouds 10 1020 78 10000 3.6 220 18:19 16.10.2021
1722 Clouds 11 1020 75 10000 3.6 210 17:28 16.10.2021
1723 Clouds 11 1021 75 10000 4.63 230 15:38 16.10.2021
1724 Clouds 10 1021 91 10000 3.68 266 12:30 16.10.2021
1725 Clouds 9 1021 92 10000 2.06 230 10:49 16.10.2021
1726 Clouds 7 1021 98 10000 1.03 0 08:54 16.10.2021
1727 Clouds 6 1020 94 10000 1.54 250 01:27 16.10.2021
1728 Clouds 7 1020 98 10000 2.06 230 23:59 15.10.2021
1729 Clouds 7 1019 96 10000 1.54 230 23:25 15.10.2021
1730 Clouds 8 1019 94 10000 2.57 270 22:20 15.10.2021
1731 Clouds 8 1019 92 10000 2.06 260 21:32 15.10.2021
1732 Clear 9 1019 92 10000 3.31 277 20:52 15.10.2021
1733 Clear 9 1018 92 10000 3.26 280 20:18 15.10.2021
1734 Clouds 11 1017 83 10000 4.12 300 18:45 15.10.2021
1735 Clouds 11 1016 79 10000 5.14 290 17:59 15.10.2021
1736 Clouds 14 1015 66 10000 7.72 300 15:45 15.10.2021
1737 Clouds 13 1014 72 10000 7.2 300 13:39 15.10.2021
1738 Clouds 11 1013 93 10000 5.14 290 11:46 15.10.2021
1739 Rain 10 1012 95 9000 4.63 300 10:58 15.10.2021
1740 Rain 11 1011 92 6000 6.69 310 10:19 15.10.2021
1741 Clouds 12 1010 89 10000 7.2 220 06:57 15.10.2021
1742 Clouds 13 1013 85 10000 7.2 230 02:31 15.10.2021
1743 Clouds 13 1015 86 10000 6.17 240 00:22 15.10.2021
1744 Clouds 12 1016 88 10000 3.6 220 22:54 14.10.2021
1745 Clouds 12 1017 84 10000 4.63 230 21:46 14.10.2021
1746 Clouds 13 1017 81 10000 4.63 240 21:19 14.10.2021
1747 Clouds 13 1018 83 10000 4.63 230 20:20 14.10.2021
1748 Clouds 13 1018 84 10000 3.6 250 19:42 14.10.2021
1749 Clouds 13 1018 81 10000 4.63 240 18:26 14.10.2021
1750 Clouds 14 1019 77 10000 5.66 260 16:57 14.10.2021
1751 Clouds 14 1019 75 10000 6.17 260 16:21 14.10.2021
1752 Clouds 14 1019 83 10000 7.2 270 14:44 14.10.2021
1753 Clouds 14 1020 83 10000 6.17 260 14:26 14.10.2021
1754 Clouds 13 1020 89 10000 6.69 260 12:35 14.10.2021
1755 Drizzle 13 1020 94 10000 7.2 260 11:26 14.10.2021
1756 Clouds 11 1021 97 10000 4.77 273 08:26 14.10.2021
1757 Clouds 11 1021 99 10000 4.51 270 05:52 14.10.2021
1758 Clouds 10 1022 96 10000 6.11 244 00:41 14.10.2021
1759 Clouds 10 1023 91 10000 5.66 260 22:40 13.10.2021
1760 Clear 10 1023 91 10000 2.57 230 21:36 13.10.2021
1761 Clouds 10 1023 91 10000 2.57 260 20:45 13.10.2021
1762 Rain 11 1023 87 10000 3.6 260 19:24 13.10.2021
1763 Rain 11 1023 89 10000 3.6 270 18:38 13.10.2021
1764 Clouds 11 1023 88 10000 3.09 250 16:37 13.10.2021
1765 Clouds 12 1023 90 10000 2.06 280 14:47 13.10.2021
1766 Clouds 11 1023 92 10000 4.63 290 14:25 13.10.2021
1767 Rain 10 1023 91 10000 4.63 290 12:48 13.10.2021
1768 Clouds 10 1022 94 10000 2.57 250 11:37 13.10.2021
1769 Clouds 7 1022 96 10000 1.54 250 10:18 13.10.2021
1770 Fog 3 1021 98 500 0.51 0 07:53 13.10.2021
1771 Fog 4 1020 98 600 1.54 240 04:50 13.10.2021
1772 Clouds 5 1020 96 10000 1.43 342 02:22 13.10.2021
1773 Fog 5 1019 98 10000 1.54 250 23:38 12.10.2021
1774 Clear 6 1019 98 10000 2.06 300 22:53 12.10.2021
1775 Clear 6 1019 98 10000 2.06 300 22:34 12.10.2021
1776 Clouds 7 1018 97 10000 2.57 290 20:54 12.10.2021
1777 Clouds 7 1017 94 10000 3.09 290 20:31 12.10.2021
1778 Clouds 8 1017 94 10000 2.57 290 19:45 12.10.2021
1779 Clouds 10 1017 80 10000 4.12 300 18:26 12.10.2021
1780 Clouds 11 1016 80 10000 5.14 310 17:29 12.10.2021
1781 Clouds 11 1016 76 10000 5.66 320 16:24 12.10.2021
1782 Clouds 11 1016 81 10000 5.66 300 15:35 12.10.2021
1783 Clouds 12 1016 79 10000 3.6 290 14:20 12.10.2021
1784 Clouds 10 1016 86 10000 5.66 300 13:41 12.10.2021
1785 Clouds 11 1016 92 8000 3.6 340 11:31 12.10.2021
1786 Clouds 11 1016 92 8000 3.6 340 11:30 12.10.2021
1787 Clouds 10 1017 96 10000 3.09 290 09:41 12.10.2021
1788 Clouds 9 1016 98 8000 3.6 290 08:31 12.10.2021
1789 Rain 9 1017 96 8000 4.12 300 06:46 12.10.2021
1790 Rain 9 1018 93 10000 5.66 260 04:52 12.10.2021
1791 Clouds 9 1018 95 10000 5.14 250 04:28 12.10.2021
1792 Clouds 9 1021 93 10000 3.6 270 23:59 11.10.2021
1793 Rain 9 1021 92 10000 3.6 270 23:37 11.10.2021
1794 Clear 8 1022 94 10000 3.6 260 22:52 11.10.2021
1795 Clouds 9 1022 92 10000 3.09 270 21:32 11.10.2021
1796 Clouds 9 1022 91 10000 3.09 270 20:31 11.10.2021
1797 Clouds 11 1022 88 10000 4.12 300 19:36 11.10.2021
1798 Clouds 11 1022 87 10000 5.14 290 18:23 11.10.2021
1799 Clouds 14 1022 73 10000 6.69 300 16:41 11.10.2021
1800 Clouds 14 1022 75 10000 7.2 300 16:21 11.10.2021
1801 Clouds 14 1022 78 10000 6.17 290 15:45 11.10.2021
1802 Clouds 14 1023 74 10000 6.17 280 14:54 11.10.2021
1803 Clouds 15 1023 77 10000 6.69 270 14:22 11.10.2021
1804 Clouds 14 1023 75 10000 5.66 270 13:35 11.10.2021
1805 Clouds 13 1023 84 10000 4.63 280 11:25 11.10.2021
1806 Clouds 10 1023 95 10000 3.09 260 09:47 11.10.2021
1807 Clouds 10 1023 95 10000 2.57 280 08:40 11.10.2021
1808 Clouds 8 1023 94 8000 1.03 0 01:47 11.10.2021
1809 Clouds 7 1023 94 8000 0.51 0 01:20 11.10.2021
1810 Clouds 7 1024 97 8000 0.51 260 00:42 11.10.2021
1811 Fog 6 1024 96 700 0.51 0 23:35 10.10.2021
1812 Mist 7 1025 95 3000 1.03 200 21:51 10.10.2021
1813 Mist 7 1025 92 3500 1.03 0 21:26 10.10.2021
1814 Clouds 8 1025 91 7000 1.03 280 20:41 10.10.2021
1815 Clear 9 1025 90 10000 1.54 300 20:20 10.10.2021
1816 Clear 9 1024 86 10000 1.03 260 19:49 10.10.2021
1817 Clear 10 1024 83 10000 1.54 260 19:31 10.10.2021
1818 Clear 12 1024 74 10000 2.06 240 18:23 10.10.2021
1819 Clear 14 1026 64 10000 3.09 210 15:54 10.10.2021
1820 Clear 14 1026 64 10000 3.09 210 15:36 10.10.2021
1821 Clear 12 1026 69 10000 2.57 150 13:42 10.10.2021
1822 Clear 10 1027 73 10000 2.06 180 12:44 10.10.2021
1823 Clear 10 1027 72 10000 2.57 140 12:22 10.10.2021
1824 Clear 7 1027 76 10000 2.57 160 10:33 10.10.2021
1825 Clear 4 1027 89 10000 1.03 0 09:27 10.10.2021
1826 Clear 4 1027 87 10000 2.57 120 08:52 10.10.2021
1827 Clear 3 1028 89 10000 1.54 90 06:36 10.10.2021
1828 Clear 6 1029 82 10000 2.57 130 02:28 10.10.2021
1829 Clear 7 1030 82 10000 2.57 110 00:54 10.10.2021
1830 Clear 8 1030 79 10000 3.09 110 23:52 09.10.2021
1831 Clear 10 1030 74 10000 4.12 110 22:26 09.10.2021
1832 Clear 10 1030 70 10000 3.09 100 21:30 09.10.2021
1833 Clear 10 1030 69 10000 3.09 100 20:43 09.10.2021
1834 Clear 11 1030 67 10000 2.57 100 19:42 09.10.2021
1835 Clear 13 1030 59 10000 3.09 110 18:57 09.10.2021
1836 Clear 14 1030 55 10000 3.09 110 18:27 09.10.2021
1837 Clear 15 1031 51 10000 4.12 110 16:28 09.10.2021
1838 Clear 15 1031 58 10000 4.63 120 14:57 09.10.2021
1839 Clear 14 1032 65 10000 4.63 120 13:40 09.10.2021
1840 Clear 13 1032 68 10000 4.63 100 12:37 09.10.2021
1841 Clear 11 1032 76 10000 4.63 120 11:33 09.10.2021
1842 Clear 9 1032 86 10000 3.09 90 10:38 09.10.2021
1843 Clear 7 1032 92 10000 2.06 80 09:35 09.10.2021
1844 Clear 5 1031 100 10000 3.09 80 08:28 09.10.2021
1845 Clear 6 1031 96 10000 2.57 90 07:37 09.10.2021
1846 Mist 7 1031 100 5000 2.06 60 05:28 09.10.2021
1847 Mist 10 1032 98 3500 3.09 60 02:49 09.10.2021
1848 Clouds 10 1032 98 6000 3.6 80 00:58 09.10.2021
1849 Clear 10 1032 97 10000 3.09 70 23:36 08.10.2021
1850 Clear 11 1032 94 10000 3.6 70 22:53 08.10.2021
1851 Clear 12 1032 93 10000 3.6 80 21:50 08.10.2021
1852 Clouds 13 1032 84 10000 3.09 80 20:36 08.10.2021
1853 Clouds 15 1031 75 10000 3.09 60 18:50 08.10.2021
1854 Clouds 17 1031 65 10000 3.09 110 17:28 08.10.2021
1855 Clouds 17 1031 65 10000 2.57 110 16:48 08.10.2021
1856 Clouds 18 1032 64 10000 3.09 110 16:22 08.10.2021
1857 Clouds 17 1033 66 10000 3.09 80 13:56 08.10.2021
1858 Clear 16 1033 69 10000 2.57 80 12:48 08.10.2021
1859 Clear 13 1033 85 10000 1.03 0 11:31 08.10.2021
1860 Clear 10 1033 93 10000 1.03 0 10:32 08.10.2021
1861 Fog 5 1032 98 450 1.03 150 07:34 08.10.2021
1862 Clear 9 1031 94 10000 1.54 60 23:33 07.10.2021
1863 Clear 9 1030 94 10000 2.06 80 22:58 07.10.2021
1864 Clouds 11 1030 91 10000 0.51 0 21:34 07.10.2021
1865 Clouds 12 1030 90 10000 0.51 280 20:58 07.10.2021
1866 Clouds 14 1030 85 10000 1.54 240 19:46 07.10.2021
1867 Clouds 14 1029 85 10000 1.03 0 19:27 07.10.2021
1868 Clouds 14 1029 81 10000 1.54 170 17:49 07.10.2021
1869 Clouds 15 1029 80 10000 2.06 170 17:18 07.10.2021
1870 Clouds 15 1028 72 10000 2.06 150 15:24 07.10.2021
1871 Clouds 15 1028 76 10000 2.57 160 13:45 07.10.2021
1872 Clouds 15 1028 76 10000 2.57 160 13:27 07.10.2021
1873 Clouds 14 1028 79 10000 1.54 0 12:39 07.10.2021
1874 Clouds 12 1027 91 10000 2.06 110 10:49 07.10.2021
1875 Clouds 10 1027 93 10000 2.06 100 10:19 07.10.2021
1876 Clouds 9 1026 95 10000 0 0 08:56 07.10.2021
1877 Clouds 9 1026 95 10000 0 0 08:35 07.10.2021
1878 Clouds 9 1025 98 10000 0.51 0 07:42 07.10.2021
1879 Clouds 9 1025 95 10000 1.54 80 06:59 07.10.2021
1880 Clouds 11 1022 92 10000 2.06 100 02:24 07.10.2021
1881 Clouds 11 1020 95 10000 2.06 120 23:40 06.10.2021
1882 Clouds 11 1019 96 10000 2.78 128 22:46 06.10.2021
1883 Clouds 11 1019 95 10000 2.57 130 21:53 06.10.2021
1884 Clouds 11 1018 96 10000 3.09 140 20:35 06.10.2021
1885 Clouds 12 1017 92 10000 3.6 150 19:48 06.10.2021
1886 Clouds 12 1016 90 10000 3.6 140 18:39 06.10.2021
1887 Clouds 13 1015 85 10000 4.63 150 16:55 06.10.2021
1888 Clouds 13 1014 80 10000 6.17 190 15:26 06.10.2021
1889 Clouds 13 1013 73 10000 7.2 190 13:54 06.10.2021
1890 Clouds 13 1012 76 10000 5.14 180 12:59 06.10.2021
1891 Clouds 13 1012 76 10000 5.14 180 12:40 06.10.2021
1892 Clouds 13 1012 76 10000 5.66 180 12:21 06.10.2021
1893 Clouds 12 1010 85 10000 5.66 200 09:59 06.10.2021
1894 Clouds 12 1010 84 10000 5.66 200 09:39 06.10.2021
1895 Clouds 11 1009 87 10000 5.66 190 08:42 06.10.2021
1896 Clouds 11 1009 90 10000 5.66 200 07:44 06.10.2021
1897 Clear 11 1007 90 10000 5.14 200 05:26 06.10.2021
1898 Rain 13 1005 90 10000 2.57 210 00:26 06.10.2021
1899 Clouds 13 1005 90 10000 4.12 200 23:57 05.10.2021
1900 Rain 13 1005 90 10000 4.12 200 23:38 05.10.2021
1901 Rain 13 1005 90 10000 4.63 200 23:20 05.10.2021
1902 Rain 13 1004 89 10000 4.12 160 22:27 05.10.2021
1903 Rain 13 1004 89 10000 4.12 160 22:27 05.10.2021
1904 Rain 13 1004 86 10000 4.63 150 21:47 05.10.2021
1905 Rain 13 1004 86 10000 4.63 130 20:41 05.10.2021
1906 Clear 13 1004 86 10000 4.63 120 20:23 05.10.2021
1907 Clear 13 1004 83 10000 4.12 120 19:43 05.10.2021
1908 Clouds 14 1004 80 10000 4.63 130 18:54 05.10.2021
1909 Clouds 16 1005 73 10000 5.14 140 16:38 05.10.2021
1910 Clouds 14 1007 79 10000 5.14 150 14:36 05.10.2021
1911 Clouds 14 1007 80 10000 4.63 140 13:35 05.10.2021
1912 Clear 13 1008 86 10000 4.12 130 12:47 05.10.2021
1913 Clear 13 1009 87 10000 4.12 130 12:18 05.10.2021
1914 Clear 11 1009 91 10000 3.09 130 11:19 05.10.2021
1915 Clear 9 1011 95 10000 2.06 100 09:26 05.10.2021
1916 Clear 9 1013 94 10000 1.54 130 04:47 05.10.2021
1917 Clear 10 1015 88 10000 3.6 140 23:53 04.10.2021
1918 Clear 11 1015 86 10000 3.6 150 22:38 04.10.2021
1919 Clear 12 1016 83 10000 3.09 170 20:29 04.10.2021
1920 Clouds 15 1015 66 10000 3.6 190 18:34 04.10.2021
1921 Clouds 15 1015 66 10000 3.6 190 18:34 04.10.2021
1922 Clouds 17 1015 63 10000 6.17 200 16:34 04.10.2021
1923 Clouds 17 1015 68 10000 6.69 190 15:31 04.10.2021
1924 Clouds 17 1015 68 10000 6.69 190 15:31 04.10.2021
1925 Clouds 16 1016 72 10000 5.14 190 14:43 04.10.2021
1926 Clear 15 1016 76 10000 4.63 190 13:57 04.10.2021
1927 Clear 15 1016 78 10000 4.63 190 13:25 04.10.2021
1928 Clouds 14 1015 84 10000 3.6 190 12:28 04.10.2021
1929 Clouds 13 1015 88 10000 3.6 200 11:31 04.10.2021
1930 Clear 12 1015 88 10000 3.09 190 10:23 04.10.2021
1931 Clear 10 1014 94 10000 2.57 190 08:42 04.10.2021
1932 Clear 10 1013 92 10000 3.6 190 07:37 04.10.2021
1933 Clear 11 1011 94 10000 4.12 200 01:56 04.10.2021
1934 Clouds 12 1009 92 10000 3.6 230 22:41 03.10.2021
1935 Clouds 12 1007 95 10000 3.6 250 21:42 03.10.2021
1936 Clouds 12 1005 97 10000 3.09 270 21:23 03.10.2021
1937 Clouds 14 1003 91 10000 7.2 270 20:21 03.10.2021
1938 Rain 17 1001 82 10000 6.69 210 19:30 03.10.2021
1939 Clouds 20 999 73 10000 4.63 190 18:28 03.10.2021
1940 Rain 20 999 71 10000 5.66 180 17:28 03.10.2021
1941 Rain 20 998 74 10000 8.75 170 14:48 03.10.2021
1942 Rain 19 998 74 10000 10.29 170 14:27 03.10.2021
1943 Rain 19 998 77 10000 8.23 180 13:34 03.10.2021
1944 Rain 19 998 78 10000 7.72 170 12:41 03.10.2021
1945 Rain 19 998 77 10000 8.23 170 10:52 03.10.2021
1946 Clouds 19 997 72 10000 10.8 180 09:34 03.10.2021
1947 Clouds 17 997 77 10000 8.75 170 03:36 03.10.2021
1948 Clouds 16 1002 77 10000 7.2 150 22:46 02.10.2021
1949 Clouds 15 1004 82 10000 5.66 140 21:30 02.10.2021
1950 Clouds 15 1005 86 10000 4.09 143 19:54 02.10.2021
1951 Clouds 15 1006 81 10000 4.12 140 18:56 02.10.2021
1952 Clouds 16 1007 81 10000 5.14 150 18:18 02.10.2021
1953 Clouds 16 1007 80 10000 6.17 150 17:36 02.10.2021
1954 Clouds 16 1009 73 10000 5.66 180 15:53 02.10.2021
1955 Clear 11 1017 75 10000 6.17 180 06:59 01.10.2021
1956 Clouds 16 1022 58 10000 7.72 240 15:37 30.09.2021
1957 Clouds 15 1022 65 10000 9.26 250 13:51 30.09.2021
1958 Clouds 13 1022 76 10000 9.77 250 11:38 30.09.2021
1959 Clouds 12 1022 84 10000 7.72 240 10:46 30.09.2021
1960 Clear 10 1021 86 10000 7.72 240 09:44 30.09.2021
1961 Clouds 9 1020 90 10000 6.69 230 08:30 30.09.2021
1962 Clouds 9 1020 91 10000 7.72 230 07:34 30.09.2021
1963 Clouds 9 1019 91 10000 7.72 240 05:18 30.09.2021
1964 Clouds 10 1016 93 10000 8.75 230 01:20 30.09.2021
1965 Rain 10 1016 93 10000 8.23 230 00:23 30.09.2021
1966 Clouds 10 1016 92 10000 9.26 230 22:37 29.09.2021
1967 Clouds 10 1015 91 10000 7.72 230 21:25 29.09.2021
1968 Clouds 10 1015 92 10000 7.72 220 20:27 29.09.2021
1969 Clouds 11 1014 92 10000 6.69 230 19:51 29.09.2021
1970 Clouds 11 1014 92 10000 7.2 240 18:50 29.09.2021
1971 Clouds 11 1013 89 10000 7.72 240 17:41 29.09.2021
1972 Clouds 13 1012 90 10000 5.66 230 16:48 29.09.2021
1973 Rain 13 1012 87 10000 5.66 200 15:58 29.09.2021
1974 Rain 14 1012 82 10000 4.12 190 14:39 29.09.2021
1975 Clouds 15 1013 79 10000 3.6 200 13:58 29.09.2021
1976 Rain 16 1013 77 10000 6.17 190 13:22 29.09.2021
1977 Clouds 16 1013 74 10000 4.63 180 12:35 29.09.2021
1978 Clear 13 1014 93 10000 4.12 140 10:50 29.09.2021
1979 Clear 11 1014 95 10000 3.6 120 09:53 29.09.2021
1980 Clear 11 1014 94 10000 3.6 120 09:34 29.09.2021
1981 Clear 10 1015 93 10000 2.06 140 07:39 29.09.2021
1982 Clear 10 1017 92 10000 3.6 130 04:39 29.09.2021
1983 Clear 11 1020 92 10000 2.06 130 23:29 28.09.2021
1984 Clouds 11 1021 93 10000 2.34 156 22:24 28.09.2021
1985 Clear 12 1021 91 10000 2.57 120 21:45 28.09.2021
1986 Clear 13 1021 87 10000 2.57 140 20:44 28.09.2021
1987 Clouds 14 1021 83 10000 1.54 140 19:47 28.09.2021
1988 Clouds 16 1021 76 10000 2.57 160 18:51 28.09.2021
1989 Clouds 17 1021 72 10000 3.09 170 18:18 28.09.2021
1990 Clouds 18 1021 66 10000 3.09 170 16:41 28.09.2021
1991 Clouds 18 1022 71 10000 3.6 210 14:37 28.09.2021
1992 Clouds 17 1023 77 10000 3.6 180 13:22 28.09.2021
1993 Clouds 16 1023 81 10000 3.09 200 12:22 28.09.2021
1994 Clouds 15 1023 87 10000 3.09 190 11:47 28.09.2021
1995 Clouds 14 1023 90 10000 2.57 210 11:23 28.09.2021
1996 Clouds 13 1023 93 10000 3.09 220 10:26 28.09.2021
1997 Clear 11 1022 96 10000 1.54 220 09:25 28.09.2021
1998 Clear 10 1022 98 10000 0.51 200 08:43 28.09.2021
1999 Fog 9 1022 98 10000 1.54 210 07:49 28.09.2021
2000 Fog 10 1021 98 10000 1.54 210 06:23 28.09.2021
2001 Clouds 12 1019 100 10000 2.57 250 01:29 28.09.2021
2002 Clouds 14 1018 93 10000 4.12 260 00:28 28.09.2021
2003 Clouds 15 1017 94 10000 3.6 260 23:48 27.09.2021
2004 Rain 15 1017 93 10000 3.6 260 23:23 27.09.2021
2005 Rain 15 1016 90 10000 6.69 260 22:20 27.09.2021
2006 Rain 18 1014 83 10000 3.09 200 20:54 27.09.2021
2007 Rain 19 1013 82 10000 4.12 170 20:24 27.09.2021
2008 Rain 19 1013 79 10000 3.6 170 19:36 27.09.2021
2009 Clouds 20 1013 73 10000 3.6 170 18:52 27.09.2021
2010 Clouds 20 1013 73 10000 3.6 170 18:52 27.09.2021
2011 Clouds 21 1013 73 10000 4.12 170 17:37 27.09.2021
2012 Clouds 21 1013 71 10000 4.63 190 16:56 27.09.2021
2013 Clouds 21 1013 72 10000 4.63 190 16:33 27.09.2021
2014 Clouds 21 1013 71 10000 5.66 180 15:36 27.09.2021
2015 Clouds 21 1013 73 10000 6.17 180 13:49 27.09.2021
2016 Clouds 20 1014 79 10000 4.63 200 12:22 27.09.2021
2017 Clouds 19 1014 88 10000 3.6 200 10:48 27.09.2021
2018 Clouds 17 1014 93 8000 2.57 170 09:40 27.09.2021
2019 Clouds 15 1014 100 8000 2.57 160 07:54 27.09.2021
2020 Clear 17 1015 96 10000 2.06 210 03:34 27.09.2021
2021 Clouds 17 1015 95 10000 2.06 190 23:49 26.09.2021
2022 Clear 18 1015 94 10000 0 0 21:57 26.09.2021
2023 Clear 18 1015 92 10000 0 0 21:27 26.09.2021
2024 Clear 18 1014 91 10000 0 0 20:30 26.09.2021
2025 Clouds 19 1014 87 10000 0 0 19:54 26.09.2021
2026 Clouds 21 1014 82 10000 0 0 19:26 26.09.2021
2027 Clouds 21 1014 80 10000 0 0 19:26 26.09.2021
2028 Clouds 21 1014 82 10000 0 0 19:26 26.09.2021
2029 Clouds 21 1014 80 10000 0 0 19:26 26.09.2021
2030 Clouds 21 1014 77 10000 1.03 210 18:41 26.09.2021
2031 Clouds 22 1014 75 10000 2.57 210 17:48 26.09.2021
2032 Clear 22 1014 75 10000 2.57 190 17:20 26.09.2021
2033 Clear 22 1014 73 10000 3.09 170 16:23 26.09.2021
2034 Clear 22 1014 75 10000 3.09 140 15:47 26.09.2021
2035 Clear 21 1014 71 10000 1.54 180 14:23 26.09.2021
2036 Clear 21 1015 71 10000 2.57 150 13:43 26.09.2021
2037 Clear 20 1015 75 10000 3.09 130 12:31 26.09.2021
2038 Clear 19 1015 75 10000 2.57 130 11:56 26.09.2021
2039 Clear 19 1015 77 10000 2.57 130 11:32 26.09.2021
2040 Clear 16 1015 87 10000 3.09 120 09:52 26.09.2021
2041 Clear 15 1015 91 10000 2.57 110 08:54 26.09.2021
2042 Clear 15 1016 93 10000 2.57 80 01:28 26.09.2021
2043 Clear 16 1016 90 10000 2.06 70 00:20 26.09.2021
2044 Clear 16 1016 87 10000 2.57 60 22:42 25.09.2021
2045 Clear 17 1016 88 10000 2.57 50 22:23 25.09.2021
2046 Clear 17 1016 87 10000 2.57 40 21:49 25.09.2021
2047 Clouds 17 1016 89 10000 3.09 20 20:53 25.09.2021
2048 Clouds 18 1016 86 10000 0 0 19:54 25.09.2021
2049 Clouds 19 1015 83 10000 0 0 18:39 25.09.2021
2050 Clouds 20 1015 82 10000 2.57 220 17:46 25.09.2021
2051 Clouds 20 1015 82 10000 3.6 240 14:49 25.09.2021
2052 Clouds 20 1015 81 10000 4.12 250 13:56 25.09.2021
2053 Clouds 20 1015 80 10000 4.12 250 12:48 25.09.2021
2054 Clouds 19 1015 84 10000 5.14 250 11:40 25.09.2021
2055 Clouds 17 1014 92 10000 5.14 240 10:24 25.09.2021
2056 Clouds 16 1014 93 10000 3.6 230 09:25 25.09.2021
2057 Clouds 16 1013 95 10000 4.12 240 07:52 25.09.2021
2058 Clouds 17 1013 84 10000 5.14 250 01:34 25.09.2021
2059 Clouds 17 1013 86 10000 4.12 240 23:33 24.09.2021
2060 Clouds 18 1013 86 10000 5.14 240 21:41 24.09.2021
2061 Clear 18 1012 86 10000 5.14 240 20:33 24.09.2021
2062 Clouds 18 1012 86 10000 5.14 220 19:44 24.09.2021
2063 Clouds 18 1012 85 10000 5.66 230 18:32 24.09.2021
2064 Clouds 19 1012 82 10000 5.14 230 17:53 24.09.2021
2065 Clouds 19 1012 81 10000 5.14 230 17:35 24.09.2021
2066 Clouds 19 1012 81 10000 6.69 230 16:45 24.09.2021
2067 Clouds 18 1013 82 10000 6.69 260 13:55 24.09.2021
2068 Clouds 17 1013 85 10000 6.69 250 12:45 24.09.2021
2069 Clouds 17 1013 87 10000 6.17 250 12:27 24.09.2021
2070 Clouds 16 1013 91 10000 6.17 250 11:50 24.09.2021
2071 Clouds 15 1014 93 10000 4.12 250 10:24 24.09.2021
2072 Clouds 13 1014 94 10000 3.09 250 08:29 24.09.2021
2073 Clouds 12 1014 94 10000 4.12 260 07:32 24.09.2021
2074 Clouds 12 1014 94 10000 3.09 240 06:44 24.09.2021
2075 Clouds 11 1014 93 10000 3.6 250 04:53 24.09.2021
2076 Clouds 14 1013 88 10000 7.2 270 22:46 23.09.2021
2077 Clouds 13 1013 92 10000 7.2 270 22:19 23.09.2021
2078 Clouds 14 1012 91 10000 7.72 280 21:44 23.09.2021
2079 Clouds 14 1012 95 10000 7.2 280 20:33 23.09.2021
2080 Clouds 15 1012 92 10000 10.29 290 19:18 23.09.2021
2081 Clouds 17 1011 83 9000 9.26 260 17:45 23.09.2021
2082 Clouds 17 1012 83 10000 7.72 250 15:21 23.09.2021
2083 Clouds 17 1012 83 10000 7.72 250 14:59 23.09.2021
2084 Clouds 17 1012 81 10000 9.26 240 13:45 23.09.2021
2085 Clouds 17 1013 78 10000 9.26 250 13:19 23.09.2021
2086 Clouds 17 1013 78 10000 9.26 260 12:48 23.09.2021
2087 Clouds 16 1014 81 10000 9.26 260 12:22 23.09.2021
2088 Clouds 15 1014 86 10000 8.23 250 11:23 23.09.2021
2089 Clear 15 1015 86 10000 5.14 230 10:20 23.09.2021
2090 Clear 14 1015 86 10000 5.66 230 09:51 23.09.2021
2091 Clouds 12 1016 85 10000 5.14 220 07:44 23.09.2021
2092 Clear 12 1021 94 10000 2.57 220 01:43 23.09.2021
2093 Clear 14 1022 89 10000 3.6 210 22:58 22.09.2021
2094 Clear 14 1023 89 10000 3.09 220 22:28 22.09.2021
2095 Clear 14 1023 88 10000 2.57 220 21:52 22.09.2021
2096 Clear 14 1023 88 10000 2.57 220 21:32 22.09.2021
2097 Clear 14 1023 89 10000 2.06 210 20:39 22.09.2021
2098 Clear 16 1024 79 10000 2.57 240 19:29 22.09.2021
2099 Clear 18 1024 72 10000 3.6 250 18:37 22.09.2021
2100 Clear 19 1024 72 10000 3.55 253 17:43 22.09.2021
2101 Clear 20 1025 69 10000 4.6 270 16:37 22.09.2021
2102 Clouds 19 1026 69 10000 4.12 240 15:18 22.09.2021
2103 Clouds 18 1027 73 10000 5.66 260 13:48 22.09.2021
2104 Clouds 16 1028 84 10000 4.63 250 11:46 22.09.2021
2105 Clouds 15 1028 92 10000 3.6 240 10:44 22.09.2021
2106 Clouds 12 1028 96 6000 2.06 240 09:21 22.09.2021
2107 Fog 11 1028 98 200 1.03 0 08:22 22.09.2021
2108 Fog 11 1027 98 500 1.54 220 06:57 22.09.2021
2109 Fog 11 1028 98 600 1.03 190 05:53 22.09.2021
2110 Fog 11 1028 98 800 1.03 250 05:32 22.09.2021
2111 Mist 12 1028 95 3500 1.54 270 03:48 22.09.2021
2112 Clouds 12 1028 96 9000 1.03 250 00:21 22.09.2021
2113 Clouds 13 1028 94 10000 2.57 260 22:52 21.09.2021
2114 Clouds 14 1028 90 10000 4.12 260 21:33 21.09.2021
2115 Clouds 14 1027 89 10000 4.12 293 20:24 21.09.2021
2116 Clouds 15 1027 89 10000 5.11 300 19:20 21.09.2021
2117 Clouds 15 1027 92 10000 5.41 283 17:35 21.09.2021
2118 Clouds 16 1028 74 10000 5.66 260 16:34 21.09.2021
2119 Clear 16 1028 71 10000 5.14 250 15:38 21.09.2021
2120 Clear 16 1028 69 10000 5.66 260 14:57 21.09.2021
2121 Clear 15 1028 72 10000 4.63 250 13:56 21.09.2021
2122 Clear 15 1028 72 10000 4.63 250 13:36 21.09.2021
2123 Clouds 13 1028 78 10000 3.09 250 11:45 21.09.2021
2124 Clouds 11 1028 87 10000 2.57 240 09:58 21.09.2021
2125 Clear 10 1027 93 10000 1.03 220 08:27 21.09.2021
2126 Clear 9 1027 93 10000 1.03 240 06:41 21.09.2021
2127 Clear 8 1026 93 10000 0.51 0 23:59 20.09.2021
2128 Clear 12 1026 76 10000 1.54 30 22:25 20.09.2021
2129 Clear 13 1026 67 10000 1.54 20 21:38 20.09.2021
2130 Clear 13 1025 67 10000 3.09 30 20:31 20.09.2021
2131 Clear 13 1024 72 10000 3.09 50 19:30 20.09.2021
2132 Clouds 14 1024 69 10000 4.12 30 17:47 20.09.2021
2133 Clouds 14 1023 64 10000 4.63 20 16:43 20.09.2021
2134 Clouds 14 1023 67 10000 2.36 54 15:50 20.09.2021
2135 Clouds 15 1023 58 10000 2.06 0 15:32 20.09.2021
2136 Clouds 15 1023 57 10000 4.12 70 14:24 20.09.2021
2137 Clouds 14 1023 61 10000 3.6 90 12:35 20.09.2021
2138 Clear 14 1023 67 10000 4.12 70 11:44 20.09.2021
2139 Clear 12 1022 83 10000 3.09 70 10:24 20.09.2021
2140 Clear 12 1022 86 10000 2.57 60 09:43 20.09.2021
2141 Clear 11 1022 87 10000 2.06 70 09:20 20.09.2021
2142 Clear 11 1021 90 10000 2.06 50 08:27 20.09.2021
2143 Clouds 12 1020 89 10000 2.75 77 01:43 20.09.2021
2144 Clear 12 1019 85 10000 2.06 70 22:46 19.09.2021
2145 Clouds 13 1019 81 10000 1.54 90 21:45 19.09.2021
2146 Clouds 13 1018 81 10000 2.06 80 20:53 19.09.2021
2147 Clouds 13 1018 77 10000 2.06 90 19:41 19.09.2021
2148 Clouds 14 1018 71 10000 3.09 80 18:32 19.09.2021
2149 Clouds 15 1018 68 10000 3.6 120 17:23 19.09.2021
2150 Clouds 15 1018 63 10000 3.09 110 16:32 19.09.2021
2151 Clouds 15 1018 65 10000 4.63 110 15:31 19.09.2021
2152 Clouds 15 1018 65 10000 4.63 100 14:48 19.09.2021
2153 Clouds 15 1019 67 10000 5.66 100 13:46 19.09.2021
2154 Clouds 14 1019 75 10000 4.12 110 12:52 19.09.2021
2155 Clouds 14 1019 81 10000 4.12 90 11:39 19.09.2021
2156 Clouds 14 1019 82 10000 4.12 90 11:20 19.09.2021
2157 Clouds 12 1018 88 10000 4.63 80 09:50 19.09.2021
2158 Clouds 11 1018 90 10000 4.63 80 08:49 19.09.2021
2159 Clouds 11 1018 90 10000 4.12 70 06:43 19.09.2021
2160 Clouds 15 1018 82 10000 5.14 80 00:20 19.09.2021
2161 Clouds 15 1018 89 10000 3.09 60 22:54 18.09.2021
2162 Clouds 15 1018 90 10000 2.06 90 21:26 18.09.2021
2163 Clouds 15 1018 89 10000 3.6 80 20:45 18.09.2021
2164 Clouds 16 1018 86 10000 3.6 70 19:41 18.09.2021
2165 Clouds 16 1017 85 10000 5.14 70 19:21 18.09.2021
2166 Clouds 16 1017 85 10000 4.63 70 18:38 18.09.2021
2167 Clouds 17 1017 83 10000 2.57 60 17:59 18.09.2021
2168 Clouds 18 1017 76 10000 3.09 20 16:34 18.09.2021
2169 Clouds 18 1018 79 10000 1.54 0 13:51 18.09.2021
2170 Clouds 17 1018 80 10000 1.03 0 13:31 18.09.2021
2171 Clouds 17 1018 83 10000 1.54 0 12:51 18.09.2021
2172 Clouds 16 1018 88 10000 1.03 0 11:42 18.09.2021
2173 Clouds 14 1017 93 10000 1.03 0 10:37 18.09.2021
2174 Clouds 13 1017 93 10000 1.54 280 09:52 18.09.2021
2175 Clouds 12 1017 96 10000 1.54 250 09:21 18.09.2021
2176 Clouds 10 1016 95 10000 1.54 270 07:36 18.09.2021
2177 Clear 10 1017 95 10000 2.38 316 00:42 18.09.2021
2178 Clear 10 1016 94 10000 2.44 322 23:53 17.09.2021
2179 Clear 11 1016 94 10000 2.54 327 22:42 17.09.2021
2180 Clear 11 1016 93 10000 2.71 326 22:21 17.09.2021
2181 Clear 13 1015 86 10000 3.09 340 21:27 17.09.2021
2182 Clouds 15 1015 78 10000 3.6 360 19:29 17.09.2021
2183 Clouds 17 1014 72 10000 4.63 340 17:55 17.09.2021
2184 Clouds 17 1015 71 10000 4.63 290 16:33 17.09.2021
2185 Clouds 17 1015 75 10000 5.14 300 14:32 17.09.2021
2186 Clouds 16 1015 90 10000 4.12 300 11:30 17.09.2021
2187 Clouds 14 1015 96 10000 2.57 260 09:24 17.09.2021
2188 Clouds 13 1015 97 10000 3.54 300 07:36 17.09.2021
2189 Clouds 13 1015 98 10000 3.6 270 04:25 17.09.2021
2190 Clouds 16 1015 86 10000 4.63 260 23:41 16.09.2021
2191 Clouds 15 1015 88 10000 4.12 280 22:41 16.09.2021
2192 Clouds 15 1015 88 10000 5.14 280 22:23 16.09.2021
2193 Clouds 16 1014 85 10000 5.66 280 21:27 16.09.2021
2194 Clouds 16 1014 87 10000 3.6 290 20:28 16.09.2021
2195 Clouds 17 1014 81 10000 7.2 290 18:38 16.09.2021
2196 Clouds 17 1013 85 10000 7.72 270 17:59 16.09.2021
2197 Clouds 18 1013 77 10000 7.2 270 15:31 16.09.2021
2198 Clouds 19 1013 76 10000 9.77 290 14:35 16.09.2021
2199 Clouds 18 1013 83 10000 7.72 280 13:23 16.09.2021
2200 Clouds 17 1013 86 10000 6.69 290 12:40 16.09.2021
2201 Clouds 17 1013 86 10000 5.66 270 11:46 16.09.2021
2202 Clouds 16 1013 91 10000 5.66 250 10:50 16.09.2021
2203 Clouds 16 1013 92 10000 4.63 250 10:21 16.09.2021
2204 Clouds 14 1012 96 10000 5.14 240 08:45 16.09.2021
2205 Drizzle 14 1012 96 6000 4.63 240 07:47 16.09.2021
2206 Clouds 14 1012 93 10000 4.12 230 06:56 16.09.2021
2207 Clouds 14 1012 93 10000 4.12 230 06:32 16.09.2021
2208 Clouds 15 1012 88 10000 4.12 250 03:22 16.09.2021
2209 Clouds 16 1011 96 10000 5.14 250 00:46 16.09.2021
2210 Clouds 16 1011 96 10000 2.57 270 23:24 15.09.2021
2211 Clouds 16 1010 94 10000 4.63 270 22:26 15.09.2021
2212 Clouds 17 1010 94 10000 5.14 270 21:31 15.09.2021
2213 Clouds 18 1009 98 10000 1.54 250 20:34 15.09.2021
2214 Clouds 19 1009 96 10000 1.54 260 19:33 15.09.2021
2215 Clouds 19 1008 94 10000 1.54 180 18:41 15.09.2021
2216 Clouds 20 1009 94 10000 1.03 0 17:39 15.09.2021
2217 Clouds 19 1009 96 8000 0.51 0 16:29 15.09.2021
2218 Mist 18 1009 98 3300 1.03 0 15:22 15.09.2021
2219 Rain 18 1009 96 3500 1.54 100 14:41 15.09.2021
2220 Rain 18 1010 96 4500 1.03 0 13:45 15.09.2021
2221 Rain 18 1010 96 4800 1.03 0 13:27 15.09.2021
2222 Rain 18 1010 96 5000 1.54 120 12:33 15.09.2021
2223 Rain 18 1010 96 6000 1.03 0 11:50 15.09.2021
2224 Rain 17 1010 98 7000 1.03 0 10:57 15.09.2021
2225 Rain 17 1010 96 7000 2.06 140 10:30 15.09.2021
2226 Rain 17 1010 93 10000 1.54 140 08:47 15.09.2021
2227 Rain 17 1010 92 10000 1.54 120 07:26 15.09.2021
2228 Clear 18 1012 83 10000 3.6 110 00:55 15.09.2021
2229 Clouds 18 1013 82 10000 3.6 80 22:24 14.09.2021
2230 Clouds 19 1013 81 10000 3.09 80 21:21 14.09.2021
2231 Clouds 19 1014 79 10000 2.06 90 20:18 14.09.2021
2232 Clear 22 1014 69 10000 3.09 120 18:57 14.09.2021
2233 Clear 23 1014 63 10000 3.6 110 17:33 14.09.2021
2234 Clouds 23 1014 60 10000 3.6 100 16:37 14.09.2021
2235 Clouds 22 1015 64 10000 4.12 90 14:52 14.09.2021
2236 Clouds 22 1015 64 10000 4.12 90 14:52 14.09.2021
2237 Clouds 22 1016 65 10000 4.12 100 14:19 14.09.2021
2238 Clear 18 1017 79 10000 3.6 110 11:46 14.09.2021
2239 Clear 16 1017 87 10000 3.09 100 10:25 14.09.2021
2240 Clear 14 1017 91 10000 2.57 70 09:48 14.09.2021
2241 Clear 11 1017 95 10000 2.57 50 07:51 14.09.2021
2242 Clear 11 1018 94 10000 1.03 40 02:20 14.09.2021
2243 Clouds 13 1019 89 10000 1.03 60 23:27 13.09.2021
2244 Clouds 14 1019 87 10000 3.09 30 22:27 13.09.2021
2245 Clouds 14 1019 84 10000 2.06 60 21:55 13.09.2021
2246 Clouds 13 1019 88 10000 2.06 60 21:32 13.09.2021
2247 Clouds 16 1018 79 10000 2.57 40 19:35 13.09.2021
2248 Clouds 17 1018 77 10000 2.57 20 18:44 13.09.2021
2249 Clouds 18 1018 72 10000 3.09 310 17:27 13.09.2021
2250 Clouds 19 1018 71 10000 2.57 290 16:49 13.09.2021
2251 Clouds 19 1019 69 10000 1.54 290 14:43 13.09.2021
2252 Clouds 17 1019 78 10000 2.06 280 11:44 13.09.2021
2253 Clouds 16 1019 87 10000 2.06 300 10:40 13.09.2021
2254 Clouds 14 1017 96 10000 1.03 0 07:58 13.09.2021
2255 Clear 13 1017 95 10000 2.57 240 00:34 13.09.2021
2256 Clear 14 1017 91 10000 2.57 270 22:51 12.09.2021
2257 Clear 15 1017 89 10000 3.09 280 22:22 12.09.2021
2258 Clouds 17 1016 87 10000 3.09 290 20:53 12.09.2021
2259 Clouds 17 1016 88 10000 1.54 300 20:19 12.09.2021
2260 Clouds 18 1015 84 10000 3.6 310 19:30 12.09.2021
2261 Clouds 18 1016 81 10000 4.12 310 18:55 12.09.2021
2262 Clouds 19 1016 76 10000 4.12 260 17:50 12.09.2021
2263 Clouds 20 1016 75 10000 3.6 250 15:55 12.09.2021
2264 Clouds 21 1016 75 10000 6.69 260 14:47 12.09.2021
2265 Clouds 20 1016 82 10000 5.66 240 12:42 12.09.2021
2266 Clouds 18 1016 93 10000 3.6 240 10:30 12.09.2021
2267 Clouds 17 1016 96 6000 2.57 250 08:39 12.09.2021
2268 Mist 16 1015 96 4500 2.06 220 07:26 12.09.2021
2269 Clouds 17 1016 98 10000 2.57 240 00:47 12.09.2021
2270 Clouds 17 1015 95 10000 5.14 240 22:39 11.09.2021
2271 Clouds 18 1015 89 10000 5.14 230 21:39 11.09.2021
2272 Clouds 19 1015 85 10000 3.09 220 19:39 11.09.2021
2273 Clouds 20 1015 84 10000 4.12 230 18:28 11.09.2021
2274 Clouds 20 1015 81 10000 5.14 240 17:28 11.09.2021
2275 Clouds 20 1015 82 10000 5.14 240 15:36 11.09.2021
2276 Clouds 20 1015 81 10000 6.17 230 13:23 11.09.2021
2277 Clouds 19 1015 81 10000 5.14 230 11:44 11.09.2021
2278 Clouds 19 1015 90 10000 4.63 230 10:35 11.09.2021
2279 Mist 17 1014 98 3500 4.63 240 08:54 11.09.2021
2280 Mist 17 1014 96 3800 2.06 180 07:44 11.09.2021
2281 Mist 18 1014 96 5000 2.57 240 04:23 11.09.2021
2282 Clouds 18 1013 94 10000 0.51 0 22:43 10.09.2021
2283 Clouds 17 1013 95 10000 2.06 250 22:18 10.09.2021
2284 Clouds 19 1013 93 10000 4.12 260 21:40 10.09.2021
2285 Thunderstorm 20 1012 88 10000 1.03 0 19:32 10.09.2021
2286 Clouds 23 1011 80 10000 2.57 170 17:58 10.09.2021
2287 Clouds 25 1012 76 10000 2.06 170 16:28 10.09.2021
2288 Clouds 21 1013 83 10000 2.06 220 13:32 10.09.2021
2289 Mist 18 1012 94 5000 1.54 170 10:54 10.09.2021
2290 Mist 18 1011 98 2000 1.03 240 08:26 10.09.2021
2291 Thunderstorm 18 1011 98 2800 1.03 210 07:43 10.09.2021
2292 Clear 18 1010 87 10000 1.54 170 00:40 10.09.2021
2293 Clear 20 1010 79 10000 0 0 21:56 09.09.2021
2294 Clear 21 1009 73 10000 0 0 20:48 09.09.2021
2295 Clear 21 1009 73 10000 0 0 20:28 09.09.2021
2296 Clear 25 1009 57 10000 1.54 250 18:46 09.09.2021
2297 Clear 26 1009 52 10000 1.54 220 17:51 09.09.2021
2298 Clear 27 1009 45 10000 3.09 180 16:39 09.09.2021
2299 Clear 27 1010 46 10000 3.6 160 15:26 09.09.2021
2300 Clear 24 1011 58 10000 3.09 90 12:33 09.09.2021
2301 Clear 21 1011 68 10000 3.09 130 11:23 09.09.2021
2302 Clear 17 1011 77 10000 1.54 110 09:39 09.09.2021
2303 Clear 13 1011 92 10000 2.06 80 07:56 09.09.2021
2304 Clear 13 1012 92 10000 1.54 80 06:20 09.09.2021
2305 Clear 16 1014 77 10000 3.09 80 00:43 09.09.2021
2306 Clear 18 1015 69 10000 2.57 100 21:49 08.09.2021
2307 Clear 21 1015 60 10000 2.57 90 20:57 08.09.2021
2308 Clear 24 1015 43 10000 2.57 120 19:47 08.09.2021
2309 Clear 24 1016 47 10000 3.09 120 18:49 08.09.2021
2310 Clear 25 1016 49 10000 4.12 100 18:27 08.09.2021
2311 Clear 25 1016 48 10000 3.6 110 17:52 08.09.2021
2312 Clear 26 1017 47 10000 3.6 110 16:24 08.09.2021
2313 Clear 25 1019 50 10000 3.6 100 13:53 08.09.2021
2314 Clear 24 1019 57 10000 4.12 140 12:42 08.09.2021
2315 Clouds 24 1019 61 10000 3.18 131 12:24 08.09.2021
2316 Clear 21 1020 69 10000 3.09 120 11:26 08.09.2021
2317 Clear 19 1020 77 10000 3.09 130 10:32 08.09.2021
2318 Clear 18 1020 77 10000 3.09 130 09:57 08.09.2021
2319 Clear 12 1020 94 10000 1.54 90 07:47 08.09.2021
2320 Clear 12 1021 97 10000 1.03 100 07:29 08.09.2021
2321 Clear 15 1022 90 10000 1.54 60 23:41 07.09.2021
2322 Clear 17 1022 86 10000 1.03 90 22:30 07.09.2021
2323 Clear 18 1022 81 10000 1.54 100 20:50 07.09.2021
2324 Clear 21 1022 72 10000 2.06 70 19:40 07.09.2021
2325 Clear 22 1023 64 10000 1.54 70 18:39 07.09.2021
2326 Clear 23 1023 61 10000 0.51 0 17:41 07.09.2021
2327 Clear 24 1024 59 10000 1.03 0 15:57 07.09.2021
2328 Clear 23 1024 59 10000 1.03 0 15:33 07.09.2021
2329 Clouds 22 1024 69 10000 0.49 116 13:54 07.09.2021
2330 Clear 21 1025 70 10000 1.54 130 12:28 07.09.2021
2331 Clear 18 1025 75 10000 1.03 0 11:26 07.09.2021
2332 Clear 17 1025 82 10000 1.03 0 10:37 07.09.2021
2333 Clouds 13 1025 95 8000 0 0 08:18 07.09.2021
2334 Clouds 12 1024 97 7000 0.51 0 06:43 07.09.2021
2335 Clouds 12 1024 97 6000 1.03 230 02:43 07.09.2021
2336 Clouds 12 1024 96 6000 0 0 02:25 07.09.2021
2337 Clear 13 1025 94 10000 0 0 00:23 07.09.2021
2338 Clear 14 1025 88 10000 0.51 0 23:31 06.09.2021
2339 Clear 15 1025 85 10000 1.03 0 22:53 06.09.2021
2340 Clear 15 1024 82 10000 2.57 10 22:28 06.09.2021
2341 Clear 18 1024 76 10000 3.6 10 20:37 06.09.2021
2342 Clear 19 1024 69 10000 2.57 300 19:22 06.09.2021
2343 Clear 19 1024 69 10000 2.57 300 19:22 06.09.2021
2344 Clear 19 1024 69 10000 2.57 300 19:22 06.09.2021
2345 Clear 20 1024 67 10000 2.57 300 18:46 06.09.2021
2346 Rain 20 1024 67 10000 3.09 300 18:18 06.09.2021
2347 Clear 21 1024 62 10000 3.09 290 17:35 06.09.2021
2348 Clouds 22 1024 55 10000 3.6 300 15:37 06.09.2021
2349 Clouds 21 1024 60 10000 2.57 310 13:47 06.09.2021
2350 Clouds 20 1024 68 10000 1.54 0 12:46 06.09.2021
2351 Clouds 16 1025 85 10000 1.03 0 10:44 06.09.2021
2352 Fog 8 1024 97 50 0 0 07:58 06.09.2021
2353 Fog 9 1023 97 200 0 0 04:44 06.09.2021
2354 Clear 13 1023 89 10000 3.09 140 23:27 05.09.2021
2355 Clear 14 1023 87 10000 3.09 150 22:46 05.09.2021
2356 Clouds 14 1023 85 10000 0 0 21:57 05.09.2021
2357 Clouds 15 1023 81 10000 0 0 21:29 05.09.2021
2358 Clouds 18 1022 65 10000 1.03 0 19:50 05.09.2021
2359 Clouds 21 1022 57 10000 1.03 0 18:38 05.09.2021
2360 Clouds 21 1022 54 10000 1.54 0 17:29 05.09.2021
2361 Clouds 20 1023 55 10000 1.54 50 15:27 05.09.2021
2362 Clouds 19 1023 65 10000 1.54 70 13:54 05.09.2021
2363 Mist 15 1024 86 5000 2.06 70 11:57 05.09.2021
2364 Mist 12 1023 100 1300 2.06 50 10:48 05.09.2021
2365 Mist 12 1023 98 1500 2.06 100 10:23 05.09.2021
2366 Mist 12 1023 100 1500 2.06 100 10:23 05.09.2021
2367 Mist 12 1023 98 1500 3.09 100 09:21 05.09.2021
2368 Mist 12 1022 98 2200 3.6 90 07:43 05.09.2021
2369 Clear 12 1021 86 10000 2.06 60 00:48 05.09.2021
2370 Clear 12 1021 86 10000 2.06 40 00:22 05.09.2021
2371 Clear 13 1021 87 10000 1.54 60 23:32 04.09.2021
2372 Clear 13 1021 85 10000 2.06 60 22:35 04.09.2021
2373 Clear 14 1020 82 10000 1.54 70 21:55 04.09.2021
2374 Clouds 17 1019 71 10000 3.6 70 19:41 04.09.2021
2375 Clouds 18 1019 68 10000 4.63 70 18:39 04.09.2021
2376 Clouds 19 1019 63 10000 3.6 40 15:54 04.09.2021
2377 Clouds 18 1020 66 10000 2.57 360 12:48 04.09.2021
2378 Clouds 17 1020 68 10000 3.09 340 11:19 04.09.2021
2379 Clouds 15 1019 80 10000 2.57 340 08:58 04.09.2021
2380 Clouds 14 1019 77 10000 3.09 350 04:50 04.09.2021
2381 Clouds 15 1020 77 10000 4.63 360 00:24 04.09.2021
2382 Clouds 15 1020 82 10000 4.12 350 23:31 03.09.2021
2383 Clouds 15 1020 84 10000 3.6 340 21:53 03.09.2021
2384 Clouds 15 1020 81 10000 4.12 330 21:33 03.09.2021
2385 Clouds 16 1019 81 10000 4.12 340 20:42 03.09.2021
2386 Clouds 17 1020 79 10000 4.12 350 19:49 03.09.2021
2387 Clouds 17 1020 78 10000 4.63 340 18:55 03.09.2021
2388 Clouds 19 1020 74 10000 5.14 340 17:42 03.09.2021
2389 Clouds 20 1020 70 10000 5.14 300 16:25 03.09.2021
2390 Clouds 20 1021 73 10000 4.63 280 14:47 03.09.2021
2391 Clouds 16 1022 82 10000 4.63 290 11:57 03.09.2021
2392 Clouds 15 1022 90 10000 2.57 300 10:27 03.09.2021
2393 Clouds 11 1023 100 8000 1.03 0 08:44 03.09.2021
2394 Mist 8 1023 100 3600 1.54 290 07:39 03.09.2021
2395 Fog 11 1025 97 10000 0.51 60 01:39 03.09.2021
2396 Clear 13 1025 91 10000 2.06 50 22:55 02.09.2021
2397 Clear 15 1025 85 10000 2.57 40 21:31 02.09.2021
2398 Clouds 17 1026 78 10000 3.09 30 19:55 02.09.2021
2399 Clouds 19 1026 67 10000 1.03 0 17:32 02.09.2021
2400 Clouds 20 1027 66 10000 1.54 0 15:50 02.09.2021
2401 Clouds 19 1028 71 10000 2.06 240 13:57 02.09.2021
2402 Clouds 18 1028 73 10000 1.03 260 12:42 02.09.2021
2403 Clouds 17 1028 78 10000 1.54 240 11:34 02.09.2021
2404 Clouds 14 1028 93 10000 2.06 270 09:40 02.09.2021
2405 Fog 10 1027 98 700 0.51 0 07:48 02.09.2021
2406 Fog 10 1027 98 200 0.51 210 07:18 02.09.2021
2407 Fog 10 1027 98 200 0.51 210 07:18 02.09.2021
2408 Mist 11 1027 97 5000 1.03 240 02:54 02.09.2021
2409 Clear 12 1027 97 10000 1.54 280 01:56 02.09.2021
2410 Clear 13 1027 97 10000 2.06 300 01:25 02.09.2021
2411 Clear 13 1027 94 10000 2.57 290 23:39 01.09.2021
2412 Clear 15 1027 88 10000 3.09 330 22:39 01.09.2021
2413 Clear 16 1027 84 10000 3.09 330 21:39 01.09.2021
2414 Clouds 18 1026 77 10000 2.57 300 20:29 01.09.2021
2415 Clouds 20 1026 68 10000 3.6 290 18:43 01.09.2021
2416 Clouds 21 1026 68 10000 3.09 270 17:38 01.09.2021
2417 Clouds 21 1027 64 10000 2.57 260 16:47 01.09.2021
2418 Clouds 20 1027 67 10000 3.09 300 15:29 01.09.2021
2419 Clouds 18 1028 76 10000 3.09 280 12:19 01.09.2021
2420 Clouds 18 1028 77 10000 3.09 300 11:44 01.09.2021
2421 Clouds 13 1027 96 10000 1.03 0 08:47 01.09.2021
2422 Clouds 12 1026 98 10000 0 0 07:51 01.09.2021
2423 Clouds 12 1026 95 10000 1.03 280 03:27 01.09.2021
2424 Clouds 14 1025 93 10000 2.57 290 22:39 31.08.2021
2425 Clouds 16 1025 84 10000 5.66 330 21:27 31.08.2021
2426 Clouds 17 1024 78 10000 6.17 340 19:46 31.08.2021
2427 Clouds 19 1023 74 10000 5.66 330 18:29 31.08.2021
2428 Clouds 20 1023 72 10000 6.69 330 17:37 31.08.2021
2429 Clouds 21 1023 68 10000 5.66 320 16:53 31.08.2021
2430 Clouds 21 1023 68 10000 5.14 320 16:24 31.08.2021
2431 Clouds 21 1023 68 10000 5.14 320 16:24 31.08.2021
2432 Clouds 21 1023 65 10000 4.63 330 13:20 31.08.2021
2433 Clouds 19 1023 75 10000 3.6 310 11:28 31.08.2021
2434 Clear 18 1023 82 10000 3.09 330 10:52 31.08.2021
2435 Clear 15 1023 92 10000 2.57 290 09:44 31.08.2021
2436 Clear 13 1022 96 10000 1.54 270 08:38 31.08.2021
2437 Fog 13 1022 98 300 2.57 310 05:59 31.08.2021
2438 Fog 12 1021 97 500 2.06 280 03:40 31.08.2021
2439 Clear 14 1021 92 10000 1.54 300 23:35 30.08.2021
2440 Clear 16 1021 86 10000 2.57 350 21:45 30.08.2021
2441 Clear 16 1020 85 10000 2.57 10 21:27 30.08.2021
2442 Clear 17 1020 80 10000 4.63 10 20:20 30.08.2021
2443 Clouds 19 1020 74 10000 5.66 30 19:29 30.08.2021
2444 Clouds 19 1020 73 10000 5.14 40 18:30 30.08.2021
2445 Clouds 19 1019 72 10000 5.14 30 17:45 30.08.2021
2446 Clouds 19 1019 73 10000 6.17 30 16:22 30.08.2021
2447 Clouds 20 1019 70 10000 7.2 40 15:38 30.08.2021
2448 Clouds 19 1019 75 10000 6.17 20 13:43 30.08.2021
2449 Clouds 19 1019 81 10000 4.12 10 12:24 30.08.2021
2450 Clouds 16 1019 94 10000 4.63 10 09:30 30.08.2021
2451 Clouds 16 1018 89 10000 4.63 350 22:30 29.08.2021
2452 Clouds 17 1018 90 10000 4.12 10 21:33 29.08.2021
2453 Clouds 17 1017 87 10000 5.66 20 20:22 29.08.2021
2454 Clouds 18 1017 85 10000 5.66 20 19:19 29.08.2021
2455 Clouds 19 1017 82 10000 6.69 20 17:50 29.08.2021
2456 Clouds 18 1017 94 6000 6.69 20 15:48 29.08.2021
2457 Drizzle 17 1017 96 2700 3.6 340 14:20 29.08.2021
2458 Clouds 17 1017 96 10000 4.63 350 13:44 29.08.2021
2459 Drizzle 16 1017 96 6000 3.6 350 12:32 29.08.2021
2460 Drizzle 16 1017 92 6000 3.6 350 11:50 29.08.2021
2461 Clouds 16 1016 94 10000 4.12 360 11:23 29.08.2021
2462 Clouds 15 1016 96 10000 4.12 360 10:43 29.08.2021
2463 Drizzle 15 1016 96 10000 4.12 360 10:24 29.08.2021
2464 Clouds 14 1017 96 9000 4.12 340 08:24 29.08.2021
2465 Clouds 15 1018 92 10000 3.09 330 00:25 29.08.2021
2466 Clouds 15 1019 89 10000 4.63 350 21:53 28.08.2021
2467 Clouds 16 1018 91 10000 4.63 360 20:28 28.08.2021
2468 Clouds 16 1018 92 10000 5.14 350 18:43 28.08.2021
2469 Clouds 16 1018 95 10000 5.14 350 18:19 28.08.2021
2470 Clouds 16 1018 95 10000 5.66 340 17:18 28.08.2021
2471 Rain 16 1018 95 6000 5.66 340 15:39 28.08.2021
2472 Rain 16 1018 95 7000 4.63 340 14:26 28.08.2021
2473 Clouds 16 1018 95 7000 3.6 340 13:45 28.08.2021
2474 Drizzle 16 1018 96 6000 4.12 360 12:44 28.08.2021
2475 Rain 16 1018 93 10000 4.12 350 11:54 28.08.2021
2476 Clouds 16 1018 93 10000 4.63 10 10:41 28.08.2021
2477 Clouds 15 1017 96 10000 4.63 10 08:41 28.08.2021
2478 Clouds 15 1016 96 10000 4.63 10 07:24 28.08.2021
2479 Clear 14 1016 92 10000 2.57 360 22:30 27.08.2021
2480 Clouds 16 1015 84 10000 4.12 30 20:59 27.08.2021
2481 Clouds 16 1015 84 10000 2.06 40 20:30 27.08.2021
2482 Rain 18 1014 78 10000 5.66 10 18:58 27.08.2021
2483 Clouds 18 1014 77 10000 5.66 350 18:37 27.08.2021
2484 Clouds 18 1014 76 10000 6.69 350 17:18 27.08.2021
2485 Clouds 17 1014 82 10000 6.17 350 15:46 27.08.2021
2486 Clouds 17 1014 81 10000 6.69 340 14:43 27.08.2021
2487 Clouds 16 1014 88 8000 7.2 340 12:33 27.08.2021
2488 Rain 15 1013 92 8000 6.17 340 11:26 27.08.2021
2489 Rain 15 1013 93 10000 5.66 340 10:43 27.08.2021
2490 Clouds 15 1013 81 10000 5.66 330 09:37 27.08.2021
2491 Clouds 14 1013 88 10000 4.12 300 08:46 27.08.2021
2492 Clouds 13 1013 91 10000 3.09 300 06:47 27.08.2021
2493 Clouds 12 1014 91 10000 3.09 300 04:56 27.08.2021
2494 Clouds 14 1014 84 10000 2.73 311 00:35 27.08.2021
2495 Clouds 15 1013 72 10000 4.12 330 22:49 26.08.2021
2496 Clouds 15 1013 77 10000 4.12 320 22:19 26.08.2021
2497 Clouds 16 1013 76 10000 4.63 320 20:37 26.08.2021
2498 Clouds 17 1013 65 10000 6.69 360 18:51 26.08.2021
2499 Clouds 17 1012 67 10000 6.69 340 17:45 26.08.2021
2500 Clouds 17 1012 66 10000 7.72 340 16:35 26.08.2021
2501 Clouds 17 1012 65 10000 8.75 330 15:55 26.08.2021
2502 Clouds 18 1012 61 10000 6.17 360 13:48 26.08.2021
2503 Clouds 17 1012 65 10000 5.66 360 12:54 26.08.2021
2504 Clouds 18 1012 68 10000 6.17 350 12:30 26.08.2021
2505 Clouds 16 1012 94 10000 4.63 300 10:21 26.08.2021
2506 Clouds 13 1011 96 10000 2.06 270 08:34 26.08.2021
2507 Clouds 12 1011 95 10000 2.06 280 06:34 26.08.2021
2508 Drizzle 16 1014 96 10000 5.14 290 22:54 25.08.2021
2509 Drizzle 16 1014 96 10000 5.14 290 22:35 25.08.2021
2510 Clouds 15 1014 98 4000 5.66 270 21:42 25.08.2021
2511 Clouds 15 1015 98 2700 6.69 270 20:48 25.08.2021
2512 Drizzle 16 1015 95 5000 5.66 270 20:28 25.08.2021
2513 Clouds 16 1016 90 10000 6.17 270 18:45 25.08.2021
2514 Clouds 17 1017 85 10000 7.2 280 17:43 25.08.2021
2515 Clouds 19 1019 73 10000 7.2 290 15:45 25.08.2021
2516 Clouds 20 1019 69 10000 6.69 290 14:48 25.08.2021
2517 Clouds 19 1020 71 10000 6.69 300 14:30 25.08.2021
2518 Clouds 19 1020 67 10000 6.69 290 13:30 25.08.2021
2519 Clouds 18 1022 74 10000 5.14 290 11:28 25.08.2021
2520 Clouds 17 1022 82 10000 4.12 280 10:43 25.08.2021
2521 Clouds 16 1023 94 10000 2.57 280 09:58 25.08.2021
2522 Mist 15 1024 95 3500 2.57 290 09:24 25.08.2021
2523 Fog 14 1024 98 500 2.06 270 08:32 25.08.2021
2524 Fog 10 1025 96 1500 1.54 260 04:51 25.08.2021
2525 Clear 13 1027 88 10000 1.54 40 00:53 25.08.2021
2526 Clear 14 1027 85 10000 1.54 10 22:51 24.08.2021
2527 Clouds 17 1028 67 10000 1.03 100 20:48 24.08.2021
2528 Clouds 18 1027 61 10000 2.57 60 19:53 24.08.2021
2529 Clear 20 1028 52 10000 3.6 80 18:51 24.08.2021
2530 Clear 21 1028 49 10000 4.12 70 17:50 24.08.2021
2531 Clear 21 1028 50 10000 4.12 80 17:20 24.08.2021
2532 Clear 21 1029 49 10000 4.63 60 14:38 24.08.2021
2533 Clouds 20 1029 52 10000 3.6 70 13:29 24.08.2021
2534 Clouds 20 1029 52 10000 4.63 70 12:36 24.08.2021
2535 Clouds 19 1029 66 10000 3.6 100 11:19 24.08.2021
2536 Clear 18 1029 69 10000 3.09 70 10:35 24.08.2021
2537 Clear 15 1029 81 10000 2.06 70 09:19 24.08.2021
2538 Clear 11 1028 96 10000 0 0 07:28 24.08.2021
2539 Clear 12 1027 93 10000 1.54 50 05:30 24.08.2021
2540 Clear 15 1027 80 10000 3.6 10 00:59 24.08.2021
2541 Clear 16 1026 77 10000 4.12 360 23:26 23.08.2021
2542 Clear 16 1026 77 10000 3.6 360 22:41 23.08.2021
2543 Clear 17 1025 69 10000 3.6 30 20:50 23.08.2021
2544 Clear 20 1025 56 10000 5.66 30 19:30 23.08.2021
2545 Clear 20 1025 56 10000 5.66 30 19:30 23.08.2021
2546 Clear 22 1024 50 10000 6.17 30 16:45 23.08.2021
2547 Clouds 22 1024 52 10000 5.66 50 15:24 23.08.2021
2548 Clouds 21 1024 62 10000 5.66 50 13:47 23.08.2021
2549 Clouds 19 1023 69 10000 5.14 50 12:30 23.08.2021
2550 Clouds 17 1023 87 10000 4.63 50 10:46 23.08.2021
2551 Clouds 16 1022 90 10000 4.63 30 09:52 23.08.2021
2552 Clouds 15 1022 92 10000 4.63 20 08:34 23.08.2021
2553 Clouds 15 1021 96 10000 4.12 20 06:57 23.08.2021
2554 Clouds 15 1021 96 10000 4.12 20 06:38 23.08.2021
2555 Clouds 15 1019 98 10000 3.09 50 00:59 23.08.2021
2556 Clouds 16 1018 92 10000 4.12 50 23:38 22.08.2021
2557 Clouds 16 1018 95 10000 3.6 50 22:40 22.08.2021
2558 Clouds 17 1016 94 10000 4.12 50 20:46 22.08.2021
2559 Clouds 17 1016 94 10000 4.63 50 20:18 22.08.2021
2560 Rain 19 1015 94 10000 4.12 70 18:29 22.08.2021
2561 Clouds 19 1014 94 10000 3.6 50 15:48 22.08.2021
2562 Clouds 18 1014 96 10000 2.06 0 14:53 22.08.2021
2563 Clouds 17 1014 96 5000 2.06 0 13:40 22.08.2021
2564 Clouds 17 1014 96 5000 4.12 90 13:19 22.08.2021
2565 Clouds 17 1014 98 10000 3.09 100 12:40 22.08.2021
2566 Clouds 16 1014 95 10000 3.09 120 11:44 22.08.2021
2567 Clouds 16 1014 95 10000 3.6 120 11:19 22.08.2021
2568 Rain 16 1014 95 10000 3.09 110 08:41 22.08.2021
2569 Rain 16 1014 91 10000 3.09 120 07:51 22.08.2021
2570 Clear 17 1015 87 10000 3.6 90 02:30 22.08.2021
2571 Clear 18 1017 88 10000 2.06 90 22:36 21.08.2021
2572 Clouds 19 1017 84 10000 1.54 100 21:35 21.08.2021
2573 Clouds 23 1017 68 10000 0.51 0 18:47 21.08.2021
2574 Clouds 22 1017 68 10000 1.54 0 18:25 21.08.2021
2575 Clouds 23 1017 66 10000 1.54 120 16:58 21.08.2021
2576 Clouds 24 1018 64 10000 1.03 0 16:32 21.08.2021
2577 Clouds 23 1018 67 10000 2.57 160 15:39 21.08.2021
2578 Clouds 23 1018 70 10000 2.06 0 15:20 21.08.2021
2579 Clouds 21 1019 76 10000 2.06 110 13:36 21.08.2021
2580 Clouds 20 1019 79 10000 2.06 140 12:39 21.08.2021
2581 Clouds 17 1019 88 10000 2.06 110 10:43 21.08.2021
2582 Clouds 14 1018 95 10000 1.54 110 07:53 21.08.2021
2583 Clear 14 1018 95 10000 1.54 50 00:44 21.08.2021
2584 Clouds 16 1017 94 10000 1.54 180 22:28 20.08.2021
2585 Clouds 18 1016 87 10000 1.03 180 19:31 20.08.2021
2586 Clouds 19 1015 81 10000 5.14 280 16:57 20.08.2021
2587 Clouds 20 1015 74 10000 4.63 260 14:34 20.08.2021
2588 Clouds 19 1015 82 10000 5.14 260 11:59 20.08.2021
2589 Clouds 18 1015 88 10000 4.63 270 11:29 20.08.2021
2590 Clouds 16 1014 96 10000 4.63 250 10:21 20.08.2021
2591 Clouds 16 1014 96 10000 3.6 240 09:27 20.08.2021
2592 Clouds 15 1014 98 8000 2.57 240 08:36 20.08.2021
2593 Drizzle 15 1013 95 4000 3.6 220 04:42 20.08.2021
2594 Drizzle 14 1013 98 3800 2.06 200 04:20 20.08.2021
2595 Clouds 15 1013 94 10000 1.54 230 23:27 19.08.2021
2596 Clouds 15 1013 91 10000 1.03 240 22:38 19.08.2021
2597 Clouds 15 1013 89 10000 3.09 300 21:55 19.08.2021
2598 Clouds 16 1012 90 10000 3.09 260 20:20 19.08.2021
2599 Drizzle 17 1012 94 10000 4.63 280 17:59 19.08.2021
2600 Drizzle 17 1012 94 10000 4.12 260 16:51 19.08.2021
2601 Drizzle 17 1011 95 3500 4.63 250 14:37 19.08.2021
2602 Clouds 18 1011 89 10000 4.12 230 12:50 19.08.2021
2603 Clouds 17 1011 91 9000 3.6 230 12:28 19.08.2021
2604 Clouds 17 1011 85 10000 5.14 240 10:49 19.08.2021
2605 Clouds 17 1011 87 10000 5.14 250 09:49 19.08.2021
2606 Clouds 16 1011 90 10000 4.63 240 09:28 19.08.2021
2607 Clouds 16 1011 91 10000 4.63 250 08:33 19.08.2021
2608 Clouds 15 1010 87 10000 5.14 240 03:53 19.08.2021
2609 Clouds 16 1010 81 10000 5.14 260 02:20 19.08.2021
2610 Clouds 17 1010 80 10000 5.66 260 23:29 18.08.2021
2611 Clouds 16 1010 83 10000 5.66 250 22:38 18.08.2021
2612 Clouds 17 1010 78 10000 3.6 240 21:34 18.08.2021
2613 Clouds 18 1010 76 10000 5.66 250 20:20 18.08.2021
2614 Clouds 18 1010 76 10000 5.66 250 20:20 18.08.2021
2615 Clouds 18 1011 77 10000 4.63 250 19:26 18.08.2021
2616 Clouds 19 1011 77 10000 5.14 250 18:34 18.08.2021
2617 Clouds 19 1011 79 10000 5.66 250 16:56 18.08.2021
2618 Clouds 19 1012 80 10000 7.72 250 15:41 18.08.2021
2619 Clouds 18 1012 80 10000 6.17 260 15:21 18.08.2021
2620 Clouds 18 1012 82 10000 9.26 260 13:25 18.08.2021
2621 Clouds 17 1012 87 10000 6.69 260 12:39 18.08.2021
2622 Clouds 16 1012 92 10000 6.17 260 12:21 18.08.2021
2623 Clouds 14 1012 96 10000 6.17 260 08:51 18.08.2021
2624 Clouds 13 1012 95 10000 3.6 240 03:21 18.08.2021
2625 Clouds 14 1013 94 10000 4.12 260 22:40 17.08.2021
2626 Clouds 15 1013 91 10000 4.63 260 21:59 17.08.2021
2627 Clouds 15 1013 87 10000 5.66 250 21:22 17.08.2021
2628 Clouds 16 1013 86 10000 3.09 270 20:42 17.08.2021
2629 Clouds 17 1013 75 10000 7.72 260 18:49 17.08.2021
2630 Clouds 17 1013 74 10000 7.2 250 17:26 17.08.2021
2631 Clouds 17 1013 77 10000 6.69 260 16:28 17.08.2021
2632 Clouds 17 1013 82 10000 5.66 260 15:35 17.08.2021
2633 Clouds 16 1012 81 10000 8.23 270 13:23 17.08.2021
2634 Clouds 16 1012 78 10000 10.29 270 11:25 17.08.2021
2635 Clouds 14 1012 88 10000 8.75 270 09:20 17.08.2021
2636 Clouds 13 1011 91 10000 8.75 260 07:37 17.08.2021
2637 Clouds 13 1008 93 10000 9.26 250 23:28 16.08.2021
2638 Rain 13 1008 92 10000 8.75 260 22:54 16.08.2021
2639 Rain 13 1008 92 10000 8.75 260 22:35 16.08.2021
2640 Drizzle 13 1008 85 10000 10.8 250 21:52 16.08.2021
2641 Rain 14 1008 77 10000 6.69 250 20:53 16.08.2021
2642 Clouds 14 1008 71 10000 9.26 270 19:43 16.08.2021
2643 Clouds 15 1008 73 10000 9.26 270 19:22 16.08.2021
2644 Clouds 15 1008 69 10000 10.8 280 18:21 16.08.2021
2645 Clouds 16 1008 73 10000 7.2 260 17:51 16.08.2021
2646 Clouds 15 1007 89 10000 8.23 280 15:29 16.08.2021
2647 Clouds 15 1006 90 10000 8.75 270 14:28 16.08.2021
2648 Clouds 16 1006 92 10000 6.17 230 13:24 16.08.2021
2649 Rain 16 1006 93 10000 6.17 240 12:29 16.08.2021
2650 Rain 16 1006 93 10000 6.17 240 12:29 16.08.2021
2651 Rain 17 1005 92 10000 8.23 220 10:37 16.08.2021
2652 Clouds 17 1005 90 10000 6.17 230 08:44 16.08.2021
2653 Clouds 16 1005 90 10000 5.66 230 07:32 16.08.2021
2654 Clouds 16 1006 92 10000 5.14 230 06:22 16.08.2021
2655 Clouds 17 1007 86 10000 1.54 220 01:44 16.08.2021
2656 Clouds 20 1008 68 10000 3.09 230 21:51 15.08.2021
2657 Clouds 23 1008 57 10000 4.63 230 20:28 15.08.2021
2658 Clouds 24 1009 60 10000 6.17 240 18:45 15.08.2021
2659 Clouds 25 1009 55 10000 6.69 240 17:54 15.08.2021
2660 Clouds 25 1010 55 10000 5.14 240 17:23 15.08.2021
2661 Clouds 25 1011 53 10000 5.14 210 15:59 15.08.2021
2662 Clouds 24 1011 59 10000 4.63 240 14:42 15.08.2021
2663 Clouds 24 1012 61 10000 3.6 230 13:38 15.08.2021
2664 Clouds 21 1014 72 10000 3.6 250 10:54 15.08.2021
2665 Clouds 17 1014 84 10000 2.57 220 08:50 15.08.2021
2666 Clear 14 1017 88 10000 2.06 210 01:24 15.08.2021
2667 Clear 15 1017 90 10000 1.54 210 00:36 15.08.2021
2668 Clouds 18 1017 77 10000 2.57 300 21:41 14.08.2021
2669 Clouds 20 1017 68 10000 3.6 300 20:58 14.08.2021
2670 Clouds 21 1017 65 10000 6.17 270 19:43 14.08.2021
2671 Clouds 22 1017 62 10000 7.2 280 18:39 14.08.2021
2672 Clouds 23 1017 61 10000 7.72 240 16:59 14.08.2021
2673 Clouds 23 1018 58 10000 6.17 240 15:47 14.08.2021
2674 Clouds 23 1018 61 10000 6.69 240 14:24 14.08.2021
2675 Clouds 22 1019 69 10000 7.2 220 11:59 14.08.2021
2676 Clouds 20 1019 74 10000 6.69 220 10:45 14.08.2021
2677 Clear 15 1019 88 10000 3.09 200 07:40 14.08.2021
2678 Clear 15 1021 84 10000 2.57 240 23:53 13.08.2021
2679 Clear 17 1021 77 10000 4.12 260 22:26 13.08.2021
2680 Clouds 20 1020 66 10000 4.12 280 20:31 13.08.2021
2681 Clouds 22 1020 59 10000 6.17 260 18:47 13.08.2021
2682 Clouds 22 1020 62 10000 6.69 280 17:43 13.08.2021
2683 Clouds 24 1019 63 10000 7.72 270 16:24 13.08.2021
2684 Clouds 25 1019 66 10000 4.63 230 12:51 13.08.2021
2685 Clear 23 1019 71 10000 2.57 220 11:20 13.08.2021
2686 Clear 21 1019 80 10000 1.03 0 09:41 13.08.2021
2687 Clear 19 1019 87 10000 1.03 0 08:36 13.08.2021
2688 Clear 15 1019 97 10000 1.03 0 07:19 13.08.2021
2689 Clear 15 1019 96 10000 1.03 0 04:59 13.08.2021
2690 Clear 17 1019 88 10000 0.51 210 23:37 12.08.2021
2691 Clear 20 1018 72 10000 1.54 300 21:20 12.08.2021
2692 Clear 22 1018 68 10000 2.57 270 20:22 12.08.2021
2693 Clear 23 1018 64 10000 2.57 260 19:45 12.08.2021
2694 Clouds 25 1018 54 10000 3.09 230 17:51 12.08.2021
2695 Clouds 26 1018 52 10000 3.6 240 16:29 12.08.2021
2696 Clouds 26 1019 56 10000 3.09 240 14:53 12.08.2021
2697 Clear 24 1019 60 10000 1.54 0 12:59 12.08.2021
2698 Clear 22 1019 70 10000 1.54 140 11:20 12.08.2021
2699 Clear 14 1019 92 10000 1.54 150 07:57 12.08.2021
2700 Clear 15 1020 91 10000 1.03 0 01:52 12.08.2021
2701 Clear 16 1019 86 10000 1.03 0 22:54 11.08.2021
2702 Clouds 19 1019 71 10000 1.03 210 21:23 11.08.2021
2703 Clouds 23 1019 56 10000 3.09 270 18:29 11.08.2021
2704 Clouds 23 1019 60 10000 3.09 240 16:30 11.08.2021
2705 Clouds 23 1019 61 10000 2.57 250 15:20 11.08.2021
2706 Clouds 22 1019 65 10000 2.57 260 14:22 11.08.2021
2707 Clouds 22 1019 65 10000 2.57 260 14:22 11.08.2021
2708 Clouds 21 1019 68 10000 3.09 240 12:35 11.08.2021
2709 Clouds 20 1019 71 10000 3.09 230 11:47 11.08.2021
2710 Clouds 19 1019 74 10000 3.6 250 11:22 11.08.2021
2711 Clouds 18 1019 84 10000 3.6 240 10:20 11.08.2021
2712 Clouds 14 1018 98 10000 1.03 0 08:31 11.08.2021
2713 Fog 13 1017 97 5000 1.03 0 00:33 11.08.2021
2714 Clear 14 1016 96 10000 1.54 240 22:32 10.08.2021
2715 Clear 15 1016 93 10000 1.03 270 21:33 10.08.2021
2716 Clouds 16 1015 92 10000 2.06 260 20:36 10.08.2021
2717 Clouds 17 1015 90 10000 2.06 230 18:57 10.08.2021
2718 Thunderstorm 17 1015 91 10000 2.57 270 16:49 10.08.2021
2719 Rain 19 1014 79 10000 4.63 320 15:22 10.08.2021
2720 Clouds 19 1015 78 10000 4.63 260 13:29 10.08.2021
2721 Clouds 17 1015 87 10000 6.17 220 10:47 10.08.2021
2722 Clear 13 1015 96 10000 1.54 160 07:23 10.08.2021
2723 Clear 13 1015 95 10000 1.54 180 04:59 10.08.2021
2724 Clouds 14 1015 95 10000 3.09 170 23:59 09.08.2021
2725 Thunderstorm 15 1015 95 10000 3.09 140 22:33 09.08.2021
2726 Clouds 15 1015 95 10000 1.54 120 21:37 09.08.2021
2727 Clouds 15 1015 92 10000 2.06 100 20:19 09.08.2021
2728 Rain 19 1014 64 10000 6.69 200 17:57 09.08.2021
2729 Clouds 21 1015 65 10000 5.66 190 15:35 09.08.2021
2730 Clouds 20 1015 66 10000 6.17 200 14:26 09.08.2021
2731 Clouds 20 1015 65 10000 5.66 210 13:28 09.08.2021
2732 Clouds 19 1015 70 10000 6.69 220 11:47 09.08.2021
2733 Clear 15 1014 84 10000 4.63 200 09:21 09.08.2021
2734 Clear 14 1014 88 10000 3.09 190 07:52 09.08.2021
2735 Thunderstorm 17 1010 72 10000 3.09 200 21:31 08.08.2021
2736 Clouds 18 1010 63 10000 4.12 210 20:36 08.08.2021
2737 Clouds 20 1009 59 10000 7.72 230 17:35 08.08.2021
2738 Clouds 20 1008 61 10000 9.26 230 15:44 08.08.2021
2739 Clouds 20 1007 66 10000 8.23 230 14:34 08.08.2021
2740 Clouds 19 1006 77 10000 7.72 220 12:46 08.08.2021
2741 Clouds 16 1004 92 10000 7.2 230 10:35 08.08.2021
2742 Clouds 15 1002 95 8000 4.12 180 06:41 08.08.2021
2743 Rain 16 1001 83 10000 3.09 200 00:53 08.08.2021
2744 Clear 16 1001 89 10000 3.09 170 00:24 08.08.2021
2745 Clear 17 1001 83 10000 2.57 150 21:47 07.08.2021
2746 Clear 18 1001 77 10000 2.57 160 21:19 07.08.2021
2747 Clouds 22 1001 63 10000 4.63 200 18:21 07.08.2021
2748 Clouds 22 1001 57 10000 5.14 180 16:52 07.08.2021
2749 Clouds 22 1001 64 10000 4.12 150 15:36 07.08.2021
2750 Clouds 20 1003 71 10000 3.09 170 13:35 07.08.2021
2751 Clouds 18 1004 81 10000 3.09 210 10:37 07.08.2021
2752 Clouds 15 1004 94 10000 1.54 200 07:44 07.08.2021
2753 Clear 15 1004 95 10000 2.57 200 02:38 07.08.2021
2754 Clouds 16 1004 95 10000 2.57 160 22:51 06.08.2021
2755 Clouds 18 1003 90 10000 2.57 250 20:36 06.08.2021
2756 Clouds 19 1003 89 10000 2.57 200 19:59 06.08.2021
2757 Clouds 19 1003 89 10000 2.57 200 19:37 06.08.2021
2758 Clouds 19 1003 89 10000 2.57 200 19:37 06.08.2021
2759 Clouds 19 1002 95 10000 2.06 150 17:44 06.08.2021
2760 Clouds 21 1002 73 10000 4.12 200 12:25 06.08.2021
2761 Clouds 19 1003 82 10000 4.85 165 09:57 06.08.2021
2762 Clear 15 1003 90 10000 4.63 130 08:29 06.08.2021
2763 Clear 15 1006 93 10000 2.57 100 00:33 06.08.2021
2764 Clear 17 1007 84 10000 2.06 120 22:33 05.08.2021
2765 Clouds 18 1007 77 10000 4.12 110 20:48 05.08.2021
2766 Clouds 19 1007 74 10000 5.14 130 19:49 05.08.2021
2767 Clouds 20 1007 72 10000 5.14 100 18:25 05.08.2021
2768 Clouds 23 1008 66 10000 5.14 150 15:35 05.08.2021
2769 Clouds 22 1010 69 10000 3.09 120 12:48 05.08.2021
2770 Clear 16 1010 91 10000 1.03 0 08:52 05.08.2021
2771 Clear 14 1010 95 10000 2.57 70 07:38 05.08.2021
2772 Clear 14 1012 91 10000 1.03 0 02:19 05.08.2021
2773 Clear 16 1013 86 10000 4.12 80 22:21 04.08.2021
2774 Clouds 17 1013 84 10000 3.6 50 21:26 04.08.2021
2775 Clouds 20 1012 69 10000 4.12 20 19:24 04.08.2021
2776 Rain 22 1013 61 10000 4.12 20 17:22 04.08.2021
2777 Clouds 20 1014 67 10000 4.12 20 14:45 04.08.2021
2778 Clouds 16 1014 83 10000 3.6 30 12:21 04.08.2021
2779 Rain 14 1014 88 10000 2.06 360 06:49 04.08.2021
2780 Clouds 19 1012 63 10000 4.12 30 20:55 03.08.2021
2781 Clouds 18 1012 70 10000 3.09 40 20:26 03.08.2021
2782 Clouds 19 1012 65 10000 3.6 30 18:37 03.08.2021
2783 Clouds 20 1012 58 10000 1.54 300 16:58 03.08.2021
2784 Clouds 19 1013 62 10000 2.06 260 13:57 03.08.2021
2785 Clouds 17 1014 76 10000 2.06 250 10:57 03.08.2021
2786 Clouds 16 1014 84 10000 1.03 0 09:42 03.08.2021
2787 Clouds 15 1013 87 10000 2.57 290 21:55 02.08.2021
2788 Clouds 18 1012 70 10000 5.14 280 16:40 02.08.2021
2789 Clouds 18 1012 77 10000 4.12 310 15:31 02.08.2021
2790 Clouds 18 1012 69 10000 5.14 280 12:29 02.08.2021
2791 Rain 17 1012 70 10000 6.17 260 11:57 02.08.2021
2792 Rain 17 1012 70 10000 6.17 260 11:57 02.08.2021
2793 Clouds 16 1011 83 10000 4.63 250 09:51 02.08.2021
2794 Clear 12 1010 95 10000 2.57 240 05:30 02.08.2021
2795 Clouds 17 1008 93 10000 3.6 270 18:27 01.08.2021
2796 Rain 16 1008 93 10000 3.09 300 15:44 01.08.2021
2797 Rain 18 1007 85 10000 4.63 220 11:38 01.08.2021
2798 Clouds 16 1007 92 10000 2.57 230 09:47 01.08.2021
2799 Clouds 15 1007 95 10000 2.57 240 03:49 01.08.2021
2800 Clouds 16 1007 92 10000 4.63 260 22:53 31.07.2021
2801 Clouds 16 1006 91 10000 4.12 250 21:45 31.07.2021
2802 Rain 18 1005 86 10000 7.2 240 17:53 31.07.2021
2803 Clouds 18 1005 88 10000 7.2 240 16:37 31.07.2021
2804 Clouds 18 1003 81 10000 10.8 230 13:31 31.07.2021
2805 Clouds 16 1002 86 10000 6.69 210 09:19 31.07.2021
2806 Clear 15 1004 93 10000 3.6 200 02:48 31.07.2021
2807 Clear 22 1004 53 10000 2.06 140 20:38 30.07.2021
2808 Clear 22 1004 61 10000 3.09 170 20:19 30.07.2021
2809 Clear 22 1007 46 10000 7.72 240 14:18 30.07.2021
2810 Clouds 20 1009 51 10000 7.2 250 18:52 29.07.2021
2811 Clouds 16 1007 80 10000 5.14 220 07:25 29.07.2021
2812 Clear 15 1007 83 10000 4.63 210 04:51 29.07.2021
2813 Clouds 16 1009 90 10000 2.57 250 22:21 28.07.2021
2814 Clouds 22 1008 60 10000 6.35 248 17:47 28.07.2021
2815 Clouds 23 1008 56 10000 7.72 220 16:54 28.07.2021
2816 Clouds 19 1009 79 10000 5.66 210 09:39 28.07.2021
2817 Rain 17 1010 79 10000 2.06 230 23:45 27.07.2021
2818 Rain 19 1010 75 10000 3.09 190 21:31 27.07.2021
2819 Clouds 24 1011 56 10000 6.69 230 14:53 27.07.2021
2820 Clouds 24 1011 61 10000 5.14 220 13:44 27.07.2021
2821 Clouds 19 1011 86 7000 3.6 220 10:20 27.07.2021
2822 Clouds 19 1009 90 10000 1.03 240 22:23 26.07.2021
2823 Clouds 27 1009 52 10000 3.09 220 15:33 26.07.2021
2824 Clouds 19 1010 85 10000 2.09 208 08:28 26.07.2021
2825 Clouds 23 1008 65 10000 1.54 160 20:57 25.07.2021
2826 Clouds 25 1008 63 10000 2.06 150 19:23 25.07.2021
2827 Clouds 27 1008 55 10000 3.6 160 16:22 25.07.2021
2828 Clouds 22 1009 76 10000 4.63 170 11:44 25.07.2021
2829 Mist 18 1008 95 5000 4.12 170 08:20 25.07.2021
2830 Clouds 18 1006 95 10000 2.06 100 02:34 25.07.2021
2831 Clouds 26 1006 60 10000 4.12 50 20:20 24.07.2021
2832 Clear 27 1009 52 10000 5.66 70 15:51 24.07.2021
2833 Clear 13 1014 95 10000 2.57 60 04:21 24.07.2021
2834 Clouds 19 1017 73 10000 2.06 20 17:34 23.07.2021
2835 Clouds 17 1019 85 10000 3.6 310 12:43 23.07.2021
2836 Clouds 14 1019 93 10000 1.03 0 07:47 23.07.2021
2837 Clear 15 1020 79 10000 4.63 340 22:44 22.07.2021
2838 Clouds 20 1022 59 10000 4.12 310 14:36 22.07.2021
2839 Clouds 18 1022 70 10000 3.09 330 10:27 22.07.2021
2840 Clear 16 1023 87 10000 2.12 301 08:23 22.07.2021
2841 Clouds 17 1023 82 10000 3.09 350 22:33 21.07.2021
2842 Clouds 19 1022 79 10000 3.6 10 21:31 21.07.2021
2843 Clouds 21 1023 71 10000 5.14 320 15:24 21.07.2021
2844 Clear 17 1023 87 10000 3.6 270 09:54 21.07.2021
2845 Clear 17 1023 89 10000 2.57 280 09:19 21.07.2021
2846 Clouds 16 1022 93 10000 3.09 310 23:56 20.07.2021
2847 Clouds 18 1021 76 10000 5.14 310 20:28 20.07.2021
2848 Clouds 20 1020 67 10000 4.12 300 16:33 20.07.2021
2849 Clouds 20 1021 65 10000 3.6 290 15:26 20.07.2021
2850 Clouds 17 1021 68 10000 3.6 290 11:19 20.07.2021
2851 Clouds 15 1020 84 10000 2.06 300 07:23 20.07.2021
2852 Clouds 14 1020 87 10000 2.06 280 02:55 20.07.2021
2853 Clouds 18 1020 68 10000 3.6 280 17:44 19.07.2021
2854 Clouds 18 1021 67 10000 4.63 310 12:45 19.07.2021
2855 Clouds 19 1021 76 10000 6.17 330 20:59 18.07.2021
2856 Clouds 25 1021 56 10000 4.63 290 15:21 18.07.2021
2857 Clouds 20 1022 84 10000 3.6 300 10:19 18.07.2021
2858 Clear 18 1023 85 10000 3.6 330 22:30 17.07.2021
2859 Clear 19 1023 80 10000 4.12 330 21:58 17.07.2021
2860 Clear 19 1023 75 10000 4.12 330 21:40 17.07.2021
2861 Clear 19 1023 75 10000 4.12 330 21:40 17.07.2021
2862 Clouds 23 1023 69 10000 6.69 310 12:35 17.07.2021
2863 Clouds 22 1023 73 10000 5.14 320 11:30 17.07.2021
2864 Clear 16 1022 95 10000 3.09 290 04:47 17.07.2021
2865 Clouds 22 1020 71 10000 5.66 320 15:34 16.07.2021
2866 Clouds 20 1019 77 10000 5.14 290 11:43 16.07.2021
2867 Clouds 17 1018 92 10000 3.09 290 07:24 16.07.2021
2868 Clouds 20 1013 92 10000 7.72 300 18:33 15.07.2021
2869 Clouds 23 1012 77 10000 4.63 290 13:49 15.07.2021
2870 Clouds 21 1012 86 10000 2.06 180 09:51 15.07.2021
2871 Clouds 19 1009 92 10000 2.06 190 00:31 15.07.2021
2872 Clouds 23 1007 90 8000 2.06 20 16:54 14.07.2021
2873 Rain 21 1007 96 5000 3.6 330 11:59 14.07.2021
2874 Clouds 19 1008 97 10000 2.8 2 04:44 14.07.2021
2875 Clouds 21 1009 88 10000 2.57 330 20:23 13.07.2021
2876 Rain 22 1009 87 10000 4.12 310 19:50 13.07.2021
2877 Rain 23 1008 84 10000 6.69 300 19:23 13.07.2021
2878 Rain 24 1008 78 10000 5.14 300 18:44 13.07.2021
2879 Clouds 24 1008 73 10000 4.12 290 18:24 13.07.2021
2880 Rain 24 1008 77 10000 2.57 70 15:31 13.07.2021
2881 Clear 23 1009 78 10000 1.54 40 09:48 13.07.2021
2882 Clear 20 1010 89 10000 0.51 0 00:19 13.07.2021
2883 Clouds 25 1010 64 10000 3.6 110 17:29 12.07.2021
2884 Rain 25 1011 63 10000 2.06 180 15:21 12.07.2021
2885 Clouds 18 1013 96 6000 0.51 90 07:58 12.07.2021
2886 Rain 20 1015 93 10000 1.54 90 21:58 11.07.2021
2887 Rain 22 1016 75 3000 6.17 110 15:50 11.07.2021
2888 Clear 15 1016 87 10000 2.57 50 04:42 11.07.2021
2889 Clouds 22 1015 60 10000 3.09 210 17:38 10.07.2021
2890 Clear 14 1017 91 10000 1.54 270 07:58 10.07.2021
2891 Clear 13 1017 94 10000 2.06 260 07:22 10.07.2021
2892 Clear 19 1018 72 10000 4.63 310 20:55 09.07.2021
2893 Clouds 20 1019 75 10000 6.17 310 14:53 09.07.2021
2894 Clouds 20 1020 78 10000 5.14 310 13:27 09.07.2021
2895 Clear 17 1020 95 10000 1.54 240 01:35 09.07.2021
2896 Clouds 18 1021 83 10000 3.09 10 22:52 08.07.2021
2897 Clouds 20 1019 80 10000 6.69 350 20:52 08.07.2021
2898 Clouds 23 1018 59 10000 2.06 270 18:41 08.07.2021
2899 Clear 25 1019 49 10000 1.03 0 13:54 08.07.2021
2900 Clear 25 1020 50 10000 1.54 0 13:30 08.07.2021
2901 Clear 24 1020 48 10000 1.03 0 12:35 08.07.2021
2902 Clouds 24 1020 59 10000 1.03 0 11:25 08.07.2021
2903 Clear 16 1019 97 10000 1.03 0 06:53 08.07.2021
2904 Clouds 16 1019 92 10000 3.09 260 04:41 08.07.2021
2905 Clear 17 1018 82 10000 0.51 0 23:45 07.07.2021
2906 Clear 18 1017 78 10000 2.57 180 22:20 07.07.2021
2907 Clear 20 1017 68 10000 2.06 180 21:46 07.07.2021
2908 Clear 21 1017 63 10000 2.06 200 21:25 07.07.2021
2909 Clear 23 1016 52 10000 3.6 210 19:59 07.07.2021
2910 Clear 23 1016 55 10000 4.63 180 19:30 07.07.2021
2911 Clear 24 1016 50 10000 5.66 230 18:56 07.07.2021
2912 Clear 23 1015 51 10000 6.69 190 15:58 07.07.2021
2913 Clear 23 1015 49 10000 5.66 200 15:24 07.07.2021
2914 Clouds 23 1015 56 10000 5.14 190 11:52 07.07.2021
2915 Clear 13 1013 88 10000 1.03 0 07:27 07.07.2021
2916 Clear 12 1013 88 10000 2.57 160 05:52 07.07.2021
2917 Clear 14 1012 85 10000 3.09 150 02:58 07.07.2021
2918 Clouds 22 1007 56 10000 7.2 240 20:54 06.07.2021
2919 Clear 23 1006 53 10000 6.17 220 19:18 06.07.2021
2920 Clouds 24 1006 49 10000 6.69 220 18:44 06.07.2021
2921 Clouds 23 1006 49 10000 6.69 220 18:19 06.07.2021
2922 Clear 20 1004 77 10000 4.12 170 13:37 06.07.2021
2923 Rain 21 1004 78 10000 4.63 150 09:45 06.07.2021
2924 Rain 21 1004 78 10000 4.63 150 09:45 06.07.2021
2925 Rain 20 1005 84 10000 5.14 150 08:50 06.07.2021
2926 Clear 19 1004 85 10000 4.63 140 08:24 06.07.2021
2927 Clear 17 1006 90 10000 4.12 130 04:49 06.07.2021
2928 Clouds 17 1008 84 10000 2.06 110 23:58 05.07.2021
2929 Clouds 18 1008 78 10000 1.03 0 21:59 05.07.2021
2930 Clouds 20 1008 68 10000 4.63 250 17:22 05.07.2021
2931 Clouds 18 1008 88 10000 3.09 210 14:29 05.07.2021
2932 Clouds 16 1008 96 8000 2.57 200 06:21 05.07.2021
2933 Clouds 16 1008 96 10000 2.57 210 05:42 05.07.2021
2934 Clouds 17 1009 95 10000 2.06 190 01:28 05.07.2021
2935 Clouds 17 1008 94 9000 2.06 310 21:52 04.07.2021
2936 Clouds 23 1007 74 10000 2.57 60 18:51 04.07.2021
2937 Clouds 24 1009 60 10000 3.09 50 15:38 04.07.2021
2938 Clouds 21 1011 81 10000 0.51 0 11:43 04.07.2021
2939 Clouds 17 1011 86 10000 1.54 190 08:38 04.07.2021
2940 Clouds 15 1013 88 10000 2.01 56 23:31 03.07.2021
2941 Clear 18 1013 72 10000 2.57 50 22:19 03.07.2021
2942 Clouds 23 1015 58 10000 2.06 0 14:19 03.07.2021
2943 Clouds 22 1016 61 10000 3.09 320 12:38 03.07.2021
2944 Clouds 18 1016 82 10000 1.54 290 09:29 03.07.2021
2945 Clouds 16 1016 85 10000 1.03 0 08:46 03.07.2021
2946 Clouds 13 1017 100 10000 1.03 0 02:46 03.07.2021
2947 Clouds 18 1016 77 10000 4.12 270 12:51 02.07.2021
2948 Clouds 16 1015 92 10000 2.57 240 07:40 02.07.2021
2949 Clouds 14 1014 94 10000 3.18 249 04:38 02.07.2021
2950 Clouds 16 1013 93 10000 2.06 270 22:33 01.07.2021
2951 Clouds 18 1013 81 10000 3.09 310 21:51 01.07.2021
2952 Clouds 19 1012 79 10000 4.12 330 20:45 01.07.2021
2953 Clouds 20 1012 75 10000 5.66 340 19:21 01.07.2021
2954 Clouds 21 1011 72 10000 5.14 310 18:49 01.07.2021
2955 Clouds 21 1011 76 10000 4.63 290 17:48 01.07.2021
2956 Clouds 21 1011 79 10000 5.66 310 17:18 01.07.2021
2957 Rain 20 1011 84 10000 2.06 360 15:25 01.07.2021
2958 Clouds 20 1010 83 10000 3.09 310 14:23 01.07.2021
2959 Clouds 16 1009 99 8000 2.57 270 10:55 01.07.2021
2960 Mist 14 1009 96 3500 5.14 250 06:56 01.07.2021
2961 Rain 15 1011 91 10000 4.12 270 23:23 30.06.2021
2962 Clouds 15 1011 94 10000 3.6 280 22:20 30.06.2021
2963 Clouds 15 1010 93 10000 3.09 280 21:22 30.06.2021
2964 Rain 16 1010 89 10000 4.63 300 20:28 30.06.2021
2965 Rain 17 1010 87 10000 5.14 290 19:19 30.06.2021
2966 Clouds 18 1009 90 10000 3.6 260 14:26 30.06.2021
2967 Clouds 18 1009 91 10000 3.09 260 13:24 30.06.2021
2968 Mist 16 1009 96 2000 3.09 290 08:19 30.06.2021
2969 Clouds 17 1009 95 10000 1.03 0 21:40 29.06.2021
2970 Rain 19 1009 85 10000 3.09 50 18:45 29.06.2021
2971 Rain 19 1009 81 6000 8.23 290 17:43 29.06.2021
2972 Rain 22 1009 79 10000 1.47 101 17:43 29.06.2021
2973 Clouds 22 1010 83 10000 1.86 120 16:59 29.06.2021
2974 Clouds 22 1009 85 10000 3.6 90 15:50 29.06.2021
2975 Clouds 21 1010 86 10000 4.12 90 14:54 29.06.2021
2976 Clouds 22 1011 78 10000 2.57 140 13:19 29.06.2021
2977 Clear 20 1012 86 10000 2.57 170 00:41 29.06.2021
2978 Clear 25 1011 65 10000 1.03 160 21:47 28.06.2021
2979 Clear 26 1012 61 10000 2.57 140 19:53 28.06.2021
2980 Clear 28 1013 53 10000 3.09 170 17:32 28.06.2021
2981 Clear 29 1013 43 10000 3.6 130 15:22 28.06.2021
2982 Clear 28 1014 47 10000 4.63 120 14:20 28.06.2021
2983 Clear 20 1015 82 10000 2.06 60 09:36 28.06.2021
2984 Clear 20 1016 73 10000 3.09 40 23:47 27.06.2021
2985 Clear 23 1015 60 10000 3.09 50 21:54 27.06.2021
2986 Clear 25 1015 53 10000 4.12 50 19:42 27.06.2021
2987 Clear 26 1016 51 10000 2.57 40 16:54 27.06.2021
2988 Clouds 25 1017 55 10000 3.09 80 14:30 27.06.2021
2989 Clear 20 1018 78 10000 2.06 70 09:33 27.06.2021
2990 Clear 17 1019 85 10000 1.54 30 23:57 26.06.2021
2991 Clear 20 1018 76 10000 3.09 360 21:24 26.06.2021
2992 Clear 21 1018 73 10000 3.09 10 20:44 26.06.2021
2993 Clouds 22 1018 69 10000 2.57 290 19:26 26.06.2021
2994 Clouds 23 1019 62 10000 1.03 0 15:39 26.06.2021
2995 Clouds 24 1019 61 10000 1.03 0 13:52 26.06.2021
2996 Clouds 21 1020 71 10000 1.54 250 09:58 26.06.2021
2997 Clear 16 1019 88 10000 1.03 230 06:23 26.06.2021
2998 Clear 18 1017 68 10000 2.57 240 21:24 25.06.2021
2999 Clear 20 1017 59 10000 2.57 230 20:34 25.06.2021
3000 Clouds 22 1017 51 10000 2.31 273 17:58 25.06.2021
3001 Clear 22 1016 43 10000 2.57 0 17:30 25.06.2021
3002 Clear 22 1017 42 10000 3.6 220 15:59 25.06.2021
3003 Clouds 21 1017 51 10000 2.06 0 13:42 25.06.2021
3004 Clouds 17 1018 74 10000 2.57 0 09:56 25.06.2021
3005 Clouds 12 1017 95 10000 1.03 0 07:23 25.06.2021
3006 Mist 11 1017 94 10000 1.03 0 05:55 25.06.2021
3007 Clear 13 1019 91 10000 2.57 290 00:23 25.06.2021
3008 Clouds 16 1018 77 10000 4.12 300 21:48 24.06.2021
3009 Clouds 16 1018 72 10000 4.12 300 20:42 24.06.2021
3010 Clouds 17 1018 73 10000 3.6 310 19:58 24.06.2021
3011 Clouds 18 1019 73 10000 4.12 310 18:20 24.06.2021
3012 Clouds 19 1019 69 10000 3.6 300 15:23 24.06.2021
3013 Clouds 18 1019 70 10000 4.12 300 14:52 24.06.2021
3014 Clouds 18 1020 70 10000 3.6 310 13:23 24.06.2021
3015 Clouds 16 1020 72 10000 1.03 0 09:58 24.06.2021
3016 Clouds 14 1020 82 10000 2.06 290 08:29 24.06.2021
3017 Clouds 12 1021 88 10000 3.09 300 06:52 24.06.2021
3018 Clouds 14 1021 83 10000 4.12 350 23:58 23.06.2021
3019 Clouds 15 1021 79 10000 3.6 350 22:25 23.06.2021
3020 Clouds 16 1021 78 10000 3.6 340 21:22 23.06.2021
3021 Clouds 17 1021 74 10000 3.09 20 20:19 23.06.2021
3022 Clouds 18 1021 70 10000 3.09 310 18:30 23.06.2021
3023 Clouds 18 1021 69 10000 2.57 330 16:52 23.06.2021
3024 Clouds 18 1021 65 10000 2.57 340 14:31 23.06.2021
3025 Clouds 17 1021 75 10000 3.09 310 12:47 23.06.2021
3026 Clouds 16 1021 77 10000 4.12 310 11:33 23.06.2021
3027 Clouds 15 1020 84 10000 2.57 310 09:31 23.06.2021
3028 Clouds 14 1020 82 10000 2.06 300 08:38 23.06.2021
3029 Clear 13 1020 90 10000 3.09 290 07:49 23.06.2021
3030 Clouds 11 1020 93 10000 2.57 230 05:34 23.06.2021
3031 Clear 11 1019 90 10000 2.57 300 01:57 23.06.2021
3032 Clear 12 1019 77 10000 2.57 320 00:19 23.06.2021
3033 Clear 12 1019 81 10000 2.57 340 23:44 22.06.2021
3034 Clear 13 1019 75 10000 4.12 350 22:39 22.06.2021
3035 Clouds 15 1018 65 10000 3.6 360 21:46 22.06.2021
3036 Clouds 15 1018 63 10000 5.14 340 20:55 22.06.2021
3037 Clouds 17 1017 65 10000 4.63 320 19:19 22.06.2021
3038 Clouds 17 1017 62 10000 5.14 330 18:33 22.06.2021
3039 Clouds 17 1016 60 10000 5.14 340 17:29 22.06.2021
3040 Clouds 18 1016 60 10000 5.14 310 16:56 22.06.2021
3041 Clouds 17 1017 62 10000 4.63 330 15:40 22.06.2021
3042 Clouds 17 1016 64 10000 5.14 320 14:28 22.06.2021
3043 Clouds 17 1016 62 10000 5.14 310 13:40 22.06.2021
3044 Clouds 17 1016 65 10000 4.12 320 12:31 22.06.2021
3045 Clouds 16 1016 74 10000 4.63 320 10:55 22.06.2021
3046 Clouds 14 1015 83 10000 4.63 330 08:52 22.06.2021
3047 Clouds 12 1013 91 10000 3.6 310 00:57 22.06.2021
3048 Clouds 12 1013 91 10000 3.6 310 00:37 22.06.2021
3049 Clouds 13 1012 96 10000 5.66 330 22:52 21.06.2021
3050 Drizzle 13 1011 96 10000 6.17 320 21:37 21.06.2021
3051 Drizzle 13 1011 98 4000 7.72 320 20:52 21.06.2021
3052 Clouds 14 1010 96 4500 6.17 330 19:56 21.06.2021
3053 Clouds 14 1009 96 4500 5.66 320 19:29 21.06.2021
3054 Drizzle 14 1009 96 3300 4.63 330 18:20 21.06.2021
3055 Drizzle 15 1007 94 10000 5.14 10 16:53 21.06.2021
3056 Rain 15 1007 93 10000 6.17 20 16:29 21.06.2021
3057 Clouds 15 1007 93 10000 6.69 20 15:56 21.06.2021
3058 Clouds 15 1007 93 10000 4.63 20 15:19 21.06.2021
3059 Clouds 15 1007 96 5000 4.63 20 13:40 21.06.2021
3060 Rain 15 1006 93 10000 6.17 20 12:55 21.06.2021
3061 Rain 15 1006 93 10000 6.69 20 12:31 21.06.2021
3062 Rain 14 1006 96 10000 5.66 20 10:43 21.06.2021
3063 Rain 14 1006 94 10000 6.17 10 10:22 21.06.2021
3064 Rain 13 1007 100 7000 5.66 350 08:47 21.06.2021
3065 Rain 13 1007 98 8000 4.12 10 07:57 21.06.2021
3066 Clouds 16 1009 85 10000 4.63 30 01:53 21.06.2021
3067 Clear 16 1009 84 10000 4.63 10 23:54 20.06.2021
3068 Clear 17 1009 85 10000 3.6 20 23:34 20.06.2021
3069 Clear 18 1009 82 10000 3.6 10 22:50 20.06.2021
3070 Clear 18 1008 81 10000 5.66 30 21:48 20.06.2021
3071 Clouds 21 1008 76 10000 4.12 310 20:27 20.06.2021
3072 Clouds 21 1008 73 10000 5.14 310 19:38 20.06.2021
3073 Clouds 23 1008 65 10000 4.63 320 18:49 20.06.2021
3074 Clouds 24 1008 63 10000 4.12 270 17:45 20.06.2021
3075 Clouds 24 1008 59 10000 4.63 270 16:45 20.06.2021
3076 Clouds 25 1008 57 10000 5.66 260 15:38 20.06.2021
3077 Clouds 25 1008 57 10000 5.66 270 15:19 20.06.2021
3078 Clouds 25 1007 57 10000 7.72 250 14:38 20.06.2021
3079 Clouds 24 1008 67 10000 8.23 240 13:29 20.06.2021
3080 Clouds 24 1007 68 10000 5.66 220 12:34 20.06.2021
3081 Clouds 22 1007 78 10000 8.23 230 11:45 20.06.2021
3082 Clouds 21 1006 89 10000 5.14 200 09:50 20.06.2021
3083 Clouds 20 1006 93 10000 3.6 150 08:59 20.06.2021
3084 Rain 18 1007 91 10000 2.57 60 04:32 20.06.2021
3085 Clear 18 1012 86 10000 3.6 30 23:36 19.06.2021
3086 Clear 18 1012 85 10000 5.14 20 22:52 19.06.2021
3087 Clear 20 1013 78 10000 5.66 10 21:51 19.06.2021
3088 Clear 24 1012 64 10000 5.66 10 20:50 19.06.2021
3089 Clear 27 1012 55 10000 2.06 240 18:50 19.06.2021
3090 Clear 27 1012 50 10000 4.12 250 18:21 19.06.2021
3091 Clear 29 1013 45 10000 3.09 260 17:22 19.06.2021
3092 Clouds 28 1013 47 10000 4.12 220 15:56 19.06.2021
3093 Clouds 27 1013 51 10000 3.09 210 14:28 19.06.2021
3094 Clouds 26 1014 53 10000 5.14 220 12:51 19.06.2021
3095 Clouds 25 1014 61 10000 5.14 240 11:53 19.06.2021
3096 Clouds 24 1014 66 10000 6.17 250 10:46 19.06.2021
3097 Clouds 25 1013 66 10000 7.2 240 10:23 19.06.2021
3098 Clouds 24 1013 69 10000 7.2 250 09:24 19.06.2021
3099 Clear 23 1012 78 10000 3.6 230 07:48 19.06.2021
3100 Clear 19 1011 93 10000 1.54 230 06:29 19.06.2021
3101 Clear 19 1011 93 10000 1.54 230 06:29 19.06.2021
3102 Clear 19 1011 93 10000 1.54 230 06:29 19.06.2021
3103 Clouds 20 1012 88 10000 2.65 164 02:22 19.06.2021
3104 Clear 26 1011 73 10000 2.06 140 00:19 19.06.2021
3105 Clear 27 1010 65 10000 3.09 110 23:32 18.06.2021
3106 Clear 27 1010 65 10000 2.57 110 22:50 18.06.2021
3107 Clear 27 1010 65 10000 2.06 100 22:25 18.06.2021
3108 Clear 28 1010 61 10000 2.06 130 21:43 18.06.2021
3109 Clear 28 1010 61 10000 2.06 120 21:21 18.06.2021
3110 Clouds 27 1011 66 10000 2.06 150 20:18 18.06.2021
3111 Clouds 29 1011 64 10000 1.03 0 18:29 18.06.2021
3112 Clear 30 1011 55 10000 0.51 0 17:39 18.06.2021
3113 Clear 30 1012 54 10000 2.06 260 16:30 18.06.2021
3114 Clouds 29 1012 54 10000 2.06 0 15:46 18.06.2021
3115 Clouds 28 1012 61 10000 3.09 0 14:34 18.06.2021
3116 Clear 28 1013 61 10000 2.06 0 13:41 18.06.2021
3117 Clear 26 1013 67 10000 4.63 310 12:52 18.06.2021
3118 Clear 26 1013 67 10000 4.12 330 12:30 18.06.2021
3119 Clear 26 1013 70 10000 4.12 320 11:36 18.06.2021
3120 Clear 25 1013 70 10000 3.09 320 10:57 18.06.2021
3121 Clear 24 1013 71 10000 2.06 20 10:23 18.06.2021
3122 Clear 24 1013 75 10000 2.06 350 09:51 18.06.2021
3123 Clear 22 1013 80 10000 3.09 320 08:56 18.06.2021
3124 Clear 21 1013 83 10000 2.57 30 08:30 18.06.2021
3125 Clear 20 1013 86 10000 2.06 50 07:33 18.06.2021
3126 Clear 20 1014 85 10000 2.57 350 03:24 18.06.2021
3127 Clear 21 1014 77 10000 4.12 350 00:34 18.06.2021
3128 Clear 23 1013 71 10000 6.69 340 23:27 17.06.2021
3129 Clear 25 1011 62 10000 3.09 120 22:26 17.06.2021
3130 Clear 26 1011 57 10000 2.57 120 21:51 17.06.2021
3131 Clear 30 1011 45 10000 1.54 130 21:18 17.06.2021
3132 Clear 31 1011 40 10000 3.6 140 20:32 17.06.2021
3133 Clear 32 1010 37 10000 4.12 140 19:54 17.06.2021
3134 Clear 32 1010 37 10000 5.14 150 19:22 17.06.2021
3135 Clear 33 1010 33 10000 6.69 160 17:50 17.06.2021
3136 Clear 33 1010 34 10000 7.72 160 17:22 17.06.2021
3137 Clear 33 1010 33 10000 6.69 150 16:30 17.06.2021
3138 Clear 33 1010 33 10000 6.69 150 16:30 17.06.2021
3139 Clear 33 1010 34 10000 6.69 170 15:53 17.06.2021
3140 Clear 32 1011 38 10000 6.69 140 14:29 17.06.2021
3141 Clear 32 1011 38 10000 5.66 140 13:46 17.06.2021
3142 Clear 30 1011 47 10000 4.63 150 12:31 17.06.2021
3143 Clear 30 1011 52 10000 5.14 130 11:41 17.06.2021
3144 Clear 28 1012 56 10000 4.63 130 10:44 17.06.2021
3145 Clear 27 1012 59 10000 4.12 130 10:23 17.06.2021
3146 Clear 26 1012 65 10000 3.6 130 09:40 17.06.2021
3147 Clear 24 1012 70 10000 3.6 150 08:48 17.06.2021
3148 Clear 21 1012 77 10000 3.09 140 07:51 17.06.2021
3149 Clear 20 1011 81 10000 4.12 130 06:23 17.06.2021
3150 Clear 21 1012 73 10000 4.63 120 01:54 17.06.2021
3151 Clear 23 1012 68 10000 3.09 110 23:40 16.06.2021
3152 Clear 24 1012 64 10000 3.09 110 23:21 16.06.2021
3153 Clear 25 1012 61 10000 3.09 110 22:24 16.06.2021
3154 Clear 26 1012 57 10000 3.09 110 21:43 16.06.2021
3155 Clear 27 1012 54 10000 2.57 110 21:19 16.06.2021
3156 Clear 27 1012 54 10000 1.54 110 20:41 16.06.2021
3157 Clear 28 1012 47 10000 2.57 130 19:52 16.06.2021
3158 Clear 28 1013 52 10000 3.6 140 19:33 16.06.2021
3159 Clear 28 1012 51 10000 2.57 130 19:33 16.06.2021
3160 Clear 28 1013 50 10000 3.6 140 18:52 16.06.2021
3161 Clear 28 1013 48 10000 4.12 150 18:24 16.06.2021
3162 Clear 28 1013 47 10000 3.09 140 17:43 16.06.2021
3163 Clear 28 1013 46 10000 3.09 0 17:24 16.06.2021
3164 Clear 27 1014 46 10000 3.6 110 16:43 16.06.2021
3165 Clear 27 1014 46 10000 3.6 110 15:57 16.06.2021
3166 Clear 26 1014 46 10000 3.09 120 15:31 16.06.2021
3167 Clear 26 1015 47 10000 3.6 130 14:48 16.06.2021
3168 Clear 25 1015 44 10000 4.12 130 14:30 16.06.2021
3169 Clear 25 1015 44 10000 3.6 130 13:55 16.06.2021
3170 Clear 24 1016 43 10000 3.6 120 13:22 16.06.2021
3171 Clear 24 1016 44 10000 3.6 130 12:50 16.06.2021
3172 Clear 23 1016 46 10000 4.12 140 12:28 16.06.2021
3173 Clear 23 1016 51 10000 4.12 120 11:45 16.06.2021
3174 Clear 22 1017 55 10000 3.09 140 10:46 16.06.2021
3175 Clear 20 1017 58 10000 3.6 130 10:21 16.06.2021
3176 Clear 19 1017 65 10000 3.09 140 09:34 16.06.2021
3177 Clear 16 1018 74 10000 3.6 110 08:32 16.06.2021
3178 Clear 14 1018 80 10000 1.54 100 07:44 16.06.2021
3179 Clear 13 1018 83 10000 1.54 80 07:23 16.06.2021
3180 Clear 11 1019 84 10000 2.57 80 02:48 16.06.2021
3181 Clear 14 1020 74 10000 3.09 40 23:46 15.06.2021
3182 Clear 15 1020 73 10000 3.09 30 23:22 15.06.2021
3183 Clear 16 1020 63 10000 3.09 30 22:44 15.06.2021
3184 Clear 16 1020 66 10000 3.6 20 22:25 15.06.2021
3185 Clouds 16 1020 70 10000 2.69 18 21:24 15.06.2021
3186 Clouds 18 1020 57 10000 3.6 10 20:18 15.06.2021
3187 Clouds 19 1020 51 10000 3.09 340 19:31 15.06.2021
3188 Clear 20 1020 54 10000 4.63 310 17:55 15.06.2021
3189 Clear 20 1021 51 10000 2.57 0 16:50 15.06.2021
3190 Clouds 20 1021 49 10000 4.12 340 15:43 15.06.2021
3191 Clouds 20 1021 51 10000 4.63 330 15:18 15.06.2021
3192 Clouds 20 1021 52 10000 4.63 300 14:43 15.06.2021
3193 Clouds 20 1021 53 10000 3.09 330 13:39 15.06.2021
3194 Clouds 20 1021 57 10000 4.12 0 12:53 15.06.2021
3195 Clouds 19 1021 59 10000 3.6 300 12:32 15.06.2021
3196 Clouds 18 1021 63 10000 3.09 310 11:43 15.06.2021
3197 Clouds 18 1021 63 10000 2.57 310 11:18 15.06.2021
3198 Clouds 17 1021 68 10000 2.57 0 10:43 15.06.2021
3199 Clouds 17 1021 72 10000 3.6 350 10:21 15.06.2021
3200 Clouds 15 1021 79 10000 2.57 10 08:57 15.06.2021
3201 Clouds 15 1021 80 10000 3.09 350 08:22 15.06.2021
3202 Clouds 14 1020 85 10000 3.6 350 07:28 15.06.2021
3203 Clouds 14 1020 87 10000 3.6 350 05:59 15.06.2021
3204 Clouds 14 1019 90 10000 2.57 300 04:30 15.06.2021
3205 Clouds 16 1019 87 10000 4.63 330 00:44 15.06.2021
3206 Clear 17 1018 82 10000 4.63 330 23:40 14.06.2021
3207 Clear 19 1018 76 10000 3.6 340 22:59 14.06.2021
3208 Clear 19 1018 76 10000 3.6 340 22:41 14.06.2021
3209 Clear 19 1018 75 10000 4.12 340 22:18 14.06.2021
3210 Clear 21 1018 64 10000 6.17 350 21:38 14.06.2021
3211 Clear 21 1017 67 10000 7.2 350 21:19 14.06.2021
3212 Clear 24 1017 56 10000 3.6 310 20:46 14.06.2021
3213 Clear 25 1017 49 10000 3.6 300 19:49 14.06.2021
3214 Clear 25 1017 44 10000 3.6 260 19:31 14.06.2021
3215 Clear 26 1017 43 10000 4.12 240 18:54 14.06.2021
3216 Clear 26 1017 38 10000 4.12 240 18:22 14.06.2021
3217 Clear 27 1018 36 10000 3.6 250 17:48 14.06.2021
3218 Clear 26 1018 39 10000 3.6 260 17:27 14.06.2021
3219 Clear 26 1019 39 10000 4.12 240 16:20 14.06.2021
3220 Clear 26 1019 41 10000 3.09 220 15:47 14.06.2021
3221 Clear 25 1019 42 10000 4.12 220 14:56 14.06.2021
3222 Clear 25 1019 41 10000 4.12 220 14:37 14.06.2021
3223 Clear 24 1020 44 10000 5.14 220 13:31 14.06.2021
3224 Clear 24 1020 45 10000 5.14 200 12:53 14.06.2021
3225 Clear 23 1020 46 10000 5.14 180 12:22 14.06.2021
3226 Clear 23 1020 47 10000 5.66 180 11:39 14.06.2021
3227 Clear 22 1021 51 10000 4.63 190 10:47 14.06.2021
3228 Clear 19 1022 63 10000 2.57 180 09:28 14.06.2021
3229 Clear 17 1023 70 10000 2.06 160 08:59 14.06.2021
3230 Clear 16 1023 73 10000 2.57 160 08:23 14.06.2021
3231 Clear 14 1023 79 10000 1.54 150 07:43 14.06.2021
3232 Clear 10 1023 91 10000 1.03 0 05:58 14.06.2021
3233 Clear 10 1023 93 10000 1.54 140 04:51 14.06.2021
3234 Clear 12 1025 90 10000 0 0 00:43 14.06.2021
3235 Clear 13 1025 84 10000 1.03 100 23:40 13.06.2021
3236 Clear 14 1025 74 10000 1.03 40 23:19 13.06.2021
3237 Clear 16 1025 63 10000 2.06 20 22:40 13.06.2021
3238 Clear 16 1025 67 10000 3.6 30 22:18 13.06.2021
3239 Clear 17 1025 59 10000 4.12 30 21:39 13.06.2021
3240 Clear 17 1026 61 10000 4.12 30 21:20 13.06.2021
3241 Clear 19 1026 55 10000 4.63 10 20:33 13.06.2021
3242 Clear 20 1025 51 10000 3.09 310 19:59 13.06.2021
3243 Clear 20 1025 51 10000 3.09 310 19:41 13.06.2021
3244 Clear 20 1026 50 10000 3.6 300 19:21 13.06.2021
3245 Clear 21 1026 50 10000 3.6 320 18:30 13.06.2021
3246 Clouds 21 1026 49 10000 4.63 300 17:49 13.06.2021
3247 Clouds 21 1026 48 10000 5.14 300 16:47 13.06.2021
3248 Clouds 20 1027 50 10000 5.14 300 15:50 13.06.2021
3249 Clouds 20 1027 51 10000 6.17 290 14:59 13.06.2021
3250 Clouds 20 1027 51 10000 5.14 300 14:27 13.06.2021
3251 Clouds 19 1027 51 10000 6.69 300 13:42 13.06.2021
3252 Clouds 19 1027 52 10000 5.66 280 13:23 13.06.2021
3253 Clouds 19 1027 52 10000 5.66 280 13:23 13.06.2021
3254 Clouds 18 1027 55 10000 5.14 280 12:45 13.06.2021
3255 Clouds 18 1027 54 10000 6.17 300 12:24 13.06.2021
3256 Clouds 17 1027 54 10000 5.14 290 11:27 13.06.2021
3257 Clouds 17 1027 57 10000 5.66 300 10:47 13.06.2021
3258 Clouds 17 1027 60 10000 5.14 280 10:19 13.06.2021
3259 Clouds 16 1026 62 10000 5.14 310 09:43 13.06.2021
3260 Clouds 15 1026 69 10000 5.14 290 09:23 13.06.2021
3261 Clear 14 1026 76 10000 3.6 300 08:46 13.06.2021
3262 Clear 13 1026 79 10000 4.12 290 08:25 13.06.2021
3263 Clouds 9 1025 92 10000 2.06 250 06:51 13.06.2021
3264 Clouds 11 1023 85 10000 3.6 300 01:21 13.06.2021
3265 Clouds 13 1023 77 10000 5.14 300 23:22 12.06.2021
3266 Clouds 13 1022 76 10000 7.2 310 22:39 12.06.2021
3267 Clouds 15 1021 71 10000 7.72 320 21:56 12.06.2021
3268 Clouds 15 1021 70 10000 7.72 320 21:35 12.06.2021
3269 Clouds 16 1021 68 10000 7.72 330 20:43 12.06.2021
3270 Clouds 16 1020 70 10000 8.23 300 20:19 12.06.2021
3271 Clouds 17 1020 63 10000 10.8 300 19:28 12.06.2021
3272 Clouds 18 1019 59 10000 8.23 300 18:39 12.06.2021
3273 Clouds 18 1019 59 10000 9.77 300 17:58 12.06.2021
3274 Clouds 19 1019 56 10000 10.29 290 17:19 12.06.2021
3275 Clouds 19 1018 53 10000 10.8 290 16:37 12.06.2021
3276 Clouds 19 1018 56 10000 9.77 300 15:37 12.06.2021
3277 Clouds 20 1017 59 10000 7.72 310 14:42 12.06.2021
3278 Clouds 19 1017 57 10000 8.75 300 14:23 12.06.2021
3279 Clouds 19 1017 64 10000 7.72 300 12:58 12.06.2021
3280 Clouds 19 1017 63 10000 7.72 300 12:39 12.06.2021
3281 Clouds 18 1016 69 10000 8.23 310 12:20 12.06.2021
3282 Clouds 19 1016 75 10000 8.75 310 11:21 12.06.2021
3283 Clouds 18 1015 82 10000 6.17 290 10:30 12.06.2021
3284 Clouds 18 1015 85 10000 5.14 270 09:51 12.06.2021
3285 Clouds 18 1015 86 10000 5.14 270 09:33 12.06.2021
3286 Clouds 18 1016 90 9000 3.6 270 08:23 12.06.2021
3287 Clouds 17 1015 96 9000 2.57 250 06:20 12.06.2021
3288 Clouds 16 1017 96 10000 2.8 229 01:46 12.06.2021
3289 Clear 17 1017 92 10000 1.54 30 23:21 11.06.2021
3290 Clouds 18 1017 91 10000 5.14 350 22:22 11.06.2021
3291 Clouds 19 1017 88 10000 6.17 360 21:48 11.06.2021
3292 Clouds 20 1016 83 10000 3.09 290 21:28 11.06.2021
3293 Clouds 22 1016 72 10000 4.12 350 20:37 11.06.2021
3294 Clouds 23 1016 65 10000 4.63 310 19:52 11.06.2021
3295 Clouds 23 1016 64 10000 4.63 270 18:48 11.06.2021
3296 Clouds 24 1016 59 10000 2.57 290 18:18 11.06.2021
3297 Clouds 24 1017 56 10000 2.57 280 16:47 11.06.2021
3298 Clouds 25 1017 53 10000 4.63 280 15:57 11.06.2021
3299 Clouds 25 1017 55 10000 4.12 260 15:23 11.06.2021
3300 Clouds 25 1018 52 10000 3.6 280 14:32 11.06.2021
3301 Clouds 24 1018 53 10000 3.6 240 13:24 11.06.2021
3302 Clouds 24 1018 53 10000 3.09 280 12:27 11.06.2021
3303 Clear 23 1018 53 10000 2.57 310 11:32 11.06.2021
3304 Clear 23 1018 58 10000 2.57 330 10:34 11.06.2021
3305 Clear 21 1018 59 10000 0.51 0 09:30 11.06.2021
3306 Clear 18 1018 79 10000 0 0 08:32 11.06.2021
3307 Clear 16 1018 84 10000 0 0 07:35 11.06.2021
3308 Clear 14 1019 86 10000 1.03 230 02:54 11.06.2021
3309 Clear 19 1019 63 10000 2.57 20 23:31 10.06.2021
3310 Clear 21 1019 52 10000 3.6 20 22:42 10.06.2021
3311 Clear 22 1018 49 10000 2.57 350 21:52 10.06.2021
3312 Clear 23 1018 40 10000 2.57 310 21:19 10.06.2021
3313 Clear 24 1018 35 10000 3.6 310 20:44 10.06.2021
3314 Clear 25 1018 33 10000 3.6 320 19:31 10.06.2021
3315 Clear 24 1019 43 10000 3.09 300 18:54 10.06.2021
3316 Clear 25 1019 38 10000 3.09 320 18:28 10.06.2021
3317 Clear 25 1019 35 10000 3.09 310 17:34 10.06.2021
3318 Clear 25 1019 34 10000 4.12 290 16:47 10.06.2021
3319 Clear 25 1019 35 10000 4.12 0 15:58 10.06.2021
3320 Clear 25 1020 40 10000 3.6 280 15:19 10.06.2021
3321 Clouds 24 1020 56 10000 3.6 250 12:54 10.06.2021
3322 Clouds 24 1020 54 10000 2.06 270 12:24 10.06.2021
3323 Clouds 22 1020 60 10000 2.57 290 11:24 10.06.2021
3324 Clear 21 1020 70 10000 1.03 0 09:43 10.06.2021
3325 Clear 14 1020 90 10000 0.51 320 05:53 10.06.2021
3326 Clear 16 1021 78 10000 1.03 0 00:25 10.06.2021
3327 Clear 19 1020 63 10000 2.06 40 23:36 09.06.2021
3328 Clear 21 1020 60 10000 3.6 20 22:27 09.06.2021
3329 Clear 22 1020 53 10000 3.6 30 21:43 09.06.2021
3330 Clear 22 1020 56 10000 4.12 20 21:21 09.06.2021
3331 Clear 23 1019 53 10000 4.12 20 20:34 09.06.2021
3332 Clear 24 1019 50 10000 3.6 30 19:48 09.06.2021
3333 Clear 25 1019 51 10000 4.12 30 18:42 09.06.2021
3334 Clear 25 1020 48 10000 2.06 10 15:57 09.06.2021
3335 Clear 25 1020 47 10000 1.03 0 15:32 09.06.2021
3336 Clear 25 1021 44 10000 3.09 170 14:29 09.06.2021
3337 Clear 25 1021 44 10000 3.09 130 13:33 09.06.2021
3338 Clouds 24 1021 44 10000 1.03 0 12:49 09.06.2021
3339 Clouds 24 1021 46 10000 1.03 0 12:31 09.06.2021
3340 Clouds 22 1021 54 10000 1.54 130 10:49 09.06.2021
3341 Clouds 19 1021 65 10000 2.06 130 08:55 09.06.2021
3342 Clouds 18 1021 75 10000 0.51 0 08:31 09.06.2021
3343 Clouds 14 1021 95 10000 0.51 120 06:38 09.06.2021
3344 Clear 17 1022 73 10000 2.57 360 00:19 09.06.2021
3345 Clear 18 1022 74 10000 3.09 360 22:54 08.06.2021
3346 Clear 18 1022 73 10000 3.09 360 22:29 08.06.2021
3347 Clouds 20 1021 68 10000 3.6 300 20:54 08.06.2021
3348 Clouds 22 1021 57 10000 4.12 350 19:27 08.06.2021
3349 Clouds 22 1022 61 10000 4.12 310 17:51 08.06.2021
3350 Clouds 23 1022 61 10000 1.54 0 16:39 08.06.2021
3351 Clouds 23 1022 61 10000 2.57 0 15:27 08.06.2021
3352 Clouds 22 1023 64 10000 2.57 50 13:32 08.06.2021
3353 Clear 19 1024 75 10000 2.06 360 10:59 08.06.2021
3354 Clouds 14 1023 92 10000 2.57 340 07:33 08.06.2021
3355 Clouds 13 1023 95 10000 2.57 290 04:25 08.06.2021
3356 Clouds 14 1023 88 10000 3.6 330 23:51 07.06.2021
3357 Clouds 17 1022 72 10000 3.6 330 20:40 07.06.2021
3358 Clouds 18 1022 77 10000 3.09 290 18:46 07.06.2021
3359 Clouds 18 1023 79 10000 4.12 310 15:53 07.06.2021
3360 Clouds 18 1023 78 10000 3.09 320 13:48 07.06.2021
3361 Clouds 16 1023 86 10000 4.12 290 11:38 07.06.2021
3362 Clouds 15 1023 91 10000 3.6 300 10:23 07.06.2021
3363 Clouds 15 1023 91 9000 3.6 290 09:52 07.06.2021
3364 Drizzle 14 1023 92 5000 3.09 290 08:59 07.06.2021
3365 Drizzle 13 1022 95 4200 3.09 280 07:23 07.06.2021
3366 Clouds 15 1022 85 10000 3.6 310 21:50 06.06.2021
3367 Clouds 17 1022 81 10000 4.63 300 20:40 06.06.2021
3368 Clouds 18 1022 80 10000 4.12 300 18:21 06.06.2021
3369 Clouds 18 1022 82 10000 3.6 280 17:19 06.06.2021
3370 Clouds 17 1022 88 10000 4.12 280 14:31 06.06.2021
3371 Clouds 16 1021 92 9000 4.12 270 12:28 06.06.2021
3372 Clouds 16 1021 95 8000 4.12 270 11:50 06.06.2021
3373 Clouds 16 1021 96 9000 4.12 280 10:24 06.06.2021
3374 Mist 15 1021 98 4000 3.6 270 09:29 06.06.2021
3375 Mist 15 1021 98 4000 3.6 270 08:57 06.06.2021
3376 Drizzle 15 1021 96 1700 2.06 290 07:53 06.06.2021
3377 Mist 16 1020 96 4500 3.6 290 04:24 06.06.2021
3378 Clouds 17 1019 95 6000 3.09 290 23:19 05.06.2021
3379 Clouds 18 1019 94 8000 3.09 290 22:21 05.06.2021
3380 Clouds 19 1019 96 10000 1.54 290 20:41 05.06.2021
3381 Clouds 20 1018 89 10000 1.54 200 19:37 05.06.2021
3382 Rain 20 1018 88 10000 1.03 0 17:19 05.06.2021
3383 Clouds 21 1018 85 10000 2.06 130 15:57 05.06.2021
3384 Clouds 21 1019 85 10000 2.06 90 13:41 05.06.2021
3385 Rain 18 1019 95 7000 2.57 60 11:44 05.06.2021
3386 Rain 17 1019 94 6000 1.54 320 10:35 05.06.2021
3387 Rain 18 1018 92 10000 2.06 130 09:22 05.06.2021
3388 Rain 17 1018 90 8000 1.03 0 07:20 05.06.2021
3389 Clouds 22 1019 78 10000 3.09 50 23:30 04.06.2021
3390 Clouds 23 1019 73 10000 3.09 360 22:21 04.06.2021
3391 Clouds 23 1019 76 10000 3.09 20 21:25 04.06.2021
3392 Clouds 25 1019 61 10000 2.57 40 19:47 04.06.2021
3393 Clouds 25 1019 59 10000 1.54 60 18:27 04.06.2021
3394 Clouds 26 1019 60 10000 2.57 260 16:57 04.06.2021
3395 Clouds 25 1020 64 10000 2.57 290 15:35 04.06.2021
3396 Clouds 22 1021 79 10000 1.54 240 11:53 04.06.2021
3397 Clouds 20 1021 84 10000 1.54 220 10:47 04.06.2021
3398 Clear 16 1020 96 10000 2.06 150 07:48 04.06.2021
3399 Fog 14 1020 95 500 0.51 100 05:53 04.06.2021
3400 Clear 16 1020 95 10000 1.54 100 23:49 03.06.2021
3401 Rain 17 1020 92 10000 1.03 0 21:22 03.06.2021
3402 Rain 17 1020 91 10000 2.06 120 20:27 03.06.2021
3403 Rain 17 1021 91 10000 2.06 0 19:48 03.06.2021
3404 Rain 19 1020 79 10000 9.26 170 17:58 03.06.2021
3405 Clouds 23 1019 60 10000 4.12 90 15:38 03.06.2021
3406 Clear 24 1019 57 10000 4.12 110 14:43 03.06.2021
3407 Clouds 22 1019 64 10000 3.6 120 12:48 03.06.2021
3408 Clouds 20 1019 70 10000 3.09 140 09:53 03.06.2021
3409 Clouds 20 1019 69 10000 3.09 140 09:25 03.06.2021
3410 Clear 17 1018 74 10000 4.63 140 07:53 03.06.2021
3411 Clear 20 1017 56 10000 3.6 110 00:21 03.06.2021
3412 Clear 22 1016 53 10000 3.09 100 22:30 02.06.2021
3413 Clear 23 1016 53 10000 3.09 100 21:27 02.06.2021
3414 Clear 24 1016 50 10000 3.09 110 20:40 02.06.2021
3415 Clear 24 1016 50 10000 2.57 100 19:44 02.06.2021
3416 Clouds 24 1016 47 10000 2.57 120 16:54 02.06.2021
3417 Clouds 24 1016 48 10000 3.09 130 16:31 02.06.2021
3418 Clouds 22 1016 50 10000 3.6 130 13:51 02.06.2021
3419 Clouds 20 1017 53 10000 4.63 120 12:23 02.06.2021
3420 Clear 18 1017 59 10000 4.63 90 10:42 02.06.2021
3421 Clear 16 1017 62 10000 5.66 80 09:59 02.06.2021
3422 Clear 16 1017 63 10000 5.66 80 09:40 02.06.2021
3423 Clear 15 1017 67 10000 5.66 80 08:44 02.06.2021
3424 Clear 12 1017 75 10000 4.63 70 07:21 02.06.2021
3425 Clear 11 1017 76 10000 3.09 60 03:52 02.06.2021
3426 Clear 16 1017 48 10000 2.57 80 00:34 02.06.2021
3427 Clear 20 1016 60 10000 5.66 20 21:43 01.06.2021
3428 Clear 21 1016 56 10000 5.14 20 20:49 01.06.2021
3429 Clear 22 1017 46 10000 5.66 40 19:44 01.06.2021
3430 Clear 24 1017 42 10000 3.09 70 17:25 01.06.2021
3431 Clear 24 1018 39 10000 2.57 90 15:35 01.06.2021
3432 Clear 23 1019 42 10000 1.03 0 13:20 01.06.2021
3433 Clear 22 1020 44 10000 2.06 240 12:33 01.06.2021
3434 Clear 22 1020 50 10000 1.54 210 11:36 01.06.2021
3435 Clear 21 1020 52 10000 1.03 0 11:18 01.06.2021
3436 Clouds 20 1021 63 10000 1.55 86 10:19 01.06.2021
3437 Clear 18 1021 65 10000 1.54 0 09:19 01.06.2021
3438 Clear 13 1021 84 10000 1.54 80 07:46 01.06.2021
3439 Clear 13 1021 80 10000 1.54 10 01:28 01.06.2021
3440 Clear 15 1021 67 10000 2.57 40 23:41 31.05.2021
3441 Clear 16 1021 55 10000 2.06 70 23:20 31.05.2021
3442 Clear 17 1021 55 10000 2.57 60 22:25 31.05.2021
3443 Clear 20 1021 45 10000 3.6 60 21:21 31.05.2021
3444 Clear 21 1021 43 10000 4.12 70 20:23 31.05.2021
3445 Clear 22 1021 38 10000 5.66 60 19:23 31.05.2021
3446 Clear 23 1022 35 10000 4.12 70 17:56 31.05.2021
3447 Clear 23 1022 37 10000 3.6 80 16:52 31.05.2021
3448 Clear 22 1023 37 10000 5.14 80 15:58 31.05.2021
3449 Clear 21 1024 43 10000 2.57 0 13:53 31.05.2021
3450 Clear 21 1024 46 10000 4.12 90 13:22 31.05.2021
3451 Clear 20 1024 45 10000 4.63 90 12:35 31.05.2021
3452 Clear 19 1024 47 10000 4.12 80 11:48 31.05.2021
3453 Clear 18 1025 46 10000 3.6 80 10:41 31.05.2021
3454 Clear 16 1025 67 10000 2.06 110 09:40 31.05.2021
3455 Clear 13 1025 80 10000 2.57 130 08:25 31.05.2021
3456 Clear 11 1025 91 8000 1.54 70 07:43 31.05.2021
3457 Clear 10 1025 94 6000 0.51 0 07:19 31.05.2021
3458 Clear 11 1026 92 10000 3.09 360 00:51 31.05.2021
3459 Clear 11 1026 91 10000 2.57 330 23:23 30.05.2021
3460 Clear 12 1026 89 10000 3.09 300 22:35 30.05.2021
3461 Clear 13 1026 85 10000 3.6 300 21:48 30.05.2021
3462 Clear 13 1026 84 10000 3.6 300 21:30 30.05.2021
3463 Clear 15 1026 73 10000 2.57 350 20:56 30.05.2021
3464 Clear 15 1026 71 10000 2.57 350 20:36 30.05.2021
3465 Clear 17 1026 68 10000 3.6 330 19:51 30.05.2021
3466 Clouds 19 1026 54 10000 4.63 310 18:57 30.05.2021
3467 Clouds 20 1026 54 10000 4.63 330 18:19 30.05.2021
3468 Clouds 19 1027 61 10000 3.6 350 17:18 30.05.2021
3469 Clouds 20 1027 58 10000 4.12 330 16:34 30.05.2021
3470 Clear 20 1027 60 10000 3.09 0 15:52 30.05.2021
3471 Clear 19 1028 60 10000 3.6 290 14:59 30.05.2021
3472 Clear 17 1028 64 10000 3.09 290 13:41 30.05.2021
3473 Clouds 15 1029 74 10000 3.6 290 12:22 30.05.2021
3474 Clouds 15 1029 74 10000 3.6 290 12:22 30.05.2021
3475 Clouds 13 1029 80 10000 3.6 300 11:19 30.05.2021
3476 Clouds 12 1029 82 10000 3.09 310 10:39 30.05.2021
3477 Clouds 12 1029 82 10000 3.09 310 10:39 30.05.2021
3478 Clouds 11 1029 82 10000 3.09 310 10:18 30.05.2021
3479 Clouds 11 1029 82 10000 2.57 290 09:43 30.05.2021
3480 Clouds 11 1029 82 10000 2.06 300 09:24 30.05.2021
3481 Clouds 7 1029 100 10000 1.54 280 07:54 30.05.2021
3482 Clear 3 1029 100 500 1.03 260 05:43 30.05.2021
3483 Clear 8 1028 88 10000 2.06 360 00:55 30.05.2021
3484 Clear 8 1028 87 10000 3.6 360 23:49 29.05.2021
3485 Clear 10 1028 80 10000 3.09 360 22:25 29.05.2021
3486 Clear 11 1027 74 10000 3.09 360 21:54 29.05.2021
3487 Clear 11 1027 76 10000 2.57 40 21:21 29.05.2021
3488 Clouds 12 1027 72 10000 2.06 360 20:48 29.05.2021
3489 Clouds 13 1027 69 10000 2.06 360 20:29 29.05.2021
3490 Clouds 14 1027 64 10000 3.09 20 19:45 29.05.2021
3491 Clouds 14 1027 65 10000 3.6 350 18:39 29.05.2021
3492 Clouds 15 1027 64 10000 4.12 340 17:27 29.05.2021
3493 Clouds 14 1027 66 10000 3.6 300 16:23 29.05.2021
3494 Clouds 14 1027 69 10000 3.6 290 14:59 29.05.2021
3495 Clouds 12 1027 71 10000 3.09 310 13:53 29.05.2021
3496 Clouds 13 1027 74 10000 3.09 320 13:21 29.05.2021
3497 Clouds 13 1026 80 10000 3.08 350 12:43 29.05.2021
3498 Clouds 12 1027 77 10000 3.09 350 12:25 29.05.2021
3499 Clouds 11 1026 79 10000 4.12 360 11:25 29.05.2021
3500 Clouds 11 1026 81 10000 3.09 350 10:51 29.05.2021
3501 Clouds 10 1026 81 10000 3.6 360 10:26 29.05.2021
3502 Clouds 10 1026 82 10000 3.09 330 09:42 29.05.2021
3503 Clouds 10 1026 82 10000 3.6 350 09:18 29.05.2021
3504 Clouds 9 1025 85 10000 3.6 360 07:58 29.05.2021
3505 Clouds 9 1025 84 10000 4.12 330 06:50 29.05.2021
3506 Clouds 10 1024 85 10000 4.12 340 00:54 29.05.2021
3507 Clouds 10 1024 84 10000 5.14 340 23:50 28.05.2021
3508 Clouds 11 1024 84 10000 4.12 350 22:24 28.05.2021
3509 Clouds 11 1024 84 10000 5.14 360 21:36 28.05.2021
3510 Clouds 12 1023 81 10000 4.63 360 20:48 28.05.2021
3511 Clouds 14 1023 72 10000 4.63 340 19:59 28.05.2021
3512 Clouds 14 1023 71 10000 4.63 340 19:38 28.05.2021
3513 Clouds 15 1023 67 10000 6.69 330 18:50 28.05.2021
3514 Clouds 15 1023 70 10000 6.69 340 18:28 28.05.2021
3515 Clouds 15 1023 67 10000 6.17 330 17:37 28.05.2021
3516 Clouds 16 1023 67 10000 6.69 340 16:49 28.05.2021
3517 Clouds 16 1023 66 10000 8.23 360 16:20 28.05.2021
3518 Clouds 16 1023 60 10000 6.69 350 15:35 28.05.2021
3519 Clouds 16 1023 62 10000 6.17 320 14:38 28.05.2021
3520 Clouds 16 1023 65 10000 5.66 320 13:47 28.05.2021
3521 Clouds 16 1024 67 10000 5.66 320 13:22 28.05.2021
3522 Clouds 15 1024 71 10000 4.63 300 12:39 28.05.2021
3523 Clouds 14 1024 74 10000 4.12 300 11:45 28.05.2021
3524 Clouds 12 1024 83 10000 4.12 310 10:59 28.05.2021
3525 Clouds 11 1024 85 10000 4.12 310 10:33 28.05.2021
3526 Clouds 10 1024 90 10000 4.12 290 09:36 28.05.2021
3527 Clouds 10 1024 90 10000 4.12 290 09:18 28.05.2021
3528 Clouds 9 1023 90 10000 4.12 290 08:44 28.05.2021
3529 Clouds 9 1023 91 10000 4.63 290 07:52 28.05.2021
3530 Clouds 9 1023 91 10000 4.63 290 07:52 28.05.2021
3531 Clouds 9 1022 91 10000 4.63 280 07:33 28.05.2021
3532 Clouds 8 1022 95 8000 3.6 280 06:45 28.05.2021
3533 Clouds 7 1022 98 10000 2.06 290 04:57 28.05.2021
3534 Clouds 10 1019 89 10000 3.6 300 23:59 27.05.2021
3535 Clouds 10 1019 89 10000 3.6 300 23:38 27.05.2021
3536 Clouds 11 1018 84 10000 4.63 300 22:23 27.05.2021
3537 Clouds 11 1019 89 10000 4.51 308 21:51 27.05.2021
3538 Clouds 12 1018 81 10000 6.69 310 21:32 27.05.2021
3539 Clouds 12 1017 78 10000 5.66 310 20:52 27.05.2021
3540 Clouds 13 1017 77 10000 6.69 310 20:29 27.05.2021
3541 Clouds 13 1017 79 10000 5.63 313 19:32 27.05.2021
3542 Clouds 14 1016 72 10000 6.17 320 18:50 27.05.2021
3543 Clouds 14 1015 75 10000 6.38 319 18:29 27.05.2021
3544 Clouds 14 1015 72 10000 7.2 310 17:35 27.05.2021
3545 Clouds 14 1014 67 10000 6.69 320 16:59 27.05.2021
3546 Clouds 14 1014 72 10000 6.69 320 16:35 27.05.2021
3547 Clouds 14 1014 75 10000 6.69 320 15:52 27.05.2021
3548 Clouds 13 1013 76 10000 7.72 310 15:20 27.05.2021
3549 Clouds 13 1013 75 10000 8.23 310 14:46 27.05.2021
3550 Clouds 13 1013 78 10000 7.72 320 14:24 27.05.2021
3551 Clouds 13 1012 78 10000 7.72 290 13:51 27.05.2021
3552 Clouds 12 1012 80 10000 6.69 290 13:19 27.05.2021
3553 Clouds 12 1012 82 10000 7.2 290 12:56 27.05.2021
3554 Clouds 12 1012 82 10000 7.2 290 12:37 27.05.2021
3555 Clouds 12 1012 83 10000 5.14 300 12:19 27.05.2021
3556 Clouds 11 1011 84 10000 5.66 290 11:23 27.05.2021
3557 Clouds 11 1010 82 10000 6.69 280 10:51 27.05.2021
3558 Clouds 11 1010 81 10000 6.17 300 10:20 27.05.2021
3559 Clouds 11 1010 83 10000 6.17 260 09:50 27.05.2021
3560 Clouds 10 1009 87 10000 6.69 270 08:42 27.05.2021
3561 Clouds 10 1009 91 10000 5.66 260 07:54 27.05.2021
3562 Clouds 9 1008 89 10000 6.69 260 05:38 27.05.2021
3563 Clouds 9 1008 95 10000 4.63 250 01:27 27.05.2021
3564 Clouds 9 1008 95 10000 4.63 250 01:27 27.05.2021
3565 Clouds 9 1007 95 10000 6.17 250 23:47 26.05.2021
3566 Clouds 10 1007 92 10000 5.66 240 23:27 26.05.2021
3567 Rain 10 1007 92 10000 5.66 240 22:46 26.05.2021
3568 Rain 10 1007 92 10000 5.66 230 22:23 26.05.2021
3569 Rain 10 1007 91 10000 7.2 240 21:41 26.05.2021
3570 Rain 10 1007 86 10000 8.23 240 21:23 26.05.2021
3571 Rain 11 1007 84 10000 7.2 240 20:45 26.05.2021
3572 Rain 11 1007 82 10000 7.72 250 20:26 26.05.2021
3573 Rain 12 1007 74 10000 7.2 270 19:59 26.05.2021
3574 Rain 13 1007 62 10000 7.2 270 19:41 26.05.2021
3575 Clouds 14 1007 63 10000 7.2 260 18:57 26.05.2021
3576 Clouds 14 1006 66 10000 7.72 250 18:21 26.05.2021
3577 Clouds 14 1006 66 10000 7.72 250 18:21 26.05.2021
3578 Clouds 14 1007 67 10000 7.2 240 17:33 26.05.2021
3579 Clouds 13 1007 76 10000 6.69 240 16:49 26.05.2021
3580 Clouds 12 1007 80 5000 8.23 230 16:21 26.05.2021
3581 Rain 13 1007 73 10000 8.23 240 15:51 26.05.2021
3582 Clouds 12 1007 76 10000 6.69 240 15:26 26.05.2021
3583 Clouds 11 1007 87 10000 6.17 240 14:49 26.05.2021
3584 Rain 12 1007 82 10000 5.14 240 14:23 26.05.2021
3585 Rain 12 1007 76 10000 5.14 240 14:23 26.05.2021
3586 Clouds 11 1007 84 10000 6.69 280 13:58 26.05.2021
3587 Clouds 11 1007 84 10000 6.69 280 13:38 26.05.2021
3588 Clouds 11 1007 78 10000 8.23 230 12:33 26.05.2021
3589 Clouds 12 1008 75 10000 7.2 230 11:55 26.05.2021
3590 Clouds 11 1008 76 10000 7.2 240 11:30 26.05.2021
3591 Clouds 11 1008 83 10000 5.66 230 10:57 26.05.2021
3592 Clouds 11 1008 84 10000 5.66 230 10:36 26.05.2021
3593 Clouds 10 1008 91 10000 5.66 220 09:57 26.05.2021
3594 Clouds 10 1008 90 10000 5.66 220 09:38 26.05.2021
3595 Clouds 10 1008 91 10000 6.17 220 08:57 26.05.2021
3596 Clouds 9 1009 94 10000 4.63 220 07:57 26.05.2021
3597 Clouds 9 1009 94 10000 4.12 220 07:33 26.05.2021
3598 Clouds 9 1009 94 10000 4.12 220 05:48 26.05.2021
3599 Clouds 9 1010 93 10000 3.6 220 01:40 26.05.2021
3600 Clouds 9 1011 93 10000 3.09 200 23:48 25.05.2021
3601 Rain 9 1011 93 10000 5.14 220 22:54 25.05.2021
3602 Rain 9 1011 92 8000 5.66 220 22:21 25.05.2021
3603 Rain 9 1011 89 10000 4.12 220 21:43 25.05.2021
3604 Clouds 9 1011 88 10000 2.57 230 21:24 25.05.2021
3605 Clouds 9 1011 88 10000 4.12 230 20:37 25.05.2021
3606 Rain 10 1010 89 10000 2.97 205 19:54 25.05.2021
3607 Clouds 10 1010 89 10000 2.97 205 19:34 25.05.2021
3608 Rain 11 1010 79 10000 5.14 260 18:56 25.05.2021
3609 Clouds 11 1010 79 10000 5.14 260 18:37 25.05.2021
3610 Clouds 11 1010 76 10000 5.66 260 18:18 25.05.2021
3611 Rain 11 1010 71 10000 7.72 260 16:52 25.05.2021
3612 Rain 11 1010 78 10000 7.72 260 16:32 25.05.2021
3613 Rain 13 1009 67 10000 8.75 270 15:58 25.05.2021
3614 Clouds 12 1009 67 10000 7.72 240 15:30 25.05.2021
3615 Clouds 10 1009 81 10000 8.23 260 14:57 25.05.2021
3616 Clouds 10 1009 81 10000 8.23 260 14:39 25.05.2021
3617 Clouds 12 1009 67 10000 5.14 250 13:54 25.05.2021
3618 Clouds 12 1009 67 10000 5.14 250 13:35 25.05.2021
3619 Clouds 12 1009 62 10000 7.2 230 12:49 25.05.2021
3620 Clouds 13 1009 62 10000 6.17 220 12:29 25.05.2021
3621 Clouds 11 1009 66 10000 6.17 230 11:44 25.05.2021
3622 Clouds 11 1009 71 10000 5.66 230 11:26 25.05.2021
3623 Clouds 11 1009 83 10000 5.66 240 10:45 25.05.2021
3624 Clouds 10 1009 83 10000 5.66 230 10:20 25.05.2021
3625 Clouds 10 1008 90 10000 4.12 230 09:32 25.05.2021
3626 Clouds 9 1008 90 10000 5.66 230 08:20 25.05.2021
3627 Clouds 9 1008 93 10000 3.6 220 06:52 25.05.2021
3628 Rain 10 1007 87 10000 5.66 230 04:22 25.05.2021
3629 Clear 10 1007 93 10000 2.06 140 02:30 25.05.2021
3630 Clouds 11 1008 87 10000 2.06 110 23:55 24.05.2021
3631 Clouds 11 1008 87 10000 1.54 90 23:28 24.05.2021
3632 Rain 12 1008 87 10000 2.06 130 22:42 24.05.2021
3633 Rain 12 1008 87 10000 2.06 200 22:21 24.05.2021
3634 Rain 12 1008 87 10000 1.54 100 21:24 24.05.2021
3635 Rain 12 1008 87 10000 2.06 130 20:59 24.05.2021
3636 Rain 12 1008 87 10000 2.06 130 20:32 24.05.2021
3637 Rain 13 1008 82 10000 4.12 200 19:52 24.05.2021
3638 Rain 13 1008 82 10000 3.09 210 19:31 24.05.2021
3639 Rain 13 1008 82 10000 3.09 210 19:31 24.05.2021
3640 Rain 14 1008 77 10000 4.63 210 18:59 24.05.2021
3641 Rain 14 1008 77 10000 4.63 210 18:35 24.05.2021
3642 Rain 15 1008 72 10000 3.09 260 17:58 24.05.2021
3643 Rain 16 1007 63 10000 4.63 260 17:26 24.05.2021
3644 Rain 17 1007 51 10000 4.12 170 16:48 24.05.2021
3645 Clear 19 1007 39 10000 8.23 170 15:59 24.05.2021
3646 Clear 19 1007 39 10000 8.23 170 15:40 24.05.2021
3647 Clear 19 1007 39 10000 8.75 160 14:54 24.05.2021
3648 Clear 19 1007 39 10000 8.75 160 14:33 24.05.2021
3649 Clear 19 1008 42 10000 7.72 150 13:46 24.05.2021
3650 Clear 20 1008 40 10000 7.72 170 13:25 24.05.2021
3651 Clear 20 1008 42 10000 9.26 170 12:41 24.05.2021
3652 Clear 18 1009 48 10000 8.23 170 12:21 24.05.2021
3653 Clear 17 1009 55 10000 7.72 170 11:28 24.05.2021
3654 Clear 17 1010 55 10000 6.69 170 10:58 24.05.2021
3655 Clear 17 1010 55 10000 6.69 170 10:34 24.05.2021
3656 Clear 15 1010 58 10000 6.69 160 09:45 24.05.2021
3657 Clear 14 1010 67 10000 6.17 150 09:22 24.05.2021
3658 Clear 12 1011 71 10000 6.17 140 08:40 24.05.2021
3659 Clear 11 1011 76 10000 4.63 140 07:55 24.05.2021
3660 Clear 9 1012 76 10000 3.09 130 05:51 24.05.2021
3661 Rain 8 1012 81 10000 3.6 130 03:59 24.05.2021
3662 Clear 8 1014 81 10000 3.09 130 01:36 24.05.2021
3663 Clear 9 1014 87 10000 2.57 140 00:21 24.05.2021
3664 Clear 9 1014 87 10000 3.09 140 23:30 23.05.2021
3665 Clear 9 1014 87 10000 2.57 150 22:43 23.05.2021
3666 Clear 10 1014 81 10000 2.57 140 22:23 23.05.2021
3667 Clouds 11 1014 76 10000 2.57 160 21:37 23.05.2021
3668 Clouds 11 1013 76 10000 2.06 180 21:19 23.05.2021
3669 Clouds 13 1013 67 10000 2.06 240 20:42 23.05.2021
3670 Clouds 13 1013 67 10000 2.06 240 20:21 23.05.2021
3671 Clouds 13 1013 71 10000 2.57 250 19:42 23.05.2021
3672 Clouds 13 1013 67 10000 4.63 260 19:21 23.05.2021
3673 Clouds 12 1013 76 10000 2.57 260 18:29 23.05.2021
3674 Clouds 12 1013 82 10000 3.6 250 17:45 23.05.2021
3675 Clouds 11 1013 82 10000 5.14 260 17:27 23.05.2021
3676 Clouds 13 1013 67 10000 6.69 230 16:48 23.05.2021
3677 Rain 13 1013 76 10000 5.14 220 16:25 23.05.2021
3678 Clouds 12 1013 82 10000 5.66 220 15:58 23.05.2021
3679 Clouds 13 1012 76 10000 7.72 210 15:32 23.05.2021
3680 Clouds 14 1012 67 10000 6.17 220 14:52 23.05.2021
3681 Clouds 13 1012 67 10000 6.17 220 14:33 23.05.2021
3682 Clouds 13 1012 67 10000 5.66 210 13:42 23.05.2021
3683 Clouds 13 1012 62 10000 5.14 240 12:48 23.05.2021
3684 Clouds 13 1011 62 10000 4.12 230 12:24 23.05.2021
3685 Clouds 13 1011 58 10000 4.63 240 11:38 23.05.2021
3686 Clouds 12 1011 58 10000 4.12 280 11:18 23.05.2021
3687 Clouds 12 1010 62 10000 3.6 270 10:31 23.05.2021
3688 Clouds 11 1010 66 10000 4.63 270 09:55 23.05.2021
3689 Clouds 10 1010 71 10000 4.63 250 09:19 23.05.2021
3690 Clouds 9 1009 81 10000 4.63 240 08:19 23.05.2021
3691 Clear 8 1009 87 10000 3.09 260 07:43 23.05.2021
3692 Clear 7 1009 93 10000 2.06 240 07:23 23.05.2021
3693 Clouds 7 1007 87 10000 3.6 240 02:45 23.05.2021
3694 Clouds 10 1006 66 10000 8.75 260 00:40 23.05.2021
3695 Clouds 10 1006 71 10000 6.69 260 23:41 22.05.2021
3696 Clouds 10 1006 71 10000 7.2 260 23:19 22.05.2021
3697 Clouds 10 1005 76 10000 7.72 250 22:41 22.05.2021
3698 Clouds 11 1005 71 10000 5.66 260 22:22 22.05.2021
3699 Clouds 11 1005 71 10000 8.75 250 21:42 22.05.2021
3700 Clouds 11 1004 71 10000 7.72 250 20:59 22.05.2021
3701 Clouds 11 1004 71 10000 7.72 250 20:39 22.05.2021
3702 Clouds 12 1003 71 10000 7.72 260 19:48 22.05.2021
3703 Clouds 12 1002 76 10000 9.26 260 19:28 22.05.2021
3704 Clouds 12 1002 87 10000 6.69 240 18:52 22.05.2021
3705 Clouds 13 1001 76 10000 7.2 230 18:26 22.05.2021
3706 Clouds 13 1001 82 10000 7.72 230 17:54 22.05.2021
3707 Clouds 13 1001 82 10000 8.75 220 17:28 22.05.2021
3708 Clouds 12 1000 82 10000 8.75 230 16:45 22.05.2021
3709 Clouds 12 1000 87 10000 7.72 220 15:48 22.05.2021
3710 Rain 11 1000 87 10000 8.23 220 15:27 22.05.2021
3711 Clouds 11 1000 82 10000 8.75 220 14:32 22.05.2021
3712 Clouds 11 999 76 10000 9.26 210 13:53 22.05.2021
3713 Clouds 11 999 76 10000 9.26 210 13:32 22.05.2021
3714 Clouds 11 999 82 10000 9.77 210 12:51 22.05.2021
3715 Clouds 11 999 82 10000 7.72 200 12:22 22.05.2021
3716 Clouds 10 998 87 10000 7.2 200 11:43 22.05.2021
3717 Rain 10 998 81 10000 6.69 190 10:43 22.05.2021
3718 Rain 10 998 81 10000 6.69 190 10:24 22.05.2021
3719 Rain 11 998 71 10000 8.75 200 08:59 22.05.2021
3720 Clouds 11 998 71 10000 7.72 190 08:33 22.05.2021
3721 Clouds 10 998 76 10000 7.72 190 07:46 22.05.2021
3722 Clear 9 998 76 10000 6.17 180 05:59 22.05.2021
3723 Clear 9 999 76 10000 4.12 190 02:43 22.05.2021
3724 Clear 8 1000 87 10000 3.6 170 23:48 21.05.2021
3725 Clouds 10 1000 81 10000 6.69 200 22:57 21.05.2021
3726 Rain 10 1000 76 10000 2.57 170 22:28 21.05.2021
3727 Clouds 11 1000 62 10000 5.66 230 21:50 21.05.2021
3728 Clouds 11 1001 76 10000 3.6 210 21:26 21.05.2021
3729 Clouds 11 1001 82 10000 3.09 200 20:51 21.05.2021
3730 Clouds 11 1001 87 10000 2.57 170 20:29 21.05.2021
3731 Clouds 11 1002 87 10000 6.69 250 19:54 21.05.2021
3732 Clouds 11 1001 76 10000 3.6 210 19:29 21.05.2021
3733 Clouds 11 1002 76 10000 8.75 260 18:48 21.05.2021
3734 Rain 12 1002 76 10000 4.12 240 18:28 21.05.2021
3735 Clouds 13 1002 67 10000 4.12 200 17:47 21.05.2021
3736 Clouds 12 1003 71 10000 15.43 270 17:29 21.05.2021
3737 Rain 14 1002 62 10000 6.69 230 16:40 21.05.2021
3738 Clouds 14 1002 72 10000 6.69 220 16:21 21.05.2021
3739 Clouds 14 1002 72 10000 6.69 220 16:21 21.05.2021
3740 Clouds 14 1002 76 10000 4.63 200 15:44 21.05.2021
3741 Clouds 16 1002 73 10000 8.22 235 15:26 21.05.2021
3742 Rain 15 1002 58 10000 9.26 230 14:42 21.05.2021
3743 Clouds 14 1002 58 10000 10.29 230 14:24 21.05.2021
3744 Clouds 13 1002 76 10000 6.17 200 13:26 21.05.2021
3745 Rain 14 1002 67 10000 6.17 200 12:25 21.05.2021
3746 Clouds 14 1002 67 10000 8.75 230 11:44 21.05.2021
3747 Clouds 14 1002 71 10000 6.17 220 11:25 21.05.2021
3748 Clear 13 1003 74 10000 7.9 227 10:51 21.05.2021
3749 Clouds 12 1003 82 10000 3.6 210 10:22 21.05.2021
3750 Rain 11 1003 76 10000 4.12 230 09:33 21.05.2021
3751 Rain 12 1003 67 10000 6.17 230 08:47 21.05.2021
3752 Clouds 13 1003 62 10000 4.12 210 08:19 21.05.2021
3753 Clear 12 1004 71 10000 4.12 200 07:27 21.05.2021
3754 Clear 10 1004 76 10000 4.12 180 05:53 21.05.2021
3755 Clear 12 1010 71 10000 3.6 160 00:51 21.05.2021
3756 Clear 12 1011 71 10000 3.6 160 00:19 21.05.2021
3757 Clear 12 1012 66 10000 3.09 150 23:39 20.05.2021
3758 Clear 12 1012 66 10000 3.09 150 23:19 20.05.2021
3759 Clear 12 1012 71 10000 2.57 150 22:40 20.05.2021
3760 Clear 12 1013 71 10000 2.57 160 22:20 20.05.2021
3761 Rain 13 1013 67 10000 2.57 180 21:48 20.05.2021
3762 Clear 13 1013 67 10000 2.57 190 21:20 20.05.2021
3763 Clear 13 1013 67 10000 2.57 190 21:20 20.05.2021
3764 Clear 14 1014 58 10000 2.57 210 20:37 20.05.2021
3765 Clouds 15 1014 55 10000 3.09 210 20:18 20.05.2021
3766 Clouds 15 1015 51 10000 4.12 220 19:42 20.05.2021
3767 Clouds 15 1015 51 10000 5.14 230 19:22 20.05.2021
3768 Clouds 15 1015 51 10000 5.14 230 18:37 20.05.2021
3769 Clouds 16 1016 48 10000 5.66 230 18:18 20.05.2021
3770 Clouds 16 1016 44 10000 5.14 240 17:41 20.05.2021
3771 Clouds 17 1016 45 10000 6.17 240 17:20 20.05.2021
3772 Clouds 16 1017 48 10000 6.17 250 16:31 20.05.2021
3773 Clouds 17 1017 51 10000 6.69 250 15:44 20.05.2021
3774 Clouds 17 1017 48 10000 6.69 240 15:26 20.05.2021
3775 Clouds 17 1017 48 10000 6.17 230 14:46 20.05.2021
3776 Clouds 16 1018 51 10000 5.66 250 14:21 20.05.2021
3777 Clouds 15 1018 58 10000 5.66 260 13:42 20.05.2021
3778 Clouds 15 1018 58 10000 5.66 230 12:57 20.05.2021
3779 Clouds 15 1018 58 10000 5.66 230 12:37 20.05.2021
3780 Clouds 15 1019 62 10000 5.66 250 12:18 20.05.2021
3781 Clouds 13 1019 67 10000 4.12 250 11:22 20.05.2021
3782 Clouds 13 1019 71 10000 4.63 240 10:58 20.05.2021
3783 Clouds 12 1019 71 10000 4.63 240 10:37 20.05.2021
3784 Clouds 12 1019 71 10000 3.6 260 10:19 20.05.2021
3785 Clouds 12 1019 76 10000 3.6 240 09:42 20.05.2021
3786 Clouds 11 1019 82 10000 3.6 250 09:24 20.05.2021
3787 Clouds 9 1019 93 10000 1.54 240 08:54 20.05.2021
3788 Clouds 9 1019 93 10000 1.54 240 08:34 20.05.2021
3789 Clear 7 1019 93 3000 1.03 0 07:52 20.05.2021
3790 Clear 6 1020 95 10000 2.24 258 07:29 20.05.2021
3791 Clear 4 1019 100 250 1.03 130 06:48 20.05.2021
3792 Clear 3 1019 100 150 1.03 250 05:49 20.05.2021
3793 Clear 4 1019 100 300 1.03 280 04:35 20.05.2021
3794 Clouds 6 1018 93 10000 2.06 300 01:36 20.05.2021
3795 Clouds 7 1017 93 10000 2.06 300 00:20 20.05.2021
3796 Clouds 7 1017 93 10000 1.03 0 23:49 19.05.2021
3797 Clear 8 1017 93 10000 1.03 240 23:21 19.05.2021
3798 Clear 8 1017 93 10000 2.06 230 22:43 19.05.2021
3799 Clear 9 1017 87 10000 1.03 240 22:22 19.05.2021
3800 Clear 10 1016 81 10000 2.06 300 21:54 19.05.2021
3801 Clear 10 1016 71 10000 3.6 290 21:36 19.05.2021
3802 Clear 10 1016 71 10000 3.6 290 21:18 19.05.2021
3803 Clear 12 1016 62 10000 3.09 300 20:27 19.05.2021
3804 Clear 12 1015 62 10000 4.12 300 19:57 19.05.2021
3805 Clear 12 1015 62 10000 4.12 300 19:39 19.05.2021
3806 Clouds 12 1015 90 10000 2.04 302 19:18 19.05.2021
3807 Clouds 12 1015 58 10000 3.09 310 18:39 19.05.2021
3808 Clouds 12 1016 62 10000 3.6 340 18:18 19.05.2021
3809 Clouds 11 1016 81 10000 6.17 300 17:24 19.05.2021
3810 Rain 11 1016 76 10000 7.2 260 16:54 19.05.2021
3811 Rain 12 1016 76 10000 7.2 260 16:35 19.05.2021
3812 Rain 13 1015 76 10000 2.57 160 15:55 19.05.2021
3813 Clouds 12 1015 76 10000 2.57 160 15:34 19.05.2021
3814 Clouds 14 1015 67 10000 1.54 130 14:56 19.05.2021
3815 Clouds 14 1015 71 10000 2.82 244 14:25 19.05.2021
3816 Rain 14 1015 67 10000 3.6 240 13:45 19.05.2021
3817 Clouds 15 1015 58 10000 3.6 210 13:26 19.05.2021
3818 Clouds 14 1015 63 10000 1.54 250 12:43 19.05.2021
3819 Clouds 14 1015 71 10000 1.54 0 12:21 19.05.2021
3820 Clouds 13 1015 67 10000 2.06 230 11:56 19.05.2021
3821 Clouds 13 1015 82 10000 1.54 190 11:38 19.05.2021
3822 Clouds 13 1015 82 10000 1.54 190 11:18 19.05.2021
3823 Clouds 12 1015 68 10000 2.9 246 10:44 19.05.2021
3824 Clouds 11 1015 82 10000 4.63 250 10:21 19.05.2021
3825 Clouds 11 1015 82 10000 2.06 230 09:31 19.05.2021
3826 Clouds 10 1015 93 10000 2.06 240 08:59 19.05.2021
3827 Clouds 9 1015 93 10000 2.06 240 08:36 19.05.2021
3828 Clouds 7 1015 93 8000 0.51 0 07:57 19.05.2021
3829 Clouds 6 1015 100 900 1.03 0 07:22 19.05.2021
3830 Clouds 5 1014 100 300 0.51 220 06:36 19.05.2021
3831 Clouds 5 1014 94 10000 2.18 266 05:27 19.05.2021
3832 Clouds 7 1014 93 10000 2.06 310 02:44 19.05.2021
3833 Clouds 8 1014 93 10000 1.54 280 00:34 19.05.2021
3834 Clouds 9 1014 93 10000 1.03 190 23:50 18.05.2021
3835 Clouds 10 1013 81 10000 0.51 0 23:18 18.05.2021
3836 Clouds 10 1013 87 10000 0.51 0 22:39 18.05.2021
3837 Clouds 10 1013 93 10000 1.54 180 22:20 18.05.2021
3838 Clouds 11 1013 82 10000 2.06 240 21:40 18.05.2021
3839 Clouds 11 1013 82 10000 2.06 240 21:40 18.05.2021
3840 Clouds 12 1013 67 10000 2.06 340 21:18 18.05.2021
3841 Clouds 13 1012 76 10000 1.54 150 20:47 18.05.2021
3842 Clouds 13 1012 71 10000 1.54 90 20:19 18.05.2021
3843 Clouds 14 1012 62 10000 1.03 0 19:48 18.05.2021
3844 Clouds 14 1012 67 10000 1.03 0 19:27 18.05.2021
3845 Clouds 14 1011 62 10000 3.09 310 18:48 18.05.2021
3846 Clouds 14 1011 62 10000 3.09 340 18:25 18.05.2021
3847 Clouds 14 1011 67 10000 3.6 330 17:50 18.05.2021
3848 Clouds 14 1011 67 10000 4.12 340 17:29 18.05.2021
3849 Clouds 14 1011 67 10000 5.14 350 16:37 18.05.2021
3850 Clouds 14 1011 62 10000 6.69 340 16:19 18.05.2021
3851 Clouds 14 1011 55 10000 3.6 300 15:38 18.05.2021
3852 Clouds 15 1011 58 10000 3.09 240 15:19 18.05.2021
3853 Clouds 15 1011 58 10000 3.09 240 15:19 18.05.2021
3854 Clouds 15 1011 62 10000 4.63 250 14:29 18.05.2021
3855 Clouds 15 1011 58 10000 3.6 240 13:41 18.05.2021
3856 Clouds 14 1011 62 10000 4.12 260 12:45 18.05.2021
3857 Clouds 14 1011 62 10000 4.12 220 12:19 18.05.2021
3858 Clouds 13 1011 67 10000 4.12 260 11:38 18.05.2021
3859 Clouds 12 1011 71 10000 4.63 270 10:57 18.05.2021
3860 Clouds 12 1011 71 10000 4.12 270 10:31 18.05.2021
3861 Clouds 12 1011 76 10000 4.63 250 09:58 18.05.2021
3862 Clouds 12 1010 82 10000 3.6 260 09:35 18.05.2021
3863 Clouds 11 1010 82 10000 4.12 250 08:51 18.05.2021
3864 Clouds 10 1010 87 10000 2.57 250 08:19 18.05.2021
3865 Clouds 9 1010 93 10000 2.06 230 07:41 18.05.2021
3866 Clouds 9 1009 93 10000 2.06 210 06:49 18.05.2021
3867 Clouds 9 1008 87 10000 4.63 300 02:31 18.05.2021
3868 Clouds 10 1007 87 10000 4.63 310 01:54 18.05.2021
3869 Clouds 10 1007 93 10000 4.12 300 00:49 18.05.2021
3870 Clouds 10 1006 93 10000 6.17 320 00:26 18.05.2021
3871 Rain 11 1006 87 10000 4.63 330 23:40 17.05.2021
3872 Rain 11 1006 93 10000 4.12 300 23:21 17.05.2021
3873 Clouds 10 1005 93 10000 2.06 250 22:46 17.05.2021
3874 Clouds 11 1005 87 10000 2.57 230 22:25 17.05.2021
3875 Clouds 12 1005 87 10000 1.03 0 21:59 17.05.2021
3876 Clouds 12 1004 87 10000 0.51 0 21:22 17.05.2021
3877 Clouds 12 1004 87 10000 1.54 280 20:45 17.05.2021
3878 Clouds 13 1004 76 10000 1.54 30 20:22 17.05.2021
3879 Clouds 13 1004 76 10000 1.03 0 19:48 17.05.2021
3880 Rain 13 1003 71 10000 4.63 310 19:27 17.05.2021
3881 Clouds 13 1003 72 10000 3.6 210 18:52 17.05.2021
3882 Clouds 13 1003 72 10000 3.6 210 18:32 17.05.2021
3883 Clouds 14 1002 72 10000 5.14 190 17:57 17.05.2021
3884 Clouds 15 1002 72 10000 5.14 190 17:36 17.05.2021
3885 Clouds 16 1002 67 10000 3.09 200 16:58 17.05.2021
3886 Clouds 15 1002 63 10000 2.57 190 16:25 17.05.2021
3887 Clouds 14 1002 71 10000 3.09 200 15:54 17.05.2021
3888 Clouds 14 1002 76 10000 3.6 220 15:24 17.05.2021
3889 Clouds 14 1002 76 10000 2.57 230 14:47 17.05.2021
3890 Clouds 13 1002 87 10000 5.14 240 14:29 17.05.2021
3891 Rain 15 1002 72 10000 3.6 220 13:56 17.05.2021
3892 Clouds 14 1002 72 10000 4.12 190 12:47 17.05.2021
3893 Clouds 13 1002 76 10000 3.09 230 12:27 17.05.2021
3894 Clouds 14 1002 76 10000 2.57 180 11:50 17.05.2021
3895 Clouds 12 1002 82 10000 3.09 200 11:27 17.05.2021
3896 Clouds 13 1002 82 10000 3.09 220 10:57 17.05.2021
3897 Clouds 12 1002 82 10000 3.09 220 10:34 17.05.2021
3898 Clouds 11 1002 82 10000 3.09 230 09:59 17.05.2021
3899 Clouds 11 1001 76 10000 3.6 230 08:55 17.05.2021
3900 Clouds 11 1001 82 10000 2.57 200 08:24 17.05.2021
3901 Clouds 9 1001 93 10000 2.06 180 07:34 17.05.2021
3902 Clear 7 1000 100 10000 0.51 0 06:47 17.05.2021
3903 Fog 7 1000 93 10000 1.54 200 06:20 17.05.2021
3904 Clear 8 1000 93 10000 1.54 160 03:34 17.05.2021
3905 Clear 9 1000 81 10000 1.03 250 01:34 17.05.2021
3906 Clear 10 1000 81 10000 1.03 260 00:39 17.05.2021
3907 Clear 10 1000 87 10000 1.54 220 23:42 16.05.2021
3908 Clear 10 1000 81 10000 1.03 230 23:19 16.05.2021
3909 Clear 10 1000 76 10000 1.03 310 22:33 16.05.2021
3910 Clouds 10 999 81 10000 1.03 0 21:59 16.05.2021
3911 Clouds 10 999 81 10000 1.03 0 21:40 16.05.2021
3912 Clouds 10 999 76 10000 2.57 190 21:22 16.05.2021
3913 Clouds 11 999 71 10000 6.69 190 20:39 16.05.2021
3914 Clouds 13 999 67 10000 3.09 220 20:19 16.05.2021
3915 Clouds 13 999 63 10000 2.57 230 19:43 16.05.2021
3916 Clouds 15 999 58 10000 3.6 260 19:20 16.05.2021
3917 Clouds 16 999 58 10000 3.09 260 18:45 16.05.2021
3918 Clouds 15 999 63 10000 3.6 310 18:24 16.05.2021
3919 Clouds 16 1000 58 10000 3.6 270 17:58 16.05.2021
3920 Clouds 16 1000 58 10000 3.6 270 17:38 16.05.2021
3921 Clouds 16 1000 58 10000 4.63 290 17:20 16.05.2021
3922 Clouds 15 1000 63 10000 4.63 290 16:42 16.05.2021
3923 Clouds 15 1000 63 10000 4.63 300 16:24 16.05.2021
3924 Clouds 14 1000 67 10000 5.66 280 15:48 16.05.2021
3925 Clouds 14 1000 63 10000 6.17 240 15:23 16.05.2021
3926 Clouds 15 1000 72 10000 5.14 240 14:48 16.05.2021
3927 Clouds 13 1000 67 10000 6.17 230 14:20 16.05.2021
3928 Clouds 14 1000 67 10000 6.17 230 13:56 16.05.2021
3929 Clouds 13 1000 82 10000 3.09 270 13:26 16.05.2021
3930 Clouds 13 1001 87 6000 4.63 240 12:58 16.05.2021
3931 Clouds 13 1001 87 6000 4.63 240 12:58 16.05.2021
3932 Clouds 13 1001 87 6000 4.63 240 12:40 16.05.2021
3933 Rain 13 1000 76 10000 4.12 230 12:21 16.05.2021
3934 Clouds 12 1000 82 10000 4.63 200 11:44 16.05.2021
3935 Clouds 12 1000 82 10000 4.63 210 10:57 16.05.2021
3936 Clouds 12 1000 82 10000 4.63 210 10:33 16.05.2021
3937 Clouds 11 1000 82 10000 4.12 220 09:59 16.05.2021
3938 Clouds 11 1000 82 10000 3.09 200 09:39 16.05.2021
3939 Clouds 11 1000 87 10000 3.6 220 09:20 16.05.2021
3940 Clouds 10 1000 93 10000 3.09 200 08:27 16.05.2021
3941 Clouds 10 1000 93 10000 2.57 180 07:48 16.05.2021
3942 Clouds 10 1000 93 10000 1.54 190 07:21 16.05.2021
3943 Clouds 9 1000 93 10000 2.06 170 05:37 16.05.2021
3944 Clouds 10 1001 93 10000 1.54 200 00:52 16.05.2021
3945 Clouds 10 1001 93 10000 1.54 180 00:18 16.05.2021
3946 Clear 10 1001 93 10000 1.54 110 23:23 15.05.2021
3947 Clear 10 1001 93 10000 2.06 100 22:57 15.05.2021
3948 Clouds 10 1001 87 10000 2.06 120 22:27 15.05.2021
3949 Clouds 10 1001 87 10000 1.54 140 21:42 15.05.2021
3950 Clouds 11 1001 82 10000 2.06 140 21:21 15.05.2021
3951 Clouds 12 1001 82 10000 3.09 150 20:45 15.05.2021
3952 Clouds 12 1001 71 10000 1.03 0 20:21 15.05.2021
3953 Clouds 12 1001 71 10000 1.03 40 19:42 15.05.2021
3954 Clouds 13 1002 72 10000 1.54 320 18:48 15.05.2021
3955 Clouds 12 1002 71 10000 2.06 350 18:21 15.05.2021
3956 Clouds 11 1002 76 10000 2.57 310 17:40 15.05.2021
3957 Clouds 12 1002 82 10000 5.14 240 16:50 15.05.2021
3958 Rain 12 1002 71 10000 6.17 210 16:27 15.05.2021
3959 Rain 14 1002 63 10000 3.6 150 15:59 15.05.2021
3960 Clouds 15 1002 63 10000 3.6 160 15:22 15.05.2021
3961 Clouds 15 1003 63 10000 1.54 0 14:45 15.05.2021
3962 Clouds 15 1003 72 10000 1.54 160 14:26 15.05.2021
3963 Clouds 13 1004 76 10000 1.54 90 13:37 15.05.2021
3964 Clouds 13 1004 82 10000 2.57 150 12:49 15.05.2021
3965 Clouds 11 1005 82 10000 3.09 160 11:53 15.05.2021
3966 Clouds 11 1005 87 10000 2.57 100 10:59 15.05.2021
3967 Clouds 10 1005 87 9000 2.57 90 10:31 15.05.2021
3968 Clouds 10 1005 81 10000 2.57 140 09:44 15.05.2021
3969 Clouds 9 1006 81 9000 1.54 120 08:35 15.05.2021
3970 Clouds 8 1006 93 8000 1.03 0 07:53 15.05.2021
3971 Clouds 8 1006 93 6000 0.51 0 07:22 15.05.2021
3972 Clouds 7 1006 93 6000 1.03 190 06:51 15.05.2021
3973 Clouds 6 1006 100 8000 1.03 0 05:44 15.05.2021
3974 Fog 5 1007 93 800 0.51 0 04:18 15.05.2021
3975 Clouds 7 1007 93 10000 1.03 260 00:20 15.05.2021
3976 Clouds 8 1007 87 10000 1.54 290 23:29 14.05.2021
3977 Clear 9 1007 87 10000 2.57 360 22:28 14.05.2021
3978 Clear 10 1007 82 10000 3.09 30 21:59 14.05.2021
3979 Clouds 11 1007 76 10000 3.09 350 21:30 14.05.2021
3980 Clouds 12 1006 71 10000 2.57 340 20:55 14.05.2021
3981 Clouds 13 1006 62 10000 3.6 310 20:27 14.05.2021
3982 Clouds 14 1007 67 10000 3.6 310 19:48 14.05.2021
3983 Clouds 14 1006 62 10000 4.12 310 19:26 14.05.2021
3984 Clouds 15 1007 58 10000 4.12 320 18:46 14.05.2021
3985 Clouds 14 1007 62 10000 4.12 310 18:25 14.05.2021
3986 Clouds 15 1007 63 10000 3.6 320 17:43 14.05.2021
3987 Clouds 15 1007 63 10000 4.12 310 17:24 14.05.2021
3988 Clouds 14 1007 67 10000 3.09 300 16:44 14.05.2021
3989 Clouds 14 1007 62 10000 3.09 310 16:26 14.05.2021
3990 Rain 14 1007 62 10000 3.09 280 15:31 14.05.2021
3991 Rain 14 1007 62 10000 3.09 280 15:31 14.05.2021
3992 Rain 14 1007 62 10000 4.12 290 14:41 14.05.2021
3993 Rain 13 1007 67 10000 3.6 280 13:55 14.05.2021
3994 Rain 12 1007 66 10000 3.6 270 13:31 14.05.2021
3995 Rain 12 1007 66 10000 2.57 270 12:51 14.05.2021
3996 Rain 12 1007 71 10000 3.09 270 12:29 14.05.2021
3997 Rain 11 1007 71 10000 3.09 270 11:49 14.05.2021
3998 Rain 11 1007 76 10000 4.12 270 11:22 14.05.2021
3999 Rain 10 1007 76 10000 3.6 290 10:38 14.05.2021
4000 Rain 10 1006 81 10000 3.09 270 09:53 14.05.2021
4001 Rain 10 1006 81 10000 3.09 270 09:53 14.05.2021
4002 Rain 9 1006 81 10000 3.09 270 09:31 14.05.2021
4003 Rain 9 1006 87 10000 3.6 280 08:53 14.05.2021
4004 Rain 8 1006 87 10000 3.6 290 07:54 14.05.2021
4005 Rain 8 1006 87 10000 3.09 310 06:47 14.05.2021
4006 Rain 8 1006 93 5000 3.6 300 03:57 14.05.2021
4007 Rain 9 1006 93 8000 3.09 330 02:32 14.05.2021
4008 Clouds 10 1006 81 10000 3.6 310 00:38 14.05.2021
4009 Rain 10 1007 87 10000 2.57 320 23:50 13.05.2021
4010 Rain 10 1007 87 10000 3.6 340 23:21 13.05.2021
4011 Rain 10 1007 87 10000 3.6 320 22:49 13.05.2021
4012 Clouds 10 1006 87 10000 3.6 300 22:30 13.05.2021
4013 Clouds 11 1006 82 10000 4.12 300 21:50 13.05.2021
4014 Clouds 11 1006 82 10000 4.12 300 21:50 13.05.2021
4015 Clouds 11 1006 76 10000 3.09 330 21:29 13.05.2021
4016 Clouds 13 1006 71 10000 3.09 330 20:55 13.05.2021
4017 Clouds 13 1006 71 10000 3.09 330 20:35 13.05.2021
4018 Clouds 14 1006 67 10000 3.09 10 19:46 13.05.2021
4019 Clouds 14 1006 72 10000 3.6 20 19:23 13.05.2021
4020 Clouds 14 1006 67 10000 4.12 20 18:56 13.05.2021
4021 Clouds 14 1006 67 10000 4.12 20 18:37 13.05.2021
4022 Clouds 15 1006 63 10000 3.6 350 18:18 13.05.2021
4023 Clouds 15 1006 63 10000 4.12 340 17:40 13.05.2021
4024 Clouds 15 1006 63 10000 4.63 350 17:21 13.05.2021
4025 Clouds 15 1007 63 10000 4.12 330 16:37 13.05.2021
4026 Clouds 15 1007 63 10000 4.12 330 16:19 13.05.2021
4027 Clouds 15 1007 63 10000 4.63 310 15:46 13.05.2021
4028 Clouds 16 1007 58 10000 4.12 320 15:23 13.05.2021
4029 Clouds 16 1007 58 10000 4.12 330 14:56 13.05.2021
4030 Clouds 16 1007 58 10000 4.12 320 14:36 13.05.2021
4031 Clouds 16 1007 58 10000 4.12 320 14:18 13.05.2021
4032 Clouds 15 1007 63 10000 5.14 290 13:40 13.05.2021
4033 Clouds 15 1007 58 10000 3.6 300 13:20 13.05.2021
4034 Clouds 15 1007 63 10000 4.12 320 12:40 13.05.2021
4035 Clouds 14 1008 67 10000 5.14 290 11:57 13.05.2021
4036 Clouds 14 1008 67 10000 5.14 290 11:35 13.05.2021
4037 Clouds 14 1008 67 10000 2.78 329 10:55 13.05.2021
4038 Clouds 13 1008 67 10000 3.09 320 10:33 13.05.2021
4039 Clouds 12 1008 82 10000 2.57 290 09:47 13.05.2021
4040 Clouds 11 1008 82 10000 2.06 320 09:27 13.05.2021
4041 Clouds 10 1008 87 10000 2.57 300 08:36 13.05.2021
4042 Clouds 9 1008 93 10000 2.06 300 07:58 13.05.2021
4043 Clear 9 1009 93 10000 1.54 280 07:20 13.05.2021
4044 Clear 8 1009 93 10000 2.06 290 05:50 13.05.2021
4045 Clear 8 1010 93 10000 2.06 290 02:39 13.05.2021
4046 Clear 11 1010 71 10000 1.54 340 00:51 13.05.2021
4047 Clear 12 1011 66 10000 2.06 350 23:42 12.05.2021
4048 Clear 12 1011 66 10000 4.12 10 22:56 12.05.2021
4049 Clear 12 1011 66 10000 4.12 10 22:56 12.05.2021
4050 Clear 12 1011 66 10000 4.12 350 22:21 12.05.2021
4051 Clouds 12 1011 66 10000 4.63 10 21:52 12.05.2021
4052 Clouds 13 1011 71 10000 6.17 10 20:58 12.05.2021
4053 Clouds 14 1010 67 10000 5.14 10 20:38 12.05.2021
4054 Clouds 15 1010 63 10000 5.14 10 19:52 12.05.2021
4055 Clouds 16 1010 55 10000 3.09 340 18:52 12.05.2021
4056 Rain 16 1010 55 10000 3.09 330 18:27 12.05.2021
4057 Clouds 17 1010 52 10000 4.63 320 17:55 12.05.2021
4058 Clouds 17 1010 52 10000 4.63 320 17:34 12.05.2021
4059 Clouds 17 1010 51 10000 5.66 310 16:50 12.05.2021
4060 Clouds 17 1010 55 10000 5.14 290 16:26 12.05.2021
4061 Clouds 17 1010 55 10000 4.12 300 15:42 12.05.2021
4062 Clouds 17 1010 59 10000 5.66 300 15:19 12.05.2021
4063 Clouds 17 1010 55 10000 5.66 320 14:36 12.05.2021
4064 Clouds 17 1010 67 10000 5.14 290 13:53 12.05.2021
4065 Clouds 16 1010 67 10000 5.14 290 13:33 12.05.2021
4066 Clouds 15 1010 77 10000 6.17 290 12:37 12.05.2021
4067 Clouds 14 1010 77 10000 5.66 300 11:52 12.05.2021
4068 Clouds 14 1010 82 10000 5.66 300 11:33 12.05.2021
4069 Clouds 13 1010 82 10000 5.66 310 10:59 12.05.2021
4070 Clouds 13 1010 82 10000 5.66 310 10:59 12.05.2021
4071 Rain 12 1009 87 10000 5.66 290 10:29 12.05.2021
4072 Clouds 12 1009 87 10000 5.14 290 09:48 12.05.2021
4073 Clouds 12 1009 87 10000 5.14 290 09:27 12.05.2021
4074 Clouds 12 1009 87 10000 4.12 290 08:52 12.05.2021
4075 Clouds 12 1009 87 9000 4.12 290 08:29 12.05.2021
4076 Clouds 11 1009 93 9000 3.6 280 07:43 12.05.2021
4077 Clouds 11 1008 93 10000 3.09 270 06:24 12.05.2021
4078 Clear 11 1008 87 10000 2.57 360 00:55 12.05.2021
4079 Clear 11 1008 87 10000 2.57 360 00:36 12.05.2021
4080 Clouds 11 1008 87 10000 2.06 330 23:47 11.05.2021
4081 Clouds 12 1008 94 10000 2.57 320 23:28 11.05.2021
4082 Clouds 12 1008 94 10000 3.09 280 22:50 11.05.2021
4083 Clear 12 1008 94 10000 3.09 10 22:21 11.05.2021
4084 Clear 12 1008 94 10000 3.09 10 21:59 11.05.2021
4085 Clear 13 1008 88 10000 2.57 330 21:41 11.05.2021
4086 Clouds 13 1008 88 10000 3.09 320 21:23 11.05.2021
4087 Rain 13 1008 88 10000 2.57 320 20:43 11.05.2021
4088 Rain 13 1008 88 10000 2.57 320 20:24 11.05.2021
4089 Rain 13 1007 88 10000 3.6 350 19:43 11.05.2021
4090 Clouds 14 1008 82 10000 2.57 330 19:22 11.05.2021
4091 Rain 14 1008 82 10000 3.09 360 18:46 11.05.2021
4092 Clouds 14 1008 82 10000 3.09 360 18:27 11.05.2021
4093 Clouds 14 1008 82 10000 2.57 340 17:44 11.05.2021
4094 Rain 14 1008 82 10000 3.6 10 17:23 11.05.2021
4095 Clouds 14 1008 82 10000 3.09 350 16:45 11.05.2021
4096 Rain 14 1008 77 10000 3.09 20 16:22 11.05.2021
4097 Rain 14 1008 82 10000 3.6 360 15:44 11.05.2021
4098 Rain 14 1008 82 10000 3.6 10 15:20 11.05.2021
4099 Rain 14 1008 82 10000 3.6 10 15:20 11.05.2021
4100 Rain 14 1008 82 10000 3.6 10 14:44 11.05.2021
4101 Clouds 13 1008 82 10000 6.69 40 14:24 11.05.2021
4102 Rain 13 1008 82 10000 6.69 40 13:57 11.05.2021
4103 Rain 13 1009 88 10000 4.12 20 13:24 11.05.2021
4104 Clouds 13 1009 88 10000 2.57 40 12:58 11.05.2021
4105 Clouds 13 1009 88 10000 2.57 40 12:39 11.05.2021
4106 Clouds 13 1009 88 10000 2.57 40 11:50 11.05.2021
4107 Clouds 13 1009 88 10000 2.57 40 11:32 11.05.2021
4108 Clouds 13 1009 94 10000 3.09 40 10:58 11.05.2021
4109 Clouds 13 1009 94 10000 3.09 40 10:39 11.05.2021
4110 Clouds 13 1009 94 10000 3.09 30 09:59 11.05.2021
4111 Clouds 13 1009 94 4500 3.09 50 09:41 11.05.2021
4112 Clouds 13 1009 94 6000 3.09 70 09:23 11.05.2021
4113 Clouds 13 1009 94 9000 1.54 0 08:50 11.05.2021
4114 Clouds 13 1009 94 9000 1.54 0 08:50 11.05.2021
4115 Clouds 13 1009 94 10000 3.09 70 08:31 11.05.2021
4116 Clouds 13 1009 94 10000 3.09 70 07:54 11.05.2021
4117 Clouds 12 1009 94 10000 0.51 0 07:28 11.05.2021
4118 Rain 12 1010 94 6000 2.06 130 06:18 11.05.2021
4119 Rain 12 1010 94 6000 2.06 130 06:18 11.05.2021
4120 Rain 14 1010 94 10000 2.57 140 01:19 11.05.2021
4121 Rain 14 1009 94 10000 2.06 120 00:38 11.05.2021
4122 Rain 15 1009 77 10000 1.03 130 23:49 10.05.2021
4123 Rain 15 1009 77 10000 1.54 100 23:22 10.05.2021
4124 Clouds 16 1009 67 10000 1.03 130 22:50 10.05.2021
4125 Rain 16 1009 67 10000 1.54 140 22:21 10.05.2021
4126 Rain 16 1009 63 10000 0.51 0 21:50 10.05.2021
4127 Clouds 17 1009 67 10000 1.54 220 21:27 10.05.2021
4128 Clouds 18 1009 63 10000 2.06 220 20:45 10.05.2021
4129 Clouds 18 1009 59 10000 3.09 220 20:23 10.05.2021
4130 Clouds 18 1008 63 10000 2.57 250 19:56 10.05.2021
4131 Clouds 19 1008 63 10000 2.57 250 19:38 10.05.2021
4132 Clouds 19 1008 59 10000 4.12 250 19:19 10.05.2021
4133 Clouds 19 1008 59 10000 4.12 260 18:45 10.05.2021
4134 Clouds 19 1008 59 10000 4.63 270 18:20 10.05.2021
4135 Clouds 20 1007 56 10000 5.66 260 17:41 10.05.2021
4136 Clouds 20 1007 56 10000 6.69 270 16:59 10.05.2021
4137 Clouds 20 1006 52 10000 8.23 240 16:28 10.05.2021
4138 Clouds 20 1006 56 10000 8.75 240 15:58 10.05.2021
4139 Clouds 21 1005 56 10000 7.2 240 15:31 10.05.2021
4140 Clouds 20 1005 56 10000 7.2 250 14:55 10.05.2021
4141 Clear 21 1005 56 10000 8.75 260 14:31 10.05.2021
4142 Clear 22 1004 49 10000 8.75 230 13:57 10.05.2021
4143 Clouds 23 1002 46 10000 7.2 200 12:59 10.05.2021
4144 Clouds 23 1002 46 10000 7.2 200 12:36 10.05.2021
4145 Clouds 22 1002 49 10000 5.66 190 12:18 10.05.2021
4146 Clear 22 1002 53 10000 7.2 190 11:38 10.05.2021
4147 Clear 22 1002 53 10000 7.2 190 11:38 10.05.2021
4148 Clear 22 1002 53 10000 6.17 180 11:19 10.05.2021
4149 Clear 22 1002 49 10000 7.72 190 10:46 10.05.2021
4150 Clear 22 1002 46 10000 6.69 190 10:21 10.05.2021
4151 Clear 21 1002 52 10000 5.14 170 09:39 10.05.2021
4152 Clear 18 1001 52 10000 4.12 140 08:50 10.05.2021
4153 Clear 18 1001 55 10000 4.63 150 08:29 10.05.2021
4154 Clear 18 1001 59 10000 3.09 160 07:53 10.05.2021
4155 Clear 18 1001 59 10000 3.09 140 07:31 10.05.2021
4156 Clear 17 1001 55 10000 3.6 140 06:48 10.05.2021
4157 Clear 19 1001 48 10000 4.12 190 03:55 10.05.2021
4158 Clear 18 1000 59 10000 4.12 150 00:52 10.05.2021
4159 Clear 20 1000 52 10000 3.09 130 23:33 09.05.2021
4160 Clear 20 1000 56 10000 3.6 150 22:39 09.05.2021
4161 Clouds 20 1000 56 10000 3.6 150 22:20 09.05.2021
4162 Clear 21 1000 56 10000 3.09 150 21:48 09.05.2021
4163 Clear 24 1000 46 10000 4.63 150 20:57 09.05.2021
4164 Clear 24 1000 46 10000 4.63 150 20:37 09.05.2021
4165 Clear 25 1000 41 10000 5.14 160 19:56 09.05.2021
4166 Clear 25 1000 38 10000 6.17 150 19:31 09.05.2021
4167 Clear 26 1000 39 10000 6.17 150 18:54 09.05.2021
4168 Clear 26 1000 39 10000 6.17 150 18:33 09.05.2021
4169 Clear 25 1001 47 10000 6.69 160 17:58 09.05.2021
4170 Clear 26 1001 50 10000 4.63 150 17:23 09.05.2021
4171 Clear 25 1002 44 10000 5.14 140 16:37 09.05.2021
4172 Clear 25 1002 44 10000 5.66 140 16:19 09.05.2021
4173 Clear 24 1003 35 10000 3.09 150 15:21 09.05.2021
4174 Clear 24 1003 36 10000 7.72 140 14:49 09.05.2021
4175 Clear 22 1004 46 10000 6.69 150 13:48 09.05.2021
4176 Clear 22 1004 46 10000 6.69 150 13:48 09.05.2021
4177 Clouds 23 1004 49 10000 6.69 170 13:30 09.05.2021
4178 Clouds 22 1004 49 10000 7.72 160 12:45 09.05.2021
4179 Clear 22 1005 56 10000 6.17 170 11:59 09.05.2021
4180 Clear 21 1005 56 10000 7.2 170 11:23 09.05.2021
4181 Clear 21 1005 56 10000 7.2 170 11:23 09.05.2021
4182 Clear 19 1006 59 10000 5.66 170 10:44 09.05.2021
4183 Clear 20 1006 59 10000 5.66 170 10:44 09.05.2021
4184 Clear 20 1006 59 10000 5.66 170 10:44 09.05.2021
4185 Clear 19 1006 63 10000 5.14 170 10:26 09.05.2021
4186 Clear 17 1006 63 10000 5.66 190 09:37 09.05.2021
4187 Clear 16 1006 67 10000 5.66 180 09:18 09.05.2021
4188 Clear 15 1006 63 10000 5.14 180 08:43 09.05.2021
4189 Clear 14 1006 67 10000 5.14 180 08:21 09.05.2021
4190 Clear 11 1006 76 10000 2.57 160 07:29 09.05.2021
4191 Clear 10 1006 76 10000 4.12 180 06:39 09.05.2021
4192 Clear 10 1007 81 10000 4.12 150 01:31 09.05.2021
4193 Clouds 9 1008 87 10000 5.14 140 23:55 08.05.2021
4194 Clouds 9 1008 87 10000 5.66 140 23:31 08.05.2021
4195 Clouds 9 1008 87 10000 6.69 130 22:55 08.05.2021
4196 Clouds 9 1009 87 10000 6.17 120 22:22 08.05.2021
4197 Rain 9 1009 87 8000 4.63 130 21:52 08.05.2021
4198 Rain 9 1010 87 9000 5.14 130 21:19 08.05.2021
4199 Rain 9 1011 87 10000 3.6 130 20:57 08.05.2021
4200 Rain 9 1011 87 10000 3.6 130 20:32 08.05.2021
4201 Rain 10 1011 66 10000 5.66 150 19:27 08.05.2021
4202 Rain 11 1012 66 10000 6.69 180 18:55 08.05.2021
4203 Rain 11 1012 66 10000 6.69 180 18:37 08.05.2021
4204 Rain 12 1012 54 10000 7.2 190 17:58 08.05.2021
4205 Rain 12 1012 54 10000 7.2 190 17:38 08.05.2021
4206 Rain 14 1012 41 10000 7.2 190 16:41 08.05.2021
4207 Rain 14 1013 41 10000 5.66 190 16:23 08.05.2021
4208 Rain 14 1013 41 10000 6.69 190 15:42 08.05.2021
4209 Rain 15 1013 44 10000 5.66 170 15:22 08.05.2021
4210 Clouds 15 1014 41 10000 5.66 170 14:27 08.05.2021
4211 Clouds 14 1015 47 10000 5.66 170 13:57 08.05.2021
4212 Clouds 14 1015 44 10000 3.6 180 13:25 08.05.2021
4213 Clear 13 1016 44 10000 4.12 180 12:38 08.05.2021
4214 Clear 12 1016 50 10000 4.12 180 12:38 08.05.2021
4215 Clear 13 1016 54 10000 4.12 190 11:54 08.05.2021
4216 Clear 12 1016 54 10000 4.12 190 11:35 08.05.2021
4217 Clear 11 1017 62 10000 4.63 180 10:48 08.05.2021
4218 Clear 10 1017 66 10000 4.63 180 10:30 08.05.2021
4219 Clear 9 1017 71 10000 4.63 180 09:55 08.05.2021
4220 Clear 9 1017 71 10000 4.63 180 09:37 08.05.2021
4221 Clear 7 1017 76 10000 3.09 190 08:49 08.05.2021
4222 Clear 5 1017 87 10000 2.06 190 08:22 08.05.2021
4223 Clear 4 1017 87 10000 2.06 210 07:39 08.05.2021
4224 Clear 3 1017 93 10000 1.54 190 07:39 08.05.2021
4225 Clear 1 1017 93 10000 1.54 190 06:41 08.05.2021
4226 Clear 3 1017 87 10000 3.09 220 02:40 08.05.2021
4227 Clear 5 1017 87 10000 2.57 270 00:55 08.05.2021
4228 Clear 4 1017 87 10000 2.57 270 00:35 08.05.2021
4229 Clouds 5 1017 75 10000 3.6 280 23:48 07.05.2021
4230 Clouds 6 1016 76 10000 3.09 290 23:18 07.05.2021
4231 Clouds 7 1016 71 10000 3.6 310 22:42 07.05.2021
4232 Clouds 8 1016 66 10000 4.12 300 21:53 07.05.2021
4233 Clouds 8 1016 66 10000 4.63 300 21:31 07.05.2021
4234 Clouds 9 1015 66 10000 5.66 300 20:53 07.05.2021
4235 Clouds 9 1015 66 10000 5.66 300 20:33 07.05.2021
4236 Clouds 10 1015 53 10000 6.17 300 19:53 07.05.2021
4237 Clouds 10 1015 53 10000 6.17 300 19:34 07.05.2021
4238 Clouds 10 1014 50 10000 7.72 290 18:55 07.05.2021
4239 Clouds 10 1014 50 10000 7.72 290 18:36 07.05.2021
4240 Clouds 11 1014 46 10000 8.75 300 17:47 07.05.2021
4241 Clouds 12 1013 47 10000 8.75 280 17:22 07.05.2021
4242 Clouds 12 1013 54 10000 6.69 280 16:44 07.05.2021
4243 Clouds 11 1013 66 10000 4.63 250 16:24 07.05.2021
4244 Clouds 11 1013 61 10000 6.69 270 15:50 07.05.2021
4245 Rain 11 1012 58 10000 6.17 260 15:31 07.05.2021
4246 Clouds 11 1012 57 10000 5.14 300 14:50 07.05.2021
4247 Clouds 9 1012 66 10000 7.72 310 14:27 07.05.2021
4248 Clouds 10 1012 61 10000 4.12 270 13:44 07.05.2021
4249 Clouds 9 1012 76 10000 4.63 330 13:20 07.05.2021
4250 Rain 9 1011 57 10000 5.14 270 12:38 07.05.2021
4251 Clouds 9 1011 61 10000 4.12 280 12:20 07.05.2021
4252 Clouds 8 1011 66 10000 4.63 280 11:45 07.05.2021
4253 Clouds 8 1010 76 10000 5.14 290 11:20 07.05.2021
4254 Clouds 7 1010 81 10000 5.14 290 10:40 07.05.2021
4255 Clouds 6 1009 87 10000 4.12 290 10:19 07.05.2021
4256 Clouds 5 1009 87 10000 4.63 290 09:33 07.05.2021
4257 Clouds 5 1008 81 10000 5.66 300 08:50 07.05.2021
4258 Clouds 5 1008 81 10000 4.63 300 08:29 07.05.2021
4259 Clouds 4 1007 93 10000 3.6 300 06:50 07.05.2021
4260 Clouds 4 1006 87 10000 3.09 300 05:52 07.05.2021
4261 Clouds 4 1005 93 10000 1.54 270 03:33 07.05.2021
4262 Clear 6 1005 75 10000 1.03 0 23:45 06.05.2021
4263 Clouds 6 1005 70 10000 1.03 60 22:42 06.05.2021
4264 Clouds 7 1005 70 10000 2.06 20 21:58 06.05.2021
4265 Rain 7 1005 70 10000 2.06 20 21:38 06.05.2021
4266 Clouds 8 1004 61 10000 3.09 290 20:37 06.05.2021
4267 Clouds 8 1004 61 10000 3.09 290 20:19 06.05.2021
4268 Clouds 8 1004 61 10000 3.09 290 19:43 06.05.2021
4269 Clouds 9 1004 53 10000 2.06 290 19:20 06.05.2021
4270 Clouds 9 1004 57 10000 1.54 260 18:48 06.05.2021
4271 Clouds 10 1004 50 10000 1.03 0 18:26 06.05.2021
4272 Clouds 9 1005 66 10000 1.03 0 17:43 06.05.2021
4273 Clouds 8 1005 76 10000 4.12 240 17:23 06.05.2021
4274 Rain 8 1005 76 10000 4.12 290 16:51 06.05.2021
4275 Rain 8 1006 81 10000 6.17 250 16:30 06.05.2021
4276 Rain 8 1006 76 10000 6.69 220 15:53 06.05.2021
4277 Rain 9 1006 76 10000 6.69 220 15:35 06.05.2021
4278 Clouds 10 1005 46 10000 5.14 290 14:59 06.05.2021
4279 Clouds 11 1005 40 10000 5.14 260 14:22 06.05.2021
4280 Clouds 11 1005 46 10000 6.17 270 13:43 06.05.2021
4281 Clouds 11 1006 50 10000 5.66 270 13:19 06.05.2021
4282 Clouds 11 1006 50 10000 5.66 270 12:37 06.05.2021
4283 Clouds 10 1006 49 10000 7.2 250 12:18 06.05.2021
4284 Clouds 10 1006 57 10000 6.17 250 11:40 06.05.2021
4285 Clouds 9 1006 61 10000 6.69 260 11:19 06.05.2021
4286 Clouds 9 1006 61 10000 5.66 260 10:43 06.05.2021
4287 Clouds 8 1005 70 10000 6.17 240 10:22 06.05.2021
4288 Clouds 7 1005 70 10000 6.17 260 09:41 06.05.2021
4289 Clouds 7 1005 75 10000 6.69 250 09:22 06.05.2021
4290 Clouds 5 1005 75 10000 5.66 240 08:30 06.05.2021
4291 Clouds 4 1005 81 10000 4.63 230 07:57 06.05.2021
4292 Clouds 4 1005 81 10000 4.63 230 07:38 06.05.2021
4293 Clouds 3 1005 87 10000 3.6 230 06:39 06.05.2021
4294 Clouds 3 1005 87 10000 4.12 240 06:21 06.05.2021
4295 Clear 3 1005 87 10000 3.6 250 05:42 06.05.2021
4296 Clear 3 1005 81 10000 4.63 250 04:29 06.05.2021
4297 Clear 4 1006 75 10000 5.66 250 00:59 06.05.2021
4298 Clouds 6 1005 65 10000 7.72 260 23:25 05.05.2021
4299 Clouds 6 1005 65 10000 8.23 260 22:30 05.05.2021
4300 Clouds 7 1005 65 10000 7.72 270 21:57 05.05.2021
4301 Clouds 7 1005 65 10000 7.72 270 21:35 05.05.2021
4302 Clouds 7 1005 65 10000 7.72 270 21:35 05.05.2021
4303 Clouds 7 1004 65 10000 9.26 280 20:57 05.05.2021
4304 Clouds 7 1004 65 10000 9.26 280 20:57 05.05.2021
4305 Clouds 8 1004 61 10000 11.83 280 20:26 05.05.2021
4306 Clouds 8 1003 66 10000 11.32 280 19:42 05.05.2021
4307 Clouds 8 1003 66 10000 11.32 280 19:23 05.05.2021
4308 Clouds 8 1003 66 10000 12.35 280 18:38 05.05.2021
4309 Clouds 9 1002 66 10000 12.86 280 18:18 05.05.2021
4310 Clouds 9 1002 71 10000 14.4 280 17:43 05.05.2021
4311 Clouds 8 1002 81 10000 10.8 280 17:24 05.05.2021
4312 Clouds 8 1001 81 10000 10.8 270 16:47 05.05.2021
4313 Rain 9 1000 71 10000 12.35 270 16:28 05.05.2021
4314 Clouds 9 999 76 10000 11.83 270 15:46 05.05.2021
4315 Clouds 8 999 81 10000 11.32 270 15:20 05.05.2021
4316 Rain 7 998 87 10000 10.29 270 14:42 05.05.2021
4317 Clouds 7 998 87 10000 10.8 270 14:23 05.05.2021
4318 Rain 7 998 87 10000 9.26 270 13:32 05.05.2021
4319 Rain 8 997 76 10000 12.35 260 12:58 05.05.2021
4320 Clouds 8 996 71 10000 11.32 250 12:27 05.05.2021
4321 Clouds 8 996 71 10000 10.29 250 11:49 05.05.2021
4322 Clouds 8 996 66 10000 11.83 240 11:28 05.05.2021
4323 Clouds 8 996 71 10000 10.8 250 10:51 05.05.2021
4324 Clouds 7 996 76 10000 10.29 240 10:26 05.05.2021
4325 Clouds 7 995 76 10000 11.32 250 09:47 05.05.2021
4326 Clouds 7 995 76 10000 10.8 250 08:57 05.05.2021
4327 Clouds 7 995 76 10000 10.8 250 08:37 05.05.2021
4328 Clouds 6 995 81 10000 10.29 240 08:19 05.05.2021
4329 Clouds 6 995 81 10000 10.29 240 07:41 05.05.2021
4330 Clouds 6 994 81 10000 8.75 240 06:55 05.05.2021
4331 Clouds 6 994 81 10000 9.26 240 05:30 05.05.2021
4332 Clouds 7 994 81 10000 8.75 250 01:42 05.05.2021
4333 Clouds 7 994 76 10000 10.29 240 23:46 04.05.2021
4334 Clouds 7 994 76 10000 10.8 240 23:23 04.05.2021
4335 Clouds 7 994 81 10000 10.8 250 22:42 04.05.2021
4336 Clouds 8 994 76 10000 10.8 240 22:21 04.05.2021
4337 Clouds 7 994 81 10000 11.83 250 21:52 04.05.2021
4338 Clouds 8 994 76 10000 10.29 240 21:31 04.05.2021
4339 Clouds 8 993 71 10000 11.83 240 20:50 04.05.2021
4340 Clouds 8 993 81 10000 9.77 240 20:28 04.05.2021
4341 Clouds 9 993 76 10000 10.29 240 19:59 04.05.2021
4342 Clouds 9 993 76 10000 10.29 240 19:40 04.05.2021
4343 Clouds 9 993 76 10000 10.29 240 19:20 04.05.2021
4344 Clouds 9 993 81 10000 9.77 240 18:47 04.05.2021
4345 Clouds 9 993 71 10000 12.35 230 18:20 04.05.2021
4346 Clouds 9 993 81 10000 9.77 230 17:44 04.05.2021
4347 Clouds 9 993 81 10000 11.32 250 17:20 04.05.2021
4348 Clouds 8 993 87 3500 14.92 270 16:40 04.05.2021
4349 Rain 10 992 62 10000 13.89 240 16:21 04.05.2021
4350 Clouds 11 992 71 10000 13.89 240 15:26 04.05.2021
4351 Clouds 10 992 76 4000 17.49 240 14:47 04.05.2021
4352 Rain 11 992 71 10000 11.32 220 13:47 04.05.2021
4353 Clouds 11 992 71 10000 9.77 210 13:26 04.05.2021
4354 Clouds 10 992 71 10000 9.77 210 12:57 04.05.2021
4355 Clouds 10 992 71 10000 9.77 210 12:37 04.05.2021
4356 Clouds 10 993 81 10000 6.69 230 12:19 04.05.2021
4357 Clouds 9 993 81 10000 9.26 220 11:41 04.05.2021
4358 Rain 9 993 76 10000 10.29 200 11:21 04.05.2021
4359 Clouds 9 993 81 10000 6.69 200 10:40 04.05.2021
4360 Clouds 8 994 87 10000 8.75 200 10:20 04.05.2021
4361 Clouds 9 994 76 10000 9.26 200 09:27 04.05.2021
4362 Clouds 9 995 76 10000 8.75 200 08:54 04.05.2021
4363 Clouds 9 995 76 10000 8.75 200 08:35 04.05.2021
4364 Clouds 8 996 81 10000 8.23 200 07:55 04.05.2021
4365 Clouds 8 996 81 10000 8.23 200 07:34 04.05.2021
4366 Rain 8 998 76 10000 7.72 220 06:28 04.05.2021
4367 Rain 8 998 76 10000 7.72 220 06:28 04.05.2021
4368 Rain 9 998 57 10000 5.66 180 05:35 04.05.2021
4369 Rain 9 1001 61 10000 6.69 140 03:51 04.05.2021
4370 Clear 7 1008 81 10000 6.17 150 00:51 04.05.2021
4371 Rain 7 1009 87 10000 5.14 140 23:43 03.05.2021
4372 Clear 7 1011 87 10000 4.63 140 22:55 03.05.2021
4373 Clear 7 1011 87 10000 4.63 140 22:32 03.05.2021
4374 Clear 7 1012 87 10000 3.6 140 21:54 03.05.2021
4375 Clear 8 1012 81 10000 1.54 120 21:32 03.05.2021
4376 Clear 8 1012 87 10000 2.06 120 20:59 03.05.2021
4377 Clear 8 1012 87 10000 2.06 120 20:40 03.05.2021
4378 Clear 9 1013 81 10000 2.57 150 20:22 03.05.2021
4379 Clouds 9 1013 81 10000 3.09 170 19:40 03.05.2021
4380 Clouds 9 1014 76 10000 2.06 170 19:19 03.05.2021
4381 Rain 9 1015 76 10000 2.57 230 18:28 03.05.2021
4382 Rain 9 1015 81 10000 3.09 250 17:50 03.05.2021
4383 Clouds 8 1016 87 8000 8.75 270 17:24 03.05.2021
4384 Rain 10 1016 76 10000 4.63 270 16:51 03.05.2021
4385 Rain 9 1016 76 10000 1.54 280 16:19 03.05.2021
4386 Rain 9 1016 76 10000 1.54 280 16:19 03.05.2021
4387 Clouds 8 1016 87 10000 4.63 290 15:47 03.05.2021
4388 Clouds 8 1016 87 10000 4.63 290 15:47 03.05.2021
4389 Rain 7 1017 87 3500 8.23 320 14:56 03.05.2021
4390 Rain 8 1017 81 10000 1.54 350 14:20 03.05.2021
4391 Rain 9 1017 76 10000 3.09 240 13:51 03.05.2021
4392 Clouds 9 1017 81 10000 3.09 220 13:29 03.05.2021
4393 Clouds 7 1018 87 10000 3.09 230 12:54 03.05.2021
4394 Clouds 7 1018 87 10000 3.6 230 12:27 03.05.2021
4395 Rain 6 1018 93 10000 2.06 200 11:49 03.05.2021
4396 Rain 6 1019 87 10000 1.03 0 11:30 03.05.2021
4397 Rain 5 1019 87 10000 1.03 0 10:49 03.05.2021
4398 Rain 5 1019 93 10000 1.54 270 10:31 03.05.2021
4399 Rain 5 1019 93 10000 1.54 270 10:31 03.05.2021
4400 Rain 4 1019 93 10000 3.6 240 09:53 03.05.2021
4401 Rain 5 1019 87 10000 5.14 240 09:25 03.05.2021
4402 Rain 5 1019 87 10000 5.14 230 08:42 03.05.2021
4403 Clouds 5 1019 87 10000 3.09 230 08:23 03.05.2021
4404 Clouds 4 1019 87 10000 3.6 230 07:36 03.05.2021
4405 Clouds 2 1018 93 10000 2.06 250 06:32 03.05.2021
4406 Clouds 2 1018 93 10000 3.6 250 05:54 03.05.2021
4407 Clouds 4 1018 87 10000 4.63 270 01:53 03.05.2021
4408 Clouds 4 1018 81 10000 4.63 280 00:19 03.05.2021
4409 Clouds 4 1018 81 10000 4.12 270 23:26 02.05.2021
4410 Clouds 5 1017 81 10000 4.12 270 22:49 02.05.2021
4411 Clouds 5 1017 75 10000 4.12 280 22:31 02.05.2021
4412 Clouds 5 1017 75 10000 4.12 280 22:31 02.05.2021
4413 Clouds 6 1017 75 10000 4.12 290 21:57 02.05.2021
4414 Clouds 6 1017 75 10000 4.12 290 21:33 02.05.2021
4415 Clouds 7 1016 76 10000 5.14 280 20:48 02.05.2021
4416 Clouds 7 1016 76 10000 5.66 290 20:23 02.05.2021
4417 Clouds 7 1016 76 10000 6.17 290 19:41 02.05.2021
4418 Clouds 7 1016 76 10000 7.2 290 19:22 02.05.2021
4419 Clouds 7 1016 81 10000 7.2 300 18:45 02.05.2021
4420 Clouds 7 1016 87 8000 7.2 300 18:27 02.05.2021
4421 Rain 8 1016 81 10000 7.72 270 17:49 02.05.2021
4422 Clouds 8 1015 76 10000 8.75 290 17:29 02.05.2021
4423 Rain 8 1015 81 10000 8.23 290 16:58 02.05.2021
4424 Rain 8 1015 81 10000 8.23 290 16:39 02.05.2021
4425 Clouds 8 1015 87 10000 5.66 270 16:19 02.05.2021
4426 Rain 7 1015 87 8000 8.23 280 15:43 02.05.2021
4427 Rain 8 1015 81 10000 8.75 270 15:23 02.05.2021
4428 Clouds 9 1014 76 10000 7.72 260 14:41 02.05.2021
4429 Clouds 9 1014 66 10000 7.2 310 14:21 02.05.2021
4430 Clouds 9 1014 66 10000 6.69 280 13:45 02.05.2021
4431 Clouds 9 1014 71 10000 4.63 300 13:21 02.05.2021
4432 Clouds 8 1014 71 10000 6.69 310 12:43 02.05.2021
4433 Clouds 9 1014 71 10000 6.69 300 12:23 02.05.2021
4434 Clouds 8 1014 71 10000 6.69 300 11:49 02.05.2021
4435 Clouds 8 1014 81 10000 7.2 310 11:31 02.05.2021
4436 Clouds 9 1013 76 10000 4.12 300 10:53 02.05.2021
4437 Clouds 9 1013 76 10000 4.63 290 10:21 02.05.2021
4438 Clouds 8 1013 81 10000 4.12 270 09:47 02.05.2021
4439 Clouds 8 1013 81 10000 4.12 270 09:28 02.05.2021
4440 Clouds 8 1013 81 10000 4.12 270 09:28 02.05.2021
4441 Clouds 7 1013 87 10000 3.6 270 08:54 02.05.2021
4442 Clouds 7 1013 93 10000 2.06 250 08:31 02.05.2021
4443 Clouds 6 1013 93 9000 1.54 250 07:53 02.05.2021
4444 Clouds 4 1013 100 7000 1.03 220 07:21 02.05.2021
4445 Clouds 4 1012 100 10000 1.03 200 05:28 02.05.2021
4446 Clear 5 1012 93 10000 1.54 280 01:46 02.05.2021
4447 Clear 6 1013 87 10000 2.06 290 23:49 01.05.2021
4448 Clear 7 1013 81 10000 1.03 0 23:29 01.05.2021
4449 Clear 8 1013 76 10000 2.06 340 22:59 01.05.2021
4450 Clear 8 1013 76 10000 2.06 340 22:35 01.05.2021
4451 Clouds 8 1012 71 10000 4.12 340 21:57 01.05.2021
4452 Clouds 8 1012 71 10000 4.12 340 21:39 01.05.2021
4453 Clouds 8 1012 71 10000 4.12 340 21:39 01.05.2021
4454 Clouds 10 1012 71 10000 3.6 360 21:21 01.05.2021
4455 Clouds 10 1012 58 10000 3.6 310 20:45 01.05.2021
4456 Clouds 11 1012 58 10000 3.6 280 20:26 01.05.2021
4457 Clouds 11 1011 54 10000 2.57 250 19:52 01.05.2021
4458 Clouds 12 1011 58 10000 2.06 250 19:30 01.05.2021
4459 Clouds 12 1011 54 10000 3.09 250 18:51 01.05.2021
4460 Clouds 13 1011 50 10000 3.6 230 18:30 01.05.2021
4461 Clouds 13 1011 54 10000 2.57 240 17:49 01.05.2021
4462 Clouds 13 1011 58 10000 3.09 250 17:27 01.05.2021
4463 Clouds 13 1011 54 10000 3.6 230 16:45 01.05.2021
4464 Clouds 14 1012 54 10000 4.63 230 16:25 01.05.2021
4465 Clouds 12 1012 62 10000 5.66 260 15:29 01.05.2021
4466 Clouds 12 1012 62 10000 2.57 220 14:33 01.05.2021
4467 Clouds 11 1012 71 10000 3.09 240 13:37 01.05.2021
4468 Clouds 10 1013 76 8000 3.09 250 13:19 01.05.2021
4469 Mist 11 1013 76 4800 3.6 250 12:37 01.05.2021
4470 Clouds 10 1013 93 4000 4.12 240 12:18 01.05.2021
4471 Rain 11 1012 71 7000 3.09 220 11:41 01.05.2021
4472 Clouds 11 1012 71 7000 3.09 150 11:22 01.05.2021
4473 Clouds 11 1012 71 7000 3.09 150 11:22 01.05.2021
4474 Clouds 11 1012 71 7000 3.09 150 11:22 01.05.2021
4475 Clouds 10 1013 71 9000 2.57 140 10:43 01.05.2021
4476 Clouds 9 1013 87 10000 2.57 120 09:56 01.05.2021
4477 Clouds 8 1013 81 10000 2.57 140 09:27 01.05.2021
4478 Clouds 8 1013 87 10000 2.57 130 08:59 01.05.2021
4479 Clouds 7 1013 93 10000 2.06 110 07:46 01.05.2021
4480 Clouds 6 1012 93 9000 1.54 140 06:48 01.05.2021
4481 Clouds 7 1012 87 10000 3.09 110 05:32 01.05.2021
4482 Clouds 7 1014 87 10000 2.57 140 01:21 01.05.2021
4483 Clouds 8 1013 81 10000 2.06 100 00:21 01.05.2021
4484 Clouds 8 1013 76 10000 3.09 110 23:38 30.04.2021
4485 Clouds 9 1013 81 10000 1.03 0 22:46 30.04.2021
4486 Clouds 10 1013 76 10000 1.03 0 22:19 30.04.2021
4487 Clouds 9 1013 76 10000 1.03 0 21:46 30.04.2021
4488 Clouds 10 1013 76 10000 1.54 270 21:24 30.04.2021
4489 Clouds 10 1013 66 10000 1.54 120 20:47 30.04.2021
4490 Clouds 11 1012 66 10000 2.57 110 20:26 30.04.2021
4491 Clouds 11 1012 66 10000 3.6 120 19:39 30.04.2021
4492 Clouds 12 1012 62 10000 3.6 120 18:48 30.04.2021
4493 Clouds 12 1012 58 10000 3.09 120 18:28 30.04.2021
4494 Clouds 12 1012 54 10000 4.63 110 17:54 30.04.2021
4495 Clouds 13 1012 54 10000 3.09 110 17:30 30.04.2021
4496 Clouds 13 1012 54 10000 3.09 110 16:53 30.04.2021
4497 Clouds 13 1012 54 10000 3.09 110 16:32 30.04.2021
4498 Clouds 13 1012 54 10000 4.12 60 15:43 30.04.2021
4499 Clouds 13 1012 54 10000 3.09 110 15:23 30.04.2021
4500 Clouds 13 1013 54 10000 2.57 60 14:58 30.04.2021
4501 Clouds 13 1013 54 10000 2.57 60 14:39 30.04.2021
4502 Clouds 12 1013 58 10000 2.57 70 14:18 30.04.2021
4503 Clouds 13 1012 58 10000 3.09 60 13:39 30.04.2021
4504 Clouds 13 1012 62 10000 3.09 60 13:19 30.04.2021
4505 Clouds 12 1012 62 10000 2.06 10 12:38 30.04.2021
4506 Clouds 12 1012 66 10000 2.06 70 11:52 30.04.2021
4507 Clouds 12 1012 66 10000 1.54 0 11:23 30.04.2021
4508 Clouds 10 1012 71 10000 2.57 70 10:48 30.04.2021
4509 Clouds 10 1012 71 10000 1.54 60 10:30 30.04.2021
4510 Clouds 9 1012 81 10000 1.03 0 09:48 30.04.2021
4511 Clouds 8 1012 87 9000 0.51 0 09:21 30.04.2021
4512 Clouds 8 1011 87 6000 1.03 0 08:39 30.04.2021
4513 Fog 6 1011 100 3500 1.54 260 07:38 30.04.2021
4514 Fog 6 1011 93 3500 2.57 310 07:20 30.04.2021
4515 Fog 5 1010 100 700 1.54 290 06:45 30.04.2021
4516 Mist 5 1010 100 2200 2.57 300 06:22 30.04.2021
4517 Clouds 7 1008 93 10000 3.6 290 03:26 30.04.2021
4518 Clouds 7 1008 93 10000 3.09 340 01:53 30.04.2021
4519 Clouds 7 1007 87 10000 3.6 330 01:31 30.04.2021
4520 Clouds 8 1006 93 9000 2.06 350 23:32 29.04.2021
4521 Rain 8 1005 87 10000 3.6 250 22:48 29.04.2021
4522 Clouds 8 1005 87 10000 3.6 260 22:26 29.04.2021
4523 Clouds 8 1005 81 10000 4.63 260 21:58 29.04.2021
4524 Rain 8 1005 81 10000 4.63 260 21:39 29.04.2021
4525 Rain 9 1004 87 9000 4.12 300 21:20 29.04.2021
4526 Rain 9 1003 87 9000 4.63 310 20:45 29.04.2021
4527 Clouds 9 1003 93 10000 4.63 310 20:26 29.04.2021
4528 Clouds 10 1002 81 10000 4.63 310 19:57 29.04.2021
4529 Clouds 10 1002 81 10000 4.63 310 19:37 29.04.2021
4530 Clouds 10 1002 87 10000 3.6 310 19:19 29.04.2021
4531 Clouds 11 1002 82 10000 4.12 320 18:40 29.04.2021
4532 Rain 11 1001 76 10000 5.14 310 17:48 29.04.2021
4533 Clouds 12 1001 76 10000 3.6 320 17:26 29.04.2021
4534 Clouds 12 1001 76 10000 3.09 310 16:53 29.04.2021
4535 Clouds 12 1001 76 10000 2.06 280 16:27 29.04.2021
4536 Clouds 11 1002 87 10000 2.06 90 15:57 29.04.2021
4537 Clouds 10 1002 87 10000 2.57 30 15:28 29.04.2021
4538 Rain 11 1001 82 10000 4.12 70 14:53 29.04.2021
4539 Clouds 10 1001 93 10000 4.63 100 14:28 29.04.2021
4540 Rain 10 1001 93 10000 4.12 100 13:56 29.04.2021
4541 Clouds 10 1001 93 10000 4.12 100 13:35 29.04.2021
4542 Rain 9 1002 100 4500 2.06 110 12:52 29.04.2021
4543 Rain 9 1002 100 4500 3.09 150 12:31 29.04.2021
4544 Rain 9 1002 93 4500 3.09 140 11:57 29.04.2021
4545 Rain 9 1002 93 4500 3.09 140 11:37 29.04.2021
4546 Rain 10 1002 87 9000 3.6 120 11:18 29.04.2021
4547 Rain 10 1001 87 9000 4.63 120 10:40 29.04.2021
4548 Rain 10 1001 87 10000 5.14 110 09:59 29.04.2021
4549 Rain 10 1001 87 10000 5.14 110 09:37 29.04.2021
4550 Rain 11 1001 82 10000 4.12 110 09:18 29.04.2021
4551 Rain 10 1001 87 10000 3.6 110 08:35 29.04.2021
4552 Rain 10 1001 81 10000 4.63 140 07:56 29.04.2021
4553 Clear 9 1001 76 10000 4.12 120 07:29 29.04.2021
4554 Clouds 9 1001 76 10000 3.09 90 06:36 29.04.2021
4555 Rain 9 1001 76 10000 3.6 70 05:21 29.04.2021
4556 Rain 12 1003 47 10000 4.63 360 00:27 29.04.2021
4557 Clouds 12 1004 50 10000 2.57 120 23:22 28.04.2021
4558 Rain 13 1004 41 10000 5.66 340 22:53 28.04.2021
4559 Rain 13 1003 41 10000 5.66 350 22:26 28.04.2021
4560 Rain 14 1003 41 10000 4.63 40 21:51 28.04.2021
4561 Rain 14 1003 33 10000 3.6 360 21:24 28.04.2021
4562 Rain 15 1003 29 10000 3.6 20 20:58 28.04.2021
4563 Rain 16 1003 29 10000 3.6 20 20:38 28.04.2021
4564 Rain 15 1003 31 10000 3.09 30 20:20 28.04.2021
4565 Rain 16 1003 36 10000 1.03 0 19:37 28.04.2021
4566 Rain 17 1003 27 10000 1.54 80 19:18 28.04.2021
4567 Clear 17 1003 31 10000 0.51 0 18:40 28.04.2021
4568 Clear 17 1004 29 10000 1.03 0 18:21 28.04.2021
4569 Clear 17 1004 29 10000 1.54 0 17:46 28.04.2021
4570 Clear 18 1004 27 10000 1.03 0 17:24 28.04.2021
4571 Clear 17 1005 29 10000 2.57 120 16:22 28.04.2021
4572 Clear 17 1005 31 10000 2.57 90 15:49 28.04.2021
4573 Clear 17 1005 33 10000 3.09 90 15:31 28.04.2021
4574 Clear 17 1005 33 10000 4.12 120 14:44 28.04.2021
4575 Clear 17 1006 36 10000 3.09 110 14:22 28.04.2021
4576 Clear 16 1006 33 10000 3.6 110 13:57 28.04.2021
4577 Clear 15 1006 35 10000 4.12 110 13:27 28.04.2021
4578 Clear 15 1006 35 10000 4.63 100 12:55 28.04.2021
4579 Clear 14 1007 35 10000 4.63 90 12:30 28.04.2021
4580 Clear 13 1007 40 10000 3.6 80 11:49 28.04.2021
4581 Clear 12 1007 43 10000 4.63 80 11:26 28.04.2021
4582 Clear 11 1007 43 10000 4.63 80 10:43 28.04.2021
4583 Clear 10 1008 46 10000 4.12 80 10:21 28.04.2021
4584 Clear 9 1008 46 10000 4.12 80 09:57 28.04.2021
4585 Clear 9 1008 46 10000 4.12 80 09:34 28.04.2021
4586 Clear 7 1008 52 10000 4.63 80 08:55 28.04.2021
4587 Clear 4 1008 60 10000 3.6 70 07:54 28.04.2021
4588 Clear 3 1008 65 10000 3.6 60 07:28 28.04.2021
4589 Clear 3 1008 65 10000 3.6 60 05:38 28.04.2021
4590 Clear 3 1009 56 10000 4.12 60 03:47 28.04.2021
4591 Clear 4 1010 48 10000 4.12 60 02:34 28.04.2021
4592 Clear 5 1010 49 10000 4.12 70 00:49 28.04.2021
4593 Clear 6 1010 45 10000 4.12 80 23:52 27.04.2021
4594 Clear 6 1010 45 10000 4.12 80 23:34 27.04.2021
4595 Clear 7 1010 45 10000 3.6 80 22:50 27.04.2021
4596 Clear 7 1010 45 10000 4.12 80 22:30 27.04.2021
4597 Clear 8 1010 42 10000 3.09 80 21:49 27.04.2021
4598 Clear 9 1010 37 10000 2.06 90 21:29 27.04.2021
4599 Clear 11 1010 32 10000 3.09 120 20:58 27.04.2021
4600 Clear 11 1010 32 10000 3.09 120 20:39 27.04.2021
4601 Clear 12 1010 30 10000 4.63 140 19:51 27.04.2021
4602 Clear 13 1010 28 10000 4.12 130 19:26 27.04.2021
4603 Clear 13 1010 28 10000 4.63 110 18:59 27.04.2021
4604 Clear 13 1010 28 10000 4.63 110 18:41 27.04.2021
4605 Clear 14 1011 28 10000 5.66 140 18:21 27.04.2021
4606 Clear 13 1011 28 10000 4.12 120 17:31 27.04.2021
4607 Clear 14 1012 28 10000 5.14 100 16:54 27.04.2021
4608 Clear 14 1012 33 10000 4.63 120 16:31 27.04.2021
4609 Clear 13 1012 32 10000 5.14 120 15:57 27.04.2021
4610 Clear 13 1012 32 10000 5.14 120 15:37 27.04.2021
4611 Clear 13 1013 30 10000 5.66 120 15:19 27.04.2021
4612 Clear 13 1013 35 10000 5.66 110 14:41 27.04.2021
4613 Clear 12 1013 35 10000 5.14 110 14:21 27.04.2021
4614 Clear 12 1014 35 10000 5.14 100 13:49 27.04.2021
4615 Clear 12 1014 35 10000 5.66 120 13:25 27.04.2021
4616 Clear 11 1014 34 10000 6.17 110 12:34 27.04.2021
4617 Clear 10 1015 37 10000 6.17 130 11:57 27.04.2021
4618 Clear 10 1015 40 10000 5.66 120 11:28 27.04.2021
4619 Clouds 10 1015 43 10000 4.12 140 10:49 27.04.2021
4620 Clear 9 1015 49 10000 4.63 110 10:23 27.04.2021
4621 Clear 8 1016 53 10000 4.12 120 09:47 27.04.2021
4622 Clear 6 1016 56 10000 3.09 100 08:55 27.04.2021
4623 Clear 4 1016 60 10000 3.6 120 08:28 27.04.2021
4624 Clear 4 1016 56 10000 4.12 100 07:48 27.04.2021
4625 Clear 1 1015 64 10000 3.09 80 06:58 27.04.2021
4626 Clear 1 1015 64 10000 3.09 80 06:29 27.04.2021
4627 Clear 1 1016 69 10000 3.09 80 05:32 27.04.2021
4628 Clear 3 1017 48 10000 4.12 100 01:57 27.04.2021
4629 Clear 4 1017 65 10000 3.09 60 00:28 27.04.2021
4630 Clear 4 1017 60 10000 2.57 50 23:46 26.04.2021
4631 Clear 4 1017 60 10000 2.57 40 23:20 26.04.2021
4632 Clear 5 1017 56 10000 4.63 30 22:50 26.04.2021
4633 Clear 6 1017 53 10000 4.63 20 22:23 26.04.2021
4634 Clear 7 1017 46 10000 4.12 20 21:42 26.04.2021
4635 Clear 8 1017 46 10000 4.63 20 21:23 26.04.2021
4636 Clear 9 1017 46 10000 5.14 20 20:46 26.04.2021
4637 Clear 9 1017 43 10000 4.63 10 20:28 26.04.2021
4638 Clear 10 1017 43 10000 4.63 20 19:47 26.04.2021
4639 Clear 10 1017 43 10000 4.63 30 19:26 26.04.2021
4640 Clear 11 1017 43 10000 4.63 360 18:46 26.04.2021
4641 Clear 12 1018 40 10000 4.12 350 18:28 26.04.2021
4642 Clear 11 1018 40 10000 4.63 20 17:50 26.04.2021
4643 Clear 12 1018 35 10000 3.6 340 17:30 26.04.2021
4644 Clear 12 1018 35 10000 2.06 0 16:48 26.04.2021
4645 Clear 12 1019 35 10000 1.54 0 16:26 26.04.2021
4646 Clear 12 1019 35 10000 2.06 330 15:57 26.04.2021
4647 Clear 12 1019 35 10000 2.06 330 15:37 26.04.2021
4648 Clear 12 1019 32 10000 1.54 0 15:19 26.04.2021
4649 Clear 12 1020 35 10000 1.54 0 14:35 26.04.2021
4650 Clear 13 1021 37 10000 1.54 0 13:56 26.04.2021
4651 Clear 12 1021 37 10000 1.54 0 13:37 26.04.2021
4652 Clear 11 1021 37 10000 1.54 0 13:19 26.04.2021
4653 Clouds 10 1022 43 10000 1.54 0 11:57 26.04.2021
4654 Clouds 10 1022 43 10000 1.54 0 11:39 26.04.2021
4655 Clouds 10 1022 46 10000 2.06 0 10:53 26.04.2021
4656 Clouds 10 1022 46 10000 2.06 0 10:33 26.04.2021
4657 Clear 8 1022 49 10000 2.57 30 09:59 26.04.2021
4658 Clear 8 1022 49 10000 2.57 30 09:40 26.04.2021
4659 Clear 7 1023 57 10000 2.57 20 09:21 26.04.2021
4660 Clear 3 1023 81 10000 1.06 357 08:22 26.04.2021
4661 Clear 1 1023 93 10000 0.51 0 07:57 26.04.2021
4662 Clear 1 1023 93 10000 0.51 0 07:38 26.04.2021
4663 Clear 0 1023 86 10000 1.54 270 06:45 26.04.2021
4664 Clear 0 1023 86 10000 2.06 290 05:58 26.04.2021
4665 Clear 0 1024 86 10000 2.06 280 04:40 26.04.2021
4666 Clear 0 1024 86 10000 1.54 280 03:25 26.04.2021
4667 Clear 1 1025 75 10000 0.51 0 01:44 26.04.2021
4668 Clear 3 1025 60 10000 2.06 40 00:47 26.04.2021
4669 Clear 4 1025 52 10000 3.6 30 23:49 25.04.2021
4670 Clear 5 1025 52 10000 4.12 20 23:29 25.04.2021
4671 Clear 6 1025 49 10000 4.63 20 22:59 25.04.2021
4672 Clear 6 1025 49 10000 4.63 20 22:40 25.04.2021
4673 Clear 6 1025 53 10000 4.12 30 22:19 25.04.2021
4674 Clear 6 1025 53 10000 5.66 30 21:42 25.04.2021
4675 Clear 8 1025 49 10000 5.66 20 21:24 25.04.2021
4676 Clear 9 1025 43 10000 6.17 340 20:48 25.04.2021
4677 Clear 9 1025 49 10000 5.14 300 20:27 25.04.2021
4678 Clear 10 1025 43 10000 5.66 320 19:49 25.04.2021
4679 Clear 11 1025 30 10000 2.57 20 19:28 25.04.2021
4680 Clear 11 1025 32 10000 2.57 40 18:58 25.04.2021
4681 Clear 11 1025 32 10000 2.57 40 18:39 25.04.2021
4682 Clear 11 1025 30 10000 4.12 20 18:21 25.04.2021
4683 Clear 11 1025 32 10000 4.12 20 17:41 25.04.2021
4684 Clear 12 1025 32 10000 4.63 10 17:21 25.04.2021
4685 Clear 12 1026 32 10000 4.12 10 16:43 25.04.2021
4686 Clear 12 1026 35 10000 3.09 0 16:24 25.04.2021
4687 Clear 12 1026 32 10000 5.14 10 15:39 25.04.2021
4688 Clear 12 1026 37 10000 4.12 360 15:18 25.04.2021
4689 Clear 11 1026 37 10000 4.63 40 14:22 25.04.2021
4690 Clear 11 1026 37 10000 4.63 40 14:22 25.04.2021
4691 Clear 11 1026 40 10000 3.6 10 13:52 25.04.2021
4692 Clear 11 1026 43 10000 3.6 0 13:23 25.04.2021
4693 Clouds 10 1027 43 10000 4.12 350 12:51 25.04.2021
4694 Clouds 10 1027 43 10000 4.12 350 12:33 25.04.2021
4695 Clouds 10 1026 49 10000 4.63 40 11:59 25.04.2021
4696 Clouds 10 1026 49 10000 4.63 40 11:32 25.04.2021
4697 Clouds 9 1026 49 10000 5.14 40 10:52 25.04.2021
4698 Clouds 9 1026 49 10000 5.14 40 10:52 25.04.2021
4699 Clouds 8 1026 53 10000 5.66 350 10:22 25.04.2021
4700 Clouds 8 1026 57 10000 6.17 20 09:48 25.04.2021
4701 Clouds 7 1026 57 10000 5.14 320 09:26 25.04.2021
4702 Clouds 7 1026 57 10000 5.14 320 09:26 25.04.2021
4703 Clouds 6 1026 61 10000 5.14 330 08:30 25.04.2021
4704 Clouds 6 1026 61 10000 4.63 340 07:48 25.04.2021
4705 Clouds 6 1026 61 10000 4.63 340 07:48 25.04.2021
4706 Clouds 4 1025 65 10000 5.66 320 07:21 25.04.2021
4707 Clouds 4 1025 65 10000 4.63 320 06:51 25.04.2021
4708 Clouds 4 1026 65 10000 3.09 340 05:29 25.04.2021
4709 Clouds 4 1026 65 10000 4.12 350 04:42 25.04.2021
4710 Clouds 3 1026 81 10000 2.06 290 01:47 25.04.2021
4711 Clouds 4 1026 70 10000 3.09 330 01:25 25.04.2021
4712 Clouds 4 1026 70 10000 4.12 340 00:27 25.04.2021
4713 Clouds 4 1026 70 10000 3.6 330 23:49 24.04.2021
4714 Clouds 4 1026 70 10000 3.6 340 23:26 24.04.2021
4715 Clear 5 1026 65 10000 5.14 340 22:46 24.04.2021
4716 Clear 5 1026 70 10000 6.69 330 21:58 24.04.2021
4717 Clear 5 1026 65 10000 5.66 330 21:29 24.04.2021
4718 Clear 7 1026 61 10000 6.17 330 20:58 24.04.2021
4719 Clear 7 1026 61 10000 6.17 330 20:36 24.04.2021
4720 Clear 8 1026 53 10000 6.17 330 20:18 24.04.2021
4721 Clear 9 1026 49 10000 7.72 320 19:39 24.04.2021
4722 Clear 9 1026 49 10000 6.69 310 19:19 24.04.2021
4723 Clear 10 1026 46 10000 6.69 330 18:41 24.04.2021
4724 Clear 11 1026 43 10000 6.69 310 18:20 24.04.2021
4725 Clear 12 1026 40 10000 6.69 320 17:31 24.04.2021
4726 Clear 12 1026 40 10000 5.66 310 16:57 24.04.2021
4727 Clear 11 1026 40 10000 5.66 310 16:37 24.04.2021
4728 Clear 12 1026 40 10000 5.14 310 15:56 24.04.2021
4729 Clear 12 1026 43 10000 6.69 350 15:30 24.04.2021
4730 Clear 12 1027 40 10000 4.12 340 14:37 24.04.2021
4731 Clear 12 1027 43 10000 5.14 330 13:56 24.04.2021
4732 Clear 12 1027 43 10000 5.14 330 13:37 24.04.2021
4733 Clouds 11 1027 46 10000 4.63 340 12:47 24.04.2021
4734 Clouds 10 1027 53 10000 4.63 310 12:18 24.04.2021
4735 Clouds 10 1027 57 10000 5.14 310 11:48 24.04.2021
4736 Clouds 9 1027 61 10000 4.63 330 11:20 24.04.2021
4737 Clouds 10 1027 61 10000 5.14 310 10:44 24.04.2021
4738 Clouds 9 1027 71 10000 5.66 300 10:19 24.04.2021
4739 Clouds 8 1027 76 10000 4.63 300 09:42 24.04.2021
4740 Clouds 5 1027 87 10000 3.6 300 08:26 24.04.2021
4741 Clouds 4 1027 93 10000 1.54 260 07:28 24.04.2021
4742 Clouds 4 1027 87 10000 2.06 300 05:39 24.04.2021
4743 Clouds 3 1027 87 10000 3.09 290 01:34 24.04.2021
4744 Clear 3 1028 87 10000 3.09 300 00:27 24.04.2021
4745 Clear 5 1028 70 10000 4.12 330 22:53 23.04.2021
4746 Clear 6 1028 65 10000 5.14 340 22:22 23.04.2021
4747 Clear 6 1028 61 10000 5.14 350 21:49 23.04.2021
4748 Clear 7 1028 61 10000 6.17 350 21:28 23.04.2021
4749 Clear 8 1027 46 10000 6.69 350 20:46 23.04.2021
4750 Clear 9 1027 43 10000 5.66 330 20:26 23.04.2021
4751 Clouds 9 1027 46 10000 5.66 350 19:58 23.04.2021
4752 Clouds 9 1027 46 10000 5.66 350 19:39 23.04.2021
4753 Clouds 10 1027 53 10000 5.66 350 19:21 23.04.2021
4754 Clouds 11 1027 50 10000 5.66 340 18:38 23.04.2021
4755 Clouds 12 1027 50 10000 5.66 330 18:18 23.04.2021
4756 Clear 12 1028 47 10000 5.14 340 17:41 23.04.2021
4757 Clear 12 1028 43 10000 5.66 320 17:21 23.04.2021
4758 Clouds 12 1028 40 10000 6.17 310 16:46 23.04.2021
4759 Clouds 12 1028 43 10000 6.69 320 16:26 23.04.2021
4760 Clouds 13 1028 47 10000 7.2 290 15:42 23.04.2021
4761 Clouds 13 1028 50 10000 6.69 300 14:51 23.04.2021
4762 Clouds 12 1028 50 10000 6.69 320 13:43 23.04.2021
4763 Clouds 11 1028 57 10000 6.69 300 13:25 23.04.2021
4764 Clouds 11 1028 53 10000 5.66 320 12:36 23.04.2021
4765 Clouds 11 1028 57 10000 6.69 310 11:58 23.04.2021
4766 Clouds 10 1028 57 10000 6.69 310 11:39 23.04.2021
4767 Clouds 10 1028 61 10000 6.69 310 11:18 23.04.2021
4768 Clouds 9 1028 61 10000 6.17 320 10:38 23.04.2021
4769 Clouds 8 1027 70 10000 6.17 300 10:19 23.04.2021
4770 Clouds 8 1027 70 10000 6.17 300 09:28 23.04.2021
4771 Clouds 7 1027 75 10000 5.14 280 08:45 23.04.2021
4772 Clouds 5 1027 81 10000 5.66 280 07:51 23.04.2021
4773 Clouds 5 1026 81 10000 4.63 280 07:29 23.04.2021
4774 Clouds 4 1026 87 10000 5.14 280 06:27 23.04.2021
4775 Clouds 5 1026 81 10000 4.63 290 04:23 23.04.2021
4776 Clouds 5 1025 81 10000 4.63 290 02:51 23.04.2021
4777 Clouds 5 1025 75 10000 5.14 300 00:35 23.04.2021
4778 Clouds 5 1026 75 10000 3.6 300 23:26 22.04.2021
4779 Clouds 5 1026 75 10000 4.12 300 22:42 22.04.2021
4780 Clouds 5 1025 75 10000 4.12 300 22:20 22.04.2021
4781 Clouds 6 1025 70 10000 5.66 300 21:46 22.04.2021
4782 Clouds 6 1025 65 10000 6.69 310 21:28 22.04.2021
4783 Clouds 7 1025 65 10000 6.69 310 20:55 22.04.2021
4784 Clouds 8 1025 57 10000 7.2 310 20:30 22.04.2021
4785 Clouds 9 1025 53 10000 8.75 310 19:55 22.04.2021
4786 Clouds 9 1025 53 10000 8.75 310 19:35 22.04.2021
4787 Clouds 9 1024 53 10000 8.23 310 18:53 22.04.2021
4788 Clouds 10 1024 50 10000 9.26 310 18:22 22.04.2021
4789 Clouds 11 1024 50 10000 8.23 320 17:56 22.04.2021
4790 Clouds 11 1024 46 10000 9.26 320 17:22 22.04.2021
4791 Clouds 11 1024 53 10000 8.75 310 16:56 22.04.2021
4792 Clouds 11 1024 53 10000 8.75 310 16:37 22.04.2021
4793 Clouds 11 1024 53 10000 8.75 310 16:18 22.04.2021
4794 Clouds 10 1024 57 10000 9.26 310 15:40 22.04.2021
4795 Clouds 10 1024 53 10000 7.72 320 15:19 22.04.2021
4796 Clouds 11 1024 53 10000 9.26 300 14:41 22.04.2021
4797 Clouds 10 1024 53 10000 7.72 320 14:20 22.04.2021
4798 Clouds 10 1023 53 10000 9.26 330 13:40 22.04.2021
4799 Clouds 10 1023 53 10000 9.26 330 13:20 22.04.2021
4800 Clouds 10 1023 53 10000 8.75 330 12:45 22.04.2021
4801 Clouds 10 1023 53 10000 8.23 310 12:22 22.04.2021
4802 Clouds 10 1023 53 10000 8.23 310 11:47 22.04.2021
4803 Clouds 9 1023 57 10000 8.75 320 11:23 22.04.2021
4804 Clouds 9 1023 57 10000 9.26 310 10:46 22.04.2021
4805 Clouds 8 1023 61 10000 8.23 310 10:24 22.04.2021
4806 Clouds 7 1022 65 10000 7.2 290 09:49 22.04.2021
4807 Clouds 7 1022 65 10000 7.2 300 09:30 22.04.2021
4808 Clouds 6 1022 65 10000 6.17 290 08:41 22.04.2021
4809 Clouds 6 1021 65 10000 6.69 290 08:22 22.04.2021
4810 Clouds 6 1021 70 10000 4.63 280 07:46 22.04.2021
4811 Clouds 5 1021 70 10000 4.12 300 07:24 22.04.2021
4812 Clouds 5 1021 70 10000 5.66 300 06:32 22.04.2021
4813 Clouds 5 1021 65 10000 5.14 290 05:27 22.04.2021
4814 Clouds 5 1021 65 10000 4.63 290 04:56 22.04.2021
4815 Clouds 4 1020 70 10000 3.09 280 01:39 22.04.2021
4816 Clouds 4 1020 65 10000 4.63 300 23:54 21.04.2021
4817 Clouds 4 1020 65 10000 4.63 300 23:34 21.04.2021
4818 Clouds 4 1020 56 10000 5.66 310 22:44 21.04.2021
4819 Clear 6 1020 56 10000 6.69 320 22:24 21.04.2021
4820 Clouds 6 1020 61 10000 5.66 330 21:50 21.04.2021
4821 Clouds 6 1019 57 10000 7.2 320 21:25 21.04.2021
4822 Clouds 6 1019 53 10000 7.2 320 20:59 21.04.2021
4823 Clouds 7 1019 49 10000 8.75 330 20:23 21.04.2021
4824 Clouds 7 1019 61 10000 8.23 340 19:45 21.04.2021
4825 Clouds 8 1018 53 10000 7.72 330 19:26 21.04.2021
4826 Clouds 9 1018 49 10000 8.75 330 18:50 21.04.2021
4827 Clouds 10 1018 50 10000 8.23 330 18:31 21.04.2021
4828 Clouds 10 1018 50 10000 8.23 330 18:31 21.04.2021
4829 Clouds 10 1018 50 10000 7.72 330 17:57 21.04.2021
4830 Clouds 10 1018 50 10000 7.72 330 17:39 21.04.2021
4831 Clouds 11 1018 43 10000 8.23 330 17:19 21.04.2021
4832 Clouds 11 1017 50 10000 7.2 310 16:32 21.04.2021
4833 Clouds 12 1017 50 10000 7.72 340 15:43 21.04.2021
4834 Clouds 11 1017 62 10000 7.2 330 15:20 21.04.2021
4835 Clouds 12 1017 58 10000 5.66 330 14:44 21.04.2021
4836 Clouds 11 1017 57 10000 7.2 330 14:23 21.04.2021
4837 Clouds 11 1017 62 10000 7.2 320 13:48 21.04.2021
4838 Clouds 10 1017 71 10000 6.69 320 13:21 21.04.2021
4839 Clouds 12 1017 71 10000 7.2 330 12:40 21.04.2021
4840 Clouds 13 1017 62 10000 5.14 340 11:59 21.04.2021
4841 Clouds 13 1017 62 10000 5.14 340 11:41 21.04.2021
4842 Clouds 13 1017 62 10000 5.14 340 11:41 21.04.2021
4843 Clouds 12 1016 71 10000 6.69 340 11:22 21.04.2021
4844 Clouds 12 1016 62 10000 3.6 290 10:39 21.04.2021
4845 Clear 11 1016 62 10000 4.12 310 09:56 21.04.2021
4846 Clear 9 1016 66 10000 2.57 290 09:21 21.04.2021
4847 Clear 8 1016 76 10000 3.6 300 08:44 21.04.2021
4848 Clear 6 1016 87 10000 1.54 240 08:23 21.04.2021
4849 Clear 5 1016 87 10000 1.54 240 07:52 21.04.2021
4850 Clear 3 1015 87 10000 1.54 240 07:28 21.04.2021
4851 Clear 3 1015 93 10000 1.54 230 05:57 21.04.2021
4852 Clear 5 1016 75 10000 2.57 280 02:28 21.04.2021
4853 Clear 8 1016 46 10000 4.12 20 00:20 21.04.2021
4854 Clear 9 1016 46 10000 4.12 10 23:39 20.04.2021
4855 Clear 10 1016 50 10000 5.66 10 22:49 20.04.2021
4856 Clear 11 1016 50 10000 4.12 360 22:24 20.04.2021
4857 Clear 12 1016 44 10000 4.63 360 21:57 20.04.2021
4858 Clear 13 1016 44 10000 4.63 360 21:39 20.04.2021
4859 Clear 12 1016 35 10000 4.12 20 21:21 20.04.2021
4860 Clear 14 1015 35 10000 4.63 20 20:38 20.04.2021
4861 Clear 15 1015 33 10000 5.14 30 20:20 20.04.2021
4862 Clear 16 1015 31 10000 4.63 20 19:47 20.04.2021
4863 Clear 16 1015 31 10000 3.6 360 19:28 20.04.2021
4864 Clear 17 1015 29 10000 3.09 350 18:46 20.04.2021
4865 Clear 17 1015 29 10000 4.12 340 18:28 20.04.2021
4866 Clear 18 1015 32 10000 2.57 360 17:41 20.04.2021
4867 Clear 18 1016 31 10000 3.09 350 16:53 20.04.2021
4868 Clear 18 1016 31 10000 3.09 350 16:34 20.04.2021
4869 Clear 18 1016 31 10000 3.6 330 15:40 20.04.2021
4870 Clear 18 1016 31 10000 3.09 0 15:19 20.04.2021
4871 Clear 18 1016 36 10000 2.06 0 14:45 20.04.2021
4872 Clear 17 1017 36 10000 2.57 0 14:22 20.04.2021
4873 Clear 16 1017 38 10000 3.09 20 13:29 20.04.2021
4874 Clear 16 1017 41 10000 2.57 0 12:55 20.04.2021
4875 Clear 15 1018 44 10000 2.06 20 12:27 20.04.2021
4876 Clear 15 1018 44 10000 2.57 30 11:47 20.04.2021
4877 Clear 15 1018 44 10000 2.57 30 11:47 20.04.2021
4878 Clear 13 1018 50 10000 3.09 30 11:28 20.04.2021
4879 Clear 12 1018 54 10000 2.06 40 10:48 20.04.2021
4880 Clear 11 1018 54 10000 2.06 70 10:26 20.04.2021
4881 Clear 10 1018 62 10000 2.06 80 09:50 20.04.2021
4882 Clear 8 1018 71 10000 2.57 50 09:18 20.04.2021
4883 Clear 7 1018 76 10000 2.06 50 08:42 20.04.2021
4884 Clear 5 1018 75 10000 1.54 50 07:59 20.04.2021
4885 Clear 4 1018 75 10000 1.54 50 07:32 20.04.2021
4886 Clear 5 1018 75 10000 2.06 20 05:42 20.04.2021
4887 Clear 5 1018 75 10000 2.57 20 04:57 20.04.2021
4888 Clear 6 1018 81 10000 1.54 40 04:24 20.04.2021
4889 Clear 8 1019 81 10000 2.06 30 00:51 20.04.2021
4890 Clear 8 1019 76 10000 3.09 50 00:20 20.04.2021
4891 Clear 10 1019 71 10000 4.63 20 23:31 19.04.2021
4892 Clear 10 1019 76 10000 2.06 320 22:45 19.04.2021
4893 Clear 10 1020 81 10000 1.54 300 22:26 19.04.2021
4894 Clear 10 1020 76 10000 1.54 270 21:43 19.04.2021
4895 Clouds 12 1020 71 10000 2.06 240 21:20 19.04.2021
4896 Clouds 12 1019 76 10000 2.06 240 20:41 19.04.2021
4897 Clouds 12 1020 71 10000 2.06 240 20:20 19.04.2021
4898 Clouds 13 1020 71 10000 2.06 240 19:50 19.04.2021
4899 Clouds 15 1020 58 10000 1.54 230 19:27 19.04.2021
4900 Clouds 15 1020 58 10000 1.54 210 18:59 19.04.2021
4901 Clouds 15 1020 58 10000 1.54 210 18:39 19.04.2021
4902 Clouds 15 1020 58 10000 1.54 0 18:19 19.04.2021
4903 Clouds 15 1020 58 10000 1.54 0 17:43 19.04.2021
4904 Clouds 16 1020 58 10000 1.54 0 17:23 19.04.2021
4905 Clouds 16 1020 58 10000 2.57 170 16:43 19.04.2021
4906 Clouds 16 1020 55 10000 2.57 0 16:24 19.04.2021
4907 Clouds 15 1021 58 10000 2.57 0 15:42 19.04.2021
4908 Clouds 15 1021 58 10000 1.54 0 15:23 19.04.2021
4909 Clouds 14 1021 67 10000 2.57 130 14:51 19.04.2021
4910 Clouds 14 1021 62 10000 2.57 90 14:30 19.04.2021
4911 Clouds 13 1021 71 10000 2.57 100 13:50 19.04.2021
4912 Clouds 13 1022 71 10000 2.57 90 13:27 19.04.2021
4913 Clouds 12 1022 76 10000 2.06 100 12:48 19.04.2021
4914 Clouds 11 1022 76 10000 2.57 70 12:27 19.04.2021
4915 Clouds 11 1022 76 10000 2.57 100 11:58 19.04.2021
4916 Clouds 9 1022 81 10000 2.57 100 11:27 19.04.2021
4917 Clouds 9 1022 81 10000 2.57 90 10:55 19.04.2021
4918 Clouds 9 1022 81 10000 2.57 90 10:36 19.04.2021
4919 Clouds 8 1022 87 10000 2.57 90 10:18 19.04.2021
4920 Clouds 8 1022 87 10000 2.57 90 10:18 19.04.2021
4921 Clouds 8 1022 87 10000 2.57 80 09:38 19.04.2021
4922 Clouds 8 1022 87 10000 4.12 70 09:20 19.04.2021
4923 Clouds 8 1021 87 9000 3.09 90 08:32 19.04.2021
4924 Clouds 7 1021 93 6000 3.09 100 07:49 19.04.2021
4925 Mist 7 1021 93 5000 4.12 80 07:21 19.04.2021
4926 Mist 7 1021 93 3500 4.12 80 06:44 19.04.2021
4927 Clear 8 1021 81 10000 2.06 40 02:41 19.04.2021
4928 Clouds 9 1021 81 10000 3.09 60 01:40 19.04.2021
4929 Clouds 10 1021 81 10000 3.09 70 00:33 19.04.2021
4930 Rain 10 1021 76 10000 5.14 70 23:19 18.04.2021
4931 Rain 11 1021 71 10000 3.6 60 22:53 18.04.2021
4932 Rain 11 1021 62 10000 4.12 70 22:31 18.04.2021
4933 Clouds 11 1021 62 10000 3.09 50 21:49 18.04.2021
4934 Clouds 12 1021 62 10000 2.06 80 21:27 18.04.2021
4935 Clouds 13 1021 58 10000 4.12 50 20:43 18.04.2021
4936 Clouds 13 1020 55 10000 4.12 50 20:24 18.04.2021
4937 Clouds 13 1020 55 10000 4.12 50 20:24 18.04.2021
4938 Clouds 15 1020 55 10000 3.6 40 19:56 18.04.2021
4939 Clouds 15 1020 55 10000 3.6 40 19:37 18.04.2021
4940 Clouds 15 1020 55 10000 4.12 40 19:18 18.04.2021
4941 Clouds 15 1020 55 10000 4.12 20 18:39 18.04.2021
4942 Clouds 16 1020 55 10000 4.12 30 18:21 18.04.2021
4943 Clouds 16 1020 51 10000 3.09 30 17:45 18.04.2021
4944 Clouds 16 1020 51 10000 1.54 70 17:26 18.04.2021
4945 Clouds 16 1020 55 10000 3.6 50 16:45 18.04.2021
4946 Clouds 17 1020 51 10000 4.63 60 16:24 18.04.2021
4947 Clouds 16 1020 51 10000 3.6 60 15:43 18.04.2021
4948 Clouds 17 1021 51 10000 3.09 30 15:25 18.04.2021
4949 Clear 16 1021 51 10000 4.63 30 14:46 18.04.2021
4950 Clear 16 1021 51 10000 4.12 20 14:21 18.04.2021
4951 Clear 15 1021 54 10000 4.12 10 13:55 18.04.2021
4952 Clear 15 1021 54 10000 4.12 10 13:33 18.04.2021
4953 Clear 14 1022 58 10000 2.57 20 12:50 18.04.2021
4954 Clear 13 1022 58 10000 2.57 10 12:26 18.04.2021
4955 Clear 13 1022 58 10000 2.06 20 11:42 18.04.2021
4956 Clear 12 1022 66 10000 2.06 30 11:21 18.04.2021
4957 Clear 11 1022 62 10000 2.06 50 10:47 18.04.2021
4958 Clear 10 1022 66 10000 2.57 60 10:22 18.04.2021
4959 Clear 9 1022 66 10000 3.09 50 09:53 18.04.2021
4960 Clear 9 1022 66 10000 3.09 50 09:34 18.04.2021
4961 Clear 8 1022 71 10000 3.09 30 08:57 18.04.2021
4962 Clear 8 1022 71 10000 3.09 30 08:35 18.04.2021
4963 Clouds 7 1022 76 10000 3.09 20 07:58 18.04.2021
4964 Clouds 6 1022 76 10000 3.09 20 07:37 18.04.2021
4965 Clouds 6 1022 75 10000 2.57 20 05:42 18.04.2021
4966 Clouds 7 1022 70 10000 4.12 20 05:24 18.04.2021
4967 Clear 6 1022 65 10000 2.06 350 02:39 18.04.2021
4968 Clear 6 1022 65 10000 2.06 350 02:39 18.04.2021
4969 Clear 6 1023 65 10000 2.06 360 02:20 18.04.2021
4970 Clear 7 1023 70 10000 2.57 30 00:37 18.04.2021
4971 Clear 7 1023 71 10000 3.09 20 23:38 17.04.2021
4972 Clear 7 1023 71 10000 2.57 330 22:51 17.04.2021
4973 Clear 7 1023 71 10000 2.57 320 22:31 17.04.2021
4974 Clear 8 1023 71 10000 3.09 310 21:50 17.04.2021
4975 Clear 8 1023 71 10000 3.09 310 21:50 17.04.2021
4976 Clear 8 1023 66 10000 4.12 320 21:30 17.04.2021
4977 Clear 10 1022 62 10000 5.14 310 20:51 17.04.2021
4978 Clear 11 1022 54 10000 3.6 320 20:28 17.04.2021
4979 Clear 12 1022 47 10000 3.6 360 19:46 17.04.2021
4980 Clouds 13 1022 47 10000 3.09 340 19:21 17.04.2021
4981 Clouds 13 1022 47 10000 3.6 350 18:56 17.04.2021
4982 Clouds 13 1022 47 10000 3.6 350 18:36 17.04.2021
4983 Clouds 13 1022 47 10000 3.6 350 18:36 17.04.2021
4984 Clouds 14 1022 44 10000 2.06 30 17:58 17.04.2021
4985 Clouds 14 1022 44 10000 2.06 30 17:39 17.04.2021
4986 Clouds 13 1023 47 10000 4.12 10 16:54 17.04.2021
4987 Clouds 13 1023 43 10000 4.12 30 16:28 17.04.2021
4988 Clear 13 1023 43 10000 4.12 10 15:50 17.04.2021
4989 Clear 13 1023 43 10000 5.14 350 14:50 17.04.2021
4990 Clear 13 1023 43 10000 5.14 350 14:50 17.04.2021
4991 Clouds 13 1023 46 10000 5.14 350 14:31 17.04.2021
4992 Clouds 13 1023 43 10000 5.14 350 13:48 17.04.2021
4993 Clear 12 1024 46 10000 5.14 350 13:25 17.04.2021
4994 Clear 12 1024 54 10000 5.14 340 12:42 17.04.2021
4995 Clear 11 1024 57 10000 5.14 340 12:18 17.04.2021
4996 Clear 10 1024 62 10000 5.14 330 11:41 17.04.2021
4997 Clear 9 1025 61 10000 5.14 320 11:22 17.04.2021
4998 Clouds 8 1025 76 10000 3.09 300 10:44 17.04.2021
4999 Clear 7 1025 75 10000 3.6 310 10:25 17.04.2021
5000 Clear 5 1025 87 10000 2.06 290 09:27 17.04.2021
5001 Clear 4 1025 93 10000 2.06 290 08:40 17.04.2021
5002 Clear 3 1025 93 10000 2.57 300 08:21 17.04.2021
5003 Clear 1 1025 100 10000 3.09 310 06:44 17.04.2021
5004 Clear 1 1026 93 10000 2.57 300 03:55 17.04.2021
5005 Clear 1 1026 93 10000 2.57 300 03:37 17.04.2021
5006 Clear 4 1027 65 10000 3.09 360 00:48 17.04.2021
5007 Clear 4 1027 65 10000 3.09 360 00:27 17.04.2021
5008 Clear 5 1027 65 10000 3.09 360 23:46 16.04.2021
5009 Clear 5 1027 61 10000 3.6 360 23:24 16.04.2021
5010 Clear 6 1027 53 10000 3.6 360 22:44 16.04.2021
5011 Clear 7 1027 46 10000 3.09 20 22:20 16.04.2021
5012 Clear 7 1027 46 10000 2.57 30 21:50 16.04.2021
5013 Clear 8 1027 43 10000 4.12 20 21:29 16.04.2021
5014 Clear 9 1027 43 10000 5.14 20 20:50 16.04.2021
5015 Clear 9 1026 40 10000 6.17 20 20:24 16.04.2021
5016 Clear 10 1026 40 10000 5.66 20 19:52 16.04.2021
5017 Clear 11 1026 37 10000 6.69 20 19:28 16.04.2021
5018 Clear 11 1026 37 10000 5.66 30 18:36 16.04.2021
5019 Clear 12 1026 35 10000 5.14 10 18:18 16.04.2021
5020 Clear 12 1026 37 10000 5.14 30 17:37 16.04.2021
5021 Clear 12 1026 35 10000 4.12 30 17:18 16.04.2021
5022 Clear 12 1026 32 10000 5.66 40 16:42 16.04.2021
5023 Clear 12 1026 35 10000 4.63 20 16:23 16.04.2021
5024 Clear 12 1027 32 10000 5.14 20 15:44 16.04.2021
5025 Clear 13 1027 35 10000 5.14 40 15:18 16.04.2021
5026 Clear 13 1027 37 10000 4.63 30 14:42 16.04.2021
5027 Clear 13 1027 35 10000 5.14 40 14:19 16.04.2021
5028 Clouds 12 1027 43 10000 5.14 20 13:45 16.04.2021
5029 Clouds 12 1027 50 10000 5.14 20 13:20 16.04.2021
5030 Clouds 11 1027 53 10000 6.69 60 12:47 16.04.2021
5031 Clouds 11 1028 53 10000 5.66 10 12:27 16.04.2021
5032 Clouds 11 1028 53 10000 4.63 40 11:52 16.04.2021
5033 Clear 10 1028 57 10000 5.14 30 11:26 16.04.2021
5034 Clear 10 1028 57 10000 4.12 10 10:53 16.04.2021
5035 Clear 8 1028 57 10000 3.6 350 10:34 16.04.2021
5036 Clear 9 1028 57 10000 4.12 10 10:34 16.04.2021
5037 Clear 8 1028 61 10000 3.09 10 09:53 16.04.2021
5038 Clear 7 1028 61 10000 2.06 20 09:24 16.04.2021
5039 Clear 6 1028 61 10000 3.6 360 08:55 16.04.2021
5040 Clear 5 1028 61 10000 3.6 360 08:36 16.04.2021
5041 Clear 5 1028 60 10000 1.54 320 08:18 16.04.2021
5042 Clear 3 1028 80 10000 2.57 310 07:35 16.04.2021
5043 Clear 3 1028 80 10000 2.57 310 07:35 16.04.2021
5044 Clear 1 1028 86 10000 2.06 310 06:58 16.04.2021
5045 Clear 1 1028 80 10000 2.06 310 05:34 16.04.2021
5046 Clear 2 1028 80 10000 2.06 300 04:21 16.04.2021
5047 Clear 4 1029 52 10000 2.57 10 00:58 16.04.2021
5048 Clear 4 1029 52 10000 2.57 10 00:40 16.04.2021
5049 Clear 4 1029 56 10000 2.57 10 00:19 16.04.2021
5050 Clear 4 1029 56 10000 3.09 10 23:41 15.04.2021
5051 Clear 4 1029 56 10000 4.12 10 23:22 15.04.2021
5052 Clear 4 1029 56 10000 4.12 10 23:22 15.04.2021
5053 Clear 5 1030 56 10000 3.09 10 22:40 15.04.2021
5054 Clear 5 1030 56 10000 3.09 360 22:21 15.04.2021
5055 Clear 5 1030 61 10000 3.6 10 21:42 15.04.2021
5056 Clear 6 1029 53 10000 3.6 360 21:20 15.04.2021
5057 Clear 7 1029 49 10000 5.14 350 20:44 15.04.2021
5058 Clear 7 1029 49 10000 5.14 350 20:44 15.04.2021
5059 Clear 8 1029 46 10000 5.14 360 20:23 15.04.2021
5060 Clear 8 1029 49 10000 4.63 360 19:44 15.04.2021
5061 Clear 9 1029 46 10000 5.66 20 19:26 15.04.2021
5062 Clear 9 1029 46 10000 5.66 20 18:43 15.04.2021
5063 Clear 9 1029 40 10000 5.66 30 18:21 15.04.2021
5064 Clear 10 1029 40 10000 6.69 20 17:55 15.04.2021
5065 Clear 10 1029 40 10000 6.69 20 17:55 15.04.2021
5066 Clear 10 1029 40 10000 6.69 20 17:36 15.04.2021
5067 Clear 10 1029 32 10000 4.63 10 16:59 15.04.2021
5068 Clear 11 1029 32 10000 4.63 10 16:40 15.04.2021
5069 Clear 11 1030 34 10000 5.14 10 16:22 15.04.2021
5070 Clear 10 1030 32 10000 4.63 10 15:45 15.04.2021
5071 Clear 10 1030 34 10000 4.63 360 15:26 15.04.2021
5072 Clear 10 1030 31 10000 4.63 40 14:41 15.04.2021
5073 Clear 10 1030 32 10000 4.12 360 14:23 15.04.2021
5074 Clear 10 1030 31 10000 2.06 30 13:46 15.04.2021
5075 Clear 10 1030 31 10000 2.06 30 13:46 15.04.2021
5076 Clear 10 1031 31 10000 3.09 360 13:19 15.04.2021
5077 Clear 10 1031 40 10000 4.12 50 12:46 15.04.2021
5078 Clouds 10 1031 43 10000 2.57 30 12:24 15.04.2021
5079 Clouds 9 1031 53 10000 3.09 20 11:47 15.04.2021
5080 Clouds 9 1031 53 10000 2.57 10 11:25 15.04.2021
5081 Clear 8 1031 57 10000 2.06 40 10:57 15.04.2021
5082 Clear 7 1031 65 10000 1.54 20 10:28 15.04.2021
5083 Clear 4 1031 81 10000 1.03 0 09:50 15.04.2021
5084 Clear 3 1031 87 10000 1.03 0 09:29 15.04.2021
5085 Clear 1 1031 93 10000 1.93 41 08:52 15.04.2021
5086 Clouds 0 1031 100 8000 1.03 250 08:24 15.04.2021
5087 Fog -2 1030 100 800 1.03 280 07:30 15.04.2021
5088 Fog -2 1030 93 800 0.51 310 06:56 15.04.2021
5089 Fog -2 1030 93 800 0.51 310 06:33 15.04.2021
5090 Fog -1 1030 93 10000 1.03 300 04:54 15.04.2021
5091 Clear 0 1029 93 10000 2.06 290 03:58 15.04.2021
5092 Clear 0 1030 93 10000 2.06 290 23:51 14.04.2021
5093 Clear 2 1029 86 10000 2.06 310 23:30 14.04.2021
5094 Clear 2 1029 80 10000 2.57 290 22:47 14.04.2021
5095 Clear 3 1029 75 10000 2.06 320 22:29 14.04.2021
5096 Clear 3 1029 70 10000 3.6 330 21:56 14.04.2021
5097 Clear 3 1029 70 10000 3.6 330 21:37 14.04.2021
5098 Clouds 4 1029 65 10000 4.63 350 21:18 14.04.2021
5099 Clouds 5 1029 65 10000 5.14 340 20:39 14.04.2021
5100 Clouds 6 1028 61 10000 6.17 340 20:20 14.04.2021
5101 Clouds 6 1028 57 10000 4.63 350 19:44 14.04.2021
5102 Clouds 7 1028 57 10000 5.66 330 19:19 14.04.2021
5103 Clouds 7 1028 53 10000 6.17 330 18:50 14.04.2021
5104 Clouds 8 1028 57 10000 6.17 320 18:19 14.04.2021
5105 Clouds 8 1028 49 10000 6.69 330 17:55 14.04.2021
5106 Clouds 8 1028 53 10000 7.2 330 17:24 14.04.2021
5107 Clouds 7 1029 61 10000 6.17 310 16:46 14.04.2021
5108 Clouds 7 1029 65 10000 8.23 330 16:22 14.04.2021
5109 Clouds 7 1029 57 10000 6.69 350 15:41 14.04.2021
5110 Clouds 8 1029 61 10000 7.72 330 15:22 14.04.2021
5111 Clouds 8 1029 61 10000 5.14 300 14:43 14.04.2021
5112 Clouds 8 1029 61 10000 5.14 300 14:43 14.04.2021
5113 Clouds 7 1029 65 10000 6.69 300 14:22 14.04.2021
5114 Clouds 7 1030 70 10000 5.66 300 13:49 14.04.2021
5115 Rain 7 1030 61 10000 2.06 60 12:58 14.04.2021
5116 Rain 6 1030 61 10000 2.06 60 12:35 14.04.2021
5117 Clouds 6 1030 70 10000 3.6 310 11:43 14.04.2021
5118 Clouds 6 1030 70 10000 3.6 310 11:24 14.04.2021
5119 Clouds 6 1030 75 10000 1.03 0 10:35 14.04.2021
5120 Clouds 5 1031 81 10000 2.57 350 09:59 14.04.2021
5121 Clouds 4 1031 81 10000 2.57 350 09:41 14.04.2021
5122 Clouds 3 1031 93 10000 1.54 280 09:19 14.04.2021
5123 Clouds 2 1030 93 10000 2.06 300 08:34 14.04.2021
5124 Clouds 0 1030 100 10000 1.03 270 07:58 14.04.2021
5125 Clouds 0 1030 93 10000 1.54 250 06:48 14.04.2021
5126 Clouds 0 1030 93 10000 1.54 270 06:23 14.04.2021
5127 Clouds 0 1030 93 10000 1.54 270 03:59 14.04.2021
5128 Clear 1 1030 93 10000 1.54 200 01:42 14.04.2021
5129 Clouds 2 1030 86 10000 0.51 0 00:34 14.04.2021
5130 Clouds 2 1030 87 10000 2.57 310 23:39 13.04.2021
5131 Clouds 3 1030 81 10000 4.12 310 23:21 13.04.2021
5132 Clouds 2 1030 81 10000 3.6 300 22:41 13.04.2021
5133 Clouds 3 1030 81 10000 3.6 290 22:19 13.04.2021
5134 Clouds 3 1030 81 10000 2.06 300 21:45 13.04.2021
5135 Clouds 4 1030 81 10000 3.6 300 21:27 13.04.2021
5136 Clouds 4 1030 81 10000 4.12 300 20:42 13.04.2021
5137 Clouds 5 1030 75 10000 5.66 310 20:21 13.04.2021
5138 Clouds 6 1030 70 10000 6.17 330 19:48 13.04.2021
5139 Clouds 6 1030 70 10000 8.23 310 19:24 13.04.2021
5140 Clouds 7 1029 70 10000 8.75 310 18:40 13.04.2021
5141 Clouds 8 1029 65 10000 6.17 310 17:56 13.04.2021
5142 Clouds 8 1029 65 10000 6.17 310 17:36 13.04.2021
5143 Clouds 8 1029 65 10000 6.69 320 17:18 13.04.2021
5144 Rain 8 1029 65 10000 6.17 340 16:43 13.04.2021
5145 Clouds 8 1029 61 10000 8.23 310 16:20 13.04.2021
5146 Clouds 8 1029 61 10000 6.69 300 15:44 13.04.2021
5147 Clouds 8 1029 61 10000 6.69 300 15:44 13.04.2021
5148 Clouds 8 1029 61 10000 6.69 300 15:44 13.04.2021
5149 Clouds 7 1030 81 10000 8.75 310 15:22 13.04.2021
5150 Rain 7 1029 65 10000 9.77 280 14:46 13.04.2021
5151 Clouds 8 1029 57 10000 7.72 290 14:19 13.04.2021
5152 Clouds 8 1030 61 10000 7.72 290 13:45 13.04.2021
5153 Clouds 8 1030 76 10000 6.17 320 13:24 13.04.2021
5154 Clouds 6 1030 87 10000 4.63 330 12:56 13.04.2021
5155 Clouds 6 1030 81 10000 13.38 300 12:28 13.04.2021
5156 Clouds 7 1030 65 10000 6.69 280 11:56 13.04.2021
5157 Clouds 7 1030 70 10000 5.66 290 11:30 13.04.2021
5158 Clouds 7 1030 70 10000 5.66 290 11:30 13.04.2021
5159 Clouds 6 1030 81 10000 5.66 290 10:53 13.04.2021
5160 Clouds 6 1029 81 10000 6.69 300 10:21 13.04.2021
5161 Clouds 5 1029 81 10000 6.69 260 09:59 13.04.2021
5162 Clouds 5 1029 81 10000 6.69 260 09:39 13.04.2021
5163 Clouds 4 1029 81 10000 5.66 270 09:18 13.04.2021
5164 Clouds 3 1029 87 10000 4.63 260 08:41 13.04.2021
5165 Clouds 3 1029 87 10000 4.63 260 08:41 13.04.2021
5166 Clouds 2 1029 93 10000 3.09 260 08:20 13.04.2021
5167 Clouds 1 1028 93 10000 3.6 260 07:36 13.04.2021
5168 Rain 1 1028 93 10000 5.14 260 06:31 13.04.2021
5169 Clouds 1 1027 93 10000 3.6 250 04:50 13.04.2021
5170 Clear 1 1027 86 10000 3.6 230 02:37 13.04.2021
5171 Clouds 1 1027 93 10000 3.6 230 00:33 13.04.2021
5172 Clouds 2 1027 86 10000 3.6 220 23:49 12.04.2021
5173 Clouds 2 1027 86 10000 2.57 220 23:26 12.04.2021
5174 Clouds 2 1027 86 10000 3.09 220 22:39 12.04.2021
5175 Clouds 2 1027 86 10000 3.09 210 22:18 12.04.2021
5176 Clouds 2 1027 86 10000 2.57 200 21:45 12.04.2021
5177 Clouds 3 1026 80 10000 2.57 240 21:20 12.04.2021
5178 Clouds 3 1026 81 10000 5.66 250 20:41 12.04.2021
5179 Clouds 4 1026 65 10000 7.2 270 20:22 12.04.2021
5180 Clouds 4 1026 65 10000 7.2 270 20:22 12.04.2021
5181 Clouds 5 1026 61 10000 6.17 260 19:55 12.04.2021
5182 Clouds 5 1026 61 10000 6.17 260 19:37 12.04.2021
5183 Clouds 6 1025 53 10000 6.17 280 19:18 12.04.2021
5184 Clouds 7 1025 70 10000 4.12 220 18:44 12.04.2021
5185 Clouds 6 1025 65 10000 4.63 230 18:25 12.04.2021
5186 Clouds 6 1025 70 10000 3.09 240 17:44 12.04.2021
5187 Clouds 6 1025 65 10000 10.29 280 17:23 12.04.2021
5188 Rain 7 1025 53 10000 6.69 240 16:47 12.04.2021
5189 Clouds 8 1025 53 10000 6.17 260 16:27 12.04.2021
5190 Clouds 8 1025 53 10000 8.23 270 15:49 12.04.2021
5191 Clouds 8 1024 53 10000 8.75 230 15:31 12.04.2021
5192 Clouds 8 1024 49 10000 6.69 280 14:53 12.04.2021
5193 Clouds 8 1024 49 10000 6.69 280 14:35 12.04.2021
5194 Clouds 9 1024 46 10000 7.72 250 13:49 12.04.2021
5195 Clouds 9 1024 53 10000 6.17 250 13:30 12.04.2021
5196 Clouds 8 1024 53 10000 6.69 250 12:56 12.04.2021
5197 Clouds 8 1024 53 10000 6.69 250 12:36 12.04.2021
5198 Clouds 8 1024 61 10000 6.17 260 12:18 12.04.2021
5199 Clouds 7 1024 70 10000 4.63 280 11:25 12.04.2021
5200 Clouds 6 1023 75 10000 5.14 270 10:49 12.04.2021
5201 Clouds 5 1023 81 10000 4.12 260 10:27 12.04.2021
5202 Clouds 4 1023 81 10000 3.6 250 09:51 12.04.2021
5203 Clouds 3 1023 87 10000 3.09 250 09:23 12.04.2021
5204 Clouds 1 1022 93 10000 2.06 230 08:40 12.04.2021
5205 Clouds 0 1022 93 10000 2.06 260 07:42 12.04.2021
5206 Clear 0 1021 93 10000 1.03 0 07:22 12.04.2021
5207 Clear 0 1021 93 10000 2.57 260 06:28 12.04.2021
5208 Clear 0 1021 93 10000 1.03 0 05:45 12.04.2021
5209 Clear 1 1019 86 10000 4.12 280 01:42 12.04.2021
5210 Clouds 3 1018 81 10000 5.14 290 00:26 12.04.2021
5211 Clouds 3 1017 81 10000 5.66 290 23:51 11.04.2021
5212 Clouds 3 1017 81 10000 5.66 290 23:31 11.04.2021
5213 Clouds 4 1017 75 10000 6.17 300 22:49 11.04.2021
5214 Clouds 4 1017 75 10000 5.14 300 22:27 11.04.2021
5215 Rain 4 1016 75 10000 5.14 300 21:58 11.04.2021
5216 Clouds 4 1016 75 10000 5.14 300 21:32 11.04.2021
5217 Clouds 4 1015 81 10000 5.14 310 20:59 11.04.2021
5218 Clouds 4 1015 81 10000 5.14 310 20:39 11.04.2021
5219 Clouds 4 1015 81 10000 4.63 300 20:20 11.04.2021
5220 Clouds 5 1014 75 10000 6.17 300 19:41 11.04.2021
5221 Clouds 5 1014 75 10000 7.2 300 19:19 11.04.2021
5222 Clouds 5 1013 75 10000 7.2 310 18:47 11.04.2021
5223 Clouds 6 1013 70 10000 6.69 310 18:27 11.04.2021
5224 Clouds 5 1013 70 10000 7.72 310 17:55 11.04.2021
5225 Clouds 5 1013 70 10000 7.72 310 17:37 11.04.2021
5226 Clouds 5 1013 75 10000 6.17 300 17:18 11.04.2021
5227 Clouds 5 1012 75 10000 7.2 300 16:40 11.04.2021
5228 Rain 5 1012 75 10000 7.2 290 16:20 11.04.2021
5229 Clouds 5 1011 75 10000 6.17 290 15:43 11.04.2021
5230 Clouds 5 1011 81 10000 6.69 290 15:22 11.04.2021
5231 Clouds 5 1010 81 10000 7.2 300 14:51 11.04.2021
5232 Clouds 5 1010 81 10000 6.69 290 14:21 11.04.2021
5233 Clouds 5 1009 87 10000 6.17 280 13:40 11.04.2021
5234 Clouds 5 1009 87 10000 6.69 270 13:22 11.04.2021
5235 Clouds 6 1008 81 10000 6.69 270 12:26 11.04.2021
5236 Clouds 5 1008 87 10000 7.2 260 11:57 11.04.2021
5237 Clouds 6 1008 87 10000 7.2 260 11:38 11.04.2021
5238 Clouds 5 1008 93 10000 7.2 250 11:19 11.04.2021
5239 Clouds 5 1007 93 10000 7.2 250 10:44 11.04.2021
5240 Clouds 6 1006 93 9000 6.69 250 10:22 11.04.2021
5241 Clouds 7 1006 87 10000 5.66 260 09:49 11.04.2021
5242 Drizzle 7 1005 93 6000 3.09 220 09:26 11.04.2021
5243 Rain 7 1005 100 4200 2.57 200 08:40 11.04.2021
5244 Rain 7 1005 93 4200 4.12 150 07:54 11.04.2021
5245 Rain 8 1005 93 4200 4.12 150 07:19 11.04.2021
5246 Rain 8 1005 93 6000 4.12 150 05:48 11.04.2021
5247 Rain 8 1005 93 7000 5.14 140 05:23 11.04.2021
5248 Clouds 7 1006 100 6000 4.12 130 04:51 11.04.2021
5249 Rain 7 1006 100 4500 5.14 130 04:33 11.04.2021
5250 Clouds 6 1009 93 4500 7.2 80 01:27 11.04.2021
5251 Clouds 6 1009 87 8000 7.2 80 00:32 11.04.2021
5252 Rain 6 1010 87 10000 7.2 70 23:46 10.04.2021
5253 Rain 5 1012 93 10000 6.17 80 22:57 10.04.2021
5254 Rain 5 1012 87 10000 6.69 70 22:30 10.04.2021
5255 Rain 6 1012 87 10000 6.69 70 21:54 10.04.2021
5256 Rain 6 1012 87 10000 6.69 70 21:32 10.04.2021
5257 Rain 6 1013 81 10000 4.63 80 20:58 10.04.2021
5258 Rain 6 1013 81 10000 4.63 80 20:40 10.04.2021
5259 Rain 7 1013 76 10000 4.12 70 20:21 10.04.2021
5260 Rain 7 1013 76 10000 4.63 70 19:43 10.04.2021
5261 Rain 7 1014 70 10000 4.63 70 19:25 10.04.2021
5262 Rain 7 1014 70 10000 4.63 80 18:44 10.04.2021
5263 Rain 8 1014 61 10000 5.14 80 18:25 10.04.2021
5264 Rain 8 1014 61 10000 4.12 100 17:36 10.04.2021
5265 Clouds 8 1015 61 10000 4.12 110 16:54 10.04.2021
5266 Rain 9 1015 53 10000 3.6 90 16:26 10.04.2021
5267 Rain 9 1015 53 10000 3.09 120 15:53 10.04.2021
5268 Rain 9 1016 53 10000 3.6 50 14:57 10.04.2021
5269 Clouds 9 1016 53 10000 3.6 50 14:37 10.04.2021
5270 Clouds 9 1016 53 10000 3.09 100 13:59 10.04.2021
5271 Clouds 9 1016 53 10000 3.09 100 13:40 10.04.2021
5272 Clouds 8 1017 65 10000 2.57 90 12:49 10.04.2021
5273 Clouds 7 1016 61 10000 3.09 40 12:26 10.04.2021
5274 Clouds 7 1016 65 10000 3.09 70 11:47 10.04.2021
5275 Clouds 6 1016 70 10000 3.09 70 11:24 10.04.2021
5276 Clouds 6 1016 70 10000 3.6 80 10:52 10.04.2021
5277 Clouds 6 1015 70 10000 4.12 60 10:31 10.04.2021
5278 Clear 5 1015 75 10000 3.6 50 09:45 10.04.2021
5279 Clear 5 1015 70 10000 3.09 30 09:20 10.04.2021
5280 Clear 5 1015 70 10000 2.57 30 08:47 10.04.2021
5281 Clear 5 1015 65 10000 2.57 20 08:28 10.04.2021
5282 Clear 4 1014 75 10000 2.57 30 07:38 10.04.2021
5283 Clouds 4 1014 75 10000 2.57 20 07:19 10.04.2021
5284 Clouds 4 1014 81 10000 2.57 30 06:24 10.04.2021
5285 Clouds 4 1013 87 10000 3.6 340 03:49 10.04.2021
5286 Clouds 4 1013 93 10000 1.54 310 02:51 10.04.2021
5287 Clouds 4 1013 87 10000 2.06 300 02:21 10.04.2021
5288 Clouds 4 1013 93 10000 1.03 230 00:43 10.04.2021
5289 Clouds 4 1013 93 10000 0.51 180 00:21 10.04.2021
5290 Clouds 4 1013 93 10000 0.51 280 23:41 09.04.2021
5291 Clouds 5 1013 87 10000 0.51 290 22:59 09.04.2021
5292 Clouds 5 1013 87 10000 0.51 290 22:38 09.04.2021
5293 Clouds 5 1013 87 10000 0.51 290 22:38 09.04.2021
5294 Clouds 5 1013 87 10000 2.06 310 21:59 09.04.2021
5295 Clouds 5 1013 87 10000 2.06 310 21:38 09.04.2021
5296 Clouds 6 1013 81 10000 2.57 300 21:19 09.04.2021
5297 Clouds 6 1012 81 10000 3.09 300 20:43 09.04.2021
5298 Clouds 6 1012 87 10000 3.09 300 20:23 09.04.2021
5299 Clouds 6 1012 87 10000 3.6 310 19:54 09.04.2021
5300 Clouds 6 1012 87 10000 3.6 310 19:36 09.04.2021
5301 Clouds 7 1012 87 10000 4.63 310 19:18 09.04.2021
5302 Clouds 7 1012 81 10000 6.17 330 18:41 09.04.2021
5303 Rain 8 1012 76 10000 7.2 340 18:19 09.04.2021
5304 Clouds 9 1011 62 10000 6.69 270 17:37 09.04.2021
5305 Clouds 10 1011 57 10000 6.69 270 16:56 09.04.2021
5306 Clouds 11 1011 57 10000 6.69 270 16:35 09.04.2021
5307 Clouds 10 1011 57 10000 6.69 250 15:57 09.04.2021
5308 Clouds 10 1011 57 10000 6.69 250 15:37 09.04.2021
5309 Clouds 11 1011 58 10000 7.2 250 15:18 09.04.2021
5310 Clouds 11 1011 54 10000 8.75 260 14:40 09.04.2021
5311 Clouds 11 1011 58 10000 7.72 240 13:53 09.04.2021
5312 Clouds 11 1011 54 10000 9.26 230 13:26 09.04.2021
5313 Clouds 11 1011 57 10000 7.72 230 12:54 09.04.2021
5314 Clouds 11 1011 57 10000 7.72 230 12:36 09.04.2021
5315 Clear 10 1011 61 10000 7.72 240 11:46 09.04.2021
5316 Clear 9 1011 61 10000 7.72 230 11:23 09.04.2021
5317 Clear 9 1011 61 10000 7.72 230 10:48 09.04.2021
5318 Clear 8 1011 65 10000 7.72 230 10:30 09.04.2021
5319 Clear 7 1011 61 10000 7.72 230 09:50 09.04.2021
5320 Clear 7 1012 65 10000 6.17 230 09:24 09.04.2021
5321 Clear 6 1012 61 10000 6.17 230 08:53 09.04.2021
5322 Clouds 5 1012 65 10000 6.69 230 08:18 09.04.2021
5323 Clouds 5 1012 65 10000 4.63 220 07:18 09.04.2021
5324 Clouds 4 1012 65 10000 4.12 210 06:21 09.04.2021
5325 Clear 4 1014 65 10000 4.12 200 03:54 09.04.2021
5326 Clear 4 1015 60 10000 4.63 200 02:18 09.04.2021
5327 Clear 5 1016 56 10000 5.14 210 00:38 09.04.2021
5328 Clouds 5 1017 56 10000 6.17 210 00:19 09.04.2021
5329 Clouds 6 1017 52 10000 5.66 210 23:30 08.04.2021
5330 Clouds 6 1018 52 10000 5.14 210 22:46 08.04.2021
5331 Clouds 6 1018 52 10000 5.14 220 22:26 08.04.2021
5332 Clouds 6 1018 52 10000 5.14 210 21:57 08.04.2021
5333 Clouds 6 1018 52 10000 5.14 210 21:38 08.04.2021
5334 Clouds 6 1018 52 10000 5.14 210 21:19 08.04.2021
5335 Clouds 6 1018 60 10000 4.12 210 20:53 08.04.2021
5336 Clouds 6 1018 60 10000 4.12 210 20:32 08.04.2021
5337 Clear 6 1019 52 10000 5.66 230 19:55 08.04.2021
5338 Clear 7 1019 56 10000 6.17 230 19:24 08.04.2021
5339 Clouds 7 1019 49 10000 7.72 240 18:52 08.04.2021
5340 Clouds 7 1019 53 10000 6.69 240 18:24 08.04.2021
5341 Clouds 7 1019 53 10000 8.23 230 17:52 08.04.2021
5342 Clouds 7 1020 53 10000 7.2 230 17:26 08.04.2021
5343 Clouds 7 1020 53 10000 7.2 230 16:57 08.04.2021
5344 Clouds 7 1020 53 10000 7.2 230 16:36 08.04.2021
5345 Clouds 6 1021 61 10000 6.17 240 15:55 08.04.2021
5346 Clouds 6 1021 61 10000 6.17 240 15:36 08.04.2021
5347 Clouds 6 1021 61 10000 6.69 240 15:18 08.04.2021
5348 Clouds 6 1021 65 10000 6.69 230 14:39 08.04.2021
5349 Clouds 6 1021 56 10000 7.2 250 14:19 08.04.2021
5350 Clouds 6 1021 61 10000 7.72 260 13:43 08.04.2021
5351 Clouds 6 1021 70 10000 6.17 250 13:23 08.04.2021
5352 Clouds 6 1021 65 10000 7.72 260 12:49 08.04.2021
5353 Clouds 6 1021 70 10000 8.23 260 12:30 08.04.2021
5354 Clouds 5 1021 75 10000 7.2 270 11:56 08.04.2021
5355 Clouds 5 1021 75 10000 6.17 260 11:21 08.04.2021
5356 Clouds 4 1021 81 10000 7.2 270 10:49 08.04.2021
5357 Clouds 4 1021 81 10000 7.2 260 10:25 08.04.2021
5358 Clouds 3 1021 81 10000 6.17 250 09:43 08.04.2021
5359 Clouds 2 1020 80 10000 5.66 250 08:54 08.04.2021
5360 Clouds 2 1020 80 10000 5.66 250 08:36 08.04.2021
5361 Clouds 1 1020 86 10000 5.14 250 08:18 08.04.2021
5362 Clouds 1 1020 93 10000 4.12 250 07:42 08.04.2021
5363 Clouds 1 1019 86 10000 5.14 260 05:45 08.04.2021
5364 Clouds 1 1016 93 10000 6.17 270 01:25 08.04.2021
5365 Clouds 2 1016 87 10000 7.2 270 00:30 08.04.2021
5366 Clouds 1 1016 93 10000 5.66 260 23:47 07.04.2021
5367 Clouds 2 1015 80 10000 5.14 270 23:25 07.04.2021
5368 Clouds 1 1015 86 10000 5.66 280 22:56 07.04.2021
5369 Clouds 1 1015 86 10000 5.66 280 22:38 07.04.2021
5370 Snow 2 1015 80 10000 6.17 280 22:19 07.04.2021
5371 Clouds 1 1014 86 10000 5.66 260 21:34 07.04.2021
5372 Clouds 2 1014 81 9000 6.17 280 20:52 07.04.2021
5373 Clouds 2 1013 81 10000 6.17 290 20:29 07.04.2021
5374 Clouds 3 1013 81 10000 7.72 300 19:52 07.04.2021
5375 Clouds 3 1013 81 10000 7.72 300 19:34 07.04.2021
5376 Clouds 3 1013 87 10000 8.23 300 18:59 07.04.2021
5377 Clouds 3 1013 87 10000 8.23 300 18:41 07.04.2021
5378 Clouds 4 1012 81 10000 10.8 300 18:18 07.04.2021
5379 Clouds 4 1012 87 10000 10.8 310 17:45 07.04.2021
5380 Rain 5 1011 81 10000 6.69 300 17:26 07.04.2021
5381 Clouds 5 1011 81 10000 8.23 300 16:45 07.04.2021
5382 Clouds 5 1011 81 8000 7.2 290 16:21 07.04.2021
5383 Clouds 6 1010 87 10000 5.66 310 15:53 07.04.2021
5384 Rain 6 1010 87 10000 5.66 310 15:34 07.04.2021
5385 Clouds 5 1010 93 10000 7.2 290 14:48 07.04.2021
5386 Rain 5 1010 87 10000 7.2 280 14:25 07.04.2021
5387 Clouds 5 1010 87 8000 6.69 280 13:45 07.04.2021
5388 Rain 5 1010 81 10000 6.69 270 13:20 07.04.2021
5389 Clouds 5 1009 81 10000 6.69 250 12:47 07.04.2021
5390 Clouds 5 1009 81 10000 6.17 250 12:21 07.04.2021
5391 Clouds 5 1009 81 10000 6.17 250 12:21 07.04.2021
5392 Clouds 4 1009 87 10000 6.69 240 11:45 07.04.2021
5393 Clouds 3 1009 81 10000 7.2 250 11:24 07.04.2021
5394 Clouds 2 1009 87 10000 7.2 250 10:50 07.04.2021
5395 Clouds 1 1009 86 10000 6.17 240 09:51 07.04.2021
5396 Clouds 1 1009 86 10000 5.14 240 09:30 07.04.2021
5397 Clouds 1 1009 86 10000 5.14 240 09:30 07.04.2021
5398 Clouds 1 1009 86 10000 5.14 240 08:59 07.04.2021
5399 Clouds 1 1009 86 10000 5.14 240 08:33 07.04.2021
5400 Clouds 0 1008 93 10000 4.63 230 07:57 07.04.2021
5401 Clouds -1 1009 93 10000 5.14 230 07:29 07.04.2021
5402 Clouds -1 1008 86 10000 5.14 240 06:59 07.04.2021
5403 Clear -1 1008 86 10000 4.63 240 06:18 07.04.2021
5404 Clouds 0 1008 86 10000 5.14 250 03:35 07.04.2021
5405 Clouds 0 1007 93 10000 5.66 270 23:52 06.04.2021
5406 Clouds 1 1007 86 10000 5.66 280 23:23 06.04.2021
5407 Clouds 0 1007 93 10000 4.12 270 22:59 06.04.2021
5408 Snow 0 1007 93 10000 4.63 270 22:22 06.04.2021
5409 Snow 1 1007 86 6000 5.66 280 21:59 06.04.2021
5410 Snow 1 1007 86 6000 5.66 280 21:39 06.04.2021
5411 Snow 0 1007 93 10000 5.66 270 21:21 06.04.2021
5412 Snow 1 1006 86 10000 5.14 280 20:52 06.04.2021
5413 Snow 1 1006 93 10000 5.14 280 20:22 06.04.2021
5414 Snow 1 1006 100 2200 8.23 300 19:52 06.04.2021
5415 Snow 1 1006 100 2200 8.23 300 19:33 06.04.2021
5416 Rain 2 1006 81 10000 5.66 300 18:51 06.04.2021
5417 Clouds 2 1006 81 10000 5.66 300 18:32 06.04.2021
5418 Clouds 2 1006 87 10000 10.8 290 17:54 06.04.2021
5419 Rain 3 1006 87 10000 10.8 290 17:36 06.04.2021
5420 Clouds 3 1006 75 10000 7.72 290 17:18 06.04.2021
5421 Clouds 3 1006 87 10000 5.66 270 16:40 06.04.2021
5422 Clouds 2 1006 93 6000 5.14 310 15:49 06.04.2021
5423 Snow 3 1006 86 4500 6.17 290 15:24 06.04.2021
5424 Snow 4 1006 70 10000 6.69 290 14:40 06.04.2021
5425 Snow 3 1006 87 10000 5.66 300 14:21 06.04.2021
5426 Clouds 3 1006 81 8000 5.14 310 13:46 06.04.2021
5427 Snow 3 1007 75 10000 9.26 270 13:25 06.04.2021
5428 Rain 3 1007 81 10000 7.72 260 12:43 06.04.2021
5429 Rain 3 1007 81 10000 7.72 260 12:43 06.04.2021
5430 Clouds 3 1007 87 10000 8.75 270 12:24 06.04.2021
5431 Clouds 3 1007 87 10000 7.72 270 11:55 06.04.2021
5432 Clouds 3 1007 87 10000 7.72 270 11:36 06.04.2021
5433 Clouds 2 1007 86 1800 7.72 270 11:18 06.04.2021
5434 Rain 2 1007 80 10000 6.69 270 10:39 06.04.2021
5435 Clouds 2 1007 80 10000 6.17 270 10:19 06.04.2021
5436 Snow 1 1007 86 5000 6.17 270 09:43 06.04.2021
5437 Snow 1 1007 86 10000 6.17 260 08:50 06.04.2021
5438 Clouds 0 1007 93 10000 5.66 250 08:19 06.04.2021
5439 Clouds 0 1007 86 10000 5.14 270 06:57 06.04.2021
5440 Clouds 0 1007 93 10000 6.69 270 06:24 06.04.2021
5441 Snow -2 1007 93 10000 3.09 260 03:54 06.04.2021
5442 Snow -1 1007 100 10000 3.6 240 00:49 06.04.2021
5443 Snow 0 1007 93 10000 3.09 250 00:22 06.04.2021
5444 Snow 0 1007 93 10000 4.12 270 23:50 05.04.2021
5445 Clear 0 1006 86 10000 5.14 250 23:28 05.04.2021
5446 Clear 0 1007 86 10000 6.17 260 22:54 05.04.2021
5447 Clear 0 1007 86 10000 6.17 260 22:35 05.04.2021
5448 Clear 0 1007 86 10000 5.14 250 21:48 05.04.2021
5449 Clear 0 1007 93 10000 3.09 230 21:27 05.04.2021
5450 Snow 0 1007 93 2500 4.63 300 20:49 05.04.2021
5451 Snow 1 1007 93 2500 8.75 320 20:31 05.04.2021
5452 Snow 2 1006 69 10000 7.2 260 19:55 05.04.2021
5453 Rain 2 1006 69 10000 7.2 260 19:36 05.04.2021
5454 Clouds 3 1006 60 10000 10.29 290 19:18 05.04.2021
5455 Clouds 3 1006 60 10000 7.72 270 18:40 05.04.2021
5456 Clouds 3 1006 60 10000 7.72 270 18:40 05.04.2021
5457 Clouds 3 1006 65 10000 10.29 290 18:19 05.04.2021
5458 Clouds 3 1005 60 10000 7.2 290 17:47 05.04.2021
5459 Rain 3 1005 65 10000 8.75 300 17:23 05.04.2021
5460 Snow 3 1006 75 5000 12.35 310 16:45 05.04.2021
5461 Snow 3 1006 75 5000 12.35 310 16:45 05.04.2021
5462 Rain 4 1005 48 10000 11.32 290 16:22 05.04.2021
5463 Clouds 4 1005 56 10000 9.77 290 15:57 05.04.2021
5464 Clouds 4 1005 56 10000 9.77 290 15:32 05.04.2021
5465 Clouds 5 1004 60 10000 11.32 300 14:59 05.04.2021
5466 Rain 3 1004 60 10000 11.32 300 14:36 05.04.2021
5467 Clouds 3 1004 69 10000 14.4 300 13:52 05.04.2021
5468 Clouds 4 1003 60 10000 11.32 310 13:27 05.04.2021
5469 Clouds 3 1003 75 10000 7.2 300 12:46 05.04.2021
5470 Clouds 3 1003 75 10000 9.77 310 12:25 05.04.2021
5471 Snow 1 1003 93 10000 8.75 320 11:48 05.04.2021
5472 Snow 1 1003 93 1200 12.35 320 11:28 05.04.2021
5473 Snow 2 1002 80 10000 9.26 290 10:55 05.04.2021
5474 Rain 2 1002 80 10000 9.26 290 10:35 05.04.2021
5475 Clouds 3 1002 81 10000 10.8 310 09:48 05.04.2021
5476 Clouds 3 1001 87 10000 7.2 290 09:26 05.04.2021
5477 Rain 3 1001 87 10000 8.75 310 08:47 05.04.2021
5478 Drizzle 4 1001 87 6000 8.75 300 08:26 05.04.2021
5479 Rain 4 1001 93 10000 9.77 310 07:57 05.04.2021
5480 Clouds 5 1000 93 3800 8.75 270 07:29 05.04.2021
5481 Clouds 5 1004 81 10000 8.23 240 03:42 05.04.2021
5482 Clear 5 1010 81 10000 7.72 230 00:54 05.04.2021
5483 Clear 5 1011 81 10000 6.69 240 00:19 05.04.2021
5484 Clear 5 1011 81 10000 6.69 230 23:32 04.04.2021
5485 Clear 6 1013 81 10000 4.63 230 22:58 04.04.2021
5486 Clear 5 1013 81 10000 4.63 230 22:34 04.04.2021
5487 Clear 5 1013 81 10000 4.63 230 22:34 04.04.2021
5488 Clouds 6 1014 75 10000 6.17 240 21:57 04.04.2021
5489 Clouds 7 1015 70 10000 5.66 240 21:21 04.04.2021
5490 Clouds 7 1015 76 10000 6.17 240 20:43 04.04.2021
5491 Clouds 8 1016 71 10000 6.17 250 20:23 04.04.2021
5492 Clouds 8 1017 71 10000 6.17 250 19:40 04.04.2021
5493 Clouds 8 1017 71 10000 7.2 250 19:19 04.04.2021
5494 Clouds 8 1017 66 10000 5.14 260 18:51 04.04.2021
5495 Clouds 8 1018 66 10000 6.69 270 18:25 04.04.2021
5496 Clouds 8 1019 71 10000 5.14 280 17:59 04.04.2021
5497 Clouds 8 1019 71 10000 6.69 270 17:25 04.04.2021
5498 Clouds 8 1019 71 10000 6.69 270 17:25 04.04.2021
5499 Clouds 8 1019 66 10000 6.17 270 16:57 04.04.2021
5500 Clouds 8 1019 66 10000 6.17 270 16:39 04.04.2021
5501 Clouds 7 1020 76 10000 5.66 260 15:54 04.04.2021
5502 Clouds 8 1021 76 10000 6.17 270 15:32 04.04.2021
5503 Clouds 7 1021 76 10000 6.69 260 14:40 04.04.2021
5504 Clouds 7 1022 76 10000 6.17 260 14:21 04.04.2021
5505 Clouds 7 1022 70 10000 4.63 270 13:27 04.04.2021
5506 Clouds 7 1023 70 10000 5.66 270 12:52 04.04.2021
5507 Clouds 7 1023 75 10000 5.14 270 12:28 04.04.2021
5508 Clouds 6 1023 75 10000 4.12 270 11:50 04.04.2021
5509 Drizzle 6 1023 81 10000 4.12 270 11:30 04.04.2021
5510 Drizzle 5 1023 87 10000 4.12 270 10:55 04.04.2021
5511 Drizzle 5 1023 87 10000 4.12 270 10:32 04.04.2021
5512 Drizzle 5 1023 87 10000 4.63 270 09:52 04.04.2021
5513 Drizzle 5 1024 87 10000 3.6 270 09:23 04.04.2021
5514 Drizzle 4 1024 93 10000 4.12 270 08:49 04.04.2021
5515 Drizzle 5 1024 81 10000 3.6 270 08:31 04.04.2021
5516 Clouds 5 1024 75 10000 4.63 280 07:21 04.04.2021
5517 Clouds 5 1024 75 10000 3.09 270 06:33 04.04.2021
5518 Clouds 5 1025 75 10000 3.09 290 03:25 04.04.2021
5519 Clouds 4 1025 81 10000 2.57 300 01:18 04.04.2021
5520 Clouds 5 1026 81 10000 4.12 310 00:19 04.04.2021
5521 Clouds 5 1025 81 10000 4.12 300 23:47 03.04.2021
5522 Clouds 4 1025 81 10000 4.12 300 23:18 03.04.2021
5523 Clouds 5 1026 70 10000 4.63 290 22:48 03.04.2021
5524 Clouds 5 1026 70 10000 5.14 300 22:19 03.04.2021
5525 Clouds 5 1026 70 10000 5.14 300 21:47 03.04.2021
5526 Clouds 6 1026 70 10000 5.14 310 21:23 03.04.2021
5527 Clouds 6 1025 70 10000 6.69 320 20:49 03.04.2021
5528 Clouds 7 1025 65 10000 6.17 330 20:27 03.04.2021
5529 Clouds 7 1025 66 10000 5.14 320 19:50 03.04.2021
5530 Clouds 8 1025 66 10000 4.63 340 19:24 03.04.2021
5531 Clouds 9 1025 66 10000 6.17 330 18:47 03.04.2021
5532 Clouds 10 1025 62 10000 6.17 320 18:24 03.04.2021
5533 Clouds 10 1025 57 10000 6.17 320 17:51 03.04.2021
5534 Clouds 11 1025 50 10000 7.2 310 17:25 03.04.2021
5535 Clouds 12 1025 47 10000 7.2 320 16:51 03.04.2021
5536 Clouds 12 1025 43 10000 6.69 330 16:21 03.04.2021
5537 Clouds 12 1025 37 10000 6.69 310 15:50 03.04.2021
5538 Clouds 12 1026 43 10000 6.17 320 15:22 03.04.2021
5539 Clouds 12 1026 46 10000 6.17 310 14:44 03.04.2021
5540 Clouds 12 1026 43 10000 6.17 330 14:24 03.04.2021
5541 Clouds 12 1026 40 10000 7.2 320 13:51 03.04.2021
5542 Clouds 12 1026 50 10000 6.17 310 13:24 03.04.2021
5543 Clouds 12 1026 62 10000 5.66 300 12:56 03.04.2021
5544 Clouds 11 1026 66 10000 4.12 310 12:32 03.04.2021
5545 Clouds 11 1026 71 10000 4.12 300 11:40 03.04.2021
5546 Clear 9 1026 76 10000 1.54 290 11:19 03.04.2021
5547 Clear 8 1026 81 10000 2.57 310 10:43 03.04.2021
5548 Clear 7 1026 87 10000 2.06 290 10:25 03.04.2021
5549 Fog 5 1025 100 3000 2.06 300 09:29 03.04.2021
5550 Fog 4 1025 100 1000 2.57 310 08:59 03.04.2021
5551 Fog 3 1025 100 400 3.6 320 08:31 03.04.2021
5552 Mist 3 1024 100 4000 3.09 310 07:30 03.04.2021
5553 Mist 3 1024 93 5000 4.12 310 06:53 03.04.2021
5554 Clear 3 1023 93 10000 3.6 300 03:53 03.04.2021
5555 Clouds 3 1023 87 10000 3.09 300 02:54 03.04.2021
5556 Clouds 3 1023 87 10000 3.09 290 02:27 03.04.2021
5557 Clouds 5 1022 70 10000 5.14 320 00:31 03.04.2021
5558 Clouds 5 1022 81 10000 4.63 310 23:59 02.04.2021
5559 Clouds 5 1022 81 10000 5.66 320 23:29 02.04.2021
5560 Clouds 5 1022 75 10000 6.17 310 22:56 02.04.2021
5561 Clouds 5 1022 75 10000 6.17 310 22:37 02.04.2021
5562 Clouds 6 1022 81 10000 6.69 320 21:59 02.04.2021
5563 Clouds 6 1022 81 10000 6.69 320 21:40 02.04.2021
5564 Clouds 6 1022 75 10000 6.69 310 21:18 02.04.2021
5565 Clouds 6 1022 81 10000 6.69 310 20:38 02.04.2021
5566 Clouds 6 1022 81 10000 6.69 310 20:20 02.04.2021
5567 Clouds 6 1022 76 10000 8.23 320 19:41 02.04.2021
5568 Clouds 6 1022 81 10000 6.69 310 19:22 02.04.2021
5569 Clouds 6 1022 87 10000 6.17 300 18:46 02.04.2021
5570 Clouds 6 1022 87 10000 6.69 310 18:28 02.04.2021
5571 Clouds 7 1022 81 10000 7.72 320 17:55 02.04.2021
5572 Clouds 7 1022 70 10000 7.2 300 17:24 02.04.2021
5573 Clouds 8 1023 65 10000 8.75 320 16:24 02.04.2021
5574 Clouds 8 1023 65 10000 8.75 320 15:43 02.04.2021
5575 Clouds 8 1023 61 10000 8.23 310 15:20 02.04.2021
5576 Clouds 8 1024 65 10000 6.69 310 14:33 02.04.2021
5577 Clouds 7 1024 65 10000 8.23 310 13:50 02.04.2021
5578 Clouds 7 1024 70 10000 7.72 320 13:28 02.04.2021
5579 Clouds 7 1024 70 10000 8.23 320 12:58 02.04.2021
5580 Clouds 6 1024 70 10000 8.23 320 12:36 02.04.2021
5581 Clouds 7 1024 70 10000 8.23 310 12:18 02.04.2021
5582 Clouds 7 1024 70 10000 7.2 310 11:44 02.04.2021
5583 Clouds 7 1024 70 10000 5.66 300 11:18 02.04.2021
5584 Clouds 5 1024 75 10000 6.69 320 10:42 02.04.2021
5585 Clouds 5 1024 75 10000 6.69 320 10:22 02.04.2021
5586 Clouds 5 1024 75 10000 4.63 310 09:39 02.04.2021
5587 Clouds 5 1024 75 10000 4.63 310 09:21 02.04.2021
5588 Clouds 5 1024 75 10000 5.14 320 08:45 02.04.2021
5589 Clouds 5 1024 81 10000 4.63 330 08:26 02.04.2021
5590 Clouds 5 1024 87 10000 3.09 330 07:20 02.04.2021
5591 Fog 3 1024 100 300 2.06 310 06:34 02.04.2021
5592 Clear 2 1024 100 10000 2.57 300 03:39 02.04.2021
5593 Clear 5 1024 81 10000 2.06 360 01:40 02.04.2021
5594 Clear 5 1024 81 10000 2.06 350 00:43 02.04.2021
5595 Clear 6 1024 81 10000 2.57 350 23:44 01.04.2021
5596 Clouds 6 1024 81 10000 2.57 340 23:26 01.04.2021
5597 Clouds 7 1024 81 10000 2.57 350 22:41 01.04.2021
5598 Clouds 7 1024 81 10000 4.12 350 22:18 01.04.2021
5599 Clouds 7 1024 81 10000 4.12 330 21:42 01.04.2021
5600 Clouds 8 1023 76 10000 5.14 330 21:22 01.04.2021
5601 Clouds 8 1023 76 10000 5.66 320 20:41 01.04.2021
5602 Clouds 8 1023 76 10000 6.17 320 20:21 01.04.2021
5603 Clouds 9 1022 71 10000 6.69 320 19:41 01.04.2021
5604 Clouds 9 1022 76 10000 7.2 320 19:20 01.04.2021
5605 Clouds 10 1022 66 10000 5.66 360 18:44 01.04.2021
5606 Clouds 11 1022 71 10000 5.14 320 18:18 01.04.2021
5607 Clouds 11 1022 71 10000 4.63 330 17:41 01.04.2021
5608 Clouds 11 1022 71 10000 5.66 320 17:23 01.04.2021
5609 Clouds 10 1022 76 10000 7.2 320 16:50 01.04.2021
5610 Clouds 9 1022 76 10000 7.72 320 16:18 01.04.2021
5611 Clouds 9 1022 76 10000 7.72 320 16:18 01.04.2021
5612 Clouds 9 1022 76 10000 7.72 320 16:18 01.04.2021
5613 Clouds 10 1022 66 10000 7.2 320 15:40 01.04.2021
5614 Clouds 10 1022 71 10000 7.2 320 15:19 01.04.2021
5615 Clouds 10 1022 71 10000 8.23 320 14:42 01.04.2021
5616 Clouds 10 1022 71 10000 8.23 320 14:23 01.04.2021
5617 Clouds 10 1021 76 10000 8.23 340 13:52 01.04.2021
5618 Clouds 11 1021 71 10000 7.72 320 13:30 01.04.2021
5619 Clouds 11 1021 76 10000 7.72 330 12:49 01.04.2021
5620 Clouds 12 1020 71 10000 8.23 320 12:30 01.04.2021
5621 Clouds 11 1020 76 10000 7.72 330 11:47 01.04.2021
5622 Clouds 11 1019 76 10000 6.69 320 11:24 01.04.2021
5623 Clouds 11 1019 76 10000 6.17 330 10:53 01.04.2021
5624 Clouds 10 1019 76 10000 6.17 330 10:35 01.04.2021
5625 Mist 10 1019 76 3500 5.14 300 09:54 01.04.2021
5626 Haze 10 1019 76 5000 5.66 300 09:24 01.04.2021
5627 Clouds 10 1018 71 8000 3.09 300 08:33 01.04.2021
5628 Clear 10 1017 76 10000 3.09 280 07:57 01.04.2021
5629 Clear 10 1017 71 10000 2.06 280 07:19 01.04.2021
5630 Clear 10 1017 66 10000 2.57 310 06:42 01.04.2021
5631 Rain 10 1018 81 10000 1.03 0 03:30 01.04.2021
5632 Clear 12 1018 66 10000 1.03 260 00:49 01.04.2021
5633 Clear 12 1018 58 10000 1.91 315 23:44 31.03.2021
5634 Clear 12 1019 71 10000 1.03 190 23:19 31.03.2021
5635 Clear 13 1019 58 10000 0.51 0 22:41 31.03.2021
5636 Clear 14 1019 47 10000 1.54 30 22:20 31.03.2021
5637 Clear 15 1019 42 10000 2.57 30 21:46 31.03.2021
5638 Clear 16 1019 36 10000 2.57 30 21:23 31.03.2021
5639 Clear 17 1019 34 10000 3.09 10 20:56 31.03.2021
5640 Clear 17 1019 34 10000 3.09 10 20:38 31.03.2021
5641 Clear 18 1018 32 10000 3.09 10 20:18 31.03.2021
5642 Clear 20 1018 32 10000 3.09 350 19:38 31.03.2021
5643 Clear 21 1018 37 10000 2.57 300 19:18 31.03.2021
5644 Clear 23 1019 28 10000 2.57 290 18:49 31.03.2021
5645 Clear 23 1019 28 10000 2.57 250 17:58 31.03.2021
5646 Clear 23 1019 28 10000 2.57 250 17:36 31.03.2021
5647 Clear 23 1019 27 10000 3.09 230 17:18 31.03.2021
5648 Clear 24 1019 25 10000 2.57 230 16:48 31.03.2021
5649 Clear 23 1020 28 10000 2.06 240 16:25 31.03.2021
5650 Clear 23 1020 27 10000 2.57 190 15:50 31.03.2021
5651 Clear 23 1020 25 10000 3.09 210 15:20 31.03.2021
5652 Clear 22 1021 30 10000 2.57 180 14:46 31.03.2021
5653 Clear 22 1021 35 10000 1.54 180 14:24 31.03.2021
5654 Clear 22 1021 35 10000 1.03 0 13:43 31.03.2021
5655 Clear 22 1022 35 10000 1.03 0 13:19 31.03.2021
5656 Clear 20 1022 37 10000 1.54 0 12:37 31.03.2021
5657 Clear 19 1022 42 10000 1.03 0 12:18 31.03.2021
5658 Clear 16 1023 47 10000 1.54 150 11:22 31.03.2021
5659 Clear 14 1023 54 10000 1.03 0 10:48 31.03.2021
5660 Clear 12 1023 58 10000 1.54 150 10:27 31.03.2021
5661 Clear 10 1023 57 10000 1.54 140 09:46 31.03.2021
5662 Clear 8 1023 66 10000 2.06 140 09:27 31.03.2021
5663 Clear 7 1023 76 10000 1.54 80 08:43 31.03.2021
5664 Clear 5 1023 81 10000 1.54 90 08:25 31.03.2021
5665 Clear 5 1024 75 10000 1.03 50 07:33 31.03.2021
5666 Clear 5 1025 87 10000 1.54 70 04:34 31.03.2021
5667 Clear 6 1026 93 10000 1.03 200 02:37 31.03.2021
5668 Clouds 8 1027 76 10000 1.03 140 00:54 31.03.2021
5669 Clear 9 1027 76 10000 1.03 140 00:25 31.03.2021
5670 Clear 9 1027 71 10000 1.03 140 23:55 30.03.2021
5671 Clear 10 1027 58 10000 0.51 50 23:24 30.03.2021
5672 Clear 11 1027 62 10000 1.03 0 22:49 30.03.2021
5673 Clear 11 1027 62 10000 1.03 150 22:30 30.03.2021
5674 Clear 11 1027 50 10000 1.03 0 21:56 30.03.2021
5675 Clear 12 1027 47 10000 0.51 0 21:29 30.03.2021
5676 Clear 13 1027 47 10000 1.03 190 20:59 30.03.2021
5677 Clear 14 1027 47 10000 1.03 190 20:38 30.03.2021
5678 Clear 16 1027 42 10000 2.06 200 20:18 30.03.2021
5679 Clear 18 1027 34 10000 2.06 200 19:41 30.03.2021
5680 Clear 20 1028 37 10000 2.06 230 18:57 30.03.2021
5681 Clear 21 1028 35 10000 1.54 240 18:27 30.03.2021
5682 Clear 21 1028 28 10000 3.09 250 17:47 30.03.2021
5683 Clear 20 1029 32 10000 3.09 250 17:29 30.03.2021
5684 Clear 20 1029 30 10000 4.12 250 16:47 30.03.2021
5685 Clear 21 1029 32 10000 3.6 230 16:27 30.03.2021
5686 Clear 20 1030 40 10000 3.6 240 15:38 30.03.2021
5687 Clear 20 1030 40 10000 3.6 240 15:19 30.03.2021
5688 Clear 20 1030 39 10000 4.63 220 14:45 30.03.2021
5689 Clear 20 1030 45 10000 4.12 220 14:20 30.03.2021
5690 Clear 20 1030 45 10000 4.12 230 13:49 30.03.2021
5691 Clear 19 1030 52 10000 4.63 240 13:24 30.03.2021
5692 Clear 18 1030 55 10000 4.12 250 12:41 30.03.2021
5693 Clear 18 1030 55 10000 4.12 250 12:41 30.03.2021
5694 Clear 18 1030 55 10000 3.6 250 12:21 30.03.2021
5695 Clear 17 1030 59 10000 3.09 260 11:47 30.03.2021
5696 Clear 16 1030 58 10000 3.09 240 11:19 30.03.2021
5697 Clear 15 1030 54 10000 3.09 240 10:42 30.03.2021
5698 Clear 14 1030 58 10000 3.6 250 10:19 30.03.2021
5699 Clear 12 1030 66 10000 2.57 240 09:41 30.03.2021
5700 Clear 11 1030 71 10000 1.54 230 09:21 30.03.2021
5701 Clear 9 1030 66 10000 1.03 0 08:43 30.03.2021
5702 Clear 7 1029 70 10000 1.54 230 07:56 30.03.2021
5703 Clear 7 1029 70 10000 2.06 220 07:31 30.03.2021
5704 Clear 7 1029 76 10000 1.54 200 06:30 30.03.2021
5705 Clear 6 1029 87 10000 1.54 190 05:25 30.03.2021
5706 Clear 8 1029 93 10000 1.54 180 01:47 30.03.2021
5707 Clear 10 1028 81 10000 1.54 290 23:55 29.03.2021
5708 Clear 10 1028 81 10000 1.54 320 23:22 29.03.2021
5709 Clear 11 1028 66 10000 2.06 300 22:43 29.03.2021
5710 Clear 12 1028 67 10000 2.06 260 21:58 29.03.2021
5711 Clear 13 1028 67 10000 2.06 260 21:37 29.03.2021
5712 Clear 13 1027 67 10000 2.57 240 20:57 29.03.2021
5713 Clear 14 1027 67 10000 2.57 240 20:37 29.03.2021
5714 Clear 17 1026 55 10000 5.66 260 19:56 29.03.2021
5715 Clear 16 1026 55 10000 5.66 260 19:32 29.03.2021
5716 Clear 17 1026 52 10000 6.69 250 18:57 29.03.2021
5717 Clear 18 1026 52 10000 6.69 250 18:38 29.03.2021
5718 Clear 18 1026 52 10000 7.72 250 18:20 29.03.2021
5719 Clear 19 1026 52 10000 7.72 250 17:37 29.03.2021
5720 Clear 18 1026 52 10000 8.23 260 16:55 29.03.2021
5721 Clear 19 1026 52 10000 8.23 260 16:34 29.03.2021
5722 Clear 18 1026 55 10000 6.69 240 15:49 29.03.2021
5723 Clear 18 1026 52 10000 8.23 250 15:31 29.03.2021
5724 Clear 18 1026 55 10000 8.23 240 14:54 29.03.2021
5725 Clear 18 1026 55 10000 8.23 240 14:31 29.03.2021
5726 Clear 17 1025 55 10000 7.72 250 13:47 29.03.2021
5727 Clear 17 1025 59 10000 8.23 260 13:24 29.03.2021
5728 Clear 16 1025 59 10000 6.69 250 12:50 29.03.2021
5729 Clear 15 1025 58 10000 8.75 240 11:53 29.03.2021
5730 Clear 14 1025 58 10000 8.75 240 11:35 29.03.2021
5731 Clear 13 1024 62 10000 7.72 240 10:59 29.03.2021
5732 Clear 13 1024 62 10000 7.72 240 10:36 29.03.2021
5733 Clouds 12 1024 62 10000 7.2 240 09:44 29.03.2021
5734 Clear 11 1024 66 10000 6.17 230 08:58 29.03.2021
5735 Clear 11 1024 66 10000 5.66 240 08:28 29.03.2021
5736 Clear 11 1024 66 10000 5.14 240 07:41 29.03.2021
5737 Clear 10 1023 66 10000 6.17 220 06:42 29.03.2021
5738 Clear 10 1024 71 10000 5.66 220 03:59 29.03.2021
5739 Clear 10 1024 71 10000 5.66 220 03:59 29.03.2021
5740 Clear 11 1024 66 10000 5.14 240 01:58 29.03.2021
5741 Clouds 11 1024 66 10000 5.66 230 00:23 29.03.2021
5742 Clouds 10 1024 76 10000 4.63 240 23:50 28.03.2021
5743 Clouds 10 1024 71 10000 5.14 230 23:19 28.03.2021
5744 Clouds 10 1024 71 10000 4.63 230 22:41 28.03.2021
5745 Clouds 10 1024 71 10000 4.63 230 22:21 28.03.2021
5746 Clouds 10 1024 71 10000 4.63 230 21:45 28.03.2021
5747 Clouds 10 1023 71 10000 6.69 230 21:23 28.03.2021
5748 Clouds 10 1023 71 10000 6.17 240 20:50 28.03.2021
5749 Clouds 10 1023 71 10000 6.17 240 20:32 28.03.2021
5750 Clouds 10 1023 71 10000 6.17 230 19:46 28.03.2021
5751 Clouds 10 1023 71 10000 6.17 230 19:23 28.03.2021
5752 Clouds 10 1023 71 10000 6.69 230 18:58 28.03.2021
5753 Clouds 10 1023 71 10000 6.69 230 18:33 28.03.2021
5754 Clouds 10 1023 71 10000 8.75 240 17:56 28.03.2021
5755 Clouds 10 1023 71 10000 8.75 240 17:36 28.03.2021
5756 Rain 10 1023 76 10000 8.23 230 16:55 28.03.2021
5757 Rain 10 1023 81 10000 5.66 240 16:24 28.03.2021
5758 Rain 10 1023 71 10000 7.2 240 15:49 28.03.2021
5759 Rain 10 1023 66 10000 8.23 240 15:24 28.03.2021
5760 Rain 11 1023 62 10000 10.29 230 14:39 28.03.2021
5761 Rain 12 1022 62 10000 9.26 230 13:59 28.03.2021
5762 Clouds 12 1023 66 10000 9.77 220 13:34 28.03.2021
5763 Clouds 12 1023 66 10000 9.26 220 12:55 28.03.2021
5764 Clouds 11 1023 66 10000 9.26 220 12:34 28.03.2021
5765 Clouds 11 1023 66 10000 9.26 220 12:34 28.03.2021
5766 Clear 10 1023 66 10000 7.72 230 11:52 28.03.2021
5767 Clear 9 1023 71 10000 7.2 220 11:32 28.03.2021
5768 Clear 8 1024 71 10000 6.17 220 10:48 28.03.2021
5769 Clear 8 1024 76 10000 7.2 220 10:29 28.03.2021
5770 Clear 7 1024 70 10000 5.66 220 09:51 28.03.2021
5771 Clear 6 1024 70 10000 5.14 210 09:27 28.03.2021
5772 Clear 5 1024 75 10000 4.12 210 08:49 28.03.2021
5773 Clear 4 1024 75 10000 4.12 200 08:30 28.03.2021
5774 Clear 4 1024 75 10000 3.6 200 07:39 28.03.2021
5775 Clear 4 1024 75 10000 3.09 200 06:20 28.03.2021
5776 Clear 3 1025 81 10000 3.09 210 03:28 28.03.2021
5777 Clear 3 1025 87 10000 3.09 220 00:36 28.03.2021
5778 Clear 3 1025 87 10000 3.09 220 23:53 27.03.2021
5779 Clear 3 1025 87 10000 3.09 220 23:34 27.03.2021
5780 Clear 4 1024 87 10000 3.09 220 22:40 27.03.2021
5781 Clouds 3 1024 87 10000 4.12 240 22:21 27.03.2021
5782 Clouds 4 1024 87 10000 3.6 240 21:42 27.03.2021
5783 Clouds 4 1024 87 10000 3.6 250 21:21 27.03.2021
5784 Clouds 4 1023 87 10000 3.09 220 20:56 27.03.2021
5785 Clouds 5 1023 87 10000 3.09 220 20:37 27.03.2021
5786 Clouds 4 1022 93 10000 4.12 230 19:56 27.03.2021
5787 Clouds 4 1022 93 10000 4.12 230 19:37 27.03.2021
5788 Clouds 4 1022 87 10000 4.12 240 19:18 27.03.2021
5789 Clouds 5 1022 87 10000 6.17 240 18:41 27.03.2021
5790 Clouds 5 1021 81 10000 6.69 270 18:20 27.03.2021
5791 Clouds 6 1020 70 10000 6.69 260 17:29 27.03.2021
5792 Rain 7 1020 75 10000 6.69 270 16:58 27.03.2021
5793 Clouds 7 1020 75 10000 6.69 260 16:38 27.03.2021
5794 Clouds 7 1020 75 10000 6.69 260 16:20 27.03.2021
5795 Clouds 6 1019 75 10000 9.77 290 15:45 27.03.2021
5796 Clouds 6 1018 65 10000 7.72 250 14:59 27.03.2021
5797 Clouds 7 1018 65 10000 7.72 250 14:38 27.03.2021
5798 Rain 6 1017 70 10000 6.69 260 13:39 27.03.2021
5799 Clouds 6 1017 75 10000 8.75 270 13:19 27.03.2021
5800 Rain 6 1017 70 10000 12.35 290 12:43 27.03.2021
5801 Clouds 7 1015 76 10000 4.63 260 11:50 27.03.2021
5802 Rain 6 1015 81 10000 10.29 250 11:31 27.03.2021
5803 Rain 7 1014 71 10000 9.26 260 10:57 27.03.2021
5804 Rain 7 1014 71 10000 9.26 260 10:38 27.03.2021
5805 Clouds 7 1013 81 10000 6.69 240 09:50 27.03.2021
5806 Clouds 6 1013 81 10000 8.23 240 09:21 27.03.2021
5807 Clouds 6 1013 81 10000 6.69 240 08:40 27.03.2021
5808 Clouds 6 1012 81 10000 6.69 240 07:54 27.03.2021
5809 Clouds 6 1011 87 10000 6.69 240 07:18 27.03.2021
5810 Rain 6 1011 87 10000 6.17 240 06:42 27.03.2021
5811 Rain 6 1010 87 10000 9.26 270 04:42 27.03.2021
5812 Clear 9 1008 71 10000 4.12 150 02:45 27.03.2021
5813 Clear 8 1010 71 10000 3.09 150 00:44 27.03.2021
5814 Clear 8 1010 71 10000 3.6 150 00:25 27.03.2021
5815 Clear 8 1011 76 10000 3.09 160 23:37 26.03.2021
5816 Clear 9 1011 71 10000 2.06 240 22:40 26.03.2021
5817 Clear 10 1012 66 10000 3.09 200 21:53 26.03.2021
5818 Clear 10 1012 66 10000 2.57 160 21:24 26.03.2021
5819 Clear 11 1012 66 10000 3.09 180 20:58 26.03.2021
5820 Clear 11 1012 62 10000 3.09 160 20:31 26.03.2021
5821 Clear 11 1012 54 10000 2.06 150 19:53 26.03.2021
5822 Clear 11 1012 54 10000 2.06 150 19:34 26.03.2021
5823 Clear 13 1012 47 10000 3.6 210 18:55 26.03.2021
5824 Clear 13 1012 47 10000 3.6 210 18:55 26.03.2021
5825 Clear 13 1012 47 10000 3.6 210 18:36 26.03.2021
5826 Clear 14 1013 51 10000 4.63 200 18:18 26.03.2021
5827 Clear 15 1013 47 10000 5.14 200 17:41 26.03.2021
5828 Clouds 15 1013 44 10000 6.17 190 16:52 26.03.2021
5829 Clouds 15 1014 48 10000 7.2 180 16:23 26.03.2021
5830 Clouds 15 1014 51 10000 5.66 190 15:43 26.03.2021
5831 Clouds 15 1015 51 10000 5.66 190 14:54 26.03.2021
5832 Clouds 15 1015 47 10000 6.69 200 14:20 26.03.2021
5833 Clouds 15 1015 54 10000 5.14 180 13:33 26.03.2021
5834 Clouds 15 1016 58 10000 6.69 200 12:48 26.03.2021
5835 Clouds 13 1017 58 10000 6.69 200 11:50 26.03.2021
5836 Clouds 12 1017 62 10000 6.69 200 11:31 26.03.2021
5837 Clouds 12 1018 66 10000 7.2 190 10:45 26.03.2021
5838 Clouds 11 1018 71 10000 6.17 200 10:27 26.03.2021
5839 Clear 10 1018 76 10000 4.63 200 09:41 26.03.2021
5840 Clouds 8 1017 87 7000 4.12 170 08:59 26.03.2021
5841 Clouds 8 1017 87 7000 4.12 170 08:35 26.03.2021
5842 Mist 6 1017 93 3500 3.6 190 07:58 26.03.2021
5843 Mist 5 1018 93 3200 3.09 180 07:22 26.03.2021
5844 Mist 4 1018 93 2800 2.57 170 06:57 26.03.2021
5845 Mist 3 1018 100 3200 2.06 190 06:26 26.03.2021
5846 Mist 4 1018 100 3500 1.54 190 05:21 26.03.2021
5847 Clear 4 1019 93 10000 2.57 180 01:50 26.03.2021
5848 Clear 6 1019 87 10000 2.06 200 00:23 26.03.2021
5849 Clear 6 1019 87 10000 2.06 220 23:44 25.03.2021
5850 Clear 7 1019 87 10000 3.09 230 22:51 25.03.2021
5851 Clouds 8 1019 87 10000 3.6 230 22:27 25.03.2021
5852 Clouds 8 1019 81 10000 3.09 220 21:49 25.03.2021
5853 Clouds 9 1019 81 10000 3.09 220 21:31 25.03.2021
5854 Clouds 9 1019 87 10000 3.09 230 20:43 25.03.2021
5855 Clouds 10 1019 81 10000 2.57 240 20:25 25.03.2021
5856 Clouds 10 1019 81 10000 3.6 260 19:45 25.03.2021
5857 Clouds 10 1019 81 10000 3.6 260 19:45 25.03.2021
5858 Clouds 11 1018 62 10000 2.57 210 19:26 25.03.2021
5859 Clouds 11 1018 62 10000 2.57 190 18:47 25.03.2021
5860 Clouds 11 1018 62 10000 2.06 200 18:26 25.03.2021
5861 Clouds 11 1018 62 10000 2.06 200 18:26 25.03.2021
5862 Clouds 11 1018 62 10000 2.06 200 18:26 25.03.2021
5863 Clouds 12 1018 62 10000 2.06 220 17:45 25.03.2021
5864 Clouds 13 1018 58 10000 2.57 190 17:27 25.03.2021
5865 Clouds 13 1018 58 10000 3.09 210 16:51 25.03.2021
5866 Clouds 14 1018 54 10000 2.57 180 16:31 25.03.2021
5867 Clouds 13 1018 58 10000 2.57 180 15:45 25.03.2021
5868 Clouds 13 1019 58 10000 3.09 220 15:22 25.03.2021
5869 Clouds 13 1019 58 10000 2.57 220 14:46 25.03.2021
5870 Clouds 13 1019 58 10000 4.12 190 13:56 25.03.2021
5871 Clouds 12 1019 62 10000 4.12 200 13:24 25.03.2021
5872 Clouds 12 1019 58 10000 4.12 210 12:45 25.03.2021
5873 Clouds 13 1019 62 10000 4.12 230 12:21 25.03.2021
5874 Clear 12 1019 58 10000 3.09 220 11:53 25.03.2021
5875 Clear 12 1020 62 10000 3.09 190 11:30 25.03.2021
5876 Clear 11 1020 71 10000 2.57 180 10:57 25.03.2021
5877 Clear 10 1020 71 10000 2.57 180 10:38 25.03.2021
5878 Clear 9 1020 71 10000 2.06 170 10:18 25.03.2021
5879 Clear 9 1020 71 10000 2.06 170 10:18 25.03.2021
5880 Clouds 8 1020 81 8000 1.54 170 09:42 25.03.2021
5881 Clouds 6 1020 87 7000 1.03 0 08:59 25.03.2021
5882 Clouds 5 1019 93 7000 1.03 180 08:30 25.03.2021
5883 Clouds 3 1019 93 6000 1.03 270 07:26 25.03.2021
5884 Mist 3 1019 93 5000 0.51 0 06:42 25.03.2021
5885 Mist 3 1019 93 4500 1.03 0 06:22 25.03.2021
5886 Mist 3 1019 100 3000 1.03 190 04:50 25.03.2021
5887 Clouds 4 1019 93 6000 1.54 270 01:20 25.03.2021
5888 Clouds 6 1019 87 7000 1.03 200 00:19 25.03.2021
5889 Clouds 6 1019 87 10000 1.03 0 23:40 24.03.2021
5890 Clouds 6 1020 87 10000 1.54 290 23:19 24.03.2021
5891 Clear 8 1020 76 10000 2.57 310 22:39 24.03.2021
5892 Clear 8 1020 71 10000 3.6 310 21:51 24.03.2021
5893 Clear 8 1020 71 10000 3.6 310 21:32 24.03.2021
5894 Clear 8 1019 71 10000 1.54 180 20:59 24.03.2021
5895 Clear 8 1019 71 10000 1.54 180 20:41 24.03.2021
5896 Clear 8 1019 76 10000 1.54 230 20:18 24.03.2021
5897 Clouds 9 1019 76 10000 2.06 230 19:33 24.03.2021
5898 Clear 12 1019 62 10000 3.09 220 18:56 24.03.2021
5899 Clear 12 1019 62 10000 3.09 220 18:37 24.03.2021
5900 Clear 12 1019 62 10000 3.6 230 18:19 24.03.2021
5901 Clouds 14 1019 51 10000 5.14 230 17:33 24.03.2021
5902 Clear 14 1019 51 10000 5.14 230 16:59 24.03.2021
5903 Clear 14 1019 51 10000 5.14 230 16:40 24.03.2021
5904 Clear 15 1019 54 10000 5.14 240 16:19 24.03.2021
5905 Clouds 15 1019 51 10000 5.14 230 15:41 24.03.2021
5906 Clouds 15 1020 51 10000 6.69 230 15:20 24.03.2021
5907 Clouds 14 1020 51 10000 6.69 230 14:41 24.03.2021
5908 Clouds 14 1020 54 10000 5.66 220 14:21 24.03.2021
5909 Clouds 14 1021 54 10000 7.2 230 13:44 24.03.2021
5910 Clouds 14 1021 54 10000 6.17 230 13:24 24.03.2021
5911 Clouds 13 1021 66 8000 6.17 220 12:40 24.03.2021
5912 Clouds 13 1021 66 8000 6.17 220 12:20 24.03.2021
5913 Clouds 12 1022 66 8000 5.66 230 11:41 24.03.2021
5914 Clouds 10 1022 71 7000 4.63 200 10:49 24.03.2021
5915 Clouds 10 1022 76 7000 4.12 200 10:31 24.03.2021
5916 Clouds 9 1022 81 6000 3.09 210 09:58 24.03.2021
5917 Clouds 8 1022 81 6000 3.09 210 09:36 24.03.2021
5918 Clouds 7 1022 81 6000 3.09 210 09:18 24.03.2021
5919 Mist 6 1022 87 5000 2.57 200 08:43 24.03.2021
5920 Mist 5 1022 87 4200 2.57 200 07:50 24.03.2021
5921 Mist 4 1022 87 4200 2.57 200 07:25 24.03.2021
5922 Mist 5 1022 87 4500 2.57 200 06:46 24.03.2021
5923 Clear 5 1023 93 10000 2.06 200 02:41 24.03.2021
5924 Clouds 5 1023 93 10000 1.54 220 00:42 24.03.2021
5925 Clouds 5 1023 93 10000 1.54 190 23:52 23.03.2021
5926 Clouds 5 1023 93 10000 1.54 200 23:20 23.03.2021
5927 Clouds 4 1023 93 10000 1.54 190 22:51 23.03.2021
5928 Clouds 4 1023 93 10000 2.06 220 22:25 23.03.2021
5929 Clouds 4 1023 93 10000 2.57 240 21:47 23.03.2021
5930 Clouds 5 1023 87 10000 2.06 220 21:29 23.03.2021
5931 Clouds 5 1023 87 10000 1.54 220 20:47 23.03.2021
5932 Clouds 6 1023 93 10000 1.03 250 20:25 23.03.2021
5933 Clouds 6 1023 81 10000 1.03 280 19:50 23.03.2021
5934 Clouds 7 1023 76 10000 1.03 310 19:26 23.03.2021
5935 Clouds 7 1023 76 10000 1.03 310 19:26 23.03.2021
5936 Clouds 8 1023 71 10000 1.54 320 18:59 23.03.2021
5937 Clouds 8 1023 71 10000 1.54 320 18:37 23.03.2021
5938 Clouds 9 1023 66 10000 0.51 300 18:18 23.03.2021
5939 Clouds 9 1023 66 10000 1.54 0 17:42 23.03.2021
5940 Clouds 10 1023 62 10000 1.54 320 17:20 23.03.2021
5941 Clouds 9 1023 66 10000 3.6 310 16:25 23.03.2021
5942 Clouds 9 1024 66 10000 3.09 310 15:48 23.03.2021
5943 Clouds 10 1024 66 10000 3.09 320 15:22 23.03.2021
5944 Clouds 9 1024 71 10000 3.6 320 14:45 23.03.2021
5945 Clouds 9 1024 71 10000 3.09 300 14:19 23.03.2021
5946 Clouds 9 1024 71 10000 4.12 280 13:47 23.03.2021
5947 Clouds 8 1024 71 10000 4.63 280 13:24 23.03.2021
5948 Clouds 8 1024 71 10000 4.12 280 12:44 23.03.2021
5949 Clouds 8 1024 71 10000 4.12 290 12:24 23.03.2021
5950 Clouds 7 1024 70 10000 5.66 260 11:48 23.03.2021
5951 Clouds 7 1024 76 10000 3.6 250 11:18 23.03.2021
5952 Clouds 7 1024 76 10000 4.12 250 10:42 23.03.2021
5953 Clouds 7 1024 76 10000 4.63 260 10:20 23.03.2021
5954 Clouds 7 1024 75 10000 4.63 250 09:49 23.03.2021
5955 Clouds 6 1024 75 10000 5.14 250 09:22 23.03.2021
5956 Clouds 6 1024 81 10000 4.12 240 08:55 23.03.2021
5957 Clouds 6 1024 81 10000 4.12 240 08:37 23.03.2021
5958 Clouds 5 1024 87 10000 3.6 240 08:18 23.03.2021
5959 Clouds 5 1024 87 10000 2.57 230 07:27 23.03.2021
5960 Clouds 5 1024 81 10000 1.03 230 06:52 23.03.2021
5961 Clouds 5 1024 81 10000 4.12 280 03:24 23.03.2021
5962 Clouds 5 1024 81 10000 3.6 280 02:29 23.03.2021
5963 Clouds 5 1024 87 10000 2.57 290 23:47 22.03.2021
5964 Clouds 5 1024 87 10000 3.09 300 23:18 22.03.2021
5965 Clouds 5 1024 87 10000 2.57 300 22:42 22.03.2021
5966 Clouds 6 1024 81 10000 3.6 300 22:20 22.03.2021
5967 Drizzle 6 1024 81 10000 3.6 300 21:47 22.03.2021
5968 Clouds 6 1024 81 10000 3.6 300 21:26 22.03.2021
5969 Clouds 6 1024 81 10000 3.6 310 20:44 22.03.2021
5970 Clouds 6 1024 81 10000 4.12 290 20:25 22.03.2021
5971 Clouds 6 1023 75 10000 4.12 300 19:58 22.03.2021
5972 Clouds 6 1023 75 10000 4.12 300 19:38 22.03.2021
5973 Clouds 7 1023 70 10000 4.63 300 19:20 22.03.2021
5974 Clouds 7 1023 70 10000 5.14 310 18:41 22.03.2021
5975 Clouds 7 1023 70 10000 5.14 310 18:22 22.03.2021
5976 Clouds 7 1023 70 10000 4.12 310 17:49 22.03.2021
5977 Clouds 8 1022 71 10000 4.63 340 17:22 22.03.2021
5978 Clouds 8 1022 71 10000 6.69 310 16:55 22.03.2021
5979 Clouds 8 1022 71 10000 5.14 320 16:37 22.03.2021
5980 Clouds 8 1023 76 10000 5.14 320 15:43 22.03.2021
5981 Clouds 8 1023 76 10000 4.63 320 15:23 22.03.2021
5982 Clouds 7 1023 76 10000 4.63 340 14:58 22.03.2021
5983 Clouds 8 1023 76 10000 4.63 310 14:34 22.03.2021
5984 Clouds 7 1023 76 10000 5.14 330 13:52 22.03.2021
5985 Clouds 7 1023 76 10000 5.14 330 13:33 22.03.2021
5986 Clouds 7 1022 76 10000 5.14 320 12:59 22.03.2021
5987 Clouds 7 1022 76 10000 5.14 320 12:26 22.03.2021
5988 Clouds 7 1022 81 10000 4.63 340 11:57 22.03.2021
5989 Clouds 7 1022 81 10000 4.63 340 11:39 22.03.2021
5990 Clouds 7 1022 81 10000 4.63 340 11:20 22.03.2021
5991 Clouds 6 1022 87 8000 2.57 340 10:41 22.03.2021
5992 Clouds 6 1022 93 6000 3.09 340 10:20 22.03.2021
5993 Clouds 5 1022 87 9000 5.14 340 09:36 22.03.2021
5994 Clouds 5 1021 87 10000 4.63 330 08:59 22.03.2021
5995 Clouds 5 1021 87 10000 4.63 330 08:40 22.03.2021
5996 Clouds 5 1021 87 10000 3.6 340 08:21 22.03.2021
5997 Drizzle 5 1021 87 10000 3.6 330 07:43 22.03.2021
5998 Clouds 5 1021 87 10000 4.12 330 06:52 22.03.2021
5999 Clouds 4 1020 93 10000 4.12 310 05:19 22.03.2021
6000 Clouds 5 1020 81 10000 6.17 310 00:55 22.03.2021
6001 Clouds 5 1020 81 10000 6.17 320 00:21 22.03.2021
6002 Clouds 5 1020 81 10000 6.17 310 23:52 21.03.2021
6003 Clouds 5 1020 75 10000 6.69 310 23:19 21.03.2021
6004 Clouds 5 1020 75 10000 7.72 320 22:54 21.03.2021
6005 Clouds 5 1020 75 10000 6.17 330 21:56 21.03.2021
6006 Clouds 5 1020 75 10000 6.17 330 21:38 21.03.2021
6007 Clouds 5 1020 75 10000 7.2 320 21:20 21.03.2021
6008 Clouds 5 1020 75 10000 7.2 320 20:41 21.03.2021
6009 Clouds 5 1020 75 10000 7.2 320 20:22 21.03.2021
6010 Clouds 5 1020 75 10000 7.2 310 19:52 21.03.2021
6011 Clouds 5 1019 75 10000 7.72 320 19:21 21.03.2021
6012 Clouds 5 1019 70 10000 9.77 320 18:46 21.03.2021
6013 Clouds 6 1019 65 10000 7.72 320 18:27 21.03.2021
6014 Clouds 6 1019 65 10000 8.75 330 17:45 21.03.2021
6015 Clouds 6 1019 65 10000 10.29 320 17:20 21.03.2021
6016 Clouds 6 1019 65 10000 9.26 320 16:57 21.03.2021
6017 Clouds 7 1019 65 10000 9.26 330 16:30 21.03.2021
6018 Clouds 7 1019 61 10000 9.77 320 15:58 21.03.2021
6019 Clouds 7 1019 61 10000 9.77 320 15:38 21.03.2021
6020 Clouds 7 1019 65 10000 9.26 320 15:19 21.03.2021
6021 Clouds 7 1019 65 10000 9.26 320 15:19 21.03.2021
6022 Clouds 7 1018 65 10000 10.29 320 14:42 21.03.2021
6023 Clouds 7 1018 61 10000 9.26 320 14:24 21.03.2021
6024 Clouds 7 1018 65 10000 10.29 320 13:52 21.03.2021
6025 Clouds 7 1018 65 10000 8.75 330 12:59 21.03.2021
6026 Clouds 7 1018 65 10000 8.75 330 12:41 21.03.2021
6027 Clouds 7 1018 65 10000 10.29 320 12:22 21.03.2021
6028 Clouds 7 1018 70 10000 10.29 330 11:28 21.03.2021
6029 Clouds 6 1018 70 10000 10.8 330 10:59 21.03.2021
6030 Clouds 6 1018 70 10000 10.8 330 10:41 21.03.2021
6031 Clouds 6 1018 70 10000 10.29 320 10:22 21.03.2021
6032 Clouds 6 1017 70 10000 7.72 320 09:44 21.03.2021
6033 Clouds 5 1018 75 10000 8.75 320 09:26 21.03.2021
6034 Clouds 5 1018 75 10000 9.26 320 08:40 21.03.2021
6035 Clouds 5 1017 75 10000 9.26 320 08:21 21.03.2021
6036 Clouds 5 1017 81 10000 8.23 320 07:38 21.03.2021
6037 Drizzle 5 1017 81 10000 8.75 320 06:56 21.03.2021
6038 Drizzle 6 1017 87 5000 6.69 290 05:45 21.03.2021
6039 Drizzle 5 1019 93 10000 5.66 260 02:25 21.03.2021
6040 Clouds 5 1021 93 10000 6.17 270 00:42 21.03.2021
6041 Clouds 5 1021 93 10000 6.17 270 00:22 21.03.2021
6042 Drizzle 5 1021 93 8000 5.66 280 23:49 20.03.2021
6043 Clouds 5 1021 87 10000 5.14 270 23:22 20.03.2021
6044 Drizzle 5 1021 93 10000 5.66 280 22:56 20.03.2021
6045 Clouds 5 1022 93 10000 6.17 290 22:23 20.03.2021
6046 Drizzle 5 1022 93 10000 6.69 290 21:47 20.03.2021
6047 Drizzle 5 1022 93 5000 4.63 260 21:25 20.03.2021
6048 Drizzle 5 1022 93 5000 5.66 260 20:48 20.03.2021
6049 Drizzle 5 1022 93 10000 6.17 260 20:23 20.03.2021
6050 Clouds 5 1023 87 10000 5.66 260 19:51 20.03.2021
6051 Clouds 5 1023 87 10000 6.17 260 19:28 20.03.2021
6052 Clouds 6 1023 75 10000 7.2 260 18:50 20.03.2021
6053 Clouds 6 1024 75 10000 6.69 270 18:27 20.03.2021
6054 Clouds 6 1024 70 10000 5.66 260 17:58 20.03.2021
6055 Clouds 6 1024 70 10000 5.66 260 17:40 20.03.2021
6056 Clouds 6 1024 70 10000 6.69 260 17:19 20.03.2021
6057 Clouds 6 1025 65 10000 7.2 270 16:38 20.03.2021
6058 Clouds 6 1025 65 10000 6.69 260 16:18 20.03.2021
6059 Clouds 6 1025 65 10000 6.17 260 15:40 20.03.2021
6060 Clouds 6 1026 65 10000 6.17 260 15:21 20.03.2021
6061 Clouds 6 1026 65 10000 6.17 260 14:32 20.03.2021
6062 Clouds 6 1027 61 10000 6.17 230 13:59 20.03.2021
6063 Clouds 6 1027 60 10000 5.14 240 13:30 20.03.2021
6064 Clouds 6 1027 60 10000 5.14 240 13:30 20.03.2021
6065 Clouds 4 1029 56 10000 4.63 230 12:37 20.03.2021
6066 Clouds 4 1029 56 10000 4.63 230 12:18 20.03.2021
6067 Clouds 4 1029 56 10000 4.63 230 11:41 20.03.2021
6068 Clouds 3 1029 64 10000 4.63 230 11:21 20.03.2021
6069 Clouds 2 1029 60 10000 5.14 230 10:45 20.03.2021
6070 Clouds 2 1029 64 10000 4.12 230 10:23 20.03.2021
6071 Clouds 1 1029 74 10000 3.09 230 09:44 20.03.2021
6072 Clouds 0 1029 74 10000 3.09 240 09:22 20.03.2021
6073 Clouds -1 1029 80 10000 1.54 230 08:51 20.03.2021
6074 Clear -1 1029 80 10000 1.54 210 08:19 20.03.2021
6075 Clear -2 1029 80 10000 1.54 220 07:48 20.03.2021
6076 Clear -2 1029 86 10000 0.51 0 07:29 20.03.2021
6077 Clear -3 1029 86 10000 1.03 180 06:40 20.03.2021
6078 Clear -4 1029 86 10000 1.54 260 05:28 20.03.2021
6079 Clear -4 1030 93 10000 0.51 0 03:44 20.03.2021
6080 Clear -2 1030 69 10000 2.06 50 01:42 20.03.2021
6081 Clear -2 1030 69 10000 3.09 70 23:48 19.03.2021
6082 Clear -1 1030 69 10000 3.6 70 23:20 19.03.2021
6083 Clear -1 1029 74 10000 2.57 50 22:45 19.03.2021
6084 Clear 0 1029 74 10000 3.09 70 22:24 19.03.2021
6085 Clear 0 1029 69 10000 4.12 70 21:51 19.03.2021
6086 Clear 1 1028 64 10000 4.12 60 21:21 19.03.2021
6087 Clear 1 1028 69 10000 4.12 60 20:46 19.03.2021
6088 Clouds 2 1028 64 10000 4.63 50 20:27 19.03.2021
6089 Clouds 2 1028 69 10000 3.6 50 19:52 19.03.2021
6090 Clouds 3 1027 65 10000 4.63 50 19:25 19.03.2021
6091 Clouds 3 1027 65 10000 6.69 60 18:58 19.03.2021
6092 Clouds 3 1027 65 10000 6.69 60 18:36 19.03.2021
6093 Clouds 4 1027 70 10000 6.69 50 18:18 19.03.2021
6094 Clouds 5 1026 65 10000 5.14 50 17:48 19.03.2021
6095 Clouds 6 1026 61 10000 5.66 30 17:23 19.03.2021
6096 Clouds 6 1026 61 10000 4.63 40 16:44 19.03.2021
6097 Clouds 6 1026 65 10000 5.14 50 16:26 19.03.2021
6098 Clouds 7 1026 61 10000 6.17 40 15:43 19.03.2021
6099 Clouds 6 1026 65 10000 4.12 350 15:22 19.03.2021
6100 Clouds 6 1026 70 10000 4.63 10 14:42 19.03.2021
6101 Clouds 7 1026 65 10000 4.63 30 14:21 19.03.2021
6102 Clouds 7 1025 61 10000 4.63 10 13:34 19.03.2021
6103 Clouds 6 1025 61 10000 4.63 20 12:49 19.03.2021
6104 Clouds 7 1025 61 10000 5.66 20 12:30 19.03.2021
6105 Clouds 7 1025 65 10000 5.66 360 11:39 19.03.2021
6106 Clear 6 1025 75 10000 4.63 20 10:53 19.03.2021
6107 Clear 5 1025 75 10000 4.12 20 10:30 19.03.2021
6108 Clear 4 1024 75 10000 4.12 10 09:49 19.03.2021
6109 Clear 3 1024 75 10000 4.12 20 09:30 19.03.2021
6110 Clear 2 1024 75 10000 4.12 20 08:54 19.03.2021
6111 Clear 2 1024 75 10000 4.12 20 08:36 19.03.2021
6112 Clear 0 1023 75 10000 3.6 20 07:54 19.03.2021
6113 Clear 0 1023 75 10000 3.6 20 07:35 19.03.2021
6114 Clear -1 1023 74 10000 2.57 10 06:43 19.03.2021
6115 Clear 0 1021 69 10000 3.09 20 02:45 19.03.2021
6116 Clear 0 1021 75 10000 3.09 30 00:52 19.03.2021
6117 Clear 1 1020 80 10000 3.09 30 23:30 18.03.2021
6118 Clear 1 1020 80 10000 3.09 30 23:30 18.03.2021
6119 Clear 2 1020 80 10000 3.6 20 22:58 18.03.2021
6120 Clear 2 1020 80 10000 3.6 20 22:38 18.03.2021
6121 Clear 2 1020 80 10000 3.09 30 22:18 18.03.2021
6122 Clouds 3 1020 81 10000 3.6 20 21:39 18.03.2021
6123 Clouds 4 1020 75 10000 5.14 360 20:51 18.03.2021
6124 Clouds 4 1020 75 10000 5.14 360 20:32 18.03.2021
6125 Clouds 4 1019 70 10000 2.57 10 19:48 18.03.2021
6126 Clouds 4 1019 70 10000 3.09 20 19:29 18.03.2021
6127 Clouds 5 1019 70 10000 3.09 20 18:58 18.03.2021
6128 Clouds 5 1019 70 10000 3.09 20 18:34 18.03.2021
6129 Clouds 5 1019 75 10000 3.09 30 17:51 18.03.2021
6130 Clouds 5 1020 81 10000 0.51 0 17:26 18.03.2021
6131 Clouds 5 1020 75 10000 0.51 110 16:49 18.03.2021
6132 Clouds 6 1020 75 10000 2.06 300 16:30 18.03.2021
6133 Clouds 6 1020 70 10000 2.06 340 15:49 18.03.2021
6134 Clouds 5 1021 70 10000 2.57 320 15:28 18.03.2021
6135 Clouds 5 1021 70 10000 3.6 320 14:57 18.03.2021
6136 Clouds 5 1021 70 10000 3.6 320 14:33 18.03.2021
6137 Clouds 6 1022 65 10000 1.54 310 13:54 18.03.2021
6138 Clouds 6 1022 65 10000 2.06 300 13:27 18.03.2021
6139 Clouds 6 1023 65 10000 2.06 260 12:46 18.03.2021
6140 Clouds 6 1023 65 10000 1.54 320 12:28 18.03.2021
6141 Clouds 5 1023 70 10000 1.54 300 11:55 18.03.2021
6142 Clouds 5 1023 70 10000 1.54 300 11:34 18.03.2021
6143 Clouds 5 1024 81 10000 1.54 300 10:51 18.03.2021
6144 Clouds 4 1024 93 9000 1.03 0 10:29 18.03.2021
6145 Clouds 4 1024 93 6000 0.51 0 09:58 18.03.2021
6146 Mist 3 1024 93 5000 1.03 0 09:30 18.03.2021
6147 Mist 2 1024 100 5000 2.06 290 08:57 18.03.2021
6148 Mist 2 1024 100 5000 2.06 290 08:33 18.03.2021
6149 Fog 2 1024 93 1000 2.06 260 07:58 18.03.2021
6150 Fog 1 1024 93 1000 2.06 260 07:40 18.03.2021
6151 Fog 1 1024 100 500 2.57 260 06:40 18.03.2021
6152 Fog 1 1025 100 400 2.06 290 06:22 18.03.2021
6153 Fog 0 1025 100 400 3.09 280 05:25 18.03.2021
6154 Fog 2 1026 100 200 3.09 290 00:40 18.03.2021
6155 Fog 1 1026 93 10000 2.06 300 23:19 17.03.2021
6156 Clear 1 1026 100 10000 2.57 310 22:38 17.03.2021
6157 Fog 1 1027 100 10000 1.54 300 22:20 17.03.2021
6158 Fog 1 1027 100 10000 2.06 290 21:50 17.03.2021
6159 Clear 2 1027 100 10000 1.03 280 21:31 17.03.2021
6160 Clouds 2 1026 93 10000 1.54 310 20:48 17.03.2021
6161 Clouds 2 1026 100 10000 1.03 300 20:26 17.03.2021
6162 Clouds 3 1026 93 10000 1.54 310 19:58 17.03.2021
6163 Clouds 3 1026 93 10000 1.54 310 19:39 17.03.2021
6164 Clouds 4 1025 87 10000 2.57 310 19:19 17.03.2021
6165 Rain 4 1025 81 6000 6.17 10 18:49 17.03.2021
6166 Rain 5 1025 81 10000 3.6 300 18:31 17.03.2021
6167 Clouds 6 1025 75 10000 3.09 310 17:33 17.03.2021
6168 Clouds 6 1025 70 10000 1.54 340 16:59 17.03.2021
6169 Clouds 6 1025 70 10000 1.54 340 16:39 17.03.2021
6170 Clouds 7 1025 70 10000 4.12 320 16:20 17.03.2021
6171 Clouds 6 1024 75 10000 3.09 290 15:45 17.03.2021
6172 Clouds 6 1024 81 10000 3.09 340 15:26 17.03.2021
6173 Rain 7 1024 61 8000 7.72 340 14:40 17.03.2021
6174 Rain 8 1024 57 10000 3.09 360 14:19 17.03.2021
6175 Clouds 8 1024 57 10000 3.09 10 13:54 17.03.2021
6176 Clouds 8 1023 61 10000 2.57 360 13:24 17.03.2021
6177 Clouds 9 1023 57 10000 2.06 0 12:43 17.03.2021
6178 Clouds 7 1023 61 10000 3.6 20 12:25 17.03.2021
6179 Clouds 7 1023 65 10000 4.12 350 11:41 17.03.2021
6180 Clouds 6 1024 65 10000 3.6 360 11:21 17.03.2021
6181 Clouds 5 1023 75 10000 2.57 300 10:52 17.03.2021
6182 Clouds 5 1023 81 10000 3.6 290 10:24 17.03.2021
6183 Clouds 4 1023 81 10000 4.63 300 09:46 17.03.2021
6184 Clouds 4 1023 75 10000 3.09 300 09:20 17.03.2021
6185 Clouds 4 1023 81 10000 4.12 300 08:53 17.03.2021
6186 Clouds 3 1023 81 10000 4.12 300 08:33 17.03.2021
6187 Clouds 3 1022 81 10000 2.57 290 07:46 17.03.2021
6188 Clouds 2 1022 87 10000 2.57 290 07:19 17.03.2021
6189 Clouds 2 1022 87 10000 2.57 290 06:36 17.03.2021
6190 Clouds 2 1022 93 10000 4.12 290 04:19 17.03.2021
6191 Clouds 2 1022 87 10000 3.6 300 02:49 17.03.2021
6192 Clouds 3 1022 87 10000 3.09 300 00:40 17.03.2021
6193 Clouds 3 1022 87 10000 4.63 300 23:28 16.03.2021
6194 Clouds 3 1022 87 10000 3.6 290 22:48 16.03.2021
6195 Clouds 3 1022 87 10000 2.57 270 22:29 16.03.2021
6196 Clouds 3 1022 81 10000 3.09 320 21:47 16.03.2021
6197 Clouds 3 1022 81 10000 4.63 330 21:29 16.03.2021
6198 Clouds 4 1021 70 10000 4.12 320 20:58 16.03.2021
6199 Clouds 4 1021 70 10000 3.6 330 20:20 16.03.2021
6200 Clouds 4 1022 70 10000 4.63 340 19:58 16.03.2021
6201 Clouds 4 1022 70 10000 4.63 340 19:40 16.03.2021
6202 Clouds 5 1021 75 10000 5.66 340 19:20 16.03.2021
6203 Clouds 5 1021 65 10000 5.14 340 18:40 16.03.2021
6204 Clouds 6 1021 65 10000 4.63 340 18:21 16.03.2021
6205 Clouds 6 1021 70 10000 5.66 340 17:47 16.03.2021
6206 Clouds 7 1021 61 10000 6.69 340 17:29 16.03.2021
6207 Clouds 7 1021 61 10000 7.2 340 16:52 16.03.2021
6208 Clouds 7 1021 57 10000 6.69 330 16:28 16.03.2021
6209 Clouds 8 1020 53 10000 7.2 310 15:47 16.03.2021
6210 Clouds 8 1020 53 10000 7.72 320 15:21 16.03.2021
6211 Clouds 8 1020 57 10000 8.23 300 14:58 16.03.2021
6212 Clouds 8 1020 57 10000 8.23 300 14:40 16.03.2021
6213 Clouds 8 1020 57 10000 8.23 300 14:40 16.03.2021
6214 Clouds 7 1020 57 10000 6.69 310 14:21 16.03.2021
6215 Clouds 7 1021 57 10000 7.2 330 13:54 16.03.2021
6216 Clouds 8 1021 57 10000 8.23 310 13:26 16.03.2021
6217 Clouds 8 1021 57 10000 8.23 310 12:54 16.03.2021
6218 Clouds 8 1021 57 10000 8.23 310 12:35 16.03.2021
6219 Clouds 7 1020 65 10000 6.69 310 11:54 16.03.2021
6220 Clouds 7 1020 70 10000 7.2 320 11:28 16.03.2021
6221 Clouds 5 1020 87 10000 6.69 300 10:45 16.03.2021
6222 Clouds 5 1020 81 10000 7.2 300 10:20 16.03.2021
6223 Clouds 5 1020 81 10000 6.69 300 09:40 16.03.2021
6224 Clouds 5 1020 81 10000 6.17 290 09:19 16.03.2021
6225 Clouds 5 1019 81 10000 4.63 290 08:52 16.03.2021
6226 Clouds 5 1019 81 10000 4.63 290 08:33 16.03.2021
6227 Clouds 4 1019 87 10000 5.14 300 07:50 16.03.2021
6228 Clouds 4 1019 87 10000 4.12 300 07:24 16.03.2021
6229 Clouds 4 1019 87 10000 4.63 290 06:37 16.03.2021
6230 Clouds 4 1018 87 10000 5.66 300 05:36 16.03.2021
6231 Clear 2 1017 93 10000 3.6 300 02:46 16.03.2021
6232 Clear 2 1017 93 10000 3.6 300 02:25 16.03.2021
6233 Clear 3 1016 93 10000 5.14 300 00:38 16.03.2021
6234 Clouds 3 1015 87 10000 4.12 300 23:54 15.03.2021
6235 Clouds 3 1015 93 10000 4.12 300 23:19 15.03.2021
6236 Clouds 4 1015 93 10000 4.63 300 22:43 15.03.2021
6237 Clouds 4 1014 93 10000 5.14 300 22:24 15.03.2021
6238 Clouds 4 1014 87 10000 5.14 300 21:49 15.03.2021
6239 Clouds 4 1013 87 10000 5.14 310 21:28 15.03.2021
6240 Clouds 4 1013 87 10000 5.66 300 20:54 15.03.2021
6241 Clouds 4 1013 87 10000 5.66 300 20:36 15.03.2021
6242 Clouds 5 1012 81 10000 6.17 310 20:18 15.03.2021
6243 Clouds 5 1012 81 10000 7.72 320 19:43 15.03.2021
6244 Clouds 5 1012 75 10000 9.77 310 19:22 15.03.2021
6245 Clouds 6 1011 70 10000 10.8 320 18:47 15.03.2021
6246 Clouds 6 1011 75 10000 9.77 310 18:23 15.03.2021
6247 Clouds 6 1010 70 10000 10.8 310 17:55 15.03.2021
6248 Clouds 6 1009 70 10000 10.29 310 17:28 15.03.2021
6249 Clouds 6 1009 81 10000 8.23 320 16:49 15.03.2021
6250 Clouds 6 1009 87 10000 6.69 330 16:20 15.03.2021
6251 Clouds 6 1008 76 10000 10.8 320 15:39 15.03.2021
6252 Clouds 7 1008 76 10000 9.77 300 15:20 15.03.2021
6253 Clouds 7 1007 76 10000 10.29 290 14:41 15.03.2021
6254 Clouds 7 1007 76 10000 10.29 290 14:21 15.03.2021
6255 Clouds 7 1007 76 10000 10.29 290 13:46 15.03.2021
6256 Clouds 7 1007 76 10000 10.8 310 13:24 15.03.2021
6257 Clouds 8 1007 76 10000 10.29 290 12:47 15.03.2021
6258 Clouds 7 1007 76 10000 9.26 290 12:18 15.03.2021
6259 Clouds 7 1006 76 10000 8.23 300 11:47 15.03.2021
6260 Clouds 7 1006 81 10000 7.72 290 11:29 15.03.2021
6261 Clouds 6 1006 87 10000 7.72 270 10:45 15.03.2021
6262 Clouds 6 1006 87 10000 7.72 270 10:45 15.03.2021
6263 Clouds 6 1006 87 10000 8.23 270 10:26 15.03.2021
6264 Clouds 6 1006 87 10000 8.23 270 10:26 15.03.2021
6265 Clouds 5 1006 93 10000 7.2 260 09:49 15.03.2021
6266 Clouds 5 1006 87 10000 6.69 260 09:30 15.03.2021
6267 Rain 5 1006 87 10000 7.2 260 08:48 15.03.2021
6268 Clouds 5 1006 87 10000 6.17 250 08:28 15.03.2021
6269 Clouds 4 1006 93 10000 5.14 260 07:49 15.03.2021
6270 Clouds 4 1006 93 10000 4.63 260 07:30 15.03.2021
6271 Clouds 4 1006 93 10000 4.12 250 06:39 15.03.2021
6272 Clouds 3 1006 93 10000 3.6 250 05:31 15.03.2021
6273 Clouds 4 1007 87 10000 3.6 240 01:26 15.03.2021
6274 Clouds 4 1007 87 10000 3.6 240 23:54 14.03.2021
6275 Clouds 4 1008 87 10000 4.12 240 23:19 14.03.2021
6276 Clouds 4 1008 93 10000 4.12 240 22:46 14.03.2021
6277 Clouds 4 1008 87 10000 4.12 240 22:19 14.03.2021
6278 Clouds 4 1008 87 10000 4.63 260 21:45 14.03.2021
6279 Clouds 5 1008 87 10000 5.66 260 21:19 14.03.2021
6280 Clouds 5 1008 87 10000 4.63 250 20:43 14.03.2021
6281 Clouds 5 1008 87 10000 3.6 260 20:25 14.03.2021
6282 Clouds 6 1008 87 10000 4.63 250 19:43 14.03.2021
6283 Clouds 6 1008 87 10000 4.63 280 19:23 14.03.2021
6284 Clouds 6 1007 81 10000 4.63 260 18:49 14.03.2021
6285 Clouds 7 1007 76 10000 6.17 260 18:27 14.03.2021
6286 Clouds 7 1007 81 10000 5.14 250 17:41 14.03.2021
6287 Rain 7 1007 76 10000 4.63 300 17:22 14.03.2021
6288 Clouds 8 1006 71 10000 7.2 260 16:46 14.03.2021
6289 Rain 9 1006 66 10000 6.17 270 16:28 14.03.2021
6290 Rain 8 1007 71 10000 5.14 280 15:56 14.03.2021
6291 Clouds 8 1007 71 10000 5.14 280 15:36 14.03.2021
6292 Rain 8 1007 87 10000 4.63 260 14:41 14.03.2021
6293 Clouds 7 1007 75 9000 9.77 310 14:23 14.03.2021
6294 Rain 8 1006 61 10000 7.2 270 13:49 14.03.2021
6295 Rain 8 1006 66 10000 9.26 260 13:29 14.03.2021
6296 Clouds 9 1006 66 10000 8.75 260 12:47 14.03.2021
6297 Clouds 8 1005 71 10000 8.75 260 12:28 14.03.2021
6298 Clouds 8 1005 76 10000 7.2 270 11:54 14.03.2021
6299 Clouds 8 1005 76 10000 7.2 270 11:36 14.03.2021
6300 Clouds 7 1004 81 10000 7.72 260 10:56 14.03.2021
6301 Clouds 7 1004 81 10000 7.72 260 10:37 14.03.2021
6302 Clouds 6 1004 87 10000 8.23 270 10:18 14.03.2021
6303 Clouds 6 1004 93 10000 5.14 270 09:44 14.03.2021
6304 Clouds 4 1003 87 8000 4.63 300 09:23 14.03.2021
6305 Rain 4 1003 87 10000 4.12 310 08:49 14.03.2021
6306 Rain 4 1002 93 10000 5.14 300 08:31 14.03.2021
6307 Rain 4 1001 93 9000 7.2 300 07:48 14.03.2021
6308 Rain 4 1001 93 9000 7.2 300 07:48 14.03.2021
6309 Rain 4 1000 87 10000 7.72 260 07:20 14.03.2021
6310 Clouds 3 999 87 10000 7.2 270 05:33 14.03.2021
6311 Rain 4 993 87 10000 13.89 270 00:59 14.03.2021
6312 Rain 4 993 87 10000 12.86 260 00:20 14.03.2021
6313 Rain 4 993 87 10000 12.86 260 00:20 14.03.2021
6314 Rain 4 992 87 10000 13.89 260 23:57 13.03.2021
6315 Rain 4 992 87 10000 13.89 260 23:36 13.03.2021
6316 Rain 5 991 81 10000 13.38 260 22:55 13.03.2021
6317 Rain 5 991 81 10000 13.38 260 22:36 13.03.2021
6318 Rain 5 990 87 10000 13.89 250 21:50 13.03.2021
6319 Rain 5 989 81 10000 12.86 250 21:27 13.03.2021
6320 Rain 6 989 75 10000 12.35 240 20:54 13.03.2021
6321 Rain 6 989 75 10000 12.35 240 20:32 13.03.2021
6322 Clouds 5 989 81 10000 12.35 250 19:56 13.03.2021
6323 Clouds 5 989 81 10000 12.35 250 19:36 13.03.2021
6324 Clouds 5 989 81 10000 12.35 250 19:18 13.03.2021
6325 Clouds 5 989 81 10000 12.35 250 19:18 13.03.2021
6326 Clouds 5 988 87 10000 13.89 270 18:40 13.03.2021
6327 Rain 5 987 81 10000 10.29 250 18:19 13.03.2021
6328 Clouds 6 987 81 10000 8.23 220 17:44 13.03.2021
6329 Rain 6 987 81 10000 10.29 230 17:25 13.03.2021
6330 Clouds 6 987 81 10000 11.32 240 16:50 13.03.2021
6331 Clouds 7 987 71 10000 9.26 230 16:31 13.03.2021
6332 Rain 6 987 81 10000 8.75 250 15:47 13.03.2021
6333 Rain 7 987 71 10000 11.32 230 14:56 13.03.2021
6334 Clouds 7 987 71 10000 11.32 230 14:38 13.03.2021
6335 Clouds 8 988 76 10000 9.26 230 14:18 13.03.2021
6336 Clouds 7 988 81 10000 7.72 250 13:26 13.03.2021
6337 Rain 6 988 81 8000 11.32 260 12:48 13.03.2021
6338 Clouds 8 988 71 10000 9.26 220 12:29 13.03.2021
6339 Clouds 8 988 71 10000 8.75 220 11:52 13.03.2021
6340 Clouds 8 988 81 10000 8.75 220 11:31 13.03.2021
6341 Clouds 7 989 75 10000 8.23 220 10:55 13.03.2021
6342 Clouds 6 989 75 10000 13.89 240 10:31 13.03.2021
6343 Rain 6 988 87 9000 8.23 180 09:57 13.03.2021
6344 Rain 6 989 87 9000 8.75 180 09:31 13.03.2021
6345 Rain 5 989 93 9000 8.75 180 08:53 13.03.2021
6346 Rain 5 990 93 9000 8.75 170 08:20 13.03.2021
6347 Rain 5 991 93 10000 8.23 170 07:56 13.03.2021
6348 Rain 5 992 93 10000 8.23 180 07:28 13.03.2021
6349 Clouds 4 996 93 10000 4.12 190 04:45 13.03.2021
6350 Clouds 3 998 87 10000 7.72 220 01:22 13.03.2021
6351 Rain 3 999 93 5000 6.17 280 00:24 13.03.2021
6352 Clouds 4 999 87 10000 5.66 230 23:33 12.03.2021
6353 Rain 4 999 87 10000 5.14 230 22:57 12.03.2021
6354 Clouds 5 998 81 10000 5.14 240 22:30 12.03.2021
6355 Clouds 4 998 87 10000 4.63 250 21:56 12.03.2021
6356 Clouds 4 998 87 10000 4.63 250 21:37 12.03.2021
6357 Rain 4 999 93 8000 3.09 280 21:18 12.03.2021
6358 Clouds 4 998 93 10000 6.17 270 20:47 12.03.2021
6359 Clouds 5 998 87 10000 5.66 230 20:22 12.03.2021
6360 Clouds 4 999 93 10000 3.6 240 19:44 12.03.2021
6361 Clouds 4 999 93 10000 5.14 240 19:25 12.03.2021
6362 Clouds 5 998 81 6000 9.77 230 18:47 12.03.2021
6363 Rain 6 998 71 10000 10.29 220 18:25 12.03.2021
6364 Clouds 7 998 71 10000 8.75 220 17:44 12.03.2021
6365 Rain 7 999 81 10000 5.14 220 17:26 12.03.2021
6366 Rain 7 999 81 10000 9.26 220 16:44 12.03.2021
6367 Rain 8 1000 76 10000 10.29 220 16:24 12.03.2021
6368 Rain 8 1000 76 10000 10.29 220 16:24 12.03.2021
6369 Clouds 8 1000 76 10000 9.77 220 15:38 12.03.2021
6370 Clouds 8 1001 71 10000 12.35 230 14:58 12.03.2021
6371 Clouds 7 1001 71 10000 12.35 230 14:38 12.03.2021
6372 Rain 9 1001 57 10000 11.32 230 14:18 12.03.2021
6373 Clouds 9 1002 57 10000 9.77 230 13:38 12.03.2021
6374 Clouds 9 1002 61 10000 10.8 240 13:19 12.03.2021
6375 Clouds 9 1002 66 10000 11.32 230 12:49 12.03.2021
6376 Clouds 8 1002 61 10000 10.8 240 12:28 12.03.2021
6377 Clouds 8 1002 66 10000 10.29 240 11:54 12.03.2021
6378 Clouds 8 1002 66 10000 10.29 240 11:54 12.03.2021
6379 Clouds 8 1002 70 10000 10.8 240 11:25 12.03.2021
6380 Clouds 7 1003 70 10000 9.26 240 10:57 12.03.2021
6381 Clouds 7 1003 75 10000 10.8 240 10:28 12.03.2021
6382 Clouds 7 1003 75 10000 9.26 240 09:58 12.03.2021
6383 Clouds 6 1003 75 10000 9.77 250 09:27 12.03.2021
6384 Clouds 6 1002 75 10000 8.75 240 08:51 12.03.2021
6385 Clouds 6 1002 75 10000 8.75 240 08:33 12.03.2021
6386 Clouds 5 1002 75 10000 8.23 260 07:41 12.03.2021
6387 Clouds 6 1002 75 10000 8.23 260 07:18 12.03.2021
6388 Clouds 6 1001 75 10000 8.23 260 06:40 12.03.2021
6389 Clouds 5 998 87 10000 5.14 230 03:29 12.03.2021
6390 Rain 5 997 87 10000 6.17 240 00:52 12.03.2021
6391 Clouds 5 997 87 10000 6.17 240 23:40 11.03.2021
6392 Clouds 6 996 81 10000 4.63 250 22:58 11.03.2021
6393 Rain 6 996 81 10000 4.63 250 22:38 11.03.2021
6394 Clouds 6 995 87 10000 5.66 260 22:18 11.03.2021
6395 Rain 6 995 87 10000 4.63 280 21:42 11.03.2021
6396 Clouds 7 995 87 10000 8.23 260 21:21 11.03.2021
6397 Rain 7 994 81 10000 5.66 250 20:49 11.03.2021
6398 Clouds 7 995 81 10000 5.14 250 20:22 11.03.2021
6399 Clouds 7 995 87 10000 3.6 250 19:49 11.03.2021
6400 Rain 8 994 81 10000 7.72 260 19:30 11.03.2021
6401 Clouds 8 994 81 10000 9.77 260 18:52 11.03.2021
6402 Rain 8 994 81 10000 9.77 260 18:34 11.03.2021
6403 Clouds 8 993 76 10000 14.4 270 17:52 11.03.2021
6404 Clouds 8 993 76 10000 12.86 270 17:30 11.03.2021
6405 Clouds 9 992 81 10000 11.83 260 16:32 11.03.2021
6406 Clouds 9 991 81 10000 12.35 250 15:56 11.03.2021
6407 Clouds 9 991 81 10000 12.35 250 15:37 11.03.2021
6408 Rain 8 990 87 10000 13.38 240 15:19 11.03.2021
6409 Rain 8 990 81 6000 13.38 250 14:43 11.03.2021
6410 Rain 9 989 76 10000 13.38 230 14:18 11.03.2021
6411 Rain 10 989 71 10000 14.4 250 13:43 11.03.2021
6412 Rain 11 989 71 10000 13.89 230 13:21 11.03.2021
6413 Clouds 12 990 62 10000 13.38 240 12:50 11.03.2021
6414 Clouds 11 990 66 10000 11.83 230 12:28 11.03.2021
6415 Clouds 11 990 71 10000 11.83 220 11:46 11.03.2021
6416 Clouds 11 991 71 10000 13.38 220 11:27 11.03.2021
6417 Clouds 11 991 71 10000 12.86 220 10:55 11.03.2021
6418 Clouds 10 992 81 10000 10.29 220 10:25 11.03.2021
6419 Clouds 9 992 87 10000 9.26 200 09:50 11.03.2021
6420 Clouds 9 992 87 10000 9.26 200 09:32 11.03.2021
6421 Clouds 8 993 87 10000 7.72 200 08:50 11.03.2021
6422 Clouds 7 994 93 7000 8.23 190 08:31 11.03.2021
6423 Clouds 7 994 93 9000 7.72 200 07:47 11.03.2021
6424 Clouds 7 995 93 9000 7.72 200 07:20 11.03.2021
6425 Rain 7 995 87 9000 7.2 200 06:40 11.03.2021
6426 Rain 7 996 87 7000 6.17 200 06:21 11.03.2021
6427 Clouds 6 1001 87 6000 8.23 170 02:25 11.03.2021
6428 Rain 7 1004 81 10000 7.72 180 00:26 11.03.2021
6429 Rain 7 1006 76 10000 8.75 160 23:23 10.03.2021
6430 Rain 7 1007 76 10000 7.72 160 22:42 10.03.2021
6431 Rain 7 1007 76 10000 7.2 160 22:21 10.03.2021
6432 Rain 7 1008 76 10000 7.72 160 21:44 10.03.2021
6433 Clouds 7 1009 76 10000 7.2 160 21:22 10.03.2021
6434 Clouds 7 1009 76 10000 7.2 160 21:22 10.03.2021
6435 Clouds 7 1010 76 10000 7.2 160 20:45 10.03.2021
6436 Rain 7 1010 76 10000 5.66 140 20:27 10.03.2021
6437 Rain 7 1011 81 10000 5.14 140 19:48 10.03.2021
6438 Rain 7 1012 81 10000 5.14 160 19:27 10.03.2021
6439 Rain 7 1012 76 10000 5.14 150 18:46 10.03.2021
6440 Rain 7 1012 81 10000 5.14 150 18:24 10.03.2021
6441 Rain 7 1012 81 10000 5.14 150 18:24 10.03.2021
6442 Rain 7 1013 81 10000 4.63 160 17:56 10.03.2021
6443 Rain 7 1013 81 10000 4.63 160 17:37 10.03.2021
6444 Rain 7 1014 81 10000 4.63 170 17:19 10.03.2021
6445 Clouds 7 1014 76 10000 4.63 180 16:42 10.03.2021
6446 Rain 7 1014 76 10000 5.66 180 16:23 10.03.2021
6447 Clouds 7 1014 76 10000 4.63 190 15:46 10.03.2021
6448 Clouds 7 1015 76 10000 4.63 190 15:23 10.03.2021
6449 Clouds 7 1015 76 10000 5.66 170 14:56 10.03.2021
6450 Clouds 7 1016 70 10000 6.17 170 14:20 10.03.2021
6451 Clouds 7 1016 70 10000 6.17 170 14:20 10.03.2021
6452 Clouds 7 1016 70 10000 6.17 180 13:52 10.03.2021
6453 Clouds 6 1017 75 10000 6.17 170 13:30 10.03.2021
6454 Clouds 6 1017 70 10000 7.2 170 12:46 10.03.2021
6455 Clouds 6 1017 70 10000 5.66 170 12:21 10.03.2021
6456 Clouds 5 1017 81 8000 5.66 150 11:44 10.03.2021
6457 Clouds 4 1017 87 7000 4.63 160 11:21 10.03.2021
6458 Clouds 4 1018 87 7000 4.12 150 10:49 10.03.2021
6459 Mist 3 1018 93 5000 3.6 140 10:30 10.03.2021
6460 Mist 3 1018 93 3600 2.57 140 09:46 10.03.2021
6461 Mist 3 1018 93 3000 2.57 130 09:27 10.03.2021
6462 Mist 2 1018 100 2800 3.09 160 08:58 10.03.2021
6463 Mist 2 1018 100 2800 3.09 160 08:40 10.03.2021
6464 Mist 2 1018 93 2800 2.06 150 08:21 10.03.2021
6465 Mist 2 1018 93 2800 2.06 170 07:41 10.03.2021
6466 Mist 2 1018 100 2800 2.57 170 07:19 10.03.2021
6467 Mist 2 1018 100 3800 2.06 160 06:46 10.03.2021
6468 Mist 2 1018 100 3800 1.63 133 02:42 10.03.2021
6469 Fog 2 1018 100 700 1.03 80 23:59 09.03.2021
6470 Mist 2 1018 100 1800 1.54 90 23:27 09.03.2021
6471 Fog 2 1018 100 800 1.54 80 22:50 09.03.2021
6472 Mist 2 1018 100 1100 1.03 70 22:31 09.03.2021
6473 Mist 2 1018 100 1000 1.54 60 21:58 09.03.2021
6474 Mist 2 1018 100 1000 1.54 60 21:37 09.03.2021
6475 Mist 2 1018 100 1600 1.54 60 21:18 09.03.2021
6476 Mist 2 1018 100 1800 1.54 80 20:45 09.03.2021
6477 Mist 2 1018 100 1500 1.54 90 20:23 09.03.2021
6478 Mist 2 1018 100 1500 1.54 80 19:59 09.03.2021
6479 Mist 2 1018 100 1500 2.57 100 19:29 09.03.2021
6480 Mist 2 1017 100 1000 2.57 90 18:55 09.03.2021
6481 Mist 2 1017 100 1200 2.06 100 18:31 09.03.2021
6482 Mist 2 1017 100 1600 2.57 90 17:59 09.03.2021
6483 Mist 2 1017 100 1600 2.57 90 17:39 09.03.2021
6484 Mist 2 1017 100 2000 2.57 90 17:20 09.03.2021
6485 Mist 2 1017 100 1500 3.09 90 16:40 09.03.2021
6486 Mist 2 1017 100 1500 3.09 80 16:21 09.03.2021
6487 Mist 2 1017 100 2000 2.57 80 15:56 09.03.2021
6488 Mist 2 1016 100 3000 2.06 100 15:25 09.03.2021
6489 Mist 2 1016 93 3500 2.57 110 14:49 09.03.2021
6490 Mist 2 1016 93 4500 2.57 120 14:26 09.03.2021
6491 Mist 2 1017 93 4500 2.57 120 13:42 09.03.2021
6492 Mist 2 1017 93 4500 2.57 120 13:21 09.03.2021
6493 Mist 2 1017 93 5000 2.57 120 12:54 09.03.2021
6494 Mist 2 1017 93 5000 2.57 120 12:35 09.03.2021
6495 Rain 2 1017 93 5000 3.6 120 11:44 09.03.2021
6496 Rain 2 1017 93 5000 3.6 120 11:22 09.03.2021
6497 Rain 1 1017 93 5000 3.09 120 10:59 09.03.2021
6498 Rain 1 1017 93 5000 3.09 120 10:39 09.03.2021
6499 Snow 1 1017 93 5000 3.09 130 10:20 09.03.2021
6500 Snow 1 1017 93 4500 2.57 130 09:46 09.03.2021
6501 Rain 1 1017 100 3500 2.57 130 09:27 09.03.2021
6502 Rain 1 1017 100 2000 2.57 130 08:57 09.03.2021
6503 Rain 1 1017 100 2000 3.09 130 08:32 09.03.2021
6504 Snow 1 1017 100 2000 3.09 130 07:46 09.03.2021
6505 Snow 1 1017 100 2000 3.09 130 07:26 09.03.2021
6506 Snow 1 1017 100 2800 4.12 130 06:55 09.03.2021
6507 Snow 1 1017 100 2400 4.63 140 05:53 09.03.2021
6508 Rain 3 1020 65 10000 1.54 200 01:42 09.03.2021
6509 Rain 3 1020 60 10000 2.57 120 23:58 08.03.2021
6510 Rain 3 1020 60 10000 2.57 120 23:39 08.03.2021
6511 Rain 3 1021 60 10000 2.57 140 23:19 08.03.2021
6512 Clear 3 1021 56 10000 2.57 140 22:40 08.03.2021
6513 Clear 3 1021 52 10000 2.06 130 22:21 08.03.2021
6514 Clear 4 1021 48 10000 2.06 140 21:50 08.03.2021
6515 Clear 4 1021 48 10000 2.06 140 21:50 08.03.2021
6516 Clear 3 1021 60 10000 1.54 150 21:30 08.03.2021
6517 Clear 4 1021 48 10000 1.03 140 20:44 08.03.2021
6518 Clear 4 1021 56 10000 1.54 200 20:23 08.03.2021
6519 Clear 3 1021 52 10000 1.54 160 19:53 08.03.2021
6520 Clear 5 1022 42 10000 1.54 140 19:27 08.03.2021
6521 Clear 4 1022 48 10000 2.06 150 18:38 08.03.2021
6522 Clear 5 1022 45 10000 1.54 140 18:19 08.03.2021
6523 Clear 5 1022 45 10000 2.57 150 17:48 08.03.2021
6524 Clear 6 1022 39 10000 2.06 120 17:24 08.03.2021
6525 Clear 6 1022 39 10000 3.09 140 16:45 08.03.2021
6526 Clear 6 1022 39 10000 3.09 140 16:26 08.03.2021
6527 Clear 7 1022 39 10000 2.57 120 15:48 08.03.2021
6528 Clear 7 1023 36 10000 3.09 150 15:25 08.03.2021
6529 Clear 7 1023 39 10000 3.6 160 14:38 08.03.2021
6530 Clear 6 1023 38 10000 3.09 130 14:19 08.03.2021
6531 Clouds 6 1023 36 10000 3.09 170 13:37 08.03.2021
6532 Clouds 6 1023 38 10000 4.12 160 13:18 08.03.2021
6533 Clouds 6 1024 45 10000 2.57 150 12:42 08.03.2021
6534 Clouds 6 1024 52 10000 2.57 150 12:22 08.03.2021
6535 Clear 5 1024 56 10000 2.57 150 11:38 08.03.2021
6536 Clear 4 1024 60 10000 2.06 150 11:18 08.03.2021
6537 Clear 3 1024 70 10000 2.06 140 10:41 08.03.2021
6538 Clear 2 1024 69 10000 2.06 120 10:19 08.03.2021
6539 Clear 1 1024 75 10000 2.57 90 09:41 08.03.2021
6540 Clear 1 1024 80 10000 1.54 80 09:22 08.03.2021
6541 Clear -1 1023 93 10000 1.54 40 08:28 08.03.2021
6542 Fog -2 1023 93 10000 1.54 30 07:23 08.03.2021
6543 Clear -1 1022 100 10000 0.51 30 06:43 08.03.2021
6544 Clouds 0 1021 100 10000 2.06 310 03:39 08.03.2021
6545 Clouds 2 1021 93 10000 2.57 300 00:44 08.03.2021
6546 Drizzle 3 1021 87 8000 4.12 340 23:57 07.03.2021
6547 Drizzle 3 1021 87 8000 4.12 340 23:39 07.03.2021
6548 Clouds 3 1021 93 6000 5.14 350 23:19 07.03.2021
6549 Clouds 4 1021 93 7000 4.63 310 22:43 07.03.2021
6550 Clouds 4 1020 93 10000 5.14 280 22:25 07.03.2021
6551 Drizzle 4 1020 87 10000 5.14 270 21:45 07.03.2021
6552 Clouds 4 1020 87 10000 5.66 260 21:25 07.03.2021
6553 Clouds 4 1020 81 10000 5.14 260 20:48 07.03.2021
6554 Clouds 4 1021 81 10000 5.14 260 20:30 07.03.2021
6555 Clouds 4 1021 81 10000 4.63 270 19:57 07.03.2021
6556 Clouds 4 1021 81 10000 4.63 270 19:38 07.03.2021
6557 Clouds 4 1021 81 10000 4.63 260 19:20 07.03.2021
6558 Clouds 4 1020 75 10000 5.14 260 18:44 07.03.2021
6559 Clouds 4 1020 75 10000 5.14 270 18:20 07.03.2021
6560 Clouds 4 1021 75 10000 5.66 260 17:42 07.03.2021
6561 Clouds 5 1021 70 10000 6.17 270 17:21 07.03.2021
6562 Clouds 5 1021 70 10000 5.66 280 16:59 07.03.2021
6563 Clouds 5 1021 70 10000 5.66 280 16:38 07.03.2021
6564 Clouds 5 1021 70 10000 6.17 270 16:19 07.03.2021
6565 Clouds 5 1021 70 10000 6.17 270 16:19 07.03.2021
6566 Clouds 5 1022 70 10000 6.69 280 15:45 07.03.2021
6567 Clouds 4 1022 70 10000 6.69 270 15:23 07.03.2021
6568 Clouds 5 1022 65 10000 5.66 270 14:39 07.03.2021
6569 Clouds 5 1022 65 10000 7.2 280 14:20 07.03.2021
6570 Clouds 5 1023 65 10000 7.2 270 13:41 07.03.2021
6571 Clouds 5 1023 65 10000 6.69 270 13:21 07.03.2021
6572 Clouds 5 1023 65 10000 5.66 260 12:47 07.03.2021
6573 Clouds 5 1024 65 10000 6.17 260 12:29 07.03.2021
6574 Clouds 5 1024 70 10000 5.66 250 11:49 07.03.2021
6575 Clouds 4 1024 70 10000 4.12 260 11:22 07.03.2021
6576 Clouds 3 1024 75 10000 4.63 260 10:50 07.03.2021
6577 Clouds 3 1024 70 10000 4.63 260 10:31 07.03.2021
6578 Clouds 2 1025 80 10000 3.6 260 09:51 07.03.2021
6579 Clouds 2 1025 80 10000 3.09 250 09:26 07.03.2021
6580 Clouds 2 1025 75 10000 3.09 260 08:48 07.03.2021
6581 Clouds 2 1025 80 10000 3.6 250 08:25 07.03.2021
6582 Clouds 2 1025 80 10000 3.6 250 07:51 07.03.2021
6583 Clouds 0 1028 93 10000 2.57 270 02:44 07.03.2021
6584 Clouds -1 1028 93 10000 2.06 260 01:45 07.03.2021
6585 Clear -1 1029 93 10000 2.57 260 00:24 07.03.2021
6586 Clear 0 1029 86 10000 2.57 250 23:39 06.03.2021
6587 Clouds 1 1030 86 10000 2.57 280 22:57 06.03.2021
6588 Clouds 1 1030 86 10000 2.57 280 22:38 06.03.2021
6589 Clouds 2 1030 80 10000 3.09 300 22:19 06.03.2021
6590 Clouds 3 1030 81 10000 2.57 290 21:40 06.03.2021
6591 Clouds 3 1030 87 10000 2.06 280 21:20 06.03.2021
6592 Clouds 3 1030 87 10000 2.06 280 20:41 06.03.2021
6593 Clouds 3 1030 87 10000 2.57 310 19:51 06.03.2021
6594 Clouds 4 1031 87 10000 2.06 300 19:25 06.03.2021
6595 Clouds 4 1031 87 10000 2.06 300 18:57 06.03.2021
6596 Clouds 4 1031 87 10000 2.06 300 18:39 06.03.2021
6597 Clouds 4 1030 87 10000 2.06 330 18:20 06.03.2021
6598 Clouds 5 1031 87 10000 4.63 290 17:47 06.03.2021
6599 Clouds 5 1031 81 10000 2.57 290 17:26 06.03.2021
6600 Clouds 5 1031 81 10000 3.09 290 16:53 06.03.2021
6601 Clouds 5 1031 81 10000 5.14 270 16:30 06.03.2021
6602 Clouds 6 1031 75 10000 5.14 280 15:55 06.03.2021
6603 Clouds 6 1031 75 10000 5.14 280 15:34 06.03.2021
6604 Clouds 6 1032 87 10000 4.63 280 14:57 06.03.2021
6605 Clouds 5 1032 81 10000 5.14 280 14:31 06.03.2021
6606 Clouds 6 1032 81 10000 4.63 270 13:50 06.03.2021
6607 Clouds 6 1033 87 10000 6.17 290 13:32 06.03.2021
6608 Clouds 6 1033 87 10000 4.63 280 12:58 06.03.2021
6609 Clouds 6 1033 87 10000 4.63 280 12:38 06.03.2021
6610 Clouds 6 1033 81 10000 4.63 290 12:18 06.03.2021
6611 Clouds 5 1033 87 10000 3.6 270 11:29 06.03.2021
6612 Clouds 4 1033 93 10000 4.12 280 10:59 06.03.2021
6613 Clouds 4 1033 93 10000 4.12 280 10:41 06.03.2021
6614 Clouds 3 1033 93 10000 4.63 270 09:56 06.03.2021
6615 Clouds 2 1033 93 10000 4.63 270 09:24 06.03.2021
6616 Clouds 2 1033 87 10000 4.12 260 08:54 06.03.2021
6617 Clouds 1 1033 93 10000 3.09 260 08:30 06.03.2021
6618 Clouds 1 1033 93 10000 3.09 260 08:30 06.03.2021
6619 Clouds 1 1032 86 10000 3.6 250 07:43 06.03.2021
6620 Clouds 1 1032 86 10000 3.09 250 07:21 06.03.2021
6621 Clouds 1 1032 86 10000 3.09 260 05:50 06.03.2021
6622 Clouds -1 1032 86 10000 1.54 250 03:47 06.03.2021
6623 Clouds -1 1033 86 10000 1.03 270 01:33 06.03.2021
6624 Clouds -1 1033 86 10000 1.03 230 00:46 06.03.2021
6625 Clouds -1 1032 86 10000 1.03 250 23:48 05.03.2021
6626 Clouds -2 1032 86 10000 1.03 240 23:19 05.03.2021
6627 Clear -1 1032 86 10000 1.54 260 22:43 05.03.2021
6628 Clear -1 1032 74 10000 2.57 270 22:21 05.03.2021
6629 Clear 0 1032 75 10000 1.54 290 21:51 05.03.2021
6630 Clear 1 1032 69 10000 2.06 300 21:29 05.03.2021
6631 Clear 0 1031 74 10000 2.06 290 20:50 05.03.2021
6632 Clear 2 1031 65 10000 2.06 320 20:25 05.03.2021
6633 Clear 2 1031 65 10000 3.09 340 19:49 05.03.2021
6634 Clear 3 1031 56 10000 3.6 340 19:26 05.03.2021
6635 Clear 3 1031 56 10000 3.6 340 19:26 05.03.2021
6636 Clear 3 1030 52 10000 4.12 320 18:55 05.03.2021
6637 Clear 4 1030 52 10000 4.12 310 18:36 05.03.2021
6638 Clear 3 1030 52 10000 4.12 310 18:18 05.03.2021
6639 Clouds 5 1030 48 10000 4.63 320 17:33 05.03.2021
6640 Clouds 6 1029 45 10000 5.14 290 16:45 05.03.2021
6641 Clouds 7 1029 42 10000 4.63 290 16:24 05.03.2021
6642 Clouds 6 1029 42 10000 3.6 0 15:56 05.03.2021
6643 Clouds 7 1029 42 10000 3.6 320 15:29 05.03.2021
6644 Clouds 7 1029 45 10000 2.57 290 14:58 05.03.2021
6645 Clouds 7 1029 45 10000 2.57 290 14:38 05.03.2021
6646 Clouds 6 1029 45 10000 3.6 0 13:46 05.03.2021
6647 Clouds 7 1029 45 10000 3.6 360 13:22 05.03.2021
6648 Clouds 6 1029 48 10000 3.6 30 12:49 05.03.2021
6649 Clouds 6 1029 45 10000 4.12 30 11:54 05.03.2021
6650 Clouds 5 1029 45 10000 4.12 30 11:36 05.03.2021
6651 Clear 5 1028 52 10000 3.6 350 11:18 05.03.2021
6652 Clear 4 1028 56 10000 3.6 10 10:40 05.03.2021
6653 Clear 3 1028 60 10000 3.09 350 10:22 05.03.2021
6654 Clear 2 1027 60 10000 2.